# Wetter Temperatur Luftdruck Luftfeuchtigkeit Sichtweite Windgeschwindigkeit Windrichtung Zeit
1 Haze 26 1015 44 5000 1 340 09:40 29.01.2020
2 Haze 26 1015 44 5000 1 340 09:21 29.01.2020
3 Haze 26 1016 44 5000 1.5 80 08:56 29.01.2020
4 Haze 26 1016 44 5000 1.5 20 08:38 29.01.2020
5 Haze 26 1016 44 5000 1.5 20 08:20 29.01.2020
6 Haze 26 1017 41 4000 3.1 10 07:44 29.01.2020
7 Haze 25 1017 44 4000 2.1 340 07:24 29.01.2020
8 Haze 24 1018 47 3000 1.5 20 06:39 29.01.2020
9 Haze 24 1018 47 3000 1.5 20 06:21 29.01.2020
10 Haze 23 1018 49 3000 1 10 05:59 29.01.2020
11 Haze 22 1018 56 3000 1 340 05:39 29.01.2020
12 Haze 22 1018 56 3000 1 340 05:21 29.01.2020
13 Haze 20 1017 64 3000 1.5 320 04:37 29.01.2020
14 Haze 17 1016 77 4000 1.5 300 02:43 29.01.2020
15 Haze 17 1015 77 4000 2.21 7 01:49 29.01.2020
16 Haze 17 1014 77 4000 2.31 359 00:41 29.01.2020
17 Haze 17 1014 77 4000 2.31 359 00:23 29.01.2020
18 Haze 17 1014 72 4000 2.31 359 23:44 28.01.2020
19 Haze 18 1013 68 4000 1.9 31 23:21 28.01.2020
20 Haze 17 1014 72 4000 1.9 31 22:57 28.01.2020
21 Haze 18 1014 68 4000 1.9 31 22:39 28.01.2020
22 Haze 18 1014 68 4000 1.9 31 22:20 28.01.2020
23 Haze 18 1014 63 4000 1.9 31 21:42 28.01.2020
24 Haze 18 1014 68 4000 1.9 31 21:20 28.01.2020
25 Haze 18 1014 63 4000 1.9 31 20:57 28.01.2020
26 Haze 19 1014 59 4000 1.5 330 20:39 28.01.2020
27 Haze 19 1014 59 4000 1.5 330 20:21 28.01.2020
28 Haze 21 1014 52 4000 2.6 330 19:39 28.01.2020
29 Haze 21 1014 52 4000 2.6 330 19:20 28.01.2020
30 Haze 21 1015 49 4000 1.5 330 18:58 28.01.2020
31 Haze 21 1014 49 4000 2.1 310 18:39 28.01.2020
32 Haze 21 1014 49 4000 2.1 310 18:21 28.01.2020
33 Haze 21 1014 49 4000 2.6 310 17:56 28.01.2020
34 Haze 22 1014 46 4000 1 290 17:37 28.01.2020
35 Haze 22 1014 46 4000 1 290 17:19 28.01.2020
36 Haze 22 1014 46 4000 2.6 280 16:46 28.01.2020
37 Haze 23 1013 40 4000 2.6 270 16:27 28.01.2020
38 Haze 24 1013 38 4000 3.1 270 15:59 28.01.2020
39 Haze 22 1013 43 4000 1 230 15:40 28.01.2020
40 Haze 22 1013 43 4000 1 230 15:18 28.01.2020
41 Haze 24 1012 41 4000 1 250 14:45 28.01.2020
42 Haze 25 1012 36 4000 2.6 250 14:20 28.01.2020
43 Haze 27 1011 36 4000 4.1 240 13:45 28.01.2020
44 Haze 27 1011 36 4000 4.1 240 13:25 28.01.2020
45 Haze 27 1010 34 4000 5.7 220 12:58 28.01.2020
46 Haze 28 1010 34 4000 5.7 230 12:40 28.01.2020
47 Haze 28 1010 34 4000 5.7 230 12:22 28.01.2020
48 Haze 28 1010 37 4000 6.2 240 11:42 28.01.2020
49 Haze 29 1010 39 4000 6.2 210 11:22 28.01.2020
50 Haze 29 1010 39 3500 5.1 210 10:55 28.01.2020
51 Haze 28 1010 45 3500 2.6 220 10:37 28.01.2020
52 Haze 28 1010 45 3500 2.6 220 10:18 28.01.2020
53 Haze 28 1011 51 3500 3.6 220 09:42 28.01.2020
54 Haze 28 1011 51 3500 3.6 220 09:20 28.01.2020
55 Haze 27 1012 54 3500 1 270 08:46 28.01.2020
56 Haze 27 1012 54 3500 5.56 244 08:26 28.01.2020
57 Haze 26 1012 54 3500 1.5 230 07:57 28.01.2020
58 Haze 25 1013 61 3500 1.5 230 07:35 28.01.2020
59 Haze 25 1013 61 3500 2.1 290 06:48 28.01.2020
60 Haze 25 1013 61 3500 2.1 290 06:48 28.01.2020
61 Haze 23 1013 69 3500 2.6 210 06:25 28.01.2020
62 Haze 22 1013 73 3000 1 240 05:40 28.01.2020
63 Haze 22 1013 73 3000 1 240 05:40 28.01.2020
64 Haze 22 1013 73 3000 1 240 05:22 28.01.2020
65 Haze 19 1012 88 3000 1 80 03:50 28.01.2020
66 Haze 18 1011 88 3000 1 90 02:49 28.01.2020
67 Haze 18 1011 93 3000 2.35 108 02:25 28.01.2020
68 Haze 18 1011 93 3000 2.35 108 01:56 28.01.2020
69 Haze 18 1010 93 3500 2.35 108 01:22 28.01.2020
70 Haze 18 1010 93 3500 2.3 92 00:45 28.01.2020
71 Haze 19 1010 88 3500 2.3 92 00:22 28.01.2020
72 Haze 20 1010 82 3500 2.3 92 23:44 27.01.2020
73 Haze 20 1010 82 3500 1 20 23:20 27.01.2020
74 Haze 19 1010 88 3500 1 140 22:45 27.01.2020
75 Haze 19 1011 88 3500 2.1 170 22:20 27.01.2020
76 Haze 19 1011 88 3500 2.1 170 22:20 27.01.2020
77 Haze 19 1011 88 3500 2.1 170 22:20 27.01.2020
78 Haze 19 1011 88 3500 2.1 170 22:20 27.01.2020
79 Haze 20 1011 82 3500 1 210 21:58 27.01.2020
80 Haze 19 1011 82 3500 2.36 103 21:39 27.01.2020
81 Haze 19 1011 82 3500 2.36 103 21:19 27.01.2020
82 Rain 19 1012 82 4000 3.1 220 20:57 27.01.2020
83 Haze 21 1011 68 4000 2.36 103 20:38 27.01.2020
84 Haze 21 1011 68 4000 2.3 126 20:19 27.01.2020
85 Haze 21 1011 64 4000 2.3 126 19:56 27.01.2020
86 Haze 21 1012 64 4000 1.5 100 19:38 27.01.2020
87 Haze 21 1012 64 4000 1.5 100 19:19 27.01.2020
88 Haze 20 1012 68 4000 1.5 90 18:39 27.01.2020
89 Haze 20 1012 68 4000 1.5 90 18:21 27.01.2020
90 Haze 21 1012 64 4000 2.3 126 17:57 27.01.2020
91 Haze 21 1012 64 4000 2.3 126 17:57 27.01.2020
92 Haze 21 1012 68 4000 1 100 17:38 27.01.2020
93 Haze 21 1012 68 4000 1 100 17:18 27.01.2020
94 Haze 21 1012 68 4000 1 100 16:55 27.01.2020
95 Haze 22 1012 64 4000 1 90 16:36 27.01.2020
96 Haze 22 1012 64 4000 1 90 16:36 27.01.2020
97 Haze 22 1012 64 4000 1 90 16:18 27.01.2020
98 Haze 23 1011 56 4000 1.5 80 15:41 27.01.2020
99 Haze 23 1011 56 4000 1.5 80 15:19 27.01.2020
100 Haze 23 1011 56 4000 1 80 14:56 27.01.2020
101 Haze 24 1011 57 4000 1.5 90 14:37 27.01.2020
102 Haze 24 1011 57 4000 1.5 90 14:37 27.01.2020
103 Haze 25 1011 53 4500 1 110 14:19 27.01.2020
104 Haze 25 1011 53 4500 1 110 13:42 27.01.2020
105 Haze 27 1010 42 5000 1 130 13:22 27.01.2020
106 Haze 29 1010 35 5000 1 170 12:56 27.01.2020
107 Clouds 29 1010 35 6000 1 140 12:38 27.01.2020
108 Clouds 29 1010 35 6000 1 140 12:20 27.01.2020
109 Clear 30 1011 28 6000 2.1 200 11:42 27.01.2020
110 Clear 30 1011 28 6000 2.1 200 11:42 27.01.2020
111 Clear 30 1011 28 6000 2.1 200 11:21 27.01.2020
112 Clear 30 1011 28 6000 2.1 200 11:21 27.01.2020
113 Haze 29 1011 32 5000 1.5 170 10:55 27.01.2020
114 Haze 29 1011 30 4000 1 140 10:36 27.01.2020
115 Haze 29 1011 30 4000 1 140 10:18 27.01.2020
116 Haze 28 1012 32 4000 2.1 160 09:39 27.01.2020
117 Haze 28 1012 32 4000 2.1 160 09:18 27.01.2020
118 Haze 27 1013 36 4000 1 90 08:46 27.01.2020
119 Haze 26 1014 39 4000 1.5 100 08:22 27.01.2020
120 Haze 26 1015 39 4000 1 110 07:55 27.01.2020
121 Haze 25 1015 38 4000 1.5 90 07:35 27.01.2020
122 Haze 24 1015 41 4000 1.5 120 06:55 27.01.2020
123 Haze 23 1016 40 4000 1.5 70 06:27 27.01.2020
124 Haze 21 1016 52 4000 1 100 05:37 27.01.2020
125 Haze 18 1015 68 4000 1.98 62 04:20 27.01.2020
126 Mist 15 1014 77 3000 1.5 10 03:23 27.01.2020
127 Mist 14 1013 82 3000 2.65 56 01:31 27.01.2020
128 Mist 14 1013 82 3000 2.75 57 00:58 27.01.2020
129 Mist 14 1013 82 3000 2.75 57 00:37 27.01.2020
130 Mist 14 1013 82 3000 2.75 57 00:18 27.01.2020
131 Mist 17 1013 67 3000 2.75 57 23:41 26.01.2020
132 Mist 17 1013 67 3000 2.41 46 23:19 26.01.2020
133 Mist 16 1013 72 4000 2.41 46 22:55 26.01.2020
134 Mist 17 1013 67 4000 2.41 46 22:36 26.01.2020
135 Mist 17 1013 67 4000 2.41 46 22:18 26.01.2020
136 Mist 17 1014 72 4000 1 30 21:55 26.01.2020
137 Mist 16 1014 77 4000 2.41 46 21:37 26.01.2020
138 Mist 16 1014 77 4000 2.41 46 21:18 26.01.2020
139 Mist 16 1014 77 4000 2.41 46 21:18 26.01.2020
140 Mist 15 1014 82 4000 1 40 20:55 26.01.2020
141 Haze 17 1014 77 4000 1 30 20:36 26.01.2020
142 Haze 17 1014 77 4000 1 30 20:18 26.01.2020
143 Haze 18 1015 68 4000 2.75 56 19:41 26.01.2020
144 Haze 18 1015 68 4000 2.75 56 19:21 26.01.2020
145 Haze 18 1015 68 4000 2.75 56 18:59 26.01.2020
146 Haze 19 1015 63 4000 2.75 56 18:40 26.01.2020
147 Haze 19 1015 63 4000 2.75 56 18:21 26.01.2020
148 Haze 19 1015 59 4000 2.75 56 17:57 26.01.2020
149 Haze 20 1015 56 4000 2.75 56 17:38 26.01.2020
150 Haze 20 1015 56 4000 0.36 2 17:18 26.01.2020
151 Haze 20 1015 56 4000 0.36 2 17:18 26.01.2020
152 Haze 21 1015 52 4000 1 80 16:57 26.01.2020
153 Haze 21 1015 52 4000 1 80 16:39 26.01.2020
154 Haze 21 1015 52 4000 1 80 16:20 26.01.2020
155 Clear 22 1014 32 0 0.36 2 15:46 26.01.2020
156 Clear 22 1014 32 0 0.36 2 15:22 26.01.2020
157 Clear 22 1014 32 0 0.36 2 14:58 26.01.2020
158 Clear 22 1014 32 0 0.36 2 14:39 26.01.2020
159 Clear 27 1012 27 0 2.14 106 14:19 26.01.2020
160 Clear 27 1012 27 0 2.14 106 13:42 26.01.2020
161 Clear 27 1011 27 0 2.23 103 13:20 26.01.2020
162 Clear 27 1011 27 0 2.23 103 12:57 26.01.2020
163 Clear 27 1011 27 0 2.23 103 12:38 26.01.2020
164 Clear 27 1011 27 0 2.23 103 12:19 26.01.2020
165 Clear 27 1011 27 0 2.23 103 11:57 26.01.2020
166 Clear 27 1011 27 0 2.23 103 11:37 26.01.2020
167 Clear 28 1014 30 6000 2.1 30 11:18 26.01.2020
168 Clear 28 1014 30 6000 2.1 30 10:56 26.01.2020
169 Clear 28 1014 30 6000 2.1 30 10:38 26.01.2020
170 Clear 28 1014 30 6000 2.1 30 10:19 26.01.2020
171 Clear 28 1014 30 6000 2.1 30 10:19 26.01.2020
172 Clear 27 1014 32 6000 1 10 09:56 26.01.2020
173 Clear 27 1015 32 6000 1.5 50 09:37 26.01.2020
174 Clear 27 1015 32 6000 1.5 50 09:19 26.01.2020
175 Clear 25 1016 41 6000 1 340 08:41 26.01.2020
176 Clear 25 1016 41 6000 1 340 08:22 26.01.2020
177 Clear 25 1017 41 6000 1.5 20 07:50 26.01.2020
178 Haze 24 1017 41 5000 2.1 80 07:27 26.01.2020
179 Haze 24 1018 41 5000 1.5 50 06:51 26.01.2020
180 Haze 23 1018 40 5000 2.1 70 06:23 26.01.2020
181 Clear 26 1016 29 0 2.51 55 05:28 26.01.2020
182 Haze 15 1016 77 3000 1.88 34 03:31 26.01.2020
183 Haze 14 1015 82 3000 1.88 34 02:38 26.01.2020
184 Haze 16 1015 72 3000 1 350 01:43 26.01.2020
185 Haze 17 1014 67 3000 2.6 350 01:22 26.01.2020
186 Haze 17 1014 67 3000 1.5 340 00:42 26.01.2020
187 Haze 17 1014 67 3000 1.5 340 00:23 26.01.2020
188 Clear 17 1014 54 0 1.3 21 23:39 25.01.2020
189 Clear 18 1013 50 0 2.58 20 23:20 25.01.2020
190 Clear 18 1013 50 0 2.58 20 22:45 25.01.2020
191 Clear 18 1013 50 0 2.58 20 22:21 25.01.2020
192 Clear 18 1013 50 0 2.58 20 21:59 25.01.2020
193 Clear 18 1013 50 0 2.58 20 21:41 25.01.2020
194 Clear 18 1013 50 0 2.58 20 21:22 25.01.2020
195 Clear 18 1013 50 0 2.58 20 20:55 25.01.2020
196 Clear 18 1013 50 0 2.58 20 20:36 25.01.2020
197 Clear 20 1014 43 0 3.11 26 20:18 25.01.2020
198 Clear 20 1014 43 0 3.11 26 19:42 25.01.2020
199 Clear 20 1014 43 0 3.11 26 19:20 25.01.2020
200 Clear 20 1014 43 0 3.11 26 18:56 25.01.2020
201 Clear 20 1014 43 0 3.11 26 18:38 25.01.2020
202 Clear 20 1014 43 0 3.11 26 18:20 25.01.2020
203 Clear 20 1014 43 0 3.11 26 17:40 25.01.2020
204 Clear 23 1015 39 0 3.67 356 17:19 25.01.2020
205 Clear 23 1015 39 0 3.67 356 16:57 25.01.2020
206 Clear 23 1015 39 0 3.67 356 16:38 25.01.2020
207 Clear 23 1015 39 0 3.67 356 16:19 25.01.2020
208 Clear 23 1015 39 0 3.67 356 15:46 25.01.2020
209 Clear 23 1015 39 0 3.67 356 15:25 25.01.2020
210 Clear 23 1015 39 0 3.67 356 14:57 25.01.2020
211 Clear 23 1015 39 0 3.67 356 14:39 25.01.2020
212 Clear 28 1012 34 0 2.83 294 14:18 25.01.2020
213 Clear 28 1012 34 0 2.83 294 13:41 25.01.2020
214 Clear 28 1012 34 0 2.83 294 13:22 25.01.2020
215 Haze 27 1013 47 4000 2.1 130 12:43 25.01.2020
216 Haze 27 1013 47 4000 2.1 130 12:23 25.01.2020
217 Haze 27 1013 47 4000 2.1 130 11:45 25.01.2020
218 Haze 28 1013 42 4000 2.1 120 11:22 25.01.2020
219 Haze 28 1013 42 5000 1 30 10:58 25.01.2020
220 Haze 29 1014 37 5000 1 200 10:40 25.01.2020
221 Haze 29 1014 37 5000 1 200 10:20 25.01.2020
222 Haze 27 1015 42 5000 1.5 20 09:41 25.01.2020
223 Haze 27 1015 42 5000 1.5 20 09:22 25.01.2020
224 Haze 27 1015 42 5000 1.5 60 08:44 25.01.2020
225 Haze 26 1016 44 5000 1.5 170 08:22 25.01.2020
226 Haze 26 1017 44 5000 1.5 100 07:49 25.01.2020
227 Haze 25 1018 44 4000 1.84 52 06:51 25.01.2020
228 Haze 24 1019 47 4000 1 90 06:27 25.01.2020
229 Haze 23 1019 46 3000 1 140 05:46 25.01.2020
230 Mist 18 1018 77 2500 2.95 44 04:43 25.01.2020
231 Mist 17 1018 82 2500 1 20 03:51 25.01.2020
232 Mist 17 1018 82 2500 1 20 03:51 25.01.2020
233 Haze 15 1017 87 3000 2.95 44 02:54 25.01.2020
234 Haze 14 1016 93 3000 2.52 37 01:59 25.01.2020
235 Haze 14 1016 93 3000 2.52 37 01:59 25.01.2020
236 Haze 16 1016 87 3000 2.52 37 01:37 25.01.2020
237 Haze 15 1016 87 3000 2.23 39 00:43 25.01.2020
238 Haze 16 1016 87 3000 1 330 00:24 25.01.2020
239 Haze 16 1016 82 3000 2.23 39 23:57 24.01.2020
240 Haze 17 1016 82 3000 1 20 23:38 24.01.2020
241 Haze 17 1016 82 3000 1 20 23:38 24.01.2020
242 Haze 17 1016 82 3000 1 20 23:20 24.01.2020
243 Haze 18 1016 77 3000 1 20 22:42 24.01.2020
244 Haze 17 1017 82 3000 2.93 44 22:24 24.01.2020
245 Haze 17 1015 82 3000 2.93 44 21:42 24.01.2020
246 Haze 17 1017 82 3000 2.93 44 21:20 24.01.2020
247 Haze 17 1017 82 3000 2.93 44 20:56 24.01.2020
248 Haze 17 1017 82 3000 2.93 44 20:37 24.01.2020
249 Haze 17 1017 82 3000 3.01 16 20:18 24.01.2020
250 Haze 19 1017 77 3000 3.01 16 19:55 24.01.2020
251 Haze 19 1017 72 3000 1 20 19:37 24.01.2020
252 Haze 19 1017 72 3000 1 20 19:19 24.01.2020
253 Haze 18 1017 82 3000 3.01 16 18:42 24.01.2020
254 Haze 19 1018 77 3000 3.01 16 18:22 24.01.2020
255 Haze 19 1018 77 3000 3.01 16 18:22 24.01.2020
256 Haze 19 1018 72 3000 3.01 16 17:45 24.01.2020
257 Haze 19 1017 77 3000 3.01 16 17:22 24.01.2020
258 Haze 19 1017 72 3000 1.44 157 16:58 24.01.2020
259 Haze 21 1017 60 3000 1.44 157 16:38 24.01.2020
260 Haze 21 1017 60 3000 1.44 157 16:19 24.01.2020
261 Haze 21 1016 60 3000 1 110 15:42 24.01.2020
262 Haze 21 1016 60 3000 1.44 157 15:21 24.01.2020
263 Haze 21 1016 64 3000 1.5 130 14:55 24.01.2020
264 Haze 21 1016 64 3000 1.5 130 14:55 24.01.2020
265 Haze 22 1015 56 3000 1.5 110 14:36 24.01.2020
266 Haze 22 1015 56 3000 1.5 110 14:18 24.01.2020
267 Haze 24 1014 53 4000 2.1 100 13:41 24.01.2020
268 Haze 24 1014 53 4000 2.1 100 13:21 24.01.2020
269 Haze 26 1014 44 4000 1 110 12:43 24.01.2020
270 Haze 26 1014 44 4000 1 110 12:20 24.01.2020
271 Haze 26 1015 44 5000 1.5 140 11:45 24.01.2020
272 Haze 26 1015 44 5000 1 130 11:19 24.01.2020
273 Haze 26 1015 41 5000 1.5 90 10:56 24.01.2020
274 Haze 25 1015 44 5000 1.61 322 10:38 24.01.2020
275 Haze 25 1015 44 5000 1.61 322 10:18 24.01.2020
276 Haze 25 1017 41 5000 1 40 09:41 24.01.2020
277 Haze 25 1017 41 5000 1 40 09:23 24.01.2020
278 Haze 24 1018 38 4500 1 140 08:41 24.01.2020
279 Haze 24 1018 38 4500 1 140 08:21 24.01.2020
280 Haze 23 1019 43 4500 2.1 80 07:58 24.01.2020
281 Haze 22 1019 43 4500 1 60 07:37 24.01.2020
282 Haze 21 1020 43 4500 1.5 60 06:53 24.01.2020
283 Haze 21 1020 43 4500 1.5 60 06:33 24.01.2020
284 Haze 20 1020 45 4000 1 100 05:59 24.01.2020
285 Haze 19 1020 48 4000 2.1 60 05:18 24.01.2020
286 Haze 16 1018 59 2500 1.5 60 02:54 24.01.2020
287 Haze 16 1018 59 2500 1 50 02:27 24.01.2020
288 Haze 16 1018 59 2500 1.5 40 01:49 24.01.2020
289 Haze 16 1017 59 2500 1 30 01:31 24.01.2020
290 Haze 17 1017 59 2500 1 20 00:26 24.01.2020
291 Haze 17 1017 55 2500 1.5 30 23:51 23.01.2020
292 Haze 17 1017 55 2500 1.5 40 23:31 23.01.2020
293 Haze 18 1017 52 2500 2.1 30 22:59 23.01.2020
294 Haze 18 1018 55 2500 2.6 30 22:38 23.01.2020
295 Haze 18 1018 55 2500 2.6 30 22:19 23.01.2020
296 Haze 18 1018 59 2500 1 30 21:58 23.01.2020
297 Haze 18 1018 59 2500 1 30 21:58 23.01.2020
298 Haze 18 1018 63 2500 4.67 22 21:39 23.01.2020
299 Haze 18 1018 63 2500 4.67 22 21:20 23.01.2020
300 Haze 19 1018 59 2500 1.5 20 20:59 23.01.2020
301 Haze 19 1018 55 2500 1 20 20:39 23.01.2020
302 Haze 19 1018 55 2500 1 20 20:20 23.01.2020
303 Haze 19 1018 55 2500 1.5 30 19:56 23.01.2020
304 Haze 20 1019 56 2500 2.6 20 19:38 23.01.2020
305 Haze 20 1019 56 2500 2.6 20 19:19 23.01.2020
306 Haze 21 1019 56 2500 2.6 40 18:43 23.01.2020
307 Haze 21 1019 56 2500 2.6 40 18:21 23.01.2020
308 Haze 21 1019 56 2000 2.6 30 17:59 23.01.2020
309 Haze 22 1019 53 2000 2.6 40 17:40 23.01.2020
310 Haze 22 1019 53 2000 2.6 40 17:20 23.01.2020
311 Haze 22 1018 56 2000 3.6 50 16:56 23.01.2020
312 Haze 23 1018 60 2000 3.1 50 16:37 23.01.2020
313 Haze 23 1018 60 2000 3.1 50 16:18 23.01.2020
314 Haze 23 1018 69 2000 2.1 60 15:55 23.01.2020
315 Haze 23 1017 69 2000 2.1 60 15:36 23.01.2020
316 Haze 23 1017 69 2000 2.1 60 15:18 23.01.2020
317 Haze 23 1017 69 2000 2.1 60 15:18 23.01.2020
318 Haze 23 1017 73 2000 2.1 80 14:54 23.01.2020
319 Haze 23 1016 73 2000 1.5 80 14:36 23.01.2020
320 Haze 23 1016 73 2000 1.5 80 14:18 23.01.2020
321 Haze 24 1015 69 2000 2.1 80 13:39 23.01.2020
322 Haze 24 1015 69 2000 2.1 80 13:39 23.01.2020
323 Haze 24 1015 69 2000 2.1 80 13:20 23.01.2020
324 Haze 25 1015 65 2000 1 70 12:47 23.01.2020
325 Haze 25 1015 65 2000 1.5 60 12:25 23.01.2020
326 Haze 26 1015 61 2000 2.1 50 11:59 23.01.2020
327 Haze 26 1015 61 2000 1.5 80 11:39 23.01.2020
328 Haze 26 1015 61 2000 1.5 80 11:19 23.01.2020
329 Haze 26 1015 61 2000 1.5 80 11:19 23.01.2020
330 Haze 26 1016 61 2000 1.5 110 10:45 23.01.2020
331 Haze 25 1016 65 2000 2.1 60 10:23 23.01.2020
332 Haze 26 1017 65 2000 2.6 60 09:59 23.01.2020
333 Haze 25 1017 65 2000 2.1 100 09:38 23.01.2020
334 Haze 25 1017 65 2000 2.1 100 09:20 23.01.2020
335 Haze 25 1018 65 2000 2.6 90 08:41 23.01.2020
336 Haze 25 1018 65 2000 2.6 90 08:22 23.01.2020
337 Haze 24 1019 69 2000 2.6 60 07:45 23.01.2020
338 Mist 24 1019 64 1500 1.5 70 07:26 23.01.2020
339 Mist 23 1020 69 1500 1.5 90 06:54 23.01.2020
340 Mist 22 1021 73 1500 2.6 50 06:23 23.01.2020
341 Fog 22 1021 73 1200 2.6 70 05:58 23.01.2020
342 Fog 22 1021 73 1200 2.6 70 05:58 23.01.2020
343 Fog 20 1019 88 1200 2.1 50 04:24 23.01.2020
344 Mist 19 1018 93 2000 3.32 47 02:35 23.01.2020
345 Mist 19 1016 93 2000 1.5 30 01:41 23.01.2020
346 Mist 20 1016 94 2000 2.38 27 00:28 23.01.2020
347 Mist 20 1016 94 2000 2.38 27 23:48 22.01.2020
348 Mist 20 1016 94 2000 2.38 27 23:30 22.01.2020
349 Mist 20 1016 94 2000 1.09 218 22:59 22.01.2020
350 Mist 20 1017 94 2000 1.09 218 22:41 22.01.2020
351 Mist 20 1017 94 2000 1.09 218 22:23 22.01.2020
352 Mist 20 1017 94 2500 1.09 218 21:41 22.01.2020
353 Mist 20 1017 94 2500 1.09 218 21:22 22.01.2020
354 Mist 20 1017 94 3000 2.6 20 20:58 22.01.2020
355 Mist 20 1018 88 3000 0.63 184 20:39 22.01.2020
356 Mist 20 1018 88 3000 1.01 201 20:21 22.01.2020
357 Mist 20 1018 88 3000 1 360 19:57 22.01.2020
358 Mist 21 1018 83 3000 1.01 201 19:39 22.01.2020
359 Mist 21 1018 83 3000 1.01 201 19:19 22.01.2020
360 Mist 21 1018 83 4000 1 330 18:57 22.01.2020
361 Haze 21 1018 83 4000 1.01 201 18:38 22.01.2020
362 Haze 21 1018 83 4000 1.01 201 18:19 22.01.2020
363 Haze 22 1018 78 4000 1.01 201 17:54 22.01.2020
364 Haze 22 1018 78 4000 1 200 17:36 22.01.2020
365 Haze 22 1018 78 4000 1 200 17:18 22.01.2020
366 Haze 22 1018 78 4000 1 200 17:18 22.01.2020
367 Haze 23 1017 73 4000 1.5 170 16:43 22.01.2020
368 Haze 23 1017 73 4000 1.5 160 16:22 22.01.2020
369 Haze 23 1017 73 4000 1.5 170 15:58 22.01.2020
370 Haze 23 1017 73 4000 1.5 160 15:39 22.01.2020
371 Haze 23 1017 73 4000 1.5 160 15:21 22.01.2020
372 Haze 23 1017 73 4000 1.5 160 15:21 22.01.2020
373 Haze 24 1017 69 3000 1.5 160 14:54 22.01.2020
374 Haze 25 1016 65 3000 1 170 14:36 22.01.2020
375 Haze 25 1016 65 3000 1 170 14:36 22.01.2020
376 Haze 25 1016 65 3000 1 170 14:18 22.01.2020
377 Haze 27 1016 57 3000 1 180 13:38 22.01.2020
378 Haze 27 1016 57 3000 1 180 13:20 22.01.2020
379 Haze 27 1016 57 3000 1.5 180 12:58 22.01.2020
380 Haze 28 1016 54 3000 2.1 170 12:40 22.01.2020
381 Haze 28 1016 54 3000 2.1 170 12:40 22.01.2020
382 Haze 28 1016 54 3000 2.1 170 12:20 22.01.2020
383 Haze 28 1016 54 3000 3.1 200 11:58 22.01.2020
384 Haze 28 1016 54 3000 2.6 180 11:40 22.01.2020
385 Haze 28 1016 54 3000 2.6 180 11:19 22.01.2020
386 Haze 28 1016 54 3000 2.6 180 11:19 22.01.2020
387 Haze 28 1016 54 3000 3.1 170 10:59 22.01.2020
388 Haze 28 1017 54 3000 1.5 240 10:41 22.01.2020
389 Haze 28 1017 54 3000 1.5 240 10:18 22.01.2020
390 Haze 28 1017 54 3000 3.1 160 09:42 22.01.2020
391 Haze 28 1018 54 3000 2.6 180 09:24 22.01.2020
392 Haze 27 1019 57 3000 3.6 180 08:57 22.01.2020
393 Haze 27 1019 57 3000 1.5 160 08:38 22.01.2020
394 Haze 27 1019 57 3000 1.5 160 08:20 22.01.2020
395 Mist 25 1021 69 2000 3.97 174 07:46 22.01.2020
396 Mist 25 1021 69 2000 3.97 174 07:27 22.01.2020
397 Mist 23 1021 78 1000 3.97 174 06:38 22.01.2020
398 Mist 23 1021 78 1000 3.97 174 06:20 22.01.2020
399 Mist 23 1021 78 1000 3.97 174 06:20 22.01.2020
400 Fog 21 1021 88 1000 2.65 149 05:19 22.01.2020
401 Fog 17 1019 100 1000 2.65 149 03:29 22.01.2020
402 Mist 17 1018 100 1500 2.65 149 02:49 22.01.2020
403 Mist 17 1017 100 1500 1.5 80 01:35 22.01.2020
404 Mist 18 1017 93 1500 1.37 137 00:42 22.01.2020
405 Mist 18 1017 93 1500 1.37 137 00:23 22.01.2020
406 Mist 18 1017 93 1500 1.37 137 23:38 21.01.2020
407 Mist 18 1017 93 1500 1.37 137 23:38 21.01.2020
408 Mist 18 1017 93 1500 1.78 128 23:20 21.01.2020
409 Mist 18 1017 93 1500 1.78 128 22:42 21.01.2020
410 Mist 19 1017 93 2000 1 10 22:24 21.01.2020
411 Mist 19 1018 93 2000 1.78 128 21:59 21.01.2020
412 Mist 19 1018 93 2000 1.78 128 21:59 21.01.2020
413 Haze 19 1018 93 2500 1.78 128 21:40 21.01.2020
414 Haze 19 1018 93 2500 1.78 128 21:21 21.01.2020
415 Haze 19 1018 93 2500 1.78 128 20:59 21.01.2020
416 Haze 19 1018 93 2500 1.78 128 20:39 21.01.2020
417 Haze 19 1018 93 2500 1.94 81 20:20 21.01.2020
418 Haze 19 1018 93 2500 1.94 81 19:58 21.01.2020
419 Haze 19 1018 93 2500 1.94 81 19:58 21.01.2020
420 Haze 20 1018 88 2500 1.94 81 19:40 21.01.2020
421 Haze 20 1018 88 2500 1.94 81 19:21 21.01.2020
422 Haze 21 1018 88 2500 1.94 81 18:57 21.01.2020
423 Haze 21 1019 88 2500 1.94 81 18:39 21.01.2020
424 Haze 21 1019 88 2500 1.94 81 18:21 21.01.2020
425 Haze 21 1019 88 2500 1.94 81 17:57 21.01.2020
426 Haze 21 1019 88 2500 1.5 100 17:38 21.01.2020
427 Haze 21 1019 88 2500 1.5 100 17:18 21.01.2020
428 Haze 22 1018 83 2500 1.5 100 16:38 21.01.2020
429 Haze 22 1018 83 2500 1.5 100 16:19 21.01.2020
430 Haze 22 1018 83 2500 1.5 100 16:19 21.01.2020
431 Haze 22 1018 83 2500 1.5 90 15:59 21.01.2020
432 Haze 23 1018 78 2500 1.5 100 15:38 21.01.2020
433 Haze 23 1018 78 2500 1.5 100 15:19 21.01.2020
434 Haze 23 1017 78 2500 1.06 100 14:39 21.01.2020
435 Haze 23 1017 78 2500 1.49 241 14:21 21.01.2020
436 Haze 24 1016 73 2500 1.49 241 13:43 21.01.2020
437 Haze 25 1016 65 2500 1 80 13:20 21.01.2020
438 Haze 27 1016 57 2500 1 150 12:58 21.01.2020
439 Haze 27 1016 54 2500 1.5 100 12:39 21.01.2020
440 Haze 27 1016 54 2500 1.5 100 12:21 21.01.2020
441 Haze 27 1015 57 2500 1.5 120 11:55 21.01.2020
442 Haze 27 1016 57 2500 1.5 130 11:36 21.01.2020
443 Haze 27 1016 57 2500 1.5 130 11:18 21.01.2020
444 Haze 27 1016 57 2500 1.5 150 10:42 21.01.2020
445 Haze 27 1016 57 2500 1.5 150 10:22 21.01.2020
446 Haze 26 1017 61 2500 3.1 150 09:43 21.01.2020
447 Haze 26 1017 61 2500 1 180 09:24 21.01.2020
448 Haze 25 1018 65 2500 2.1 140 08:58 21.01.2020
449 Haze 24 1019 64 2500 2.1 60 08:40 21.01.2020
450 Haze 24 1019 64 2500 2.1 60 08:19 21.01.2020
451 Haze 23 1019 64 2500 1 100 07:42 21.01.2020
452 Haze 24 1019 64 2500 1.5 100 07:42 21.01.2020
453 Haze 23 1019 64 2500 1 100 07:23 21.01.2020
454 Haze 23 1019 64 2500 1 100 07:23 21.01.2020
455 Haze 22 1020 68 2000 2.1 100 06:56 21.01.2020
456 Haze 21 1021 68 2000 1 90 06:37 21.01.2020
457 Haze 21 1021 64 2000 2.1 50 05:50 21.01.2020
458 Mist 17 1020 82 1500 2.71 70 04:41 21.01.2020
459 Mist 17 1020 82 1500 2.71 70 04:19 21.01.2020
460 Mist 14 1017 93 2000 2.71 70 02:26 21.01.2020
461 Mist 14 1017 87 2000 1.77 43 01:31 21.01.2020
462 Mist 15 1016 87 2000 1.72 64 00:41 21.01.2020
463 Mist 15 1016 87 2000 1.72 64 00:21 21.01.2020
464 Mist 14 1016 93 2000 1.72 64 23:41 20.01.2020
465 Mist 14 1016 93 2000 2.73 51 23:19 20.01.2020
466 Mist 14 1017 93 2000 2.73 51 22:59 20.01.2020
467 Mist 16 1017 87 2000 2.73 51 22:39 20.01.2020
468 Mist 16 1017 87 2000 2.73 51 22:21 20.01.2020
469 Mist 16 1017 87 2000 2.73 51 21:58 20.01.2020
470 Mist 16 1017 87 2000 1 10 21:38 20.01.2020
471 Mist 16 1017 87 2000 1 10 21:19 20.01.2020
472 Mist 16 1018 87 2000 2.1 10 20:57 20.01.2020
473 Mist 17 1018 82 2000 1.5 20 20:38 20.01.2020
474 Mist 17 1018 82 2000 1.5 20 20:19 20.01.2020
475 Mist 16 1018 87 2000 1 30 19:56 20.01.2020
476 Mist 16 1018 87 2000 2.29 89 19:38 20.01.2020
477 Mist 16 1018 87 2000 2.29 89 19:18 20.01.2020
478 Mist 17 1018 82 2000 2.29 89 18:44 20.01.2020
479 Mist 16 1018 82 2000 2.29 89 18:23 20.01.2020
480 Haze 16 1018 82 2000 2.29 89 17:58 20.01.2020
481 Haze 17 1018 82 2000 2.29 89 17:36 20.01.2020
482 Haze 17 1018 82 2000 2.29 89 17:36 20.01.2020
483 Haze 17 1018 82 2000 1.69 62 17:18 20.01.2020
484 Haze 17 1018 77 2000 1.69 62 16:43 20.01.2020
485 Haze 18 1018 72 2000 1.69 62 16:25 20.01.2020
486 Haze 17 1017 77 2000 1.69 62 15:57 20.01.2020
487 Haze 18 1017 77 2000 1 100 15:39 20.01.2020
488 Haze 18 1017 77 2000 1 100 15:20 20.01.2020
489 Haze 19 1017 68 2000 1 140 14:41 20.01.2020
490 Haze 19 1017 68 2000 1 140 14:23 20.01.2020
491 Haze 20 1016 72 2000 1.5 80 13:59 20.01.2020
492 Haze 21 1016 60 2000 1.23 26 13:40 20.01.2020
493 Haze 21 1016 60 2000 0.64 43 13:22 20.01.2020
494 Haze 21 1016 60 2000 0.64 43 12:47 20.01.2020
495 Haze 21 1016 56 2500 0.64 43 12:28 20.01.2020
496 Haze 21 1016 56 2500 0.64 43 12:28 20.01.2020
497 Haze 21 1016 56 2500 0.64 43 11:59 20.01.2020
498 Haze 21 1016 60 2500 1 80 11:39 20.01.2020
499 Haze 21 1016 60 2500 1 80 11:21 20.01.2020
500 Haze 21 1016 60 2500 1 80 10:48 20.01.2020
501 Haze 21 1016 60 2500 1 80 10:48 20.01.2020
502 Haze 21 1017 56 2500 1 80 10:22 20.01.2020
503 Haze 21 1017 56 2500 1 40 09:57 20.01.2020
504 Haze 20 1017 52 3000 2.6 100 09:39 20.01.2020
505 Haze 20 1017 52 3000 2.6 100 09:20 20.01.2020
506 Haze 20 1018 56 3000 0.88 98 08:44 20.01.2020
507 Haze 20 1019 52 3000 1 80 08:26 20.01.2020
508 Haze 19 1019 55 3000 1 70 07:45 20.01.2020
509 Haze 19 1020 55 3500 1.5 40 07:25 20.01.2020
510 Haze 19 1020 55 4000 2.1 40 06:48 20.01.2020
511 Haze 18 1021 55 3500 1.5 30 06:27 20.01.2020
512 Haze 17 1020 59 3000 1.5 30 05:42 20.01.2020
513 Haze 17 1020 59 3000 1.5 30 05:22 20.01.2020
514 Haze 15 1020 67 2500 2.6 40 04:42 20.01.2020
515 Haze 14 1018 71 2000 1.5 20 02:57 20.01.2020
516 Haze 14 1017 71 3000 2.1 20 01:54 20.01.2020
517 Haze 15 1016 67 3000 2.6 10 01:35 20.01.2020
518 Haze 15 1016 62 3000 3.1 10 00:44 20.01.2020
519 Haze 15 1016 67 3000 1.5 10 00:23 20.01.2020
520 Haze 15 1016 77 2500 2.1 20 23:39 19.01.2020
521 Haze 15 1016 77 2500 2.1 20 23:20 19.01.2020
522 Haze 15 1017 77 2500 2.1 20 22:57 19.01.2020
523 Haze 15 1017 77 2500 1.5 30 22:38 19.01.2020
524 Haze 15 1017 77 2500 1.5 30 22:20 19.01.2020
525 Haze 15 1017 77 2500 1 30 21:56 19.01.2020
526 Haze 15 1017 77 2500 1 30 21:38 19.01.2020
527 Haze 15 1017 77 2500 1 30 21:20 19.01.2020
528 Haze 16 1017 72 2500 1.5 30 20:57 19.01.2020
529 Haze 16 1018 77 2500 1.5 30 20:39 19.01.2020
530 Haze 16 1018 77 2500 1.5 30 20:20 19.01.2020
531 Haze 16 1018 77 2500 1.5 30 19:57 19.01.2020
532 Haze 16 1018 77 2500 2.6 30 19:38 19.01.2020
533 Haze 16 1018 77 2500 2.6 30 19:20 19.01.2020
534 Haze 17 1018 77 2500 2.6 30 18:56 19.01.2020
535 Haze 17 1018 77 2500 2.1 30 18:37 19.01.2020
536 Haze 17 1018 77 2500 2.1 30 18:19 19.01.2020
537 Haze 17 1018 77 2500 2.1 30 17:58 19.01.2020
538 Haze 18 1018 72 2500 3.1 50 17:39 19.01.2020
539 Haze 18 1018 72 2500 3.1 50 17:20 19.01.2020
540 Haze 18 1018 77 2500 3.1 50 16:57 19.01.2020
541 Haze 18 1018 82 2500 2.1 50 16:38 19.01.2020
542 Haze 18 1018 82 2500 2.1 50 16:19 19.01.2020
543 Haze 19 1017 77 2500 3.6 60 15:57 19.01.2020
544 Haze 19 1017 77 2500 4.1 60 15:37 19.01.2020
545 Haze 19 1017 77 2500 4.1 60 15:19 19.01.2020
546 Haze 19 1016 82 2500 3.1 70 14:57 19.01.2020
547 Haze 20 1016 77 2000 2.1 60 14:38 19.01.2020
548 Haze 20 1016 77 2000 2.1 60 14:18 19.01.2020
549 Haze 20 1016 77 2000 1 60 13:55 19.01.2020
550 Haze 21 1016 77 2000 1.5 50 13:37 19.01.2020
551 Haze 21 1016 77 2000 1.5 50 13:18 19.01.2020
552 Haze 22 1015 73 2000 2.1 80 12:42 19.01.2020
553 Haze 22 1015 73 2000 2.1 80 12:23 19.01.2020
554 Haze 23 1015 69 2000 1.5 60 11:58 19.01.2020
555 Haze 23 1016 69 2000 1 50 11:39 19.01.2020
556 Haze 23 1016 69 2000 1 50 11:20 19.01.2020
557 Haze 23 1016 69 2000 1 60 10:55 19.01.2020
558 Haze 23 1016 64 1800 2.1 60 10:37 19.01.2020
559 Haze 22 1016 68 1800 2.6 50 10:18 19.01.2020
560 Mist 22 1017 73 1500 3.6 70 09:41 19.01.2020
561 Mist 22 1017 73 1500 3.6 70 09:23 19.01.2020
562 Mist 22 1017 68 1500 2.1 50 08:57 19.01.2020
563 Mist 21 1018 73 1500 1.5 90 08:38 19.01.2020
564 Mist 21 1018 73 1500 1.5 90 08:20 19.01.2020
565 Mist 21 1019 68 1500 1.5 50 07:40 19.01.2020
566 Mist 21 1019 68 1500 1.5 50 07:21 19.01.2020
567 Mist 20 1019 72 1500 2.1 60 06:44 19.01.2020
568 Mist 18 1018 82 1500 1.5 10 04:41 19.01.2020
569 Mist 17 1016 88 2000 1.5 10 02:37 19.01.2020
570 Mist 17 1016 88 2000 1.5 10 02:19 19.01.2020
571 Mist 16 1015 93 2000 2.1 320 01:24 19.01.2020
572 Mist 16 1015 93 2000 3.31 20 00:45 19.01.2020
573 Mist 17 1014 93 2000 1 30 00:26 19.01.2020
574 Mist 17 1014 93 2000 1 30 23:55 18.01.2020
575 Mist 18 1015 88 2000 2.1 30 23:36 18.01.2020
576 Mist 18 1015 88 2000 2.1 30 23:18 18.01.2020
577 Mist 18 1015 88 2000 2.1 30 22:54 18.01.2020
578 Mist 18 1015 88 2000 2.1 30 22:54 18.01.2020
579 Mist 18 1015 88 2000 2.1 30 22:54 18.01.2020
580 Mist 18 1015 93 2000 2.1 10 22:36 18.01.2020
581 Mist 18 1015 93 2000 2.1 10 22:36 18.01.2020
582 Mist 18 1015 93 2000 2.1 10 22:18 18.01.2020
583 Mist 19 1015 88 2000 3.1 360 21:55 18.01.2020
584 Mist 19 1015 88 2000 2.1 20 21:36 18.01.2020
585 Mist 19 1015 88 2000 2.1 20 21:18 18.01.2020
586 Mist 19 1015 93 2000 1 20 20:41 18.01.2020
587 Mist 19 1015 93 2000 1 20 20:19 18.01.2020
588 Mist 19 1015 93 2000 1.5 10 19:44 18.01.2020
589 Mist 19 1015 93 2000 1.5 10 19:44 18.01.2020
590 Mist 19 1016 93 2000 2.1 10 19:25 18.01.2020
591 Mist 19 1016 93 2000 2.1 10 19:25 18.01.2020
592 Mist 19 1016 88 2000 0.86 84 18:56 18.01.2020
593 Mist 19 1016 93 2000 0.86 84 18:37 18.01.2020
594 Mist 19 1016 88 2000 0.86 84 18:19 18.01.2020
595 Mist 20 1016 82 2500 0.86 84 17:41 18.01.2020
596 Mist 20 1016 82 2500 0.96 89 17:21 18.01.2020
597 Mist 19 1016 93 2500 0.96 89 16:57 18.01.2020
598 Mist 20 1016 88 2500 1 100 16:38 18.01.2020
599 Mist 20 1016 88 2500 1 100 16:20 18.01.2020
600 Haze 21 1015 83 2500 0.96 89 15:47 18.01.2020
601 Haze 21 1015 83 2500 0.96 89 15:26 18.01.2020
602 Haze 21 1015 83 2500 0.96 89 15:26 18.01.2020
603 Haze 21 1015 77 2500 0.96 89 15:00 18.01.2020
604 Haze 22 1014 78 2500 1 100 14:41 18.01.2020
605 Haze 22 1014 78 2500 1 100 14:19 18.01.2020
606 Haze 23 1014 73 2500 1 100 13:57 18.01.2020
607 Haze 24 1014 69 2500 0.95 157 13:36 18.01.2020
608 Haze 24 1014 69 2500 0.95 157 13:36 18.01.2020
609 Haze 24 1014 69 2500 0.55 185 13:18 18.01.2020
610 Haze 24 1014 69 2500 0.55 185 13:18 18.01.2020
611 Haze 25 1014 61 2500 0.55 185 12:41 18.01.2020
612 Haze 25 1014 61 2500 0.55 185 12:21 18.01.2020
613 Haze 25 1014 61 2500 1 120 11:56 18.01.2020
614 Haze 25 1014 61 2500 1 140 11:38 18.01.2020
615 Haze 25 1014 61 2500 1 140 11:19 18.01.2020
616 Haze 24 1015 64 2500 1 140 10:42 18.01.2020
617 Haze 24 1015 64 2500 1 140 10:20 18.01.2020
618 Haze 25 1015 61 2500 2.52 214 09:54 18.01.2020
619 Haze 24 1016 64 2500 1.5 110 09:36 18.01.2020
620 Haze 24 1016 60 2500 2.1 110 08:59 18.01.2020
621 Haze 24 1016 60 2500 3.1 70 08:41 18.01.2020
622 Haze 24 1016 60 2500 3.1 70 08:20 18.01.2020
623 Haze 23 1017 60 2000 1 130 07:52 18.01.2020
624 Haze 22 1018 60 2000 1.5 60 07:32 18.01.2020
625 Haze 22 1018 60 2000 1.5 50 06:48 18.01.2020
626 Haze 20 1018 64 2000 1 20 06:19 18.01.2020
627 Haze 20 1018 64 2000 1 20 06:19 18.01.2020
628 Mist 19 1018 72 1800 1 50 05:30 18.01.2020
629 Mist 17 1016 88 1800 3.76 44 03:39 18.01.2020
630 Mist 17 1015 88 2500 2.35 31 02:20 18.01.2020
631 Mist 18 1015 82 2500 2.6 350 01:36 18.01.2020
632 Mist 18 1014 88 2500 1 360 00:38 18.01.2020
633 Mist 18 1014 88 2500 1 360 00:19 18.01.2020
634 Mist 18 1014 88 2500 1.5 10 23:44 17.01.2020
635 Haze 18 1014 93 3000 1.5 340 23:20 17.01.2020
636 Haze 18 1014 93 3000 2.1 20 22:59 17.01.2020
637 Haze 19 1015 88 3000 1 320 22:40 17.01.2020
638 Haze 19 1015 88 3000 1 320 22:19 17.01.2020
639 Haze 19 1015 88 3000 1.5 20 21:42 17.01.2020
640 Haze 19 1015 88 3000 1.5 20 21:24 17.01.2020
641 Haze 20 1015 82 3000 2.1 20 20:59 17.01.2020
642 Haze 20 1015 82 3000 1 40 20:40 17.01.2020
643 Haze 20 1015 82 3000 1 40 20:20 17.01.2020
644 Haze 20 1016 82 3000 2.1 60 19:57 17.01.2020
645 Haze 20 1016 88 3000 1 50 19:38 17.01.2020
646 Haze 20 1016 88 3000 1 50 19:19 17.01.2020
647 Haze 20 1016 88 3000 1.5 50 18:57 17.01.2020
648 Haze 21 1016 83 3000 1.5 50 18:36 17.01.2020
649 Haze 21 1016 83 3000 1.5 50 18:18 17.01.2020
650 Haze 21 1016 83 3000 2.1 90 17:39 17.01.2020
651 Haze 21 1016 83 3000 2.1 90 17:21 17.01.2020
652 Haze 21 1016 83 3000 1.5 90 16:44 17.01.2020
653 Haze 22 1016 78 3000 1.34 273 16:21 17.01.2020
654 Haze 22 1016 73 3000 1.34 273 15:58 17.01.2020
655 Haze 22 1015 73 3000 1.34 273 15:40 17.01.2020
656 Haze 22 1015 73 3000 1.34 273 15:40 17.01.2020
657 Haze 22 1015 73 3000 1.34 273 15:21 17.01.2020
658 Haze 22 1014 73 2500 1.34 273 14:43 17.01.2020
659 Haze 22 1014 73 2500 1.85 213 14:24 17.01.2020
660 Haze 23 1014 69 2500 1 140 13:45 17.01.2020
661 Haze 24 1014 64 2500 1.85 213 13:23 17.01.2020
662 Haze 25 1014 57 2500 1 140 12:47 17.01.2020
663 Haze 25 1014 57 2500 1 210 12:23 17.01.2020
664 Haze 25 1014 57 2500 2.18 232 11:43 17.01.2020
665 Haze 25 1014 57 2500 3.72 222 11:20 17.01.2020
666 Haze 25 1014 57 2500 3.72 222 11:20 17.01.2020
667 Haze 25 1014 57 2500 3.72 222 10:58 17.01.2020
668 Haze 25 1014 57 2500 3.1 220 10:40 17.01.2020
669 Haze 25 1014 57 2500 3.1 220 10:21 17.01.2020
670 Haze 25 1014 57 2000 2.6 180 09:56 17.01.2020
671 Haze 25 1015 57 2000 1.5 170 09:37 17.01.2020
672 Haze 25 1015 57 2000 1.5 170 09:18 17.01.2020
673 Haze 24 1016 57 2000 3.72 222 08:42 17.01.2020
674 Haze 24 1016 57 2000 4.68 215 08:23 17.01.2020
675 Haze 23 1016 64 2000 1.5 50 07:49 17.01.2020
676 Haze 23 1017 60 2500 1.5 90 07:30 17.01.2020
677 Haze 22 1017 60 2500 1 30 06:56 17.01.2020
678 Haze 22 1017 64 2500 1.5 30 06:37 17.01.2020
679 Haze 20 1017 64 2500 2.1 350 05:22 17.01.2020
680 Clouds 20 1015 66 0 2.65 137 03:38 17.01.2020
681 Clouds 20 1015 66 0 2.65 137 02:43 17.01.2020
682 Clouds 20 1013 58 0 2.09 110 01:45 17.01.2020
683 Clouds 19 1013 62 0 2.6 128 01:27 17.01.2020
684 Clouds 19 1013 62 0 2.6 128 00:43 17.01.2020
685 Haze 19 1013 72 3000 2.1 320 00:19 17.01.2020
686 Haze 19 1013 72 3000 2.1 320 23:41 16.01.2020
687 Haze 19 1013 72 3000 2.1 320 23:23 16.01.2020
688 Haze 19 1014 77 3000 2.1 320 22:43 16.01.2020
689 Haze 19 1014 77 3000 1.81 220 22:22 16.01.2020
690 Haze 18 1014 82 3000 1.81 220 21:57 16.01.2020
691 Haze 18 1014 77 3000 1.81 220 21:38 16.01.2020
692 Haze 18 1014 77 3000 1.81 220 21:38 16.01.2020
693 Haze 18 1014 77 3000 1.81 220 21:19 16.01.2020
694 Haze 18 1014 77 3000 1.81 220 20:58 16.01.2020
695 Haze 19 1014 72 3000 1.81 220 20:39 16.01.2020
696 Haze 19 1014 72 3000 3.92 173 20:19 16.01.2020
697 Haze 19 1014 72 3000 1 150 19:56 16.01.2020
698 Haze 20 1014 68 3000 3.92 173 19:38 16.01.2020
699 Haze 20 1014 68 3000 3.92 173 19:19 16.01.2020
700 Haze 19 1014 72 3000 1 130 18:55 16.01.2020
701 Haze 19 1014 72 3000 1 130 18:37 16.01.2020
702 Haze 19 1014 72 3000 1 130 18:18 16.01.2020
703 Haze 20 1014 68 3000 2.1 130 17:42 16.01.2020
704 Haze 20 1014 68 3000 2.1 130 17:23 16.01.2020
705 Haze 19 1014 72 3000 1.5 130 16:57 16.01.2020
706 Haze 20 1014 68 3000 1.5 140 16:39 16.01.2020
707 Haze 20 1014 68 3000 1.5 140 16:19 16.01.2020
708 Haze 21 1013 64 3000 1.5 130 15:44 16.01.2020
709 Haze 21 1013 64 3000 1.5 150 15:23 16.01.2020
710 Haze 22 1013 60 3000 1.5 140 14:57 16.01.2020
711 Haze 22 1013 60 3000 1.5 140 14:57 16.01.2020
712 Haze 22 1013 64 3000 1.5 120 14:39 16.01.2020
713 Haze 22 1013 64 3000 1.5 120 14:20 16.01.2020
714 Haze 23 1013 60 3000 2.1 160 13:45 16.01.2020
715 Haze 24 1012 57 3000 2.1 140 13:26 16.01.2020
716 Haze 25 1012 53 4000 1.5 200 12:47 16.01.2020
717 Haze 26 1012 50 4000 1.5 210 12:29 16.01.2020
718 Haze 26 1012 50 4000 1.5 210 12:29 16.01.2020
719 Haze 26 1012 50 4000 3.1 210 11:59 16.01.2020
720 Haze 26 1012 47 4000 4.1 220 11:41 16.01.2020
721 Haze 26 1012 47 4000 4.1 220 11:23 16.01.2020
722 Haze 26 1012 44 4000 5.1 220 10:55 16.01.2020
723 Haze 26 1013 47 4000 3.1 180 10:36 16.01.2020
724 Haze 26 1013 47 4000 3.1 180 10:18 16.01.2020
725 Haze 26 1013 47 4000 4.1 200 09:42 16.01.2020
726 Haze 26 1013 47 3500 4.6 190 09:24 16.01.2020
727 Haze 26 1014 47 3500 4.1 250 08:56 16.01.2020
728 Haze 25 1014 50 3500 3.6 200 08:36 16.01.2020
729 Haze 25 1014 50 3500 3.6 200 08:18 16.01.2020
730 Haze 25 1016 53 2500 2.6 190 07:42 16.01.2020
731 Haze 25 1016 53 2500 2.6 190 07:23 16.01.2020
732 Haze 24 1016 60 2500 3.1 200 06:48 16.01.2020
733 Haze 22 1017 68 2000 4.1 200 06:28 16.01.2020
734 Haze 21 1017 73 2000 2.1 180 05:46 16.01.2020
735 Mist 19 1016 88 1200 3.27 174 04:46 16.01.2020
736 Mist 16 1015 93 1500 1 320 03:29 16.01.2020
737 Mist 16 1014 87 2000 3.27 174 02:44 16.01.2020
738 Haze 17 1013 88 3000 1.5 130 01:28 16.01.2020
739 Haze 16 1013 93 3000 1.5 100 00:41 16.01.2020
740 Haze 16 1013 93 3000 1.5 100 00:19 16.01.2020
741 Haze 15 1013 87 3000 2.6 140 23:40 15.01.2020
742 Haze 15 1013 87 3000 2.6 140 23:20 15.01.2020
743 Haze 15 1013 87 3000 2.6 140 23:19 15.01.2020
744 Haze 16 1013 93 3000 2.68 119 22:56 15.01.2020
745 Haze 16 1013 93 3000 2.68 119 22:36 15.01.2020
746 Haze 16 1013 93 3000 2.68 119 22:18 15.01.2020
747 Haze 17 1013 88 3000 2.68 119 21:55 15.01.2020
748 Haze 17 1014 88 3000 2.68 119 21:36 15.01.2020
749 Haze 17 1014 88 3000 2.68 119 21:18 15.01.2020
750 Haze 17 1014 88 3000 2.68 119 20:54 15.01.2020
751 Haze 19 1014 82 3000 1 110 20:36 15.01.2020
752 Haze 19 1014 82 3000 1 110 20:18 15.01.2020
753 Haze 18 1014 88 3000 1 100 19:54 15.01.2020
754 Haze 19 1015 82 3000 2.2 112 19:36 15.01.2020
755 Haze 19 1015 82 3000 2.2 112 19:18 15.01.2020
756 Haze 19 1015 82 3000 2.2 112 18:54 15.01.2020
757 Haze 19 1015 82 3000 2.2 112 18:36 15.01.2020
758 Haze 19 1015 82 3000 2.2 112 18:18 15.01.2020
759 Haze 20 1015 72 3000 2.2 112 17:40 15.01.2020
760 Haze 20 1015 72 3000 1.77 113 17:21 15.01.2020
761 Haze 21 1015 73 3000 1 80 16:56 15.01.2020
762 Haze 21 1014 73 3000 1.5 90 16:38 15.01.2020
763 Haze 21 1014 73 3000 1.5 90 16:20 15.01.2020
764 Haze 22 1014 68 3000 2.1 90 15:43 15.01.2020
765 Haze 22 1014 73 3000 1.5 90 15:21 15.01.2020
766 Haze 22 1013 73 3000 1.5 90 14:55 15.01.2020
767 Haze 23 1013 69 3000 1.5 90 14:37 15.01.2020
768 Haze 23 1013 69 3000 1.5 90 14:37 15.01.2020
769 Haze 23 1013 69 3000 1.5 90 14:18 15.01.2020
770 Haze 25 1013 61 3000 1 100 13:41 15.01.2020
771 Haze 25 1013 61 3000 1 100 13:23 15.01.2020
772 Haze 25 1013 61 3000 1.5 100 12:55 15.01.2020
773 Haze 25 1013 61 3000 1.5 100 12:55 15.01.2020
774 Haze 26 1013 57 3500 1.5 100 12:37 15.01.2020
775 Haze 26 1013 57 3500 1.5 100 12:18 15.01.2020
776 Haze 26 1013 57 3500 2.1 120 11:38 15.01.2020
777 Haze 26 1013 57 3500 2.1 120 11:20 15.01.2020
778 Haze 27 1013 54 3500 2.6 130 10:48 15.01.2020
779 Haze 27 1013 51 3500 2.1 120 10:29 15.01.2020
780 Haze 27 1013 51 3500 3.1 100 09:59 15.01.2020
781 Haze 27 1014 51 3500 1.5 120 09:41 15.01.2020
782 Haze 27 1014 51 3500 1.5 120 09:21 15.01.2020
783 Haze 26 1014 54 3500 3.1 120 08:44 15.01.2020
784 Haze 26 1014 54 3500 3.1 120 08:44 15.01.2020
785 Haze 26 1015 54 3500 1.5 110 08:26 15.01.2020
786 Haze 25 1016 57 3500 1 90 07:54 15.01.2020
787 Haze 24 1016 57 3000 1 100 07:33 15.01.2020
788 Haze 23 1017 60 2500 2.6 100 06:54 15.01.2020
789 Mist 22 1017 60 2000 2.6 80 06:28 15.01.2020
790 Mist 18 1017 77 1500 1.85 99 04:57 15.01.2020
791 Mist 15 1016 87 1500 1.85 99 03:20 15.01.2020
792 Mist 13 1014 93 2000 2.53 64 01:48 15.01.2020
793 Mist 12 1014 93 2500 2.33 75 01:21 15.01.2020
794 Mist 14 1013 93 3000 2.33 75 00:37 15.01.2020
795 Mist 14 1013 93 3000 2.33 75 00:19 15.01.2020
796 Haze 15 1013 87 3000 1 50 23:46 14.01.2020
797 Haze 15 1013 87 3000 1 10 23:24 14.01.2020
798 Haze 16 1013 82 3000 2.82 39 22:56 14.01.2020
799 Haze 15 1014 87 3000 2.82 39 22:38 14.01.2020
800 Haze 15 1014 87 3000 2.82 39 22:18 14.01.2020
801 Haze 16 1014 77 3000 1 340 21:55 14.01.2020
802 Haze 15 1014 82 3000 2.82 39 21:37 14.01.2020
803 Haze 15 1014 82 3000 2.82 39 21:19 14.01.2020
804 Haze 17 1014 72 3000 2.82 39 20:42 14.01.2020
805 Haze 17 1014 72 3000 2.82 39 20:42 14.01.2020
806 Haze 17 1014 72 3000 3.26 41 20:22 14.01.2020
807 Haze 17 1014 72 3000 1.03 105 19:57 14.01.2020
808 Haze 17 1014 77 3000 1.03 105 19:38 14.01.2020
809 Haze 17 1014 77 3000 1.03 105 19:20 14.01.2020
810 Haze 17 1014 77 3000 1.03 105 19:20 14.01.2020
811 Haze 18 1015 72 3000 1.03 105 18:58 14.01.2020
812 Haze 18 1015 68 3000 1.03 105 18:39 14.01.2020
813 Haze 18 1015 68 3000 1.03 105 18:19 14.01.2020
814 Haze 18 1015 68 3500 1.03 105 17:39 14.01.2020
815 Haze 18 1015 68 3500 0.78 32 17:19 14.01.2020
816 Haze 19 1015 59 3500 1 100 16:57 14.01.2020
817 Haze 20 1014 56 3500 1.5 100 16:38 14.01.2020
818 Haze 20 1014 56 3500 1.5 100 16:20 14.01.2020
819 Haze 21 1014 52 3500 1.5 90 15:54 14.01.2020
820 Clear 21 1014 36 0 0.78 32 15:36 14.01.2020
821 Clear 21 1014 36 0 0.78 32 15:18 14.01.2020
822 Haze 22 1013 53 3500 1.5 130 14:41 14.01.2020
823 Haze 22 1013 53 3500 1.5 130 14:20 14.01.2020
824 Haze 23 1013 49 4000 1 100 13:42 14.01.2020
825 Haze 24 1013 47 4000 1 100 13:20 14.01.2020
826 Haze 26 1012 41 4000 1 90 12:57 14.01.2020
827 Haze 27 1012 36 4000 1 70 12:39 14.01.2020
828 Haze 27 1012 36 4000 1 70 12:20 14.01.2020
829 Haze 27 1012 36 4000 1 70 12:20 14.01.2020
830 Haze 27 1012 36 4000 1 40 11:42 14.01.2020
831 Haze 27 1012 36 4000 1 40 11:22 14.01.2020
832 Haze 27 1012 34 4000 2.1 70 10:57 14.01.2020
833 Haze 27 1013 32 4000 1.5 60 10:38 14.01.2020
834 Haze 27 1013 32 4000 1.5 60 10:19 14.01.2020
835 Haze 27 1013 36 4000 1 120 09:56 14.01.2020
836 Haze 27 1013 34 4000 1.5 100 09:37 14.01.2020
837 Haze 27 1013 34 4000 1.5 100 09:19 14.01.2020
838 Haze 26 1014 36 3000 1.5 120 08:41 14.01.2020
839 Haze 26 1014 36 3000 1.5 120 08:41 14.01.2020
840 Haze 26 1014 36 3000 1.5 120 08:22 14.01.2020
841 Haze 25 1015 36 2500 1 110 07:53 14.01.2020
842 Haze 24 1016 41 2000 2.1 110 07:25 14.01.2020
843 Haze 23 1016 43 2000 1 90 06:44 14.01.2020
844 Haze 21 1016 49 2500 2.1 90 05:59 14.01.2020
845 Mist 19 1016 59 2500 1.43 59 04:51 14.01.2020
846 Mist 15 1015 77 2000 1.43 59 03:47 14.01.2020
847 Mist 11 1014 93 2500 1.43 59 02:39 14.01.2020
848 Haze 13 1013 82 3000 1.56 46 01:21 14.01.2020
849 Haze 13 1013 76 3000 1.56 46 00:48 14.01.2020
850 Haze 11 1013 87 3000 1.56 46 00:22 14.01.2020
851 Haze 11 1013 87 3000 1.56 46 23:44 13.01.2020
852 Haze 12 1013 81 3000 1.8 30 23:19 13.01.2020
853 Haze 13 1013 76 3000 1.8 30 22:57 13.01.2020
854 Haze 12 1013 81 3000 1.8 30 22:39 13.01.2020
855 Haze 12 1013 81 3000 1.8 30 22:20 13.01.2020
856 Haze 13 1013 82 3000 1.8 30 21:55 13.01.2020
857 Haze 14 1014 76 3000 1.8 30 21:37 13.01.2020
858 Haze 14 1014 76 3000 1.8 30 21:18 13.01.2020
859 Haze 14 1014 76 3000 1.8 30 20:56 13.01.2020
860 Haze 15 1014 77 3000 1.8 30 20:37 13.01.2020
861 Haze 15 1014 77 3000 1.59 145 20:19 13.01.2020
862 Haze 15 1014 72 3000 1.59 145 19:41 13.01.2020
863 Haze 15 1014 72 3000 1.59 145 19:21 13.01.2020
864 Haze 17 1014 63 4000 1.59 145 18:58 13.01.2020
865 Haze 17 1014 63 4000 1.59 145 18:38 13.01.2020
866 Haze 17 1014 63 4000 1.59 145 18:19 13.01.2020
867 Haze 17 1014 59 4000 1.59 145 17:58 13.01.2020
868 Haze 17 1014 59 4000 1.59 145 17:39 13.01.2020
869 Haze 17 1014 59 4000 0.99 194 17:20 13.01.2020
870 Clear 20 1013 30 0 0.99 194 16:43 13.01.2020
871 Clear 20 1013 30 0 0.99 194 16:24 13.01.2020
872 Clear 20 1013 30 0 0.99 194 15:59 13.01.2020
873 Clear 20 1013 30 0 0.99 194 15:41 13.01.2020
874 Clear 20 1013 30 0 0.99 194 15:21 13.01.2020
875 Clear 20 1013 30 0 0.99 194 14:43 13.01.2020
876 Clear 20 1013 30 0 0.99 194 14:24 13.01.2020
877 Clear 23 1010 26 0 1.74 182 13:59 13.01.2020
878 Clear 23 1010 26 0 1.74 182 13:40 13.01.2020
879 Clear 23 1010 26 0 1.74 182 13:40 13.01.2020
880 Clear 23 1010 26 0 1.74 182 13:22 13.01.2020
881 Clear 28 1011 27 6000 1 140 12:57 13.01.2020
882 Clear 28 1011 27 6000 1 140 12:39 13.01.2020
883 Clear 28 1011 27 6000 1 140 12:21 13.01.2020
884 Clear 28 1011 27 6000 1 90 11:39 13.01.2020
885 Clear 28 1011 18 6000 1 90 11:20 13.01.2020
886 Clear 28 1011 18 6000 2.1 140 10:57 13.01.2020
887 Clear 27 1012 18 6000 1 180 10:39 13.01.2020
888 Clear 27 1012 18 6000 1 180 10:20 13.01.2020
889 Clear 27 1012 18 6000 1 180 09:56 13.01.2020
890 Clear 27 1013 18 6000 2.1 120 09:38 13.01.2020
891 Clear 27 1013 18 6000 2.1 120 09:19 13.01.2020
892 Clear 26 1014 24 6000 1 180 08:39 13.01.2020
893 Clear 26 1014 24 6000 1 180 08:20 13.01.2020
894 Haze 25 1015 22 5000 2.1 170 07:46 13.01.2020
895 Haze 24 1016 29 4000 1.5 240 07:27 13.01.2020
896 Haze 22 1017 40 4000 2.1 150 06:42 13.01.2020
897 Haze 22 1017 40 4000 2.1 150 06:19 13.01.2020
898 Haze 18 1017 59 4000 0.27 70 05:22 13.01.2020
899 Haze 13 1016 76 3000 0.27 70 03:52 13.01.2020
900 Haze 10 1015 87 3000 0.27 70 03:22 13.01.2020
901 Haze 11 1014 81 3500 1 360 02:39 13.01.2020
902 Haze 11 1014 81 3500 1 360 02:18 13.01.2020
903 Haze 11 1013 76 3500 1 320 00:59 13.01.2020
904 Haze 11 1013 81 3500 1.5 10 00:40 13.01.2020
905 Haze 11 1013 81 3500 1.5 10 00:21 13.01.2020
906 Haze 10 1013 81 3500 1 360 23:41 12.01.2020
907 Haze 10 1013 81 3500 1 360 23:23 12.01.2020
908 Haze 10 1014 81 3500 1.5 320 22:57 12.01.2020
909 Haze 10 1014 81 3500 1.1 347 22:39 12.01.2020
910 Haze 10 1014 81 3500 1.1 347 22:20 12.01.2020
911 Haze 10 1014 81 3500 1.1 347 21:55 12.01.2020
912 Haze 12 1014 76 3500 1 350 21:37 12.01.2020
913 Haze 12 1014 76 3500 1 350 21:19 12.01.2020
914 Haze 12 1014 76 3500 1.1 347 20:55 12.01.2020
915 Haze 13 1015 71 3500 1.1 347 20:37 12.01.2020
916 Haze 13 1015 71 3500 0.64 279 20:19 12.01.2020
917 Haze 13 1015 71 3500 0.39 317 19:55 12.01.2020
918 Haze 13 1016 71 3500 1 320 19:36 12.01.2020
919 Haze 13 1016 71 3500 1 320 19:18 12.01.2020
920 Haze 14 1016 67 3500 1 320 18:56 12.01.2020
921 Haze 15 1016 58 3500 0.39 317 18:38 12.01.2020
922 Haze 15 1016 58 3500 0.39 317 18:19 12.01.2020
923 Haze 15 1016 58 3500 0.39 317 17:42 12.01.2020
924 Haze 15 1016 58 3500 1.15 133 17:21 12.01.2020
925 Haze 15 1016 54 3500 1.15 133 16:58 12.01.2020
926 Haze 15 1016 51 3500 1.15 133 16:38 12.01.2020
927 Haze 15 1016 51 3500 1.15 133 16:20 12.01.2020
928 Haze 18 1016 42 3500 1.15 133 15:55 12.01.2020
929 Haze 18 1016 42 3500 1.15 133 15:55 12.01.2020
930 Haze 16 1015 55 3500 1.15 133 15:36 12.01.2020
931 Haze 16 1015 55 3500 1.15 133 15:18 12.01.2020
932 Haze 19 1015 34 4000 1.15 133 14:42 12.01.2020
933 Haze 19 1015 34 4000 1.36 71 14:22 12.01.2020
934 Haze 20 1015 32 4000 1.36 71 13:56 12.01.2020
935 Haze 23 1015 27 5000 1.36 71 13:38 12.01.2020
936 Haze 24 1015 29 5000 1.5 70 13:20 12.01.2020
937 Haze 24 1015 29 5000 1.5 70 13:20 12.01.2020
938 Haze 24 1015 29 5000 1.5 70 12:44 12.01.2020
939 Haze 25 1014 23 5000 1.48 73 12:21 12.01.2020
940 Haze 25 1014 23 5000 1.48 73 11:59 12.01.2020
941 Haze 25 1014 23 5000 1.48 73 11:59 12.01.2020
942 Haze 25 1014 22 5000 1 60 11:40 12.01.2020
943 Haze 25 1014 22 5000 1 60 11:21 12.01.2020
944 Haze 25 1015 22 4000 1 70 10:43 12.01.2020
945 Haze 25 1015 22 4000 1 70 10:23 12.01.2020
946 Haze 25 1015 20 4000 1 30 09:59 12.01.2020
947 Haze 24 1016 31 4000 1 90 09:41 12.01.2020
948 Haze 24 1016 31 4000 1 90 09:21 12.01.2020
949 Haze 23 1017 35 4000 1.84 23 08:47 12.01.2020
950 Haze 23 1017 33 4000 2.5 47 08:21 12.01.2020
951 Haze 23 1017 33 4000 2.5 47 08:21 12.01.2020
952 Haze 21 1019 40 4000 1.5 50 07:45 12.01.2020
953 Haze 21 1019 40 4000 1.5 50 07:25 12.01.2020
954 Haze 20 1019 42 3500 2.1 70 06:50 12.01.2020
955 Haze 19 1019 45 3500 1.5 70 06:32 12.01.2020
956 Haze 18 1019 48 3500 1 50 05:47 12.01.2020
957 Haze 16 1020 59 3000 1.5 40 04:52 12.01.2020
958 Mist 11 1019 81 2500 2.1 10 03:29 12.01.2020
959 Mist 9 1018 87 3000 1 10 02:34 12.01.2020
960 Mist 9 1018 87 3000 1 10 02:34 12.01.2020
961 Mist 11 1018 81 3000 1 10 01:58 12.01.2020
962 Mist 11 1017 81 3000 1.5 10 01:30 12.01.2020
963 Mist 11 1017 87 2500 1.5 10 00:44 12.01.2020
964 Mist 11 1017 81 2500 1.5 10 00:21 12.01.2020
965 Haze 12 1017 81 2500 1 10 23:55 11.01.2020
966 Haze 11 1017 87 2500 2.37 31 23:37 11.01.2020
967 Haze 11 1017 87 2500 2.56 27 23:18 11.01.2020
968 Haze 11 1018 87 2500 2.56 27 22:42 11.01.2020
969 Haze 11 1018 87 2500 2.56 27 22:21 11.01.2020
970 Haze 11 1018 87 2500 2.56 27 21:59 11.01.2020
971 Haze 11 1018 87 2500 2.56 27 21:41 11.01.2020
972 Haze 11 1018 87 2500 2.56 27 21:18 11.01.2020
973 Haze 12 1019 81 2500 2.56 27 20:55 11.01.2020
974 Haze 12 1019 81 2500 2.56 27 20:36 11.01.2020
975 Haze 12 1019 81 2500 1.72 25 20:18 11.01.2020
976 Haze 13 1019 76 2500 1.87 31 19:54 11.01.2020
977 Haze 11 1019 81 2500 1.87 31 19:36 11.01.2020
978 Haze 11 1019 81 2500 1.87 31 19:18 11.01.2020
979 Haze 13 1019 76 3500 1.87 31 18:39 11.01.2020
980 Haze 13 1019 76 3500 1.87 31 18:20 11.01.2020
981 Haze 13 1019 76 3500 1.87 31 18:20 11.01.2020
982 Haze 14 1019 71 3500 1.87 31 17:58 11.01.2020
983 Haze 14 1019 71 3500 1.87 31 17:58 11.01.2020
984 Haze 14 1019 67 3500 1.87 31 17:40 11.01.2020
985 Haze 14 1019 67 3500 1.44 77 17:20 11.01.2020
986 Haze 14 1019 71 3500 1.44 77 16:46 11.01.2020
987 Haze 16 1018 59 3500 2.1 90 16:28 11.01.2020
988 Haze 17 1018 55 3500 2.1 90 15:59 11.01.2020
989 Haze 17 1018 55 3500 2.1 70 15:41 11.01.2020
990 Haze 17 1018 55 3500 2.1 70 15:22 11.01.2020
991 Haze 17 1018 55 3500 2.1 70 15:22 11.01.2020
992 Haze 17 1017 55 3500 1.5 70 14:58 11.01.2020
993 Haze 17 1017 55 3500 2.1 80 14:39 11.01.2020
994 Haze 17 1017 55 3500 2.1 80 14:21 11.01.2020
995 Haze 20 1017 49 3500 1.5 80 13:41 11.01.2020
996 Haze 20 1017 49 3500 1.5 80 13:21 11.01.2020
997 Haze 22 1017 37 3500 1 80 12:59 11.01.2020
998 Haze 23 1017 35 3500 1.21 45 12:41 11.01.2020
999 Haze 23 1017 35 3500 1.21 45 12:41 11.01.2020
1000 Haze 23 1017 35 3500 1.21 45 12:23 11.01.2020
1001 Haze 23 1017 33 3500 1 100 11:48 11.01.2020
1002 Haze 23 1017 31 3500 1.21 45 11:26 11.01.2020
1003 Haze 23 1017 33 3500 1.5 70 10:51 11.01.2020
1004 Haze 22 1017 37 3500 2.1 110 10:30 11.01.2020
1005 Haze 22 1018 35 3500 1.74 49 09:58 11.01.2020
1006 Haze 21 1019 43 3500 1.5 80 09:38 11.01.2020
1007 Haze 21 1019 43 3500 1.5 80 09:20 11.01.2020
1008 Haze 20 1020 42 3500 2.6 60 08:42 11.01.2020
1009 Haze 20 1020 42 3500 2.6 60 08:21 11.01.2020
1010 Haze 19 1021 45 3500 1 100 07:44 11.01.2020
1011 Haze 19 1021 45 3500 1 90 07:25 11.01.2020
1012 Haze 18 1022 45 3500 2.1 80 06:50 11.01.2020
1013 Haze 15 1022 54 3500 1.5 50 05:40 11.01.2020
1014 Mist 12 1021 66 3000 1.5 20 04:46 11.01.2020
1015 Mist 12 1021 66 3000 1.5 20 04:27 11.01.2020
1016 Mist 9 1020 81 2500 1.5 20 02:49 11.01.2020
1017 Mist 9 1020 81 2500 1.5 20 02:49 11.01.2020
1018 Mist 9 1019 81 2500 1.5 20 02:20 11.01.2020
1019 Mist 8 1019 81 2500 3.25 3 01:42 11.01.2020
1020 Mist 8 1019 81 2500 2.92 9 01:18 11.01.2020
1021 Mist 7 1019 87 2500 1 30 00:38 11.01.2020
1022 Haze 9 1019 76 3000 1.5 10 23:59 10.01.2020
1023 Haze 11 1019 66 3000 2.1 10 23:40 10.01.2020
1024 Haze 11 1019 66 3000 2.1 10 23:40 10.01.2020
1025 Haze 11 1019 66 3000 2.1 10 23:21 10.01.2020
1026 Haze 11 1019 66 3000 1.5 20 22:56 10.01.2020
1027 Haze 11 1019 66 3000 1.5 20 22:38 10.01.2020
1028 Haze 11 1019 66 3000 1.5 20 22:19 10.01.2020
1029 Haze 12 1019 62 3000 2.6 20 21:55 10.01.2020
1030 Haze 13 1019 58 3000 3.1 20 21:36 10.01.2020
1031 Haze 13 1019 58 3000 3.1 20 21:18 10.01.2020
1032 Haze 13 1019 58 3000 2.1 20 20:42 10.01.2020
1033 Haze 13 1019 58 3000 2.1 20 20:24 10.01.2020
1034 Haze 13 1019 58 3000 2.1 20 20:24 10.01.2020
1035 Haze 13 1019 58 3000 1.5 30 19:55 10.01.2020
1036 Haze 13 1020 62 3000 1.5 30 19:37 10.01.2020
1037 Haze 13 1020 62 3000 1.5 30 19:19 10.01.2020
1038 Haze 13 1020 66 3000 1 60 18:41 10.01.2020
1039 Haze 13 1020 66 3000 1 60 18:19 10.01.2020
1040 Mist 14 1019 62 3000 2.1 30 17:57 10.01.2020
1041 Mist 15 1019 62 3000 1.5 80 17:38 10.01.2020
1042 Mist 15 1019 62 3000 1.5 80 17:20 10.01.2020
1043 Haze 16 1019 59 3500 1.5 80 17:20 10.01.2020
1044 Haze 16 1019 59 3500 1.5 80 16:55 10.01.2020
1045 Haze 16 1019 59 3500 1.5 80 16:37 10.01.2020
1046 Haze 16 1019 59 3500 1.5 80 16:19 10.01.2020
1047 Haze 16 1018 67 3500 1.5 80 15:55 10.01.2020
1048 Haze 17 1018 63 3500 2.1 90 15:36 10.01.2020
1049 Haze 17 1018 63 3500 2.1 90 15:18 10.01.2020
1050 Haze 18 1017 59 3500 1 90 14:42 10.01.2020
1051 Haze 18 1017 59 3500 1 90 14:20 10.01.2020
1052 Haze 18 1017 59 3500 2.23 18 13:59 10.01.2020
1053 Haze 20 1017 52 3500 1.5 120 13:41 10.01.2020
1054 Haze 20 1017 52 3500 1.5 120 13:23 10.01.2020
1055 Haze 22 1017 40 3500 1 60 12:58 10.01.2020
1056 Haze 22 1016 40 3500 1.5 50 12:38 10.01.2020
1057 Haze 22 1016 40 3500 1.5 50 12:19 10.01.2020
1058 Haze 23 1016 35 3500 1.5 60 11:54 10.01.2020
1059 Haze 23 1016 38 3500 2.1 40 11:36 10.01.2020
1060 Haze 22 1017 37 3500 1.5 50 11:18 10.01.2020
1061 Haze 22 1017 40 3500 1 60 10:42 10.01.2020
1062 Haze 22 1017 40 3500 1 60 10:24 10.01.2020
1063 Haze 22 1017 40 3500 1 80 09:56 10.01.2020
1064 Haze 21 1018 43 3500 1.5 60 09:37 10.01.2020
1065 Haze 21 1018 43 3500 1.5 60 09:19 10.01.2020
1066 Haze 19 1019 42 3500 2.1 60 08:41 10.01.2020
1067 Haze 19 1019 42 3500 2.1 60 08:22 10.01.2020
1068 Haze 18 1020 48 3500 1.5 50 07:44 10.01.2020
1069 Haze 18 1020 45 3500 1.5 60 07:24 10.01.2020
1070 Haze 17 1021 48 3500 2.1 30 06:45 10.01.2020
1071 Haze 16 1021 51 3500 2.6 60 06:25 10.01.2020
1072 Haze 14 1021 54 3500 2.6 50 05:46 10.01.2020
1073 Haze 11 1019 66 3000 3.1 20 03:37 10.01.2020
1074 Haze 11 1019 66 3000 3.1 20 03:18 10.01.2020
1075 Haze 11 1018 71 3000 2.6 20 02:39 10.01.2020
1076 Haze 12 1018 66 3000 2.6 20 01:38 10.01.2020
1077 Haze 12 1018 66 3000 2.6 20 01:19 10.01.2020
1078 Haze 13 1017 62 3000 3.1 30 00:39 10.01.2020
1079 Haze 13 1018 62 3000 2.1 30 23:58 09.01.2020
1080 Haze 13 1018 66 3000 2.1 30 23:38 09.01.2020
1081 Haze 13 1018 66 3000 2.1 30 23:20 09.01.2020
1082 Haze 13 1018 66 3000 2.6 20 22:57 09.01.2020
1083 Haze 14 1018 62 3000 1.5 30 22:37 09.01.2020
1084 Haze 14 1018 62 3000 1.5 30 22:19 09.01.2020
1085 Haze 14 1018 62 3000 2.1 20 21:57 09.01.2020
1086 Haze 15 1018 58 3000 3.1 20 21:37 09.01.2020
1087 Haze 15 1018 58 3000 3.1 20 21:37 09.01.2020
1088 Haze 15 1018 58 3000 3.1 20 21:37 09.01.2020
1089 Haze 15 1018 58 3000 3.1 20 21:37 09.01.2020
1090 Haze 15 1018 58 3000 3.1 20 21:37 09.01.2020
1091 Haze 15 1018 58 3000 3.1 20 21:19 09.01.2020
1092 Haze 15 1018 62 3000 2.6 20 20:56 09.01.2020
1093 Haze 15 1018 62 3000 2.6 20 20:38 09.01.2020
1094 Haze 15 1018 67 3000 3.1 20 20:19 09.01.2020
1095 Haze 16 1018 63 3000 3.6 20 19:56 09.01.2020
1096 Haze 16 1019 63 3000 2.6 30 19:37 09.01.2020
1097 Haze 16 1019 63 3000 2.6 30 19:18 09.01.2020
1098 Haze 16 1019 63 3000 3.1 20 18:54 09.01.2020
1099 Haze 17 1019 63 3000 2.1 20 18:36 09.01.2020
1100 Haze 17 1019 63 3000 2.1 20 18:18 09.01.2020
1101 Haze 17 1019 63 3000 2.1 20 17:41 09.01.2020
1102 Haze 18 1019 59 3000 3.1 30 17:18 09.01.2020
1103 Haze 18 1019 59 3000 3.1 30 17:18 09.01.2020
1104 Haze 18 1018 63 3000 2.6 30 16:47 09.01.2020
1105 Haze 19 1018 68 3000 2.1 40 16:23 09.01.2020
1106 Haze 19 1018 68 3000 2.1 40 16:23 09.01.2020
1107 Haze 19 1018 68 3000 2.1 40 16:23 09.01.2020
1108 Haze 19 1018 72 3000 3.1 60 15:56 09.01.2020
1109 Haze 19 1018 72 3000 3.1 60 15:56 09.01.2020
1110 Haze 19 1018 72 3000 3.1 60 15:56 09.01.2020
1111 Haze 20 1017 68 3000 1.5 50 15:38 09.01.2020
1112 Haze 20 1017 68 3000 1.5 50 15:18 09.01.2020
1113 Haze 20 1016 64 2500 2.1 60 14:41 09.01.2020
1114 Haze 20 1016 64 2500 2.1 60 14:21 09.01.2020
1115 Haze 21 1016 60 2500 1 20 13:57 09.01.2020
1116 Haze 21 1016 60 2500 1 20 13:39 09.01.2020
1117 Haze 22 1016 60 2500 1 20 13:20 09.01.2020
1118 Haze 22 1016 60 2500 2.1 20 12:58 09.01.2020
1119 Haze 22 1016 60 2500 2.1 20 12:58 09.01.2020
1120 Haze 23 1015 56 2500 1.5 30 12:38 09.01.2020
1121 Haze 23 1015 56 2500 1.5 30 12:19 09.01.2020
1122 Haze 23 1015 53 2500 1.5 30 11:55 09.01.2020
1123 Haze 24 1015 50 2500 1.5 50 11:37 09.01.2020
1124 Haze 24 1015 50 2500 1.5 50 11:19 09.01.2020
1125 Haze 24 1015 50 2500 2.1 50 10:42 09.01.2020
1126 Haze 24 1015 50 2500 2.1 50 10:22 09.01.2020
1127 Haze 23 1016 53 2500 3.1 40 09:49 09.01.2020
1128 Haze 23 1016 53 2500 3.1 20 09:26 09.01.2020
1129 Haze 23 1016 56 2000 3.1 40 09:00 09.01.2020
1130 Haze 23 1016 56 2000 3.1 40 08:40 09.01.2020
1131 Haze 22 1017 60 2000 3.1 60 08:22 09.01.2020
1132 Haze 22 1018 64 2000 2.6 50 07:57 09.01.2020
1133 Haze 21 1018 68 2000 3.6 360 07:38 09.01.2020
1134 Haze 21 1018 68 2000 3.6 360 07:19 09.01.2020
1135 Haze 20 1018 72 2000 2.1 10 06:38 09.01.2020
1136 Haze 20 1018 72 2000 2.1 10 06:18 09.01.2020
1137 Mist 19 1018 77 1500 4.1 10 05:40 09.01.2020
1138 Mist 19 1018 82 1000 2.1 10 04:42 09.01.2020
1139 Fog 17 1016 100 1000 1 10 03:28 09.01.2020
1140 Fog 18 1016 93 1000 2.1 10 02:47 09.01.2020
1141 Fog 18 1015 100 1000 2.1 360 01:56 09.01.2020
1142 Fog 18 1014 100 1000 2.6 340 01:34 09.01.2020
1143 Fog 18 1014 100 1000 3.1 340 00:40 09.01.2020
1144 Fog 18 1014 100 1000 2.6 340 00:19 09.01.2020
1145 Fog 18 1013 100 1000 1 330 23:41 08.01.2020
1146 Fog 18 1013 100 1000 2.1 340 23:23 08.01.2020
1147 Fog 17 1013 100 1000 1 320 22:56 08.01.2020
1148 Fog 18 1013 100 1000 1 330 22:38 08.01.2020
1149 Fog 18 1013 100 1000 1 330 22:19 08.01.2020
1150 Fog 18 1014 100 1000 3.04 39 21:55 08.01.2020
1151 Fog 18 1014 100 1000 3.04 39 21:37 08.01.2020
1152 Fog 18 1014 100 1000 3.04 39 21:18 08.01.2020
1153 Fog 18 1014 100 1000 3.04 39 20:55 08.01.2020
1154 Rain 18 1014 100 1000 3.04 39 20:37 08.01.2020
1155 Rain 18 1014 100 1000 1.88 24 20:18 08.01.2020
1156 Rain 18 1015 100 1000 1.5 280 19:39 08.01.2020
1157 Rain 18 1015 93 1000 1.5 360 19:20 08.01.2020
1158 Fog 18 1015 93 1000 2.1 340 18:58 08.01.2020
1159 Fog 18 1015 93 1000 2.1 340 18:39 08.01.2020
1160 Fog 18 1015 93 1000 1 20 18:19 08.01.2020
1161 Fog 18 1015 93 1000 1 20 18:19 08.01.2020
1162 Fog 18 1015 93 1000 1 60 17:58 08.01.2020
1163 Fog 18 1015 93 1000 1 10 17:39 08.01.2020
1164 Fog 18 1015 93 1000 1 10 17:20 08.01.2020
1165 Fog 18 1015 93 1000 1 60 16:57 08.01.2020
1166 Fog 18 1015 93 1000 1 60 16:57 08.01.2020
1167 Fog 18 1015 100 1000 1.5 50 16:38 08.01.2020
1168 Fog 18 1015 100 1000 1.5 50 16:19 08.01.2020
1169 Fog 18 1014 100 1000 1 40 15:45 08.01.2020
1170 Fog 18 1014 100 1000 1 30 15:22 08.01.2020
1171 Fog 18 1014 100 1000 1.5 30 14:59 08.01.2020
1172 Fog 18 1014 100 1000 1.5 30 14:40 08.01.2020
1173 Mist 18 1013 100 1200 1 60 14:21 08.01.2020
1174 Mist 19 1013 88 1200 1 70 13:42 08.01.2020
1175 Mist 19 1013 88 1200 1 70 13:22 08.01.2020
1176 Mist 19 1013 88 1200 2.63 41 12:55 08.01.2020
1177 Mist 20 1012 82 1200 1.5 80 12:37 08.01.2020
1178 Mist 20 1012 82 1200 1.5 80 12:18 08.01.2020
1179 Mist 20 1012 82 1200 1.5 80 12:18 08.01.2020
1180 Mist 19 1012 88 1200 1.5 90 11:48 08.01.2020
1181 Mist 20 1012 82 1200 2.1 40 11:19 08.01.2020
1182 Mist 19 1013 88 1200 2.1 70 10:59 08.01.2020
1183 Mist 19 1013 88 1200 2.1 70 10:40 08.01.2020
1184 Mist 19 1013 88 1200 1.5 60 10:21 08.01.2020
1185 Mist 19 1013 88 1200 1.5 30 09:43 08.01.2020
1186 Mist 19 1014 88 1200 1 40 09:20 08.01.2020
1187 Mist 19 1014 88 1200 1 40 08:59 08.01.2020
1188 Mist 19 1014 88 1200 1 40 08:41 08.01.2020
1189 Rain 18 1015 93 1000 2.09 87 08:22 08.01.2020
1190 Rain 18 1015 93 1000 2.25 94 07:58 08.01.2020
1191 Rain 18 1015 93 1000 2.25 94 07:39 08.01.2020
1192 Rain 18 1016 93 0 2.25 94 07:18 08.01.2020
1193 Mist 18 1016 88 1500 2.25 94 06:41 08.01.2020
1194 Mist 18 1017 88 1500 1 10 05:56 08.01.2020
1195 Mist 17 1017 93 1500 1 20 05:26 08.01.2020
1196 Rain 18 1016 82 1500 1.5 40 04:36 08.01.2020
1197 Haze 17 1014 88 2500 2.09 45 02:46 08.01.2020
1198 Haze 17 1013 88 2500 2.09 45 02:28 08.01.2020
1199 Haze 18 1014 77 2500 1.5 360 01:56 08.01.2020
1200 Haze 17 1013 88 2500 1.41 110 01:30 08.01.2020
1201 Haze 17 1013 88 2500 1.5 30 00:51 08.01.2020
1202 Haze 18 1013 82 2500 2.57 22 00:22 08.01.2020
1203 Haze 18 1013 82 2500 2.57 22 23:46 07.01.2020
1204 Haze 19 1013 72 2500 3.49 114 23:21 07.01.2020
1205 Haze 19 1013 72 2500 3.49 114 23:21 07.01.2020
1206 Haze 18 1013 77 2500 1.5 80 22:41 07.01.2020
1207 Haze 19 1014 72 2500 3.49 114 22:21 07.01.2020
1208 Haze 19 1014 72 2500 3.49 114 21:59 07.01.2020
1209 Haze 19 1014 72 2500 3.49 114 21:59 07.01.2020
1210 Haze 19 1014 72 2500 3.49 114 21:41 07.01.2020
1211 Haze 19 1015 72 2500 3.49 114 21:21 07.01.2020
1212 Haze 18 1015 82 2500 3.49 114 20:57 07.01.2020
1213 Haze 18 1015 82 2500 3.49 114 20:39 07.01.2020
1214 Haze 18 1015 82 2500 3.49 114 20:39 07.01.2020
1215 Haze 19 1015 77 2500 2.44 114 20:21 07.01.2020
1216 Haze 18 1015 82 2500 2.44 114 19:56 07.01.2020
1217 Haze 18 1015 77 3000 2.44 114 19:37 07.01.2020
1218 Haze 18 1015 77 3000 2.44 114 19:18 07.01.2020
1219 Haze 19 1016 72 3000 2.44 114 18:55 07.01.2020
1220 Haze 20 1016 68 3000 2.44 114 18:37 07.01.2020
1221 Haze 20 1016 68 3000 2.44 114 18:18 07.01.2020
1222 Haze 20 1016 68 3000 2.44 114 17:41 07.01.2020
1223 Haze 20 1016 68 3000 2.44 114 17:23 07.01.2020
1224 Haze 20 1016 68 3000 1.58 126 16:58 07.01.2020
1225 Haze 20 1016 72 3000 1.58 126 16:38 07.01.2020
1226 Haze 20 1016 72 3000 1.58 126 16:19 07.01.2020
1227 Haze 21 1016 68 3000 1.58 126 15:59 07.01.2020
1228 Haze 21 1016 68 3000 1.58 126 15:41 07.01.2020
1229 Haze 21 1016 68 3000 1 50 15:23 07.01.2020
1230 Haze 21 1016 68 3000 1.5 50 14:56 07.01.2020
1231 Haze 21 1015 64 3000 1.58 126 14:37 07.01.2020
1232 Haze 21 1015 64 3000 0.95 246 14:19 07.01.2020
1233 Haze 22 1015 60 3000 0.95 246 13:40 07.01.2020
1234 Haze 23 1014 64 3000 1.28 266 13:19 07.01.2020
1235 Haze 23 1014 56 3000 1.28 266 12:42 07.01.2020
1236 Haze 23 1014 56 3000 1.28 266 12:42 07.01.2020
1237 Haze 24 1014 57 3000 1.28 266 12:21 07.01.2020
1238 Haze 24 1014 53 3000 1.28 266 11:58 07.01.2020
1239 Haze 24 1014 50 3000 1.28 266 11:38 07.01.2020
1240 Haze 24 1014 50 3000 2.6 221 11:20 07.01.2020
1241 Haze 25 1014 47 3000 1 50 10:42 07.01.2020
1242 Haze 25 1014 47 3000 1 50 10:42 07.01.2020
1243 Haze 24 1015 47 3000 1 50 10:24 07.01.2020
1244 Haze 24 1015 47 3000 1 60 09:59 07.01.2020
1245 Haze 24 1016 47 3000 1 120 09:38 07.01.2020
1246 Haze 24 1016 47 3000 1 120 09:20 07.01.2020
1247 Mist 24 1016 44 3000 1.5 90 08:46 07.01.2020
1248 Mist 23 1017 46 3000 1.5 70 08:26 07.01.2020
1249 Mist 22 1018 49 3000 2.1 70 07:54 07.01.2020
1250 Mist 22 1018 46 3000 1.5 100 07:28 07.01.2020
1251 Mist 21 1019 49 3000 1.5 70 06:54 07.01.2020
1252 Mist 20 1019 52 3000 1 50 06:34 07.01.2020
1253 Mist 19 1019 59 3000 1 40 05:55 07.01.2020
1254 Mist 17 1019 67 2500 1 20 04:41 07.01.2020
1255 Mist 17 1019 67 2500 1 20 04:41 07.01.2020
1256 Mist 13 1018 87 3000 1 10 03:29 07.01.2020
1257 Mist 14 1018 82 3000 2.82 49 02:22 07.01.2020
1258 Mist 14 1017 82 3000 1.5 20 01:54 07.01.2020
1259 Mist 13 1017 87 3000 2.75 36 01:30 07.01.2020
1260 Mist 13 1017 87 3000 2.81 33 00:37 07.01.2020
1261 Mist 13 1017 87 3000 2.81 33 00:18 07.01.2020
1262 Mist 14 1017 82 3000 2.81 33 23:55 06.01.2020
1263 Mist 15 1017 77 3000 1 20 23:36 06.01.2020
1264 Mist 15 1017 77 3000 1 20 23:18 06.01.2020
1265 Mist 15 1017 77 3000 1 20 22:42 06.01.2020
1266 Mist 15 1017 77 3000 1 60 22:22 06.01.2020
1267 Mist 15 1018 77 3000 2.02 62 21:56 06.01.2020
1268 Mist 15 1018 77 3000 1.5 50 21:38 06.01.2020
1269 Mist 15 1018 77 3000 1.5 50 21:20 06.01.2020
1270 Mist 15 1018 77 3000 2.02 62 20:56 06.01.2020
1271 Mist 15 1019 77 3000 1 60 20:37 06.01.2020
1272 Mist 15 1019 77 3000 1 60 20:19 06.01.2020
1273 Mist 15 1019 77 3000 2.23 54 19:55 06.01.2020
1274 Mist 16 1019 72 3000 2.23 54 19:37 06.01.2020
1275 Mist 16 1019 72 3000 2.23 54 19:18 06.01.2020
1276 Mist 17 1019 67 3000 2.23 54 18:45 06.01.2020
1277 Mist 17 1020 67 3000 2.23 54 18:21 06.01.2020
1278 Mist 17 1020 67 3000 2.23 54 17:40 06.01.2020
1279 Mist 17 1020 67 3000 1.47 12 17:20 06.01.2020
1280 Mist 17 1020 67 3000 1.47 12 17:20 06.01.2020
1281 Mist 17 1020 67 3000 1.47 12 16:59 06.01.2020
1282 Mist 17 1020 67 3000 1.47 12 16:41 06.01.2020
1283 Mist 17 1019 72 3000 1.47 12 16:23 06.01.2020
1284 Haze 17 1019 72 3000 1.47 12 15:59 06.01.2020
1285 Haze 19 1019 59 3000 1.47 12 15:37 06.01.2020
1286 Haze 19 1019 59 3000 1.47 12 15:18 06.01.2020
1287 Haze 19 1019 59 3000 1.47 12 15:18 06.01.2020
1288 Haze 19 1018 59 4000 1.5 60 14:42 06.01.2020
1289 Haze 20 1018 56 4000 1 60 14:22 06.01.2020
1290 Haze 21 1018 52 4000 1 40 13:59 06.01.2020
1291 Haze 21 1018 52 4000 1 40 13:39 06.01.2020
1292 Haze 22 1017 49 5000 1 50 13:21 06.01.2020
1293 Haze 23 1017 46 5000 1 90 12:56 06.01.2020
1294 Haze 23 1017 43 5000 1 100 12:37 06.01.2020
1295 Haze 23 1017 43 5000 1 100 12:19 06.01.2020
1296 Haze 23 1017 43 5000 1 100 12:19 06.01.2020
1297 Haze 23 1017 40 5000 1.5 120 11:43 06.01.2020
1298 Haze 23 1017 40 5000 1.5 120 11:43 06.01.2020
1299 Haze 23 1017 40 5000 1.5 90 11:24 06.01.2020
1300 Haze 23 1017 40 5000 1.5 90 11:24 06.01.2020
1301 Haze 23 1017 40 5000 1.5 110 10:59 06.01.2020
1302 Haze 23 1017 40 5000 1.5 110 10:59 06.01.2020
1303 Haze 23 1017 40 5000 1.5 110 10:40 06.01.2020
1304 Haze 23 1017 40 5000 1.5 100 10:20 06.01.2020
1305 Haze 23 1017 40 5000 2.6 100 09:39 06.01.2020
1306 Haze 23 1018 43 5000 2.1 60 09:20 06.01.2020
1307 Haze 22 1018 46 5000 3.1 100 08:52 06.01.2020
1308 Haze 22 1019 49 5000 2.6 90 08:34 06.01.2020
1309 Haze 21 1020 52 4000 2.1 60 07:57 06.01.2020
1310 Haze 20 1021 52 4000 2.6 110 07:37 06.01.2020
1311 Haze 20 1021 52 4000 2.6 110 06:47 06.01.2020
1312 Haze 19 1021 55 4000 3.6 90 06:27 06.01.2020
1313 Haze 18 1021 63 3500 2.6 90 05:48 06.01.2020
1314 Haze 16 1022 72 3000 1 40 04:53 06.01.2020
1315 Haze 15 1021 72 3000 1.5 50 04:20 06.01.2020
1316 Haze 10 1020 93 3000 3.43 55 02:58 06.01.2020
1317 Haze 9 1019 93 3500 2.82 23 02:24 06.01.2020
1318 Haze 10 1019 87 4000 2.82 23 01:45 06.01.2020
1319 Haze 11 1019 87 4000 1 10 01:27 06.01.2020
1320 Haze 11 1018 87 4000 2.71 27 00:44 06.01.2020
1321 Haze 11 1018 87 4000 2.71 27 00:24 06.01.2020
1322 Haze 11 1018 87 4000 2.71 27 23:43 05.01.2020
1323 Haze 11 1018 87 4000 2.71 27 23:43 05.01.2020
1324 Haze 11 1018 87 4000 1 320 23:23 05.01.2020
1325 Haze 12 1019 81 4000 3.48 19 22:58 05.01.2020
1326 Haze 12 1019 81 4000 3.48 19 22:39 05.01.2020
1327 Haze 12 1019 87 3500 3.48 19 22:20 05.01.2020
1328 Haze 13 1019 76 3500 1.5 20 21:55 05.01.2020
1329 Haze 10 1019 87 3500 1 30 21:37 05.01.2020
1330 Haze 10 1019 87 3500 1 30 21:19 05.01.2020
1331 Haze 14 1018 76 3500 1.5 20 20:55 05.01.2020
1332 Haze 15 1019 72 3500 1 20 20:37 05.01.2020
1333 Haze 15 1019 72 3500 1 20 20:19 05.01.2020
1334 Haze 15 1019 72 4000 1.5 10 19:56 05.01.2020
1335 Haze 15 1019 72 4000 1.5 10 19:37 05.01.2020
1336 Haze 15 1019 72 4000 1.5 10 19:18 05.01.2020
1337 Haze 16 1019 67 4000 1.5 10 18:54 05.01.2020
1338 Haze 16 1019 67 4000 1.5 10 18:36 05.01.2020
1339 Haze 16 1019 67 4000 1.5 10 18:18 05.01.2020
1340 Haze 16 1019 67 4000 1 20 17:55 05.01.2020
1341 Haze 16 1019 67 4000 1 20 17:55 05.01.2020
1342 Haze 16 1019 67 4000 1 20 17:55 05.01.2020
1343 Haze 17 1019 63 4000 1 30 17:37 05.01.2020
1344 Haze 17 1019 63 4000 1 30 17:18 05.01.2020
1345 Haze 17 1019 63 4000 1 40 16:54 05.01.2020
1346 Haze 16 1019 67 4000 2.01 21 16:36 05.01.2020
1347 Haze 16 1019 67 4000 2.01 21 16:18 05.01.2020
1348 Haze 17 1018 59 4000 2.01 21 15:36 05.01.2020
1349 Haze 17 1018 59 4000 2.01 21 15:18 05.01.2020
1350 Haze 18 1018 55 4000 2.01 21 14:54 05.01.2020
1351 Haze 18 1017 55 4000 2.01 21 14:36 05.01.2020
1352 Haze 18 1017 55 4000 2.44 73 14:18 05.01.2020
1353 Haze 19 1017 52 4000 2.44 73 13:39 05.01.2020
1354 Haze 21 1017 43 4000 2.33 63 13:21 05.01.2020
1355 Haze 22 1016 43 4000 1 60 12:57 05.01.2020
1356 Haze 22 1016 43 4000 1 60 12:57 05.01.2020
1357 Haze 23 1016 38 4000 1 60 12:38 05.01.2020
1358 Haze 23 1016 38 4000 1 60 12:20 05.01.2020
1359 Haze 23 1016 38 4000 2.1 60 11:55 05.01.2020
1360 Haze 23 1016 38 4000 3.1 40 11:37 05.01.2020
1361 Haze 23 1016 38 4000 3.1 40 11:19 05.01.2020
1362 Haze 23 1016 38 4000 3.1 40 11:19 05.01.2020
1363 Haze 23 1016 38 4000 3.1 40 11:19 05.01.2020
1364 Haze 23 1016 40 4000 2.1 80 10:42 05.01.2020
1365 Haze 23 1016 40 4000 2.1 10 10:20 05.01.2020
1366 Haze 22 1016 46 4000 2.1 40 09:59 05.01.2020
1367 Haze 22 1016 46 4000 2.1 40 09:41 05.01.2020
1368 Haze 22 1016 46 4000 2.1 40 09:41 05.01.2020
1369 Haze 22 1017 49 4000 2.1 40 09:21 05.01.2020
1370 Haze 21 1018 52 4000 1 40 08:45 05.01.2020
1371 Haze 21 1018 52 4000 1 40 08:25 05.01.2020
1372 Haze 21 1018 49 4000 2.6 60 07:50 05.01.2020
1373 Haze 20 1019 56 4000 1.5 70 07:29 05.01.2020
1374 Haze 19 1020 59 3000 3.1 10 06:56 05.01.2020
1375 Haze 18 1020 63 3000 3.1 60 05:53 05.01.2020
1376 Haze 16 1020 72 3000 2.1 50 04:57 05.01.2020
1377 Mist 15 1020 77 2000 2.1 40 04:19 05.01.2020
1378 Mist 15 1019 77 2000 3.1 30 03:45 05.01.2020
1379 Mist 14 1018 82 2000 1 30 02:41 05.01.2020
1380 Mist 14 1017 82 2000 1 60 02:19 05.01.2020
1381 Mist 14 1017 82 2000 3.6 30 01:39 05.01.2020
1382 Mist 15 1016 77 2000 4.1 20 01:18 05.01.2020
1383 Mist 15 1016 82 2000 3.6 20 00:40 05.01.2020
1384 Mist 14 1016 87 2000 2.1 20 00:21 05.01.2020
1385 Mist 14 1016 87 2000 2.1 20 00:21 05.01.2020
1386 Mist 15 1016 82 2000 3.1 20 23:59 04.01.2020
1387 Mist 15 1016 87 2000 1.5 20 23:39 04.01.2020
1388 Mist 15 1016 87 2000 1.5 20 23:18 04.01.2020
1389 Mist 15 1016 87 2000 2.6 360 22:39 04.01.2020
1390 Mist 15 1016 87 2000 2.6 360 22:39 04.01.2020
1391 Mist 16 1016 82 2000 2.6 360 22:21 04.01.2020
1392 Mist 16 1016 82 2000 2.6 360 21:56 04.01.2020
1393 Mist 16 1016 82 2000 3.8 12 21:37 04.01.2020
1394 Mist 16 1016 82 2000 3.8 12 21:19 04.01.2020
1395 Mist 16 1016 82 2000 3.8 12 21:19 04.01.2020
1396 Mist 16 1016 87 2000 3.1 360 20:56 04.01.2020
1397 Mist 17 1016 82 2000 1.5 10 20:37 04.01.2020
1398 Mist 17 1016 82 2000 1.5 10 20:18 04.01.2020
1399 Mist 17 1017 88 1500 2.6 10 19:41 04.01.2020
1400 Mist 17 1017 88 1500 2.6 10 19:41 04.01.2020
1401 Mist 17 1017 93 1500 1.5 10 19:23 04.01.2020
1402 Mist 17 1017 93 1500 1 20 18:58 04.01.2020
1403 Mist 17 1017 93 1500 1.5 40 18:39 04.01.2020
1404 Mist 17 1017 93 1500 1.5 40 18:20 04.01.2020
1405 Mist 17 1017 93 2000 1 20 17:57 04.01.2020
1406 Mist 16 1016 93 2000 4.03 28 17:39 04.01.2020
1407 Mist 16 1016 93 2000 1.09 139 17:21 04.01.2020
1408 Mist 17 1016 93 2000 1.09 139 16:42 04.01.2020
1409 Mist 17 1016 93 2000 1.09 139 16:24 04.01.2020
1410 Mist 17 1016 88 2000 1.09 139 15:57 04.01.2020
1411 Mist 17 1015 93 2000 1.09 139 15:39 04.01.2020
1412 Mist 17 1015 93 2000 1.09 139 15:19 04.01.2020
1413 Mist 19 1015 82 2000 1.09 139 14:56 04.01.2020
1414 Mist 19 1015 82 2000 1.09 139 14:38 04.01.2020
1415 Mist 19 1015 82 2000 2.1 329 14:19 04.01.2020
1416 Mist 19 1015 82 2000 2.1 329 14:19 04.01.2020
1417 Mist 20 1015 77 2000 1 100 13:55 04.01.2020
1418 Mist 20 1015 77 2000 1 100 13:55 04.01.2020
1419 Haze 20 1014 77 2000 1 120 13:36 04.01.2020
1420 Haze 20 1014 77 2000 1 120 13:18 04.01.2020
1421 Haze 21 1014 73 2000 1 90 12:41 04.01.2020
1422 Haze 22 1014 68 2000 2.6 100 12:19 04.01.2020
1423 Haze 22 1014 68 2000 2.1 90 11:58 04.01.2020
1424 Haze 22 1014 64 2000 1.5 80 11:38 04.01.2020
1425 Haze 22 1014 64 2000 1.5 80 11:19 04.01.2020
1426 Haze 22 1014 64 2000 2.1 360 10:42 04.01.2020
1427 Haze 22 1014 64 2000 2.1 360 10:42 04.01.2020
1428 Haze 22 1014 64 2000 2.1 100 10:23 04.01.2020
1429 Haze 22 1014 68 2000 2.1 30 09:58 04.01.2020
1430 Haze 22 1014 68 2000 2.1 30 09:39 04.01.2020
1431 Mist 21 1015 73 2500 1.76 13 09:21 04.01.2020
1432 Mist 22 1015 68 2500 1 360 08:41 04.01.2020
1433 Mist 21 1016 73 2500 2.6 60 08:21 04.01.2020
1434 Mist 21 1016 73 2500 3.1 100 07:42 04.01.2020
1435 Mist 20 1017 77 2500 1.5 50 07:20 04.01.2020
1436 Mist 19 1018 82 2500 1.5 50 06:33 04.01.2020
1437 Mist 18 1018 88 2000 3.1 40 05:22 04.01.2020
1438 Mist 18 1018 88 2000 1.5 50 04:42 04.01.2020
1439 Mist 17 1018 93 1500 1.5 50 04:24 04.01.2020
1440 Mist 17 1017 93 1500 2.6 60 03:18 04.01.2020
1441 Mist 17 1016 93 2000 2.1 60 02:21 04.01.2020
1442 Mist 17 1015 93 2000 1 60 01:55 04.01.2020
1443 Mist 17 1015 100 2000 1 50 01:32 04.01.2020
1444 Mist 17 1015 100 1500 2.1 30 00:46 04.01.2020
1445 Fog 16 1015 100 500 2.78 44 00:26 04.01.2020
1446 Fog 17 1015 100 500 2.78 44 23:48 03.01.2020
1447 Fog 15 1015 100 500 2.78 44 23:25 03.01.2020
1448 Fog 15 1015 93 800 3.31 38 22:54 03.01.2020
1449 Mist 15 1015 100 1000 3.31 38 22:36 03.01.2020
1450 Mist 15 1015 100 1000 3.31 38 22:18 03.01.2020
1451 Mist 17 1015 93 1000 1 10 21:54 03.01.2020
1452 Mist 16 1016 100 1000 3.31 38 21:36 03.01.2020
1453 Mist 16 1016 100 1000 3.31 38 21:18 03.01.2020
1454 Mist 17 1016 100 1000 1 360 20:41 03.01.2020
1455 Mist 17 1016 100 1200 1 20 20:19 03.01.2020
1456 Mist 17 1016 100 1500 0.84 23 19:57 03.01.2020
1457 Mist 17 1016 100 1500 0.84 23 19:39 03.01.2020
1458 Mist 17 1016 100 1500 0.84 23 19:21 03.01.2020
1459 Mist 17 1016 93 1500 0.84 23 18:44 03.01.2020
1460 Mist 17 1016 93 1500 0.84 23 18:44 03.01.2020
1461 Mist 17 1017 93 1500 0.84 23 18:26 03.01.2020
1462 Mist 18 1017 93 1500 0.84 23 17:56 03.01.2020
1463 Mist 18 1017 93 1500 1 240 17:38 03.01.2020
1464 Mist 18 1017 93 1500 1 240 17:19 03.01.2020
1465 Mist 18 1017 93 1500 1 240 17:19 03.01.2020
1466 Mist 17 1017 100 2000 2.6 240 16:42 03.01.2020
1467 Mist 18 1017 88 2000 1.25 201 16:24 03.01.2020
1468 Mist 19 1016 88 2000 1.25 201 15:57 03.01.2020
1469 Mist 19 1016 88 2000 1.25 201 15:39 03.01.2020
1470 Mist 19 1016 88 2000 1.25 201 15:18 03.01.2020
1471 Mist 20 1015 82 2000 1.25 201 14:38 03.01.2020
1472 Mist 20 1015 82 2000 0.28 279 14:19 03.01.2020
1473 Mist 20 1015 82 2000 0.28 279 13:44 03.01.2020
1474 Mist 20 1015 82 2000 0.28 279 13:44 03.01.2020
1475 Mist 20 1015 82 2000 0.28 279 13:44 03.01.2020
1476 Mist 20 1015 82 2000 0.28 279 13:44 03.01.2020
1477 Haze 21 1015 77 2000 0.28 279 13:24 03.01.2020
1478 Haze 22 1015 73 2000 0.31 123 12:59 03.01.2020
1479 Haze 22 1015 73 2000 0.31 123 12:39 03.01.2020
1480 Haze 23 1015 69 2000 0.31 123 12:21 03.01.2020
1481 Haze 23 1015 69 2000 0.31 123 11:45 03.01.2020
1482 Haze 23 1015 69 2000 1 80 11:21 03.01.2020
1483 Haze 23 1014 69 2000 1 90 10:46 03.01.2020
1484 Haze 23 1015 69 2000 1 80 10:27 03.01.2020
1485 Mist 22 1015 68 1700 1 80 09:58 03.01.2020
1486 Mist 22 1016 73 1700 1 100 09:39 03.01.2020
1487 Mist 22 1016 73 1700 1 100 09:21 03.01.2020
1488 Mist 21 1016 73 1700 1.5 70 08:56 03.01.2020
1489 Mist 21 1017 73 1700 1.5 50 08:38 03.01.2020
1490 Mist 21 1017 73 1700 1.5 50 08:19 03.01.2020
1491 Mist 20 1018 72 1700 1.5 70 07:40 03.01.2020
1492 Mist 20 1019 72 1700 2.6 90 07:18 03.01.2020
1493 Mist 19 1019 77 1500 2.1 70 06:47 03.01.2020
1494 Mist 19 1020 77 1500 2.6 80 06:29 03.01.2020
1495 Mist 18 1020 82 1500 2.6 60 05:39 03.01.2020
1496 Mist 17 1019 88 1500 1.5 20 04:21 03.01.2020
1497 Mist 16 1018 93 1500 1 50 02:56 03.01.2020
1498 Mist 16 1017 93 1500 1 20 02:28 03.01.2020
1499 Mist 16 1017 93 1500 1 70 01:39 03.01.2020
1500 Mist 16 1017 93 1500 1 30 00:49 03.01.2020
1501 Mist 16 1016 93 1500 1 60 00:29 03.01.2020
1502 Mist 16 1016 93 1500 1 20 23:55 02.01.2020
1503 Mist 16 1017 93 1500 1 20 23:37 02.01.2020
1504 Mist 16 1017 93 1500 1 20 23:18 02.01.2020
1505 Mist 16 1016 93 1500 1.5 50 22:44 02.01.2020
1506 Mist 16 1017 93 1500 2.1 50 22:21 02.01.2020
1507 Mist 16 1017 93 1500 2.1 50 22:21 02.01.2020
1508 Mist 16 1018 93 1500 1 80 21:57 02.01.2020
1509 Mist 16 1018 93 1500 1 80 21:39 02.01.2020
1510 Mist 16 1018 93 1500 1.5 50 21:21 02.01.2020
1511 Mist 16 1018 93 1500 1.5 90 20:57 02.01.2020
1512 Mist 16 1018 93 1500 1.5 90 20:39 02.01.2020
1513 Mist 17 1018 93 1500 1 90 20:20 02.01.2020
1514 Mist 17 1018 93 1500 1.5 90 19:55 02.01.2020
1515 Mist 17 1019 93 1500 3.58 70 19:36 02.01.2020
1516 Mist 17 1019 93 1500 3.58 70 19:18 02.01.2020
1517 Mist 17 1019 93 1500 1.5 80 18:54 02.01.2020
1518 Mist 17 1019 93 1500 3.58 70 18:36 02.01.2020
1519 Mist 17 1019 93 1500 3.58 70 18:18 02.01.2020
1520 Mist 17 1019 93 1500 1 30 17:55 02.01.2020
1521 Mist 17 1019 93 1500 1 40 17:36 02.01.2020
1522 Mist 17 1019 93 1500 1 40 17:18 02.01.2020
1523 Mist 17 1019 93 1500 2.96 53 16:42 02.01.2020
1524 Mist 17 1019 93 1500 2.96 53 16:42 02.01.2020
1525 Mist 17 1019 93 1500 2.96 53 16:42 02.01.2020
1526 Mist 17 1019 93 1500 2.1 60 16:22 02.01.2020
1527 Mist 17 1019 93 1500 2.1 60 15:59 02.01.2020
1528 Mist 17 1018 93 1500 2.1 90 15:41 02.01.2020
1529 Mist 17 1018 93 1500 2.1 90 15:23 02.01.2020
1530 Mist 17 1018 93 1500 2.1 90 14:57 02.01.2020
1531 Mist 17 1018 93 1500 1.5 80 14:37 02.01.2020
1532 Mist 17 1018 93 1500 1 60 14:18 02.01.2020
1533 Mist 17 1018 93 1500 1 60 13:51 02.01.2020
1534 Mist 17 1018 93 1500 2.6 60 13:32 02.01.2020
1535 Mist 17 1017 93 1500 2.1 60 12:47 02.01.2020
1536 Mist 18 1017 88 1200 1.5 60 12:28 02.01.2020
1537 Mist 18 1017 88 1200 1.5 60 11:59 02.01.2020
1538 Mist 17 1017 93 1200 2.1 70 11:41 02.01.2020
1539 Mist 17 1017 93 1200 2.1 70 11:20 02.01.2020
1540 Mist 17 1018 93 1200 1 50 10:45 02.01.2020
1541 Mist 18 1018 88 1200 2.1 70 10:26 02.01.2020
1542 Mist 17 1018 93 1200 2.1 70 09:52 02.01.2020
1543 Mist 16 1018 93 1200 2.6 70 09:33 02.01.2020
1544 Mist 16 1019 93 1200 1.5 70 08:48 02.01.2020
1545 Rain 16 1020 100 1200 1.5 60 08:27 02.01.2020
1546 Rain 15 1020 100 1200 1 50 07:54 02.01.2020
1547 Rain 15 1021 100 1200 2.6 50 07:31 02.01.2020
1548 Thunderstorm 15 1021 100 1200 2.6 50 06:55 02.01.2020
1549 Thunderstorm 15 1021 100 1200 2.6 50 06:55 02.01.2020
1550 Thunderstorm 15 1021 93 600 1 100 06:36 02.01.2020
1551 Thunderstorm 15 1021 93 600 1 100 06:36 02.01.2020
1552 Thunderstorm 15 1021 93 1000 4.1 20 05:36 02.01.2020
1553 Thunderstorm 14 1021 93 500 4.1 30 04:33 02.01.2020
1554 Mist 16 1019 82 2500 3.1 60 02:55 02.01.2020
1555 Mist 16 1018 87 3000 2.1 40 02:20 02.01.2020
1556 Clouds 16 1018 87 3000 2.6 30 01:46 02.01.2020
1557 Mist 16 1017 87 3000 2.6 60 00:59 02.01.2020
1558 Mist 16 1017 87 3000 1.5 50 00:34 02.01.2020
1559 Mist 16 1017 93 3000 2.1 30 23:56 01.01.2020
1560 Clouds 16 1017 87 3000 1.5 330 23:37 01.01.2020
1561 Clouds 16 1017 87 3000 1.5 330 23:18 01.01.2020
1562 Mist 16 1018 93 2500 1 50 22:38 01.01.2020
1563 Mist 16 1018 93 2500 1 50 22:19 01.01.2020
1564 Mist 16 1017 93 2500 2.1 70 21:56 01.01.2020
1565 Rain 16 1018 93 2000 1.5 80 21:37 01.01.2020
1566 Rain 16 1018 93 2000 1.5 80 21:19 01.01.2020
1567 Mist 17 1017 88 2000 2.6 70 20:55 01.01.2020
1568 Mist 17 1018 88 2000 2.1 60 20:37 01.01.2020
1569 Mist 17 1018 88 2000 2.1 60 20:18 01.01.2020
1570 Mist 17 1018 88 2000 2.1 60 19:55 01.01.2020
1571 Mist 17 1018 88 2000 2.6 50 19:36 01.01.2020
1572 Mist 17 1018 88 2000 2.6 50 19:18 01.01.2020
1573 Mist 17 1019 88 2000 2.1 60 18:55 01.01.2020
1574 Mist 17 1019 88 2000 3.1 60 18:36 01.01.2020
1575 Mist 17 1019 88 2000 3.1 60 18:18 01.01.2020
1576 Mist 17 1019 88 2000 3.1 60 17:55 01.01.2020
1577 Mist 17 1019 88 2000 3.1 60 17:37 01.01.2020
1578 Mist 17 1019 88 2000 3.1 60 17:18 01.01.2020
1579 Mist 17 1019 88 2000 2.6 60 16:39 01.01.2020
1580 Mist 17 1019 88 2000 2.6 60 16:39 01.01.2020
1581 Mist 17 1019 88 2000 2.6 60 16:20 01.01.2020
1582 Mist 17 1018 88 2000 2.1 60 15:57 01.01.2020
1583 Mist 17 1018 93 1500 2.1 40 15:39 01.01.2020
1584 Mist 17 1018 93 1500 2.1 40 15:20 01.01.2020
1585 Mist 17 1018 93 1500 1.5 40 14:57 01.01.2020
1586 Mist 17 1018 93 1500 1.5 40 14:39 01.01.2020
1587 Mist 18 1017 88 1500 2.1 30 14:21 01.01.2020
1588 Mist 18 1017 88 1500 1 30 13:56 01.01.2020
1589 Mist 19 1017 77 1500 1.5 50 13:37 01.01.2020
1590 Mist 19 1017 77 1500 1.5 50 13:18 01.01.2020
1591 Mist 19 1017 82 1500 1.5 40 12:55 01.01.2020
1592 Mist 19 1017 82 1500 1.5 60 12:37 01.01.2020
1593 Mist 19 1017 82 1500 1.5 60 12:18 01.01.2020
1594 Rain 19 1017 82 1500 1.5 80 11:43 01.01.2020
1595 Rain 19 1017 82 1500 1.5 80 11:22 01.01.2020
1596 Mist 20 1017 72 1500 2.1 60 10:58 01.01.2020
1597 Mist 20 1017 72 1500 2.1 60 10:39 01.01.2020
1598 Mist 20 1017 72 1500 2.1 60 10:20 01.01.2020
1599 Mist 20 1017 72 1500 1.5 60 09:55 01.01.2020
1600 Mist 20 1017 72 1500 2.1 60 09:36 01.01.2020
1601 Mist 20 1017 72 1500 2.1 60 09:36 01.01.2020
1602 Mist 20 1017 72 1500 2.1 60 09:18 01.01.2020
1603 Mist 20 1018 72 1500 2.6 70 08:54 01.01.2020
1604 Mist 19 1018 77 1500 3.1 70 08:36 01.01.2020
1605 Mist 19 1018 77 1500 3.1 70 08:18 01.01.2020
1606 Mist 19 1019 72 1500 2.1 60 07:43 01.01.2020
1607 Mist 18 1020 77 1500 2.1 90 07:24 01.01.2020
1608 Mist 18 1020 77 1500 4.1 60 06:44 01.01.2020
1609 Mist 17 1020 82 1500 3.6 80 06:19 01.01.2020
1610 Mist 15 1019 87 1500 2.6 70 04:36 01.01.2020
1611 Mist 15 1019 87 1500 1.5 60 03:41 01.01.2020
1612 Mist 15 1018 87 1500 2.6 60 03:22 01.01.2020
1613 Mist 15 1018 87 1500 2.6 60 02:54 01.01.2020
1614 Rain 14 1017 93 1500 1.5 40 02:30 01.01.2020
1615 Rain 14 1017 93 1500 3.1 60 01:45 01.01.2020
1616 Rain 14 1017 93 1500 3.1 60 01:45 01.01.2020
1617 Rain 14 1016 93 1500 2.1 70 01:23 01.01.2020
1618 Rain 15 1016 93 1500 2.1 60 00:45 01.01.2020
1619 Rain 15 1016 93 1500 2.1 50 00:26 01.01.2020
1620 Mist 15 1016 93 1500 1 40 23:58 31.12.2019
1621 Mist 15 1016 93 1500 1.5 50 23:38 31.12.2019
1622 Mist 15 1016 93 1500 1.5 50 23:18 31.12.2019
1623 Mist 14 1016 100 1500 2.6 50 22:56 31.12.2019
1624 Rain 15 1016 93 1500 1.5 30 22:37 31.12.2019
1625 Rain 15 1016 93 1500 1.5 30 22:18 31.12.2019
1626 Rain 14 1016 100 1300 1.5 70 21:43 31.12.2019
1627 Thunderstorm 14 1016 100 1200 2.6 50 21:25 31.12.2019
1628 Thunderstorm 14 1016 93 1500 3.1 40 20:57 31.12.2019
1629 Thunderstorm 14 1016 93 1500 3.1 40 20:39 31.12.2019
1630 Rain 17 1016 71 0 4.18 77 20:21 31.12.2019
1631 Mist 16 1017 82 2000 2.6 30 19:58 31.12.2019
1632 Mist 16 1017 82 2000 2.6 30 19:40 31.12.2019
1633 Mist 16 1017 77 2000 3.6 70 19:21 31.12.2019
1634 Mist 16 1017 77 2000 3.6 60 18:57 31.12.2019
1635 Mist 16 1018 77 2000 3.1 70 18:38 31.12.2019
1636 Mist 16 1018 77 2000 3.1 70 18:38 31.12.2019
1637 Mist 16 1018 77 2000 3.1 70 18:19 31.12.2019
1638 Mist 16 1018 82 2000 3.6 60 17:56 31.12.2019
1639 Mist 16 1018 82 2000 3.6 60 17:56 31.12.2019
1640 Mist 17 1017 77 2000 3.6 60 17:36 31.12.2019
1641 Mist 17 1017 77 2000 3.6 60 17:18 31.12.2019
1642 Mist 17 1017 77 2000 3.6 60 17:18 31.12.2019
1643 Mist 16 1017 82 1500 3.6 60 16:56 31.12.2019
1644 Mist 17 1017 77 1500 4.1 60 16:37 31.12.2019
1645 Mist 17 1017 77 1500 4.1 60 16:37 31.12.2019
1646 Mist 17 1017 77 1500 4.1 60 16:18 31.12.2019
1647 Mist 17 1017 82 1500 3.6 70 15:56 31.12.2019
1648 Mist 16 1017 87 1500 3.1 60 15:38 31.12.2019
1649 Mist 16 1017 87 1500 3.1 60 15:19 31.12.2019
1650 Mist 17 1016 82 1500 3.1 50 14:55 31.12.2019
1651 Rain 16 1016 87 1500 2.1 40 14:37 31.12.2019
1652 Rain 16 1016 87 1500 2.1 40 14:18 31.12.2019
1653 Mist 16 1016 87 1500 4.1 60 13:56 31.12.2019
1654 Mist 17 1015 82 1500 2.6 40 13:37 31.12.2019
1655 Mist 17 1015 82 1500 2.6 40 13:19 31.12.2019
1656 Mist 17 1015 82 1500 2.6 10 12:55 31.12.2019
1657 Mist 17 1015 82 1500 4.1 360 12:37 31.12.2019
1658 Mist 17 1015 82 1500 4.1 360 12:18 31.12.2019
1659 Rain 18 1014 77 1500 3.1 360 11:55 31.12.2019
1660 Rain 18 1015 82 1500 4.1 360 11:36 31.12.2019
1661 Rain 18 1015 82 1500 4.1 360 11:18 31.12.2019
1662 Rain 19 1015 82 1500 2.1 40 10:55 31.12.2019
1663 Rain 20 1015 72 2000 2.1 360 10:37 31.12.2019
1664 Rain 20 1015 72 2000 2.1 360 10:19 31.12.2019
1665 Haze 21 1015 60 2500 1.5 60 09:56 31.12.2019
1666 Haze 21 1015 60 2500 2.1 120 09:38 31.12.2019
1667 Haze 21 1015 60 2500 2.1 120 09:18 31.12.2019
1668 Haze 21 1016 56 2500 2.6 70 08:42 31.12.2019
1669 Haze 20 1017 60 2500 1.5 80 08:22 31.12.2019
1670 Haze 19 1018 59 2500 2.1 100 07:56 31.12.2019
1671 Haze 19 1018 55 2500 3.1 100 07:37 31.12.2019
1672 Haze 19 1018 55 2500 3.1 100 07:18 31.12.2019
1673 Mist 18 1019 59 2500 1.5 110 06:29 31.12.2019
1674 Mist 16 1019 72 2000 2.1 50 04:55 31.12.2019
1675 Mist 15 1018 77 1800 2.1 60 04:25 31.12.2019
1676 Rain 15 1017 77 2000 3.1 60 02:58 31.12.2019
1677 Haze 17 1017 51 3000 1 90 02:21 31.12.2019
1678 Haze 17 1017 51 3000 1 90 02:21 31.12.2019
1679 Haze 17 1016 51 3000 2.6 80 01:50 31.12.2019
1680 Haze 17 1016 51 3000 1 80 01:31 31.12.2019
1681 Haze 17 1016 51 3000 1 40 00:49 31.12.2019
1682 Haze 17 1016 51 3000 1 40 00:25 31.12.2019
1683 Haze 17 1016 51 3000 1 100 23:58 30.12.2019
1684 Haze 17 1016 51 3000 1 100 23:40 30.12.2019
1685 Haze 17 1015 55 3000 2.6 60 23:22 30.12.2019
1686 Haze 17 1015 55 3000 1.5 60 22:59 30.12.2019
1687 Haze 17 1015 55 3000 1.5 60 22:41 30.12.2019
1688 Haze 17 1015 55 3000 1 70 22:21 30.12.2019
1689 Haze 17 1015 55 3000 2.1 70 21:57 30.12.2019
1690 Haze 17 1015 55 3000 2.1 70 21:39 30.12.2019
1691 Haze 17 1016 55 3000 1.5 60 21:20 30.12.2019
1692 Haze 18 1016 48 3000 1.5 70 20:58 30.12.2019
1693 Haze 18 1016 48 3000 1.5 70 20:40 30.12.2019
1694 Haze 18 1016 48 3000 1.5 70 20:40 30.12.2019
1695 Haze 18 1016 48 3000 1.5 70 20:20 30.12.2019
1696 Haze 18 1016 48 3000 1.5 60 19:58 30.12.2019
1697 Haze 18 1016 48 3000 1.5 60 19:39 30.12.2019
1698 Haze 18 1016 52 3000 1 90 19:19 30.12.2019
1699 Haze 18 1016 52 3000 1.5 80 18:59 30.12.2019
1700 Haze 18 1016 52 3000 1.5 80 18:40 30.12.2019
1701 Haze 19 1016 48 3500 2.67 57 18:20 30.12.2019
1702 Haze 19 1016 48 3500 2.67 57 18:20 30.12.2019
1703 Haze 19 1017 52 4000 2.67 57 17:57 30.12.2019
1704 Haze 19 1017 52 4000 1 60 17:39 30.12.2019
1705 Haze 19 1017 52 4000 1 60 17:19 30.12.2019
1706 Haze 19 1017 52 4000 1 40 16:58 30.12.2019
1707 Haze 19 1017 48 4000 1 60 16:37 30.12.2019
1708 Haze 19 1017 48 4000 1 60 16:19 30.12.2019
1709 Haze 19 1016 55 4000 1.68 43 15:56 30.12.2019
1710 Haze 20 1016 42 4000 1 40 15:37 30.12.2019
1711 Haze 20 1016 42 4000 1 40 15:18 30.12.2019
1712 Haze 20 1016 42 4000 2.1 60 14:43 30.12.2019
1713 Haze 20 1015 42 4000 1.47 82 14:20 30.12.2019
1714 Haze 21 1015 35 4000 1.47 82 13:58 30.12.2019
1715 Haze 21 1015 35 4000 1.47 82 13:40 30.12.2019
1716 Haze 21 1014 35 4000 1.54 53 13:21 30.12.2019
1717 Haze 21 1014 46 4000 1.54 53 12:56 30.12.2019
1718 Haze 22 1014 37 5000 1 80 12:37 30.12.2019
1719 Haze 22 1014 37 5000 1 80 12:18 30.12.2019
1720 Haze 23 1014 33 5000 1.54 53 11:42 30.12.2019
1721 Haze 23 1014 31 5000 2.27 84 11:20 30.12.2019
1722 Haze 23 1015 31 5000 1.5 70 10:58 30.12.2019
1723 Haze 23 1015 31 5000 1.5 70 10:40 30.12.2019
1724 Haze 23 1015 31 5000 1.5 70 10:40 30.12.2019
1725 Haze 23 1015 31 5000 1 110 10:18 30.12.2019
1726 Haze 23 1015 31 5000 1 110 09:42 30.12.2019
1727 Haze 23 1016 31 5000 2.6 70 09:20 30.12.2019
1728 Haze 22 1016 33 5000 1.5 100 08:56 30.12.2019
1729 Haze 22 1017 35 5000 2.1 80 08:37 30.12.2019
1730 Haze 22 1017 35 5000 2.1 80 08:18 30.12.2019
1731 Haze 20 1019 40 4000 1.5 100 07:41 30.12.2019
1732 Haze 20 1019 42 3500 1.5 80 06:58 30.12.2019
1733 Haze 19 1019 42 3500 3.1 60 06:23 30.12.2019
1734 Haze 13 1018 76 3000 1.5 60 04:23 30.12.2019
1735 Mist 11 1018 81 2500 3.67 54 03:39 30.12.2019
1736 Mist 8 1018 81 2500 3.67 54 02:41 30.12.2019
1737 Mist 8 1017 81 3000 3.23 51 02:20 30.12.2019
1738 Mist 10 1016 76 3000 1.5 50 01:25 30.12.2019
1739 Mist 11 1016 71 3000 2.92 51 00:46 30.12.2019
1740 Mist 11 1016 71 3000 1 50 00:23 30.12.2019
1741 Mist 11 1016 71 3000 1 20 23:40 29.12.2019
1742 Mist 11 1016 71 3000 1 20 23:22 29.12.2019
1743 Mist 11 1016 71 3000 1.77 53 22:56 29.12.2019
1744 Mist 10 1016 81 3000 1.5 20 22:38 29.12.2019
1745 Mist 10 1016 81 3000 1.5 20 22:19 29.12.2019
1746 Haze 11 1016 71 3000 1 10 21:45 29.12.2019
1747 Haze 11 1016 76 3000 1.77 53 21:21 29.12.2019
1748 Haze 11 1016 76 3000 1.77 53 21:21 29.12.2019
1749 Haze 11 1016 76 3000 1 20 20:59 29.12.2019
1750 Haze 11 1016 76 3000 1 20 20:39 29.12.2019
1751 Haze 13 1016 66 3000 2.41 41 20:21 29.12.2019
1752 Haze 13 1017 66 3000 2.41 41 19:59 29.12.2019
1753 Haze 13 1017 66 3000 2.41 41 19:40 29.12.2019
1754 Haze 13 1017 66 3000 2.41 41 19:21 29.12.2019
1755 Haze 13 1017 66 3000 1 310 18:58 29.12.2019
1756 Haze 13 1017 66 3000 1 310 18:39 29.12.2019
1757 Haze 13 1017 66 3000 2.41 41 18:20 29.12.2019
1758 Haze 12 1017 71 3000 2.41 41 17:58 29.12.2019
1759 Haze 14 1017 62 3000 2.41 41 17:39 29.12.2019
1760 Haze 14 1017 62 3000 2.01 53 17:20 29.12.2019
1761 Haze 13 1017 62 3000 2.01 53 16:57 29.12.2019
1762 Haze 14 1017 62 3000 1 40 16:38 29.12.2019
1763 Haze 14 1017 62 3000 1 40 16:38 29.12.2019
1764 Haze 14 1017 62 3000 1 40 16:20 29.12.2019
1765 Haze 14 1017 62 3000 2.01 53 15:58 29.12.2019
1766 Haze 14 1017 62 3000 2.01 53 15:58 29.12.2019
1767 Haze 14 1017 62 3000 2.01 53 15:39 29.12.2019
1768 Haze 15 1017 54 3000 2.01 53 15:20 29.12.2019
1769 Haze 15 1017 54 3500 2.01 53 14:58 29.12.2019
1770 Haze 15 1017 54 3500 2.01 53 14:39 29.12.2019
1771 Haze 16 1017 41 3500 1 90 14:18 29.12.2019
1772 Haze 16 1017 41 3500 1 90 14:18 29.12.2019
1773 Haze 17 1016 42 4000 1 80 13:58 29.12.2019
1774 Haze 19 1016 34 4000 1.5 50 13:39 29.12.2019
1775 Haze 19 1016 34 4000 1.5 50 13:20 29.12.2019
1776 Haze 19 1016 34 4000 2.1 50 12:46 29.12.2019
1777 Haze 22 1016 28 4000 1.5 50 12:27 29.12.2019
1778 Haze 21 1016 32 5000 2.1 60 11:59 29.12.2019
1779 Haze 21 1016 28 5000 1.5 60 11:40 29.12.2019
1780 Haze 21 1016 28 5000 1.5 60 11:20 29.12.2019
1781 Haze 21 1016 28 5000 1.5 60 11:20 29.12.2019
1782 Haze 22 1015 26 5000 3.1 60 10:55 29.12.2019
1783 Haze 22 1016 26 5000 3.1 60 10:37 29.12.2019
1784 Haze 22 1016 26 5000 3.1 60 10:18 29.12.2019
1785 Haze 22 1016 26 5000 3.1 60 10:18 29.12.2019
1786 Haze 22 1017 28 5000 3.1 90 09:41 29.12.2019
1787 Haze 22 1017 28 5000 3.1 90 09:22 29.12.2019
1788 Haze 21 1017 30 5000 2.6 70 08:48 29.12.2019
1789 Haze 20 1018 32 5000 1.5 70 08:28 29.12.2019
1790 Haze 20 1019 32 5000 2.1 40 07:58 29.12.2019
1791 Haze 19 1020 37 5000 2.1 90 07:31 29.12.2019
1792 Haze 19 1020 32 5000 3.1 60 06:57 29.12.2019
1793 Haze 18 1021 34 5000 2.1 60 06:26 29.12.2019
1794 Haze 17 1021 39 5000 3.1 60 05:54 29.12.2019
1795 Haze 13 1020 54 5000 1 10 04:37 29.12.2019
1796 Haze 11 1020 66 4000 1.5 10 03:59 29.12.2019
1797 Haze 9 1019 70 3500 2.1 20 03:21 29.12.2019
1798 Haze 8 1018 75 3500 2.1 320 02:21 29.12.2019
1799 Haze 8 1018 75 3500 1.5 320 01:40 29.12.2019
1800 Haze 8 1018 75 3500 1 10 01:21 29.12.2019
1801 Haze 8 1017 81 3500 2.3 36 00:42 29.12.2019
1802 Haze 9 1017 76 3500 1 340 00:23 29.12.2019
1803 Haze 9 1017 76 3500 2.3 36 23:44 28.12.2019
1804 Haze 9 1017 76 3500 1 10 23:18 28.12.2019
1805 Haze 9 1017 76 3500 1 10 23:18 28.12.2019
1806 Haze 8 1017 81 3500 1 330 22:39 28.12.2019
1807 Haze 10 1017 71 3500 1.5 10 22:21 28.12.2019
1808 Haze 11 1017 71 3500 1 20 21:58 28.12.2019
1809 Haze 11 1017 71 3500 1 20 21:39 28.12.2019
1810 Haze 12 1018 66 3500 1 20 21:21 28.12.2019
1811 Haze 11 1018 71 3500 1.5 20 20:57 28.12.2019
1812 Haze 10 1018 76 3500 3.44 35 20:38 28.12.2019
1813 Haze 10 1018 76 3500 2.22 38 20:20 28.12.2019
1814 Haze 12 1018 62 3500 1 40 19:58 28.12.2019
1815 Haze 12 1018 58 3500 1 40 19:39 28.12.2019
1816 Haze 12 1018 58 3500 1 40 19:20 28.12.2019
1817 Haze 11 1018 62 3500 2.22 38 18:57 28.12.2019
1818 Haze 11 1018 62 3500 2.22 38 18:39 28.12.2019
1819 Haze 12 1018 62 3500 2.22 38 18:18 28.12.2019
1820 Haze 12 1018 62 4000 2.22 38 17:54 28.12.2019
1821 Haze 13 1018 54 4000 1 90 17:36 28.12.2019
1822 Haze 13 1018 54 4000 1 90 17:18 28.12.2019
1823 Haze 13 1018 58 4000 2.63 52 16:46 28.12.2019
1824 Haze 15 1018 44 4000 1 40 16:25 28.12.2019
1825 Haze 16 1017 41 4000 1 70 15:44 28.12.2019
1826 Haze 16 1017 38 4000 1.5 60 15:24 28.12.2019
1827 Haze 16 1017 38 4000 1.5 60 14:58 28.12.2019
1828 Haze 16 1016 36 4000 2.63 52 14:38 28.12.2019
1829 Haze 16 1016 36 4000 2.75 43 14:20 28.12.2019
1830 Haze 18 1016 34 4000 2.75 43 13:43 28.12.2019
1831 Haze 19 1016 29 4000 1.5 80 13:23 28.12.2019
1832 Clear 21 1016 26 6000 1 80 12:59 28.12.2019
1833 Clear 21 1016 26 6000 1 80 12:41 28.12.2019
1834 Clear 22 1016 26 6000 2.6 60 12:22 28.12.2019
1835 Clear 22 1016 24 6000 2.6 60 11:55 28.12.2019
1836 Clear 22 1016 26 6000 2.6 70 11:37 28.12.2019
1837 Clear 22 1016 18 6000 2.6 70 11:18 28.12.2019
1838 Clear 22 1016 18 6000 2.6 60 10:43 28.12.2019
1839 Clear 22 1016 18 10000 1 60 10:20 28.12.2019
1840 Clear 21 1017 26 10000 2.6 90 09:56 28.12.2019
1841 Clear 21 1017 28 10000 3.1 60 09:38 28.12.2019
1842 Clear 21 1018 28 10000 2.6 40 09:19 28.12.2019
1843 Clear 21 1018 28 10000 2.6 40 08:43 28.12.2019
1844 Clear 22 1017 26 10000 2.1 60 08:25 28.12.2019
1845 Clear 22 1018 28 8000 2.1 60 07:49 28.12.2019
1846 Clear 21 1020 30 6000 2.1 60 07:27 28.12.2019
1847 Clear 16 1021 38 6000 2.1 30 05:53 28.12.2019
1848 Haze 12 1019 54 3500 1.5 10 03:52 28.12.2019
1849 Haze 10 1019 61 3500 1.5 10 03:33 28.12.2019
1850 Haze 10 1018 61 3500 4.29 42 02:43 28.12.2019
1851 Haze 10 1017 61 3500 1.5 20 01:59 28.12.2019
1852 Haze 10 1017 61 3500 1.5 20 01:25 28.12.2019
1853 Haze 11 1017 57 3500 1.5 20 00:54 28.12.2019
1854 Haze 11 1016 57 3500 1.5 20 00:36 28.12.2019
1855 Haze 11 1016 57 3500 1.5 20 00:18 28.12.2019
1856 Haze 11 1016 57 3500 2.1 20 23:42 27.12.2019
1857 Haze 10 1016 61 3500 1 20 23:19 27.12.2019
1858 Haze 10 1017 61 3500 2.1 20 22:57 27.12.2019
1859 Haze 11 1017 57 3500 2.1 20 22:38 27.12.2019
1860 Haze 11 1017 57 3500 2.1 20 22:38 27.12.2019
1861 Haze 11 1017 57 3500 2.1 20 22:20 27.12.2019
1862 Haze 11 1017 57 3500 4 20 21:54 27.12.2019
1863 Haze 12 1017 54 3500 2.6 10 21:36 27.12.2019
1864 Haze 12 1017 54 3500 2.6 10 21:18 27.12.2019
1865 Haze 13 1017 50 3500 2.1 10 20:40 27.12.2019
1866 Haze 13 1017 47 3500 1.5 360 20:21 27.12.2019
1867 Haze 13 1017 47 3500 2.6 10 19:42 27.12.2019
1868 Haze 13 1017 47 3500 2.1 20 19:20 27.12.2019
1869 Haze 14 1017 41 3500 2.1 10 18:59 27.12.2019
1870 Haze 14 1018 41 3500 1.5 20 18:38 27.12.2019
1871 Haze 14 1018 41 3500 1.5 20 18:20 27.12.2019
1872 Haze 15 1017 31 3500 2.1 30 17:57 27.12.2019
1873 Haze 15 1017 31 3500 2.1 40 17:38 27.12.2019
1874 Haze 15 1017 27 3500 2.1 40 17:19 27.12.2019
1875 Haze 16 1017 27 3500 2.1 30 16:56 27.12.2019
1876 -273 0 0 0 0 0 16:37 27.12.2019
1877 Haze 16 1017 27 4000 2.1 30 16:19 27.12.2019
1878 Haze 16 1017 36 4000 2.1 20 15:43 27.12.2019
1879 Haze 17 1016 36 4000 1.5 30 15:20 27.12.2019
1880 Haze 18 1016 31 4000 1 30 14:57 27.12.2019
1881 Haze 18 1016 27 4000 1.5 30 14:38 27.12.2019
1882 Haze 18 1016 29 4000 1.5 30 14:20 27.12.2019
1883 Haze 19 1015 29 5000 1.5 40 13:48 27.12.2019
1884 Haze 21 1015 21 5000 2.1 10 13:25 27.12.2019
1885 Clear 22 1015 28 6000 2.1 20 12:58 27.12.2019
1886 Clear 23 1015 27 6000 1.5 30 12:39 27.12.2019
1887 Clear 23 1015 27 6000 1.5 30 12:21 27.12.2019
1888 Clouds 23 1015 25 6000 2.1 10 11:43 27.12.2019
1889 Clouds 23 1015 27 6000 1.5 30 11:43 27.12.2019
1890 Clouds 23 1015 27 6000 1.5 30 11:23 27.12.2019
1891 Clouds 22 1015 26 6000 1.5 20 10:55 27.12.2019
1892 Clouds 23 1015 27 6000 2.1 50 10:36 27.12.2019
1893 Clouds 23 1015 27 6000 2.1 50 10:18 27.12.2019
1894 Clouds 22 1016 26 6000 2.6 50 09:42 27.12.2019
1895 Haze 22 1016 26 5000 2.1 40 09:21 27.12.2019
1896 Haze 22 1017 26 5000 2.1 30 08:55 27.12.2019
1897 Haze 21 1017 30 5000 1.5 50 08:35 27.12.2019
1898 Haze 20 1018 30 5000 2.6 30 07:50 27.12.2019
1899 Haze 19 1018 32 5000 2.1 40 07:31 27.12.2019
1900 Haze 18 1019 34 4000 3.6 20 06:36 27.12.2019
1901 Haze 16 1019 36 3500 1.5 20 04:59 27.12.2019
1902 Haze 14 1018 50 3000 2.6 30 02:53 27.12.2019
1903 Haze 14 1017 50 3000 2.1 20 01:59 27.12.2019
1904 Haze 15 1016 47 4000 3.1 20 01:24 27.12.2019
1905 Haze 15 1016 51 4000 4.1 30 00:54 27.12.2019
1906 Mist 15 1016 51 3000 3.1 30 00:35 27.12.2019
1907 Mist 16 1016 48 2000 3.1 20 23:59 26.12.2019
1908 Mist 16 1016 48 2000 3.1 20 23:41 26.12.2019
1909 Mist 16 1016 48 2000 3.1 30 23:21 26.12.2019
1910 Mist 16 1016 51 2000 4.1 20 22:45 26.12.2019
1911 Mist 16 1016 55 2000 4.1 20 22:22 26.12.2019
1912 Mist 17 1016 51 2000 4.1 30 21:58 26.12.2019
1913 Mist 17 1016 55 2000 3.6 20 21:38 26.12.2019
1914 Mist 17 1016 55 2000 3.6 20 21:38 26.12.2019
1915 Mist 17 1016 55 2000 3.6 20 21:20 26.12.2019
1916 Mist 17 1016 55 2000 3.6 20 20:45 26.12.2019
1917 Mist 18 1016 59 2000 3.1 20 20:23 26.12.2019
1918 Mist 18 1016 63 2000 2.6 20 19:59 26.12.2019
1919 Mist 18 1016 63 2000 2.6 20 19:39 26.12.2019
1920 Mist 18 1016 63 2000 2.6 20 19:39 26.12.2019
1921 Mist 19 1016 68 2000 3.6 20 19:20 26.12.2019
1922 Mist 19 1016 88 1200 2.1 20 18:57 26.12.2019
1923 Mist 19 1016 93 1200 3.35 17 18:38 26.12.2019
1924 Mist 19 1016 93 1200 3.35 17 18:19 26.12.2019
1925 Mist 19 1016 93 1200 3.35 17 17:43 26.12.2019
1926 Mist 19 1016 93 1200 3.35 17 17:43 26.12.2019
1927 Mist 19 1016 93 1200 0.86 127 17:22 26.12.2019
1928 Mist 19 1016 93 1200 0.86 127 16:58 26.12.2019
1929 Mist 19 1016 93 1200 0.86 127 16:40 26.12.2019
1930 Mist 19 1016 93 1200 0.86 127 16:21 26.12.2019
1931 Mist 19 1016 93 1200 0.86 127 15:41 26.12.2019
1932 Mist 20 1015 88 1200 0.86 127 15:21 26.12.2019
1933 Mist 19 1015 93 1200 0.86 127 14:58 26.12.2019
1934 Mist 19 1015 93 1200 0.86 127 14:38 26.12.2019
1935 Mist 20 1014 88 1200 1 60 14:20 26.12.2019
1936 Mist 20 1014 88 1200 2.52 116 13:43 26.12.2019
1937 Mist 21 1014 83 1200 1 60 13:21 26.12.2019
1938 Mist 21 1014 83 1000 1 40 12:56 26.12.2019
1939 Mist 21 1014 83 1000 1 40 12:56 26.12.2019
1940 Mist 21 1014 83 1000 1 30 12:37 26.12.2019
1941 Mist 21 1014 83 1000 1 30 12:19 26.12.2019
1942 Mist 21 1014 83 1000 1 70 11:56 26.12.2019
1943 Fog 21 1014 83 1000 1 60 11:37 26.12.2019
1944 Fog 21 1014 83 1000 1 60 11:37 26.12.2019
1945 Fog 21 1014 83 1000 1 60 11:19 26.12.2019
1946 Fog 21 1014 88 800 1 60 10:41 26.12.2019
1947 Fog 21 1014 88 800 1 60 10:41 26.12.2019
1948 Fog 21 1014 88 800 1 60 10:18 26.12.2019
1949 Fog 20 1014 88 800 1.5 60 09:43 26.12.2019
1950 Fog 20 1014 88 0 1 20 09:25 26.12.2019
1951 Fog 20 1015 88 0 1 70 08:42 26.12.2019
1952 Fog 20 1016 88 1000 1.5 80 08:23 26.12.2019
1953 Fog 19 1016 93 1000 1.5 80 07:52 26.12.2019
1954 Clouds 19 1017 93 0 2.1 50 07:26 26.12.2019
1955 Clouds 19 1017 100 0 1.5 60 06:48 26.12.2019
1956 Clouds 19 1017 100 0 2.6 60 06:30 26.12.2019
1957 Clouds 19 1017 100 0 2.1 50 05:45 26.12.2019
1958 Rain 20 1016 100 1000 2.48 52 04:38 26.12.2019
1959 Rain 20 1016 100 1300 2.48 52 03:47 26.12.2019
1960 Rain 20 1015 100 1500 2.48 52 02:50 26.12.2019
1961 Rain 20 1015 100 2000 2.48 52 02:31 26.12.2019
1962 Rain 20 1015 100 2000 2.48 52 02:31 26.12.2019
1963 Rain 20 1014 100 2000 1.14 45 01:45 26.12.2019
1964 Rain 20 1014 100 2000 1.5 60 01:26 26.12.2019
1965 Rain 20 1013 94 2000 1.12 46 00:47 26.12.2019
1966 Rain 20 1014 94 2000 1.12 46 00:24 26.12.2019
1967 Rain 21 1014 88 2000 1.5 330 23:58 25.12.2019
1968 Haze 21 1014 83 2500 1.5 310 23:38 25.12.2019
1969 Haze 21 1014 83 2500 1.5 310 23:19 25.12.2019
1970 Haze 22 1014 78 2500 1 320 22:57 25.12.2019
1971 Haze 22 1014 78 2500 2.6 340 22:37 25.12.2019
1972 Haze 22 1014 78 2500 2.6 340 22:19 25.12.2019
1973 Haze 22 1014 83 2500 1.5 320 21:57 25.12.2019
1974 Haze 22 1014 83 2500 1.5 320 21:39 25.12.2019
1975 Haze 23 1014 78 2500 1 350 21:19 25.12.2019
1976 Haze 23 1015 78 2500 1 330 20:41 25.12.2019
1977 Haze 23 1015 73 2500 2.6 340 20:21 25.12.2019
1978 Haze 23 1015 73 2500 1.5 300 19:59 25.12.2019
1979 Haze 23 1015 73 2500 1.5 300 19:41 25.12.2019
1980 Haze 23 1015 73 2500 4.03 310 19:21 25.12.2019
1981 Haze 22 1015 78 2500 4.03 310 18:40 25.12.2019
1982 Haze 23 1015 73 2500 4.03 310 18:21 25.12.2019
1983 Haze 23 1016 69 2500 4.03 310 17:58 25.12.2019
1984 Haze 22 1016 78 2500 17.5 170 17:39 25.12.2019
1985 Haze 22 1016 78 2500 17.5 170 17:18 25.12.2019
1986 Haze 23 1016 64 2500 2.1 210 16:54 25.12.2019
1987 Haze 23 1015 64 2500 2.75 325 16:36 25.12.2019
1988 Haze 23 1015 64 2500 2.75 325 16:18 25.12.2019
1989 Haze 23 1015 64 2500 2.75 325 15:41 25.12.2019
1990 Haze 23 1015 64 2500 2.75 325 15:23 25.12.2019
1991 Haze 24 1014 64 2500 2.75 325 14:59 25.12.2019
1992 Haze 24 1014 64 2500 2.75 325 14:41 25.12.2019
1993 Haze 24 1014 64 2500 2.75 325 14:23 25.12.2019
1994 Haze 25 1014 57 2500 2.77 219 13:58 25.12.2019
1995 Haze 25 1014 57 2500 2.77 219 13:39 25.12.2019
1996 Haze 25 1014 53 2500 1.5 180 13:19 25.12.2019
1997 Haze 26 1014 50 2500 1.5 210 12:43 25.12.2019
1998 Haze 26 1013 50 2500 2.1 200 12:21 25.12.2019
1999 Haze 26 1013 50 2500 2.1 200 12:21 25.12.2019
2000 Haze 27 1013 51 2500 1.5 210 11:57 25.12.2019
2001 Haze 27 1013 47 2500 2.1 200 11:39 25.12.2019
2002 Haze 27 1013 47 2500 2.1 200 11:20 25.12.2019
2003 Haze 28 1014 48 2500 3.1 240 10:39 25.12.2019
2004 Haze 28 1014 48 2500 3.1 240 10:21 25.12.2019
2005 Haze 28 1014 45 2500 3.1 220 09:51 25.12.2019
2006 Haze 28 1014 45 2500 4.1 250 09:33 25.12.2019
2007 Haze 28 1015 48 2500 3.6 210 08:51 25.12.2019
2008 Haze 27 1015 51 2500 3.1 210 08:32 25.12.2019
2009 Haze 27 1016 51 2500 3.6 180 07:59 25.12.2019
2010 Haze 27 1016 51 2500 3.6 180 07:59 25.12.2019
2011 Haze 26 1017 57 2000 3.6 210 07:37 25.12.2019
2012 Haze 26 1017 57 2000 3.6 210 07:19 25.12.2019
2013 Mist 25 1018 61 1500 1.5 130 06:23 25.12.2019
2014 Mist 23 1018 69 1500 1 120 05:44 25.12.2019
2015 Mist 21 1018 83 1000 2.47 120 04:40 25.12.2019
2016 Fog 19 1017 88 0 2.47 120 04:20 25.12.2019
2017 Fog 18 1017 93 0 2.47 120 03:43 25.12.2019
2018 Mist 17 1016 93 1200 2.47 120 02:57 25.12.2019
2019 Mist 18 1016 88 1500 2.47 120 02:28 25.12.2019
2020 Mist 17 1015 93 2000 1.26 101 01:36 25.12.2019
2021 Mist 17 1015 93 2000 1.16 93 01:18 25.12.2019
2022 Mist 18 1015 93 2000 1.16 93 00:40 25.12.2019
2023 Mist 18 1014 93 2000 1.16 93 00:22 25.12.2019
2024 Mist 19 1015 88 2500 1 300 23:39 24.12.2019
2025 Mist 19 1015 88 2500 1 300 23:20 24.12.2019
2026 Haze 19 1015 88 3000 1 290 22:42 24.12.2019
2027 Haze 19 1015 82 3000 1.27 98 22:23 24.12.2019
2028 Haze 19 1015 82 3000 1.27 98 21:57 24.12.2019
2029 Haze 19 1016 88 3000 1 150 21:37 24.12.2019
2030 Haze 19 1016 88 3000 1 150 21:19 24.12.2019
2031 Haze 19 1016 88 3000 1.5 150 20:41 24.12.2019
2032 Haze 18 1016 93 3000 1 150 20:20 24.12.2019
2033 Haze 19 1016 82 3000 1.82 133 19:47 24.12.2019
2034 Haze 20 1017 77 3000 1.82 133 19:22 24.12.2019
2035 Haze 20 1017 77 3000 1.82 133 19:22 24.12.2019
2036 Haze 20 1017 82 3000 1.82 133 18:59 24.12.2019
2037 Haze 20 1017 82 3000 1.82 133 18:40 24.12.2019
2038 Haze 21 1017 77 3000 1.82 133 18:18 24.12.2019
2039 Haze 21 1017 77 3000 1.82 133 17:43 24.12.2019
2040 Haze 21 1017 77 3000 2.48 109 17:22 24.12.2019
2041 Haze 21 1017 73 3000 2.48 109 16:58 24.12.2019
2042 Haze 21 1017 73 3000 2.48 109 16:39 24.12.2019
2043 Haze 22 1017 68 3000 2.48 109 16:20 24.12.2019
2044 Haze 22 1017 68 3000 1 200 15:57 24.12.2019
2045 Haze 23 1016 69 2500 1 190 15:37 24.12.2019
2046 Haze 23 1016 69 2500 1 190 15:19 24.12.2019
2047 Haze 23 1016 69 2500 1 210 14:57 24.12.2019
2048 Haze 23 1016 69 2500 1 210 14:39 24.12.2019
2049 Haze 23 1015 69 2500 1 180 14:21 24.12.2019
2050 Haze 24 1015 64 2500 1 180 13:55 24.12.2019
2051 Haze 25 1015 61 2000 1 180 13:37 24.12.2019
2052 Haze 25 1015 61 2000 1 180 13:19 24.12.2019
2053 Haze 26 1015 54 2000 1.5 180 12:55 24.12.2019
2054 Haze 26 1015 54 2000 1 200 12:36 24.12.2019
2055 Haze 26 1015 54 2000 1 200 12:18 24.12.2019
2056 Haze 27 1015 51 2000 2.1 180 11:55 24.12.2019
2057 Haze 27 1015 51 2000 2.1 180 11:55 24.12.2019
2058 Haze 27 1015 51 2000 2.6 180 11:37 24.12.2019
2059 Haze 27 1015 51 2000 2.6 180 11:37 24.12.2019
2060 Haze 27 1015 51 2000 2.6 180 11:37 24.12.2019
2061 Haze 27 1015 51 2000 2.6 180 11:18 24.12.2019
2062 Haze 27 1015 54 2000 3.1 180 10:56 24.12.2019
2063 Haze 27 1015 51 2000 3.1 180 10:37 24.12.2019
2064 Haze 27 1015 51 2000 3.1 180 10:19 24.12.2019
2065 Haze 27 1016 54 2000 3.1 200 09:55 24.12.2019
2066 Haze 26 1016 57 2500 3.1 200 09:36 24.12.2019
2067 Haze 26 1016 57 2500 3.1 200 09:18 24.12.2019
2068 Haze 26 1017 57 3000 3.6 160 08:44 24.12.2019
2069 Haze 26 1017 54 3000 3.6 170 08:20 24.12.2019
2070 Haze 26 1018 54 2500 2.6 180 07:45 24.12.2019
2071 Haze 26 1018 54 2500 2.6 180 07:25 24.12.2019
2072 Haze 26 1018 54 2500 2.6 180 07:25 24.12.2019
2073 Mist 24 1019 60 2500 1 60 06:58 24.12.2019
2074 Mist 23 1019 60 2500 1 100 06:38 24.12.2019
2075 Mist 23 1019 60 2500 1 100 06:18 24.12.2019
2076 Mist 22 1019 60 2000 3.1 140 05:20 24.12.2019
2077 Mist 21 1019 68 1500 2.42 109 04:44 24.12.2019
2078 Mist 19 1018 77 1500 2.42 109 03:50 24.12.2019
2079 Mist 17 1018 88 1500 2.42 109 03:18 24.12.2019
2080 Mist 16 1016 93 2000 1.88 86 02:21 24.12.2019
2081 Mist 16 1016 87 2000 1.88 86 01:50 24.12.2019
2082 Mist 17 1016 88 2000 1.82 78 01:20 24.12.2019
2083 Mist 17 1016 88 2500 1 60 00:43 24.12.2019
2084 Mist 18 1016 88 2500 1.82 78 00:23 24.12.2019
2085 Mist 18 1016 88 2500 1.82 78 23:56 23.12.2019
2086 Haze 18 1015 88 2500 1 70 23:37 23.12.2019
2087 Haze 18 1015 88 2500 1 70 23:19 23.12.2019
2088 Haze 18 1015 82 2500 1.5 90 22:55 23.12.2019
2089 Haze 18 1015 82 2500 1.5 90 22:55 23.12.2019
2090 Haze 17 1015 88 2500 1.5 90 22:36 23.12.2019
2091 Haze 17 1015 88 2500 1.5 90 22:36 23.12.2019
2092 Haze 17 1015 88 2500 1.5 90 22:36 23.12.2019
2093 Haze 17 1015 88 2500 1.5 90 22:18 23.12.2019
2094 Haze 17 1015 93 2500 1.33 68 21:55 23.12.2019
2095 Haze 18 1016 88 2500 1.33 68 21:36 23.12.2019
2096 Haze 18 1016 88 2500 1.33 68 21:36 23.12.2019
2097 Haze 18 1016 88 2500 1.33 68 21:18 23.12.2019
2098 Haze 18 1016 88 2500 1.33 68 20:56 23.12.2019
2099 Haze 18 1016 88 2500 1.33 68 20:56 23.12.2019
2100 Haze 18 1016 88 3000 1.33 68 20:38 23.12.2019
2101 Haze 18 1016 88 3000 1.53 150 20:18 23.12.2019
2102 Haze 19 1016 77 3000 1.53 150 19:55 23.12.2019
2103 Haze 19 1016 77 3000 1.53 150 19:55 23.12.2019
2104 Haze 19 1016 77 3000 1.53 150 19:37 23.12.2019
2105 Haze 19 1016 77 3000 1.53 150 19:18 23.12.2019
2106 Haze 19 1016 77 3000 1.53 150 18:55 23.12.2019
2107 Haze 18 1017 82 3000 1.53 150 18:36 23.12.2019
2108 Haze 18 1017 82 3000 1.53 150 18:18 23.12.2019
2109 Haze 19 1017 82 3000 1 100 17:55 23.12.2019
2110 Haze 21 1017 73 3000 1 80 17:37 23.12.2019
2111 Haze 21 1017 73 3000 1 80 17:18 23.12.2019
2112 Haze 21 1016 73 3000 1 100 16:42 23.12.2019
2113 Haze 21 1016 73 3000 1.5 90 16:19 23.12.2019
2114 Haze 21 1016 73 3000 1 100 15:58 23.12.2019
2115 Haze 22 1015 68 3000 1 90 15:38 23.12.2019
2116 Haze 22 1015 68 3000 1 90 15:19 23.12.2019
2117 Haze 22 1015 68 3000 1 90 14:58 23.12.2019
2118 Haze 23 1014 64 3000 1 110 14:39 23.12.2019
2119 Haze 23 1014 64 3000 1 110 14:21 23.12.2019
2120 Haze 24 1014 60 3000 1 130 13:58 23.12.2019
2121 Haze 24 1014 60 3000 1 130 13:40 23.12.2019
2122 Haze 24 1014 57 3000 1.5 100 13:21 23.12.2019
2123 Haze 25 1014 53 3000 1.5 100 12:55 23.12.2019
2124 Haze 26 1014 50 3000 1.5 110 12:37 23.12.2019
2125 Haze 26 1014 50 3000 1.5 110 12:19 23.12.2019
2126 Haze 26 1014 44 3500 1.5 160 11:44 23.12.2019
2127 Haze 26 1014 44 3500 1.5 160 11:25 23.12.2019
2128 Haze 27 1014 42 3500 2.58 118 10:56 23.12.2019
2129 Haze 27 1014 42 3500 2.1 80 10:38 23.12.2019
2130 Haze 27 1014 42 3500 2.1 80 10:20 23.12.2019
2131 Haze 27 1015 39 3500 1.5 130 09:59 23.12.2019
2132 Haze 27 1015 42 3500 1 90 09:39 23.12.2019
2133 Haze 27 1015 42 3500 1 90 09:20 23.12.2019
2134 Haze 26 1016 44 3500 2.1 90 08:55 23.12.2019
2135 Haze 26 1016 41 3500 2.1 110 08:37 23.12.2019
2136 Haze 26 1016 41 3500 2.1 110 08:18 23.12.2019
2137 Haze 26 1017 41 3500 2.1 120 07:43 23.12.2019
2138 Haze 25 1018 44 3000 1.5 90 07:20 23.12.2019
2139 Haze 24 1018 47 3000 2.1 80 06:50 23.12.2019
2140 Haze 24 1018 47 3000 1.5 80 06:23 23.12.2019
2141 Haze 23 1019 46 3000 2.1 70 05:49 23.12.2019
2142 Mist 21 1018 56 2500 3.09 40 05:19 23.12.2019
2143 Mist 19 1018 68 2000 3.09 40 04:19 23.12.2019
2144 Mist 19 1016 63 2000 3.09 40 02:49 23.12.2019
2145 Haze 19 1016 63 2000 1.5 20 02:25 23.12.2019
2146 Haze 19 1016 63 2000 1.5 20 01:53 23.12.2019
2147 Haze 19 1015 68 3000 1 20 01:32 23.12.2019
2148 Haze 19 1015 68 3000 1 20 00:55 23.12.2019
2149 Haze 19 1015 68 3000 1 20 00:35 23.12.2019
2150 Haze 19 1015 68 3000 1 10 23:57 22.12.2019
2151 Haze 19 1015 72 3000 2.41 41 23:39 22.12.2019
2152 Haze 19 1015 72 3000 2.56 35 23:20 22.12.2019
2153 Haze 19 1015 77 3000 2.56 35 22:57 22.12.2019
2154 Haze 20 1015 68 3000 2.56 35 22:38 22.12.2019
2155 Haze 20 1015 68 3000 2.56 35 22:38 22.12.2019
2156 Haze 20 1015 68 3000 2.56 35 22:19 22.12.2019
2157 Haze 20 1015 68 3000 1 10 21:56 22.12.2019
2158 Haze 21 1016 68 3000 1 360 21:38 22.12.2019
2159 Haze 21 1016 68 3000 1 360 21:38 22.12.2019
2160 Haze 21 1016 68 3000 1 360 21:20 22.12.2019
2161 Haze 21 1016 64 3000 2.56 35 20:43 22.12.2019
2162 Haze 21 1016 64 3000 1.8 60 20:20 22.12.2019
2163 Haze 21 1016 64 3000 1.8 60 20:20 22.12.2019
2164 Haze 21 1016 64 3000 1.8 60 19:58 22.12.2019
2165 Haze 21 1016 64 3000 1.8 60 19:40 22.12.2019
2166 Haze 21 1016 68 3000 1.8 60 19:20 22.12.2019
2167 Haze 21 1016 64 3000 1.8 60 18:58 22.12.2019
2168 Haze 22 1016 60 3000 1.8 60 18:38 22.12.2019
2169 Haze 22 1016 60 3000 1.8 60 18:19 22.12.2019
2170 Haze 22 1016 60 3000 1.5 60 17:55 22.12.2019
2171 Haze 22 1016 60 3000 1.5 60 17:36 22.12.2019
2172 Haze 22 1016 60 3000 1.5 60 17:18 22.12.2019
2173 Haze 23 1016 53 3000 1 70 16:42 22.12.2019
2174 Haze 23 1016 53 3000 1 70 16:23 22.12.2019
2175 Haze 23 1016 53 3000 1 70 16:23 22.12.2019
2176 Haze 23 1016 53 3000 1.5 50 15:57 22.12.2019
2177 Haze 23 1016 53 3000 1.5 50 15:39 22.12.2019
2178 Haze 23 1015 56 3000 2.1 60 15:21 22.12.2019
2179 Haze 23 1015 56 3000 1.5 70 14:57 22.12.2019
2180 Haze 23 1015 53 3000 1 70 14:38 22.12.2019
2181 Haze 23 1015 53 3000 1 70 14:19 22.12.2019
2182 Haze 24 1014 53 3000 1 80 13:56 22.12.2019
2183 Haze 24 1014 50 3000 1 80 13:38 22.12.2019
2184 Haze 24 1014 50 3000 1 80 13:19 22.12.2019
2185 Haze 25 1014 50 3000 1 80 12:57 22.12.2019
2186 Haze 25 1014 47 3000 1 70 12:38 22.12.2019
2187 Haze 25 1014 47 3000 1 70 12:19 22.12.2019
2188 Haze 26 1014 44 3000 1.5 100 11:56 22.12.2019
2189 Haze 26 1014 44 3000 1 100 11:38 22.12.2019
2190 Haze 26 1014 44 3000 1 100 11:19 22.12.2019
2191 Haze 27 1014 39 3000 1 110 10:56 22.12.2019
2192 Haze 27 1015 42 3000 1 110 10:38 22.12.2019
2193 Haze 27 1015 42 3000 1 110 10:19 22.12.2019
2194 Haze 27 1015 42 3000 1 110 10:19 22.12.2019
2195 Haze 27 1015 39 3000 1 120 09:57 22.12.2019
2196 Haze 27 1016 42 3000 1 90 09:39 22.12.2019
2197 Haze 27 1016 42 3000 1 90 09:20 22.12.2019
2198 Haze 27 1016 42 2500 1.5 100 08:42 22.12.2019
2199 Haze 26 1017 44 2500 1.5 90 08:22 22.12.2019
2200 Haze 26 1018 47 2500 1.5 50 07:43 22.12.2019
2201 Mist 25 1018 47 2500 1 40 07:21 22.12.2019
2202 Mist 24 1019 53 2500 1 60 06:52 22.12.2019
2203 Mist 24 1019 50 2500 1 70 06:25 22.12.2019
2204 Haze 22 1019 56 2500 1 360 05:32 22.12.2019
2205 Haze 21 1018 64 2500 1 30 04:46 22.12.2019
2206 Mist 20 1018 64 2000 1 10 04:25 22.12.2019
2207 Mist 17 1017 82 2500 2.98 43 02:45 22.12.2019
2208 Mist 17 1017 88 2500 2.73 36 02:20 22.12.2019
2209 Mist 18 1016 82 2500 2.73 36 01:31 22.12.2019
2210 Mist 18 1016 88 2500 2.66 40 00:54 22.12.2019
2211 Mist 19 1015 77 2500 2.66 40 00:36 22.12.2019
2212 Mist 19 1015 77 2500 2.66 40 00:18 22.12.2019
2213 Mist 19 1015 72 2500 2.66 40 23:40 21.12.2019
2214 Mist 20 1015 72 2500 1.5 30 23:21 21.12.2019
2215 Mist 20 1015 77 2500 2.5 42 22:47 21.12.2019
2216 Mist 20 1015 77 2500 2.5 42 22:20 21.12.2019
2217 Mist 20 1015 77 2500 2.5 42 21:58 21.12.2019
2218 Mist 20 1015 77 2500 2.5 42 21:40 21.12.2019
2219 Mist 20 1015 77 2500 1.5 30 21:21 21.12.2019
2220 Mist 20 1016 77 2500 1.5 10 20:59 21.12.2019
2221 Mist 20 1016 77 2500 1.5 10 20:41 21.12.2019
2222 Mist 21 1016 73 2500 1.5 10 20:22 21.12.2019
2223 Mist 20 1016 77 2500 0.72 107 19:59 21.12.2019
2224 Mist 20 1016 77 2500 0.72 107 19:41 21.12.2019
2225 Mist 20 1016 77 2500 0.72 107 19:20 21.12.2019
2226 Mist 20 1016 72 2500 0.72 107 18:56 21.12.2019
2227 Mist 20 1016 77 2500 0.72 107 18:38 21.12.2019
2228 Mist 20 1016 77 2500 0.72 107 18:20 21.12.2019
2229 Mist 20 1016 72 2500 0.72 107 17:55 21.12.2019
2230 Mist 21 1016 73 2500 0.72 107 17:37 21.12.2019
2231 Mist 21 1016 73 2500 1.28 111 17:18 21.12.2019
2232 Mist 21 1016 68 2500 1.28 111 16:41 21.12.2019
2233 Mist 21 1016 73 2500 1.5 90 16:19 21.12.2019
2234 Mist 21 1016 73 2500 1.5 90 16:19 21.12.2019
2235 Haze 22 1015 68 2500 1.5 90 15:58 21.12.2019
2236 Haze 22 1015 68 2500 1.5 90 15:39 21.12.2019
2237 Haze 23 1015 60 2500 1 80 15:20 21.12.2019
2238 Haze 23 1015 60 2500 1 50 14:57 21.12.2019
2239 Haze 23 1014 60 2500 1 60 14:39 21.12.2019
2240 Haze 23 1014 60 2500 1 60 14:39 21.12.2019
2241 Haze 23 1014 60 2500 1 60 14:20 21.12.2019
2242 Haze 23 1014 60 2500 1 80 13:56 21.12.2019
2243 Haze 24 1014 60 2500 1 80 13:38 21.12.2019
2244 Haze 24 1014 60 2500 1 80 13:18 21.12.2019
2245 Haze 25 1014 57 3000 1 50 12:55 21.12.2019
2246 Haze 26 1013 50 3000 1 60 12:37 21.12.2019
2247 Haze 26 1013 50 3000 1 60 12:18 21.12.2019
2248 Haze 27 1013 47 3000 1 70 11:44 21.12.2019
2249 Haze 27 1013 47 3000 1 50 11:26 21.12.2019
2250 Haze 27 1014 47 3000 1 90 10:57 21.12.2019
2251 Haze 27 1014 47 3000 1 90 10:57 21.12.2019
2252 Haze 27 1014 51 3000 1.5 100 10:38 21.12.2019
2253 Haze 27 1014 51 3000 1.5 100 10:20 21.12.2019
2254 Haze 27 1014 51 3000 1 100 09:44 21.12.2019
2255 Haze 26 1015 50 3000 2.6 110 09:22 21.12.2019
2256 Haze 26 1015 50 3000 1 110 08:59 21.12.2019
2257 Haze 26 1015 50 3000 1 110 08:39 21.12.2019
2258 Haze 26 1016 50 3000 1 110 08:21 21.12.2019
2259 Haze 25 1017 50 3000 1 100 07:44 21.12.2019
2260 Haze 25 1018 47 3000 1.5 90 07:22 21.12.2019
2261 Haze 24 1018 50 2500 2.1 90 06:45 21.12.2019
2262 Haze 23 1018 46 2500 2.1 60 06:26 21.12.2019
2263 Haze 22 1018 49 2500 1.5 50 05:51 21.12.2019
2264 Mist 20 1018 64 2000 1.96 68 04:58 21.12.2019
2265 Mist 17 1017 82 1500 1.96 68 03:59 21.12.2019
2266 Mist 16 1017 82 1500 1.96 68 03:18 21.12.2019
2267 Mist 15 1016 93 2500 1 10 01:59 21.12.2019
2268 Haze 16 1016 87 3000 1 10 01:28 21.12.2019
2269 Haze 16 1015 87 3000 1.82 52 00:55 21.12.2019
2270 Haze 16 1015 82 3000 1.82 52 00:37 21.12.2019
2271 Haze 16 1015 82 3000 1.82 52 00:18 21.12.2019
2272 Haze 17 1015 82 3000 1.5 20 23:38 20.12.2019
2273 Haze 17 1015 82 3000 1.5 20 23:19 20.12.2019
2274 Haze 16 1015 87 3000 2.32 39 22:41 20.12.2019
2275 Haze 17 1015 82 3000 2.32 39 22:21 20.12.2019
2276 Haze 17 1015 88 3000 2.32 39 21:59 20.12.2019
2277 Haze 17 1015 88 3000 2.32 39 21:40 20.12.2019
2278 Haze 16 1015 87 3000 2.32 39 21:20 20.12.2019
2279 Haze 16 1015 87 3000 2.32 39 21:20 20.12.2019
2280 Haze 18 1015 77 3000 1 50 20:41 20.12.2019
2281 Haze 19 1015 77 3000 1 40 20:21 20.12.2019
2282 Haze 19 1016 77 3000 1 40 19:59 20.12.2019
2283 Haze 19 1016 77 3000 1 40 19:59 20.12.2019
2284 Haze 19 1016 77 3000 1 40 19:40 20.12.2019
2285 Haze 20 1016 72 3000 1 40 19:20 20.12.2019
2286 Haze 20 1016 77 3000 1 50 18:55 20.12.2019
2287 Haze 20 1016 77 3000 1 50 18:55 20.12.2019
2288 Haze 20 1016 77 3000 1 50 18:55 20.12.2019
2289 Haze 19 1016 77 3000 1 40 18:36 20.12.2019
2290 Haze 19 1016 77 3000 1 40 18:36 20.12.2019
2291 Haze 19 1016 77 3000 1 40 18:18 20.12.2019
2292 Haze 20 1016 72 3000 2.41 49 17:42 20.12.2019
2293 Haze 20 1016 72 3000 2.41 49 17:42 20.12.2019
2294 Haze 20 1016 72 3000 1.08 139 17:21 20.12.2019
2295 Haze 20 1016 72 3000 1 150 16:59 20.12.2019
2296 Haze 20 1016 72 3000 1.08 139 16:40 20.12.2019
2297 Haze 20 1016 72 3000 1.08 139 16:20 20.12.2019
2298 Haze 20 1016 72 3000 1.08 139 16:20 20.12.2019
2299 Haze 21 1016 68 3000 1.08 139 15:57 20.12.2019
2300 Haze 21 1016 68 3000 1.08 139 15:39 20.12.2019
2301 Haze 21 1016 68 3000 1.08 139 15:19 20.12.2019
2302 Haze 21 1015 68 3000 1 140 14:57 20.12.2019
2303 Haze 21 1015 68 3000 1 140 14:57 20.12.2019
2304 Haze 22 1015 68 2500 1 120 14:39 20.12.2019
2305 Haze 22 1015 68 2500 1 120 14:20 20.12.2019
2306 Haze 24 1014 60 2000 1 120 13:42 20.12.2019
2307 Haze 24 1014 60 2000 1 120 13:21 20.12.2019
2308 Haze 26 1013 50 2000 1 30 12:59 20.12.2019
2309 Haze 26 1013 50 2000 1 30 12:40 20.12.2019
2310 Haze 26 1013 50 2000 1 30 12:19 20.12.2019
2311 Haze 26 1013 50 2000 1 30 11:59 20.12.2019
2312 Haze 27 1013 47 2500 1 30 11:39 20.12.2019
2313 Haze 27 1013 47 2500 1 30 11:20 20.12.2019
2314 Haze 27 1013 47 2500 1 30 10:59 20.12.2019
2315 Haze 27 1013 47 2500 1.5 30 10:41 20.12.2019
2316 Haze 27 1013 47 2500 1.5 30 10:20 20.12.2019
2317 Haze 26 1014 50 2500 1 320 09:55 20.12.2019
2318 Haze 26 1014 50 2500 1 30 09:37 20.12.2019
2319 Haze 26 1014 50 2500 1 30 09:19 20.12.2019
2320 Haze 25 1015 53 2500 1 90 08:42 20.12.2019
2321 Haze 25 1015 53 2500 1 90 08:22 20.12.2019
2322 Haze 25 1016 53 2500 1.5 60 07:58 20.12.2019
2323 Haze 24 1017 53 2500 1 60 07:40 20.12.2019
2324 Haze 24 1017 53 2500 1 60 07:19 20.12.2019
2325 Haze 24 1017 53 2500 1 60 07:19 20.12.2019
2326 Mist 23 1017 56 2500 1.5 90 06:50 20.12.2019
2327 Mist 22 1018 56 2500 2.1 110 06:31 20.12.2019
2328 Mist 22 1018 60 2000 1 90 05:52 20.12.2019
2329 Mist 21 1018 60 2000 1.5 70 05:34 20.12.2019
2330 Mist 19 1017 77 1500 1.5 30 04:30 20.12.2019
2331 Mist 16 1016 87 1500 1 30 03:29 20.12.2019
2332 Mist 15 1016 87 2000 2.11 59 02:41 20.12.2019
2333 Haze 16 1016 82 2500 1.77 39 01:44 20.12.2019
2334 Haze 17 1015 82 2500 1 20 01:18 20.12.2019
2335 Haze 17 1015 77 2500 1.58 40 00:41 20.12.2019
2336 Haze 17 1015 77 2500 1.58 40 00:20 20.12.2019
2337 Haze 17 1015 77 2500 1 30 23:43 19.12.2019
2338 Haze 17 1015 77 2500 1 30 23:24 19.12.2019
2339 Haze 18 1015 77 2500 1 10 22:56 19.12.2019
2340 Haze 18 1015 77 2500 2.7 44 22:36 19.12.2019
2341 Haze 18 1015 77 2500 2.7 44 22:36 19.12.2019
2342 Haze 18 1015 77 2500 2.7 44 22:18 19.12.2019
2343 Haze 18 1015 77 2500 2.7 44 22:18 19.12.2019
2344 Haze 18 1015 77 2500 1.5 50 21:42 19.12.2019
2345 Haze 18 1015 77 2500 1.5 50 21:42 19.12.2019
2346 Haze 18 1015 77 2500 1.5 50 21:42 19.12.2019
2347 Haze 18 1015 77 2500 1.5 50 21:20 19.12.2019
2348 Haze 19 1016 72 2500 1 50 20:59 19.12.2019
2349 Haze 19 1016 72 2500 1 30 20:39 19.12.2019
2350 Haze 19 1016 72 2500 1 30 20:21 19.12.2019
2351 Haze 19 1016 77 2500 1 40 19:59 19.12.2019
2352 Haze 19 1016 77 2500 1 40 19:59 19.12.2019
2353 Haze 20 1016 72 2500 1 40 19:40 19.12.2019
2354 Haze 20 1016 72 2500 1 40 19:20 19.12.2019
2355 Haze 20 1016 77 2500 1 30 19:00 19.12.2019
2356 Haze 19 1016 77 2500 3.11 32 18:41 19.12.2019
2357 Haze 19 1016 77 2500 3.11 32 18:20 19.12.2019
2358 Haze 19 1016 77 2500 3.11 32 17:57 19.12.2019
2359 Haze 20 1016 72 2500 1 170 17:38 19.12.2019
2360 Haze 20 1016 72 2500 1 170 17:38 19.12.2019
2361 Haze 20 1016 72 2500 1 170 17:19 19.12.2019
2362 Haze 20 1016 72 2500 0.82 111 16:57 19.12.2019
2363 Haze 20 1016 72 2500 1 190 16:38 19.12.2019
2364 Haze 20 1016 72 2500 1 190 16:20 19.12.2019
2365 Haze 20 1016 72 2500 1 190 16:20 19.12.2019
2366 Haze 20 1016 72 2500 0.82 111 15:58 19.12.2019
2367 Haze 20 1015 77 2500 1.5 150 15:39 19.12.2019
2368 Haze 20 1015 77 2500 1.5 150 15:19 19.12.2019
2369 Haze 21 1015 68 2500 1.5 130 14:57 19.12.2019
2370 Haze 21 1015 68 2500 1.5 150 14:39 19.12.2019
2371 Haze 21 1015 68 2500 1.5 150 14:18 19.12.2019
2372 Haze 23 1014 64 3000 2.21 141 13:39 19.12.2019
2373 Haze 23 1014 64 3000 1.98 162 13:20 19.12.2019
2374 Haze 25 1014 53 3000 1 20 12:59 19.12.2019
2375 Haze 26 1014 50 3000 1 20 12:40 19.12.2019
2376 Haze 26 1014 50 3000 1 20 12:19 19.12.2019
2377 Haze 26 1014 50 3000 1 20 12:19 19.12.2019
2378 Haze 26 1014 50 3000 1 20 12:19 19.12.2019
2379 Haze 26 1014 47 3000 1 360 11:59 19.12.2019
2380 Haze 26 1014 47 3000 1 10 11:41 19.12.2019
2381 Haze 26 1014 47 3000 1 10 11:20 19.12.2019
2382 Haze 26 1014 47 3000 1 10 11:20 19.12.2019
2383 Haze 26 1014 47 3000 1 10 11:20 19.12.2019
2384 Haze 27 1014 47 3000 4.1 20 10:59 19.12.2019
2385 Haze 27 1015 44 3000 1.5 60 10:38 19.12.2019
2386 Haze 27 1015 44 3000 1.5 60 10:38 19.12.2019
2387 Haze 27 1015 44 3000 1.5 60 10:20 19.12.2019
2388 Haze 26 1015 44 3000 1.28 311 09:57 19.12.2019
2389 Haze 26 1016 47 3000 1 60 09:37 19.12.2019
2390 Haze 26 1016 50 3000 1 60 09:19 19.12.2019
2391 Haze 26 1016 50 3000 1 60 08:55 19.12.2019
2392 Haze 25 1017 50 3000 1 60 08:37 19.12.2019
2393 Haze 25 1017 50 3000 1 60 08:18 19.12.2019
2394 Haze 24 1019 47 3000 1 50 07:43 19.12.2019
2395 Haze 24 1019 47 3000 1 50 07:24 19.12.2019
2396 Haze 23 1019 46 3000 1 50 06:59 19.12.2019
2397 Haze 23 1020 43 3000 1 70 06:41 19.12.2019
2398 Haze 23 1020 43 3000 1 70 06:21 19.12.2019
2399 Haze 21 1020 52 2500 1 60 05:42 19.12.2019
2400 Haze 21 1020 52 2500 1 60 05:19 19.12.2019
2401 Mist 17 1019 67 2000 1 20 03:53 19.12.2019
2402 Mist 16 1018 72 2500 2.83 50 02:29 19.12.2019
2403 Mist 16 1017 72 2500 1 20 01:26 19.12.2019
2404 Haze 17 1017 72 2500 2.64 44 00:59 19.12.2019
2405 Haze 17 1017 72 2500 1 40 00:39 19.12.2019
2406 Haze 17 1017 72 2500 1 40 00:19 19.12.2019
2407 Haze 17 1017 72 2500 2.64 44 23:45 18.12.2019
2408 Haze 17 1017 77 2500 1 30 23:19 18.12.2019
2409 Haze 17 1017 82 2500 1.5 40 22:58 18.12.2019
2410 Haze 17 1017 88 2500 1 20 22:39 18.12.2019
2411 Haze 17 1017 88 2500 1 20 22:21 18.12.2019
2412 Haze 17 1017 82 2500 3.22 40 21:58 18.12.2019
2413 Haze 18 1017 77 2500 3.22 40 21:40 18.12.2019
2414 Haze 18 1017 77 2500 3.22 40 21:20 18.12.2019
2415 Haze 18 1017 77 2500 3.22 40 21:20 18.12.2019
2416 Haze 17 1018 82 2500 3.22 40 20:57 18.12.2019
2417 Haze 18 1018 77 2500 1 50 20:38 18.12.2019
2418 Haze 18 1018 77 2500 1 50 20:20 18.12.2019
2419 Haze 19 1018 72 2500 1 50 19:56 18.12.2019
2420 Haze 19 1018 77 2500 1 60 19:38 18.12.2019
2421 Haze 19 1018 77 2500 1 60 19:38 18.12.2019
2422 Haze 19 1018 77 2500 1 60 19:18 18.12.2019
2423 Haze 19 1018 82 2500 1 60 18:54 18.12.2019
2424 Haze 20 1019 77 2500 1 90 18:36 18.12.2019
2425 Haze 20 1019 77 2500 1 90 18:18 18.12.2019
2426 Haze 20 1019 77 2500 1 90 17:55 18.12.2019
2427 Haze 20 1019 77 2500 1 80 17:37 18.12.2019
2428 Haze 20 1019 77 2500 1 90 17:18 18.12.2019
2429 Haze 20 1019 77 2500 1 90 16:42 18.12.2019
2430 Haze 20 1019 77 2500 1 90 16:42 18.12.2019
2431 Haze 20 1019 77 2500 1.5 90 16:23 18.12.2019
2432 Haze 20 1019 82 2500 1 90 15:57 18.12.2019
2433 Haze 21 1018 77 2500 1 80 15:39 18.12.2019
2434 Haze 21 1018 77 2500 1 80 15:21 18.12.2019
2435 Haze 21 1018 77 2500 1 90 14:56 18.12.2019
2436 Haze 21 1018 77 2500 1 90 14:36 18.12.2019
2437 Haze 21 1018 77 2500 1 90 14:18 18.12.2019
2438 Haze 22 1017 73 2500 1 100 13:54 18.12.2019
2439 Haze 22 1017 73 2500 1 100 13:36 18.12.2019
2440 Haze 22 1017 73 2500 1 100 13:18 18.12.2019
2441 Haze 22 1017 73 2500 1 100 13:18 18.12.2019
2442 Haze 25 1017 61 2500 1 100 12:40 18.12.2019
2443 Haze 25 1017 61 2500 1 100 12:40 18.12.2019
2444 Haze 25 1017 61 2500 1 100 12:21 18.12.2019
2445 Haze 25 1017 57 2500 1 90 11:57 18.12.2019
2446 Haze 25 1017 53 2500 1 120 11:39 18.12.2019
2447 Haze 25 1017 53 2500 1 120 11:20 18.12.2019
2448 Haze 25 1017 57 2500 1 60 10:57 18.12.2019
2449 Haze 25 1017 53 2500 1 80 10:39 18.12.2019
2450 Haze 25 1017 53 2500 1 80 10:20 18.12.2019
2451 Haze 25 1017 53 2500 1 80 10:20 18.12.2019
2452 Haze 25 1018 57 2500 1 80 09:57 18.12.2019
2453 Haze 24 1018 57 2500 1 60 09:19 18.12.2019
2454 Haze 24 1019 60 2500 1 60 08:42 18.12.2019
2455 Haze 23 1019 60 2500 1.5 70 08:24 18.12.2019
2456 Haze 23 1020 60 2500 1 60 07:57 18.12.2019
2457 Haze 22 1021 60 2500 1.5 50 07:39 18.12.2019
2458 Haze 22 1021 60 2500 1.5 50 07:19 18.12.2019
2459 Haze 21 1021 60 2500 1.5 70 06:51 18.12.2019
2460 Haze 20 1021 64 2500 1.5 40 06:23 18.12.2019
2461 Haze 18 1022 68 2500 1.5 40 05:34 18.12.2019
2462 Mist 16 1021 72 2000 1 60 03:46 18.12.2019
2463 Mist 15 1020 82 2000 1 360 02:44 18.12.2019
2464 Mist 15 1019 82 2000 1.5 60 02:26 18.12.2019
2465 Clouds 16 1017 63 0 3.14 18 01:43 18.12.2019
2466 Mist 16 1018 82 2500 3.14 18 01:25 18.12.2019
2467 Mist 16 1018 82 2500 3.08 24 00:42 18.12.2019
2468 Mist 16 1018 82 2500 3.08 24 00:24 18.12.2019
2469 Mist 16 1018 82 2500 3.08 24 23:58 17.12.2019
2470 Mist 16 1018 82 2500 3.08 24 23:39 17.12.2019
2471 Mist 16 1018 82 2500 3.31 32 23:20 17.12.2019
2472 Mist 16 1018 82 2500 1 20 22:57 17.12.2019
2473 Mist 16 1018 82 2500 2.1 20 22:38 17.12.2019
2474 Mist 16 1018 82 2500 2.1 20 22:19 17.12.2019
2475 Mist 16 1018 82 2500 1.5 20 21:57 17.12.2019
2476 Mist 17 1018 82 2500 2.1 20 21:38 17.12.2019
2477 Mist 17 1018 82 2500 2.1 20 21:20 17.12.2019
2478 Mist 17 1018 82 2500 1.5 20 20:58 17.12.2019
2479 Mist 17 1018 82 2500 2.1 20 20:39 17.12.2019
2480 Mist 17 1018 82 2500 2.1 20 20:18 17.12.2019
2481 Mist 17 1018 82 2500 1.5 20 19:56 17.12.2019
2482 Mist 18 1019 77 2500 3.1 20 19:38 17.12.2019
2483 Mist 18 1019 77 2500 3.1 20 19:19 17.12.2019
2484 Mist 18 1019 77 2500 2.1 20 18:55 17.12.2019
2485 Mist 18 1019 77 2500 3.6 30 18:37 17.12.2019
2486 Mist 18 1019 77 2500 3.6 30 18:19 17.12.2019
2487 Mist 19 1019 77 2500 2.1 50 17:42 17.12.2019
2488 Mist 19 1019 77 2500 2.1 50 17:42 17.12.2019
2489 Mist 19 1019 77 2500 2.1 50 17:21 17.12.2019
2490 Haze 20 1019 77 2500 2.1 50 16:57 17.12.2019
2491 Haze 20 1019 77 2500 2.1 50 16:38 17.12.2019
2492 Haze 20 1019 77 2500 2.1 50 16:19 17.12.2019
2493 Haze 21 1018 73 2500 3.1 40 15:58 17.12.2019
2494 Haze 21 1018 73 2500 2.6 40 15:37 17.12.2019
2495 Haze 21 1018 73 2500 2.6 40 15:19 17.12.2019
2496 Haze 21 1017 73 2500 1.5 80 14:56 17.12.2019
2497 Haze 22 1017 73 2500 1 80 14:37 17.12.2019
2498 Haze 22 1017 73 2500 1 80 14:18 17.12.2019
2499 Haze 22 1017 73 2500 1 80 14:18 17.12.2019
2500 Haze 22 1017 73 2500 1 80 14:18 17.12.2019
2501 Haze 22 1017 68 2500 1 90 13:56 17.12.2019
2502 Haze 23 1017 69 2500 1 60 13:37 17.12.2019
2503 Haze 23 1017 69 2500 1 60 13:18 17.12.2019
2504 Haze 24 1016 64 2500 1.5 60 12:55 17.12.2019
2505 Haze 25 1016 61 2500 1.5 50 12:37 17.12.2019
2506 Haze 25 1016 61 2500 1.5 50 12:18 17.12.2019
2507 Haze 25 1016 57 2500 1.5 50 11:54 17.12.2019
2508 Haze 25 1016 57 2500 1 60 11:36 17.12.2019
2509 Haze 25 1016 57 2500 1 360 11:18 17.12.2019
2510 Haze 25 1016 57 2500 1 360 10:54 17.12.2019
2511 Haze 25 1017 57 2500 1 40 10:36 17.12.2019
2512 Haze 25 1017 57 2500 1 40 10:18 17.12.2019
2513 Haze 25 1018 61 2500 1.5 80 09:42 17.12.2019
2514 Haze 25 1018 61 2500 1.5 80 09:21 17.12.2019
2515 Haze 25 1018 61 2500 1.5 80 09:21 17.12.2019
2516 Haze 24 1018 64 2000 1.5 60 08:56 17.12.2019
2517 Haze 24 1019 60 2000 1.5 60 08:38 17.12.2019
2518 Haze 24 1019 60 2000 1.5 60 08:38 17.12.2019
2519 Haze 24 1019 60 2000 1.5 60 08:38 17.12.2019
2520 Haze 24 1019 60 2000 1.5 60 08:38 17.12.2019
2521 Haze 24 1019 60 2000 1.5 60 08:20 17.12.2019
2522 Haze 23 1019 64 2000 1.5 70 07:55 17.12.2019
2523 Haze 22 1020 68 2000 1 50 07:36 17.12.2019
2524 Haze 22 1020 68 2000 1 50 07:18 17.12.2019
2525 Haze 21 1021 68 2000 2.1 50 06:35 17.12.2019
2526 Haze 21 1021 68 2000 2.1 50 05:56 17.12.2019
2527 Haze 19 1021 72 2000 1.5 30 05:36 17.12.2019
2528 Mist 18 1021 77 1500 1 30 04:33 17.12.2019
2529 Mist 16 1019 87 1500 3.64 44 02:45 17.12.2019
2530 Mist 16 1018 87 2000 3.2 32 01:56 17.12.2019
2531 Mist 17 1018 82 2000 1 20 01:18 17.12.2019
2532 Mist 17 1018 82 2000 1.5 10 00:38 17.12.2019
2533 Mist 17 1018 82 2000 1.5 10 00:38 17.12.2019
2534 Mist 17 1018 82 2000 1.5 10 00:38 17.12.2019
2535 Mist 17 1018 82 2000 1.5 10 00:38 17.12.2019
2536 Mist 17 1018 82 2000 1.5 10 00:38 17.12.2019
2537 Mist 17 1018 82 2000 1.5 10 00:20 17.12.2019
2538 Mist 17 1017 82 2000 1 20 23:42 16.12.2019
2539 Mist 17 1017 82 2000 1 20 23:19 16.12.2019
2540 Mist 17 1018 82 2000 1 40 22:58 16.12.2019
2541 Mist 17 1018 82 2000 1 30 22:37 16.12.2019
2542 Mist 17 1018 82 2000 1 30 22:19 16.12.2019
2543 Mist 17 1018 82 2000 1 30 22:19 16.12.2019
2544 Mist 18 1018 77 2000 1 30 21:56 16.12.2019
2545 Mist 18 1018 77 2000 1.5 40 21:37 16.12.2019
2546 Mist 18 1018 77 2000 1.5 40 21:19 16.12.2019
2547 Mist 18 1018 82 2000 1.5 30 20:57 16.12.2019
2548 Mist 18 1018 82 2000 1.5 20 20:38 16.12.2019
2549 Mist 18 1018 82 2000 1.5 20 20:19 16.12.2019
2550 Mist 18 1018 82 2000 2.1 20 19:56 16.12.2019
2551 Mist 19 1018 77 2000 2.1 30 19:37 16.12.2019
2552 Mist 19 1018 77 2000 2.1 30 19:19 16.12.2019
2553 Mist 19 1018 77 2000 2.1 20 18:56 16.12.2019
2554 Mist 19 1019 82 2000 2.1 20 18:38 16.12.2019
2555 Mist 19 1019 82 2000 2.1 20 18:38 16.12.2019
2556 Mist 19 1019 82 2000 2.1 20 18:19 16.12.2019
2557 Mist 19 1019 82 2000 2.1 40 17:57 16.12.2019
2558 Mist 20 1019 77 2000 3.1 30 17:38 16.12.2019
2559 Mist 20 1019 77 2000 3.1 30 17:20 16.12.2019
2560 Mist 20 1019 82 2000 2.1 20 16:56 16.12.2019
2561 Mist 20 1018 82 2000 1 30 16:38 16.12.2019
2562 Mist 20 1018 82 2000 1 30 16:19 16.12.2019
2563 Mist 21 1018 77 2000 1.5 30 15:57 16.12.2019
2564 Mist 21 1018 83 2000 1.5 40 15:38 16.12.2019
2565 Mist 21 1018 83 2000 1.5 40 15:20 16.12.2019
2566 Mist 21 1017 83 2000 1 30 14:55 16.12.2019
2567 Mist 21 1017 83 2000 1 30 14:37 16.12.2019
2568 Mist 21 1017 83 2000 1 30 14:18 16.12.2019
2569 Haze 22 1016 78 1500 1 30 13:56 16.12.2019
2570 Haze 22 1016 78 1500 1 30 13:37 16.12.2019
2571 Haze 22 1016 78 1500 1 30 13:19 16.12.2019
2572 Haze 23 1016 73 1500 1 30 12:56 16.12.2019
2573 Haze 23 1016 73 1500 1 30 12:38 16.12.2019
2574 Haze 23 1016 73 1500 1 30 12:18 16.12.2019
2575 Haze 23 1016 73 1500 1 30 12:18 16.12.2019
2576 Haze 23 1015 73 1800 1 40 11:55 16.12.2019
2577 Haze 23 1015 73 1800 1 60 11:37 16.12.2019
2578 Haze 23 1015 73 1800 1.5 60 11:19 16.12.2019
2579 Haze 23 1016 73 1800 1.5 60 10:40 16.12.2019
2580 Haze 23 1016 73 1800 1.5 60 10:40 16.12.2019
2581 Haze 23 1016 73 1800 1.5 60 10:40 16.12.2019
2582 Haze 23 1016 73 1800 1.5 60 10:22 16.12.2019
2583 Haze 23 1016 73 2000 2.6 90 09:59 16.12.2019
2584 Haze 23 1016 69 2000 2.1 50 09:41 16.12.2019
2585 Haze 23 1016 69 2000 2.1 50 09:23 16.12.2019
2586 Haze 22 1017 73 2000 2.1 50 08:40 16.12.2019
2587 Haze 22 1017 73 2000 2.1 50 08:19 16.12.2019
2588 Haze 22 1017 73 2000 2.1 50 08:19 16.12.2019
2589 Haze 22 1018 73 2000 2.1 50 07:52 16.12.2019
2590 Haze 22 1018 73 2000 1.5 50 07:31 16.12.2019
2591 Mist 22 1019 73 2000 1.5 50 06:52 16.12.2019
2592 Mist 21 1018 73 2000 3.1 80 06:27 16.12.2019
2593 Mist 20 1019 77 1500 2.1 30 05:59 16.12.2019
2594 Mist 20 1019 77 1500 1.5 360 05:40 16.12.2019
2595 Mist 20 1019 77 1500 1.5 360 05:22 16.12.2019
2596 Mist 18 1018 88 2000 1.5 30 03:28 16.12.2019
2597 Mist 18 1016 88 2000 2.6 360 01:46 16.12.2019
2598 Haze 18 1016 88 2500 1.5 30 00:57 16.12.2019
2599 Haze 18 1016 88 2500 1 40 00:38 16.12.2019
2600 Haze 18 1016 88 2500 1 40 00:19 16.12.2019
2601 Haze 18 1016 88 2500 1.5 30 23:43 15.12.2019
2602 Haze 18 1016 88 2500 1.5 30 23:25 15.12.2019
2603 Haze 18 1016 93 2500 1 30 22:57 15.12.2019
2604 Haze 18 1016 93 2500 1 50 22:38 15.12.2019
2605 Haze 18 1016 93 2500 1 50 22:19 15.12.2019
2606 Rain 18 1016 93 2000 1.5 20 21:58 15.12.2019
2607 Rain 18 1016 93 2000 2.6 20 21:38 15.12.2019
2608 Rain 18 1016 93 2000 2.6 20 21:20 15.12.2019
2609 Haze 19 1017 82 2500 1 20 20:58 15.12.2019
2610 Haze 19 1017 82 2500 1 360 20:39 15.12.2019
2611 Haze 19 1017 82 2500 1 360 20:39 15.12.2019
2612 Haze 19 1017 82 2500 1 360 20:21 15.12.2019
2613 Haze 19 1017 82 2500 1 20 19:58 15.12.2019
2614 Haze 20 1017 77 2500 2.1 10 19:40 15.12.2019
2615 Haze 20 1017 77 2500 2.1 10 19:19 15.12.2019
2616 Haze 20 1017 82 2000 3.1 30 18:57 15.12.2019
2617 Rain 20 1017 82 2000 2.6 30 18:39 15.12.2019
2618 Rain 20 1017 82 2000 2.6 30 18:18 15.12.2019
2619 Haze 20 1017 82 2500 3.1 30 17:56 15.12.2019
2620 Haze 20 1017 82 2500 3.1 30 17:56 15.12.2019
2621 Haze 20 1017 82 2500 3.1 40 17:37 15.12.2019
2622 Haze 20 1017 82 2500 3.1 40 17:19 15.12.2019
2623 Haze 20 1017 82 2500 2.6 40 16:57 15.12.2019
2624 Haze 20 1017 82 2500 2.6 40 16:57 15.12.2019
2625 Haze 20 1017 82 2500 3.1 40 16:39 15.12.2019
2626 Haze 20 1017 82 2500 3.1 40 16:20 15.12.2019
2627 Haze 21 1017 77 2500 3.6 30 15:55 15.12.2019
2628 Haze 21 1016 77 2500 3.1 40 15:37 15.12.2019
2629 Haze 21 1016 77 2500 3.1 40 15:37 15.12.2019
2630 Haze 21 1016 77 2500 3.1 40 15:18 15.12.2019
2631 Rain 21 1016 83 2000 3.6 30 14:55 15.12.2019
2632 Rain 21 1016 83 2000 3.6 30 14:55 15.12.2019
2633 Rain 21 1016 83 2000 3.6 40 14:36 15.12.2019
2634 Rain 21 1016 83 2000 3.6 40 14:18 15.12.2019
2635 Haze 21 1015 88 2000 3.6 20 13:55 15.12.2019
2636 Rain 21 1015 88 2000 2.6 20 13:37 15.12.2019
2637 Rain 21 1015 88 2000 2.6 20 13:18 15.12.2019
2638 Rain 21 1015 88 2000 2.6 20 13:18 15.12.2019
2639 Rain 22 1015 83 2000 2.6 20 12:56 15.12.2019
2640 Haze 23 1014 78 2000 4.6 10 12:38 15.12.2019
2641 Haze 23 1014 78 2000 4.6 10 12:19 15.12.2019
2642 Rain 28 1014 51 3500 3.03 287 11:38 15.12.2019
2643 Rain 28 1014 51 3500 2.14 245 11:20 15.12.2019
2644 Haze 28 1014 51 3500 1.5 190 10:58 15.12.2019
2645 Haze 28 1014 45 3500 1.5 210 10:40 15.12.2019
2646 Haze 28 1014 45 3500 1.5 210 10:20 15.12.2019
2647 Haze 28 1014 45 3500 3.1 230 09:59 15.12.2019
2648 Haze 28 1015 54 3500 2.14 245 09:38 15.12.2019
2649 Haze 28 1015 54 3500 2.14 245 09:20 15.12.2019
2650 Haze 27 1016 57 3500 1 290 08:55 15.12.2019
2651 Haze 27 1016 61 3500 1.5 270 08:37 15.12.2019
2652 Haze 27 1016 61 3500 1.5 270 08:19 15.12.2019
2653 Haze 27 1017 61 3500 1.5 290 07:53 15.12.2019
2654 Haze 26 1018 65 3000 1.5 240 07:31 15.12.2019
2655 Haze 24 1018 73 3000 1 250 06:30 15.12.2019
2656 Mist 24 1018 73 2000 2.72 163 05:49 15.12.2019
2657 Mist 23 1018 78 2000 1.43 74 05:22 15.12.2019
2658 Mist 21 1018 88 1500 1.43 74 04:22 15.12.2019
2659 Mist 19 1017 93 2000 1.43 74 02:55 15.12.2019
2660 Haze 19 1016 93 2500 1 50 02:32 15.12.2019
2661 Haze 19 1016 93 2500 1 100 01:41 15.12.2019
2662 Haze 20 1016 88 3000 1.81 47 01:19 15.12.2019
2663 Haze 21 1016 83 3000 2.28 51 00:51 15.12.2019
2664 Haze 21 1015 83 3000 2.28 51 00:32 15.12.2019
2665 Haze 20 1015 88 3000 2.28 51 23:54 14.12.2019
2666 Haze 20 1015 88 3000 2.28 51 23:36 14.12.2019
2667 Haze 20 1016 88 3000 2 46 23:18 14.12.2019
2668 Haze 21 1016 83 3000 2 46 22:42 14.12.2019
2669 Haze 21 1016 83 3000 2 46 22:42 14.12.2019
2670 Haze 21 1016 83 3000 2 46 22:22 14.12.2019
2671 Haze 21 1016 83 3000 2 46 21:58 14.12.2019
2672 Haze 20 1016 88 3000 2 46 21:40 14.12.2019
2673 Haze 20 1016 88 3000 2 46 21:20 14.12.2019
2674 Haze 20 1016 88 3000 1 100 20:59 14.12.2019
2675 Haze 20 1016 88 3000 1 100 20:41 14.12.2019
2676 Haze 20 1016 88 3000 1 130 20:20 14.12.2019
2677 Haze 20 1016 88 3000 1 160 19:57 14.12.2019
2678 Haze 21 1016 83 3000 1 140 19:39 14.12.2019
2679 Haze 21 1016 83 3000 1 140 19:20 14.12.2019
2680 Haze 21 1017 83 3000 1 140 18:56 14.12.2019
2681 Haze 21 1017 83 3000 1 120 18:38 14.12.2019
2682 Haze 21 1017 83 3000 1 120 18:38 14.12.2019
2683 Haze 21 1017 83 3000 1 120 18:19 14.12.2019
2684 Haze 22 1017 78 3000 1 90 17:44 14.12.2019
2685 Haze 22 1017 78 3000 1 90 17:24 14.12.2019
2686 Haze 22 1017 83 3000 1 90 16:59 14.12.2019
2687 Haze 22 1017 83 3000 1 90 16:40 14.12.2019
2688 Haze 22 1017 83 3000 1 90 16:19 14.12.2019
2689 Haze 22 1017 83 3000 1 90 16:19 14.12.2019
2690 Haze 23 1016 78 3000 1 100 15:43 14.12.2019
2691 Haze 23 1016 78 3000 1 90 15:24 14.12.2019
2692 Haze 23 1016 78 3000 1.5 90 14:59 14.12.2019
2693 Haze 24 1016 73 3000 1 110 14:39 14.12.2019
2694 Haze 24 1016 73 3000 1 110 14:20 14.12.2019
2695 Haze 25 1015 65 3500 1 110 13:57 14.12.2019
2696 Haze 25 1015 65 3500 1 110 13:39 14.12.2019
2697 Haze 25 1015 65 3500 1 110 13:19 14.12.2019
2698 Haze 26 1015 61 4000 1.5 100 12:55 14.12.2019
2699 Haze 26 1015 61 4000 1.5 100 12:55 14.12.2019
2700 Haze 26 1015 65 4000 1.5 90 12:37 14.12.2019
2701 Haze 26 1015 61 4000 1.5 110 12:18 14.12.2019
2702 Haze 26 1015 61 4000 1.5 110 11:55 14.12.2019
2703 Haze 27 1015 57 4000 2.14 189 11:36 14.12.2019
2704 Haze 27 1015 57 4000 2.14 189 11:36 14.12.2019
2705 Haze 27 1015 57 4000 3.24 180 11:18 14.12.2019
2706 Haze 28 1015 51 4000 2.96 197 10:55 14.12.2019
2707 Haze 28 1016 51 4000 1 200 10:37 14.12.2019
2708 Haze 28 1016 51 4000 1 200 10:18 14.12.2019
2709 Haze 27 1016 54 4000 1 160 09:40 14.12.2019
2710 Haze 27 1016 54 3500 1.5 170 09:20 14.12.2019
2711 Haze 27 1016 54 3500 1.5 170 09:20 14.12.2019
2712 Haze 28 1017 54 3500 1.5 190 08:44 14.12.2019
2713 Haze 28 1017 54 3500 1.5 190 08:44 14.12.2019
2714 Haze 27 1018 57 3500 1.5 140 08:20 14.12.2019
2715 Haze 27 1018 57 3500 1.5 140 08:20 14.12.2019
2716 Haze 27 1019 57 3500 2.6 240 07:57 14.12.2019
2717 Haze 26 1019 61 3500 1.5 180 07:38 14.12.2019
2718 Haze 26 1019 61 3500 1.5 180 07:19 14.12.2019
2719 Haze 25 1020 65 3000 1.5 100 06:39 14.12.2019
2720 Haze 25 1020 65 3000 1.5 100 06:20 14.12.2019
2721 Haze 23 1020 73 3000 1.5 90 05:20 14.12.2019
2722 Haze 20 1018 88 3000 3.12 107 02:44 14.12.2019
2723 Haze 20 1018 88 3000 1.92 82 02:22 14.12.2019
2724 Haze 20 1017 88 3000 1.92 82 01:37 14.12.2019
2725 Haze 20 1016 88 3000 2.77 106 00:50 14.12.2019
2726 Haze 20 1016 88 3000 2.77 106 00:29 14.12.2019
2727 Haze 20 1016 88 3000 2.77 106 00:29 14.12.2019
2728 Haze 20 1016 88 3000 2.77 106 23:57 13.12.2019
2729 Haze 21 1016 83 3000 2.77 106 23:38 13.12.2019
2730 Haze 21 1016 83 3000 1.1 105 23:19 13.12.2019
2731 Haze 21 1016 83 3000 1.1 105 22:42 13.12.2019
2732 Haze 21 1016 83 3000 1.1 105 22:19 13.12.2019
2733 Haze 21 1016 83 3000 1.1 105 21:56 13.12.2019
2734 Haze 21 1016 83 3000 1.1 105 21:38 13.12.2019
2735 Haze 21 1016 83 3000 1.1 105 21:20 13.12.2019
2736 Haze 20 1016 88 3000 1.1 105 20:43 13.12.2019
2737 Haze 20 1016 88 3000 1.55 111 20:24 13.12.2019
2738 Haze 20 1016 88 3000 1.44 115 19:59 13.12.2019
2739 Haze 21 1016 83 3000 1.44 115 19:41 13.12.2019
2740 Haze 21 1016 83 3000 1.44 115 19:41 13.12.2019
2741 Haze 21 1016 83 3000 1.44 115 19:23 13.12.2019
2742 Haze 21 1017 83 3000 1.44 115 18:59 13.12.2019
2743 Haze 21 1017 83 3000 1.5 140 18:41 13.12.2019
2744 Haze 22 1017 78 3000 2.1 150 18:19 13.12.2019
2745 Haze 22 1017 78 3000 2.1 150 17:55 13.12.2019
2746 Haze 22 1016 78 3000 2.1 150 17:37 13.12.2019
2747 Haze 22 1016 78 3000 2.1 150 17:18 13.12.2019
2748 Haze 22 1016 78 3000 2.1 150 17:18 13.12.2019
2749 Haze 22 1016 78 3000 1 120 16:54 13.12.2019
2750 Haze 23 1016 73 3000 1.5 130 16:36 13.12.2019
2751 Haze 23 1016 73 3000 1.5 130 16:18 13.12.2019
2752 Haze 23 1015 69 3500 1 120 15:38 13.12.2019
2753 Haze 23 1015 69 3500 1 120 15:20 13.12.2019
2754 Haze 23 1014 73 4000 1.5 150 14:41 13.12.2019
2755 Haze 23 1014 73 4000 1.5 150 14:21 13.12.2019
2756 Haze 24 1014 64 4000 1.5 150 13:58 13.12.2019
2757 Haze 24 1014 64 4000 1.5 150 13:58 13.12.2019
2758 Haze 25 1014 65 4000 1.5 150 13:39 13.12.2019
2759 Haze 25 1014 65 4000 1.5 150 13:21 13.12.2019
2760 Haze 25 1014 65 4000 1.5 150 13:21 13.12.2019
2761 Clouds 26 1013 61 5000 2.6 170 12:42 13.12.2019
2762 Clouds 26 1013 61 5000 2.6 170 12:20 13.12.2019
2763 Clouds 27 1013 54 5000 3.1 200 11:57 13.12.2019
2764 Clouds 27 1013 54 5000 3.1 200 11:57 13.12.2019
2765 Clouds 27 1013 54 5000 3.1 220 11:39 13.12.2019
2766 Clouds 27 1013 54 5000 3.1 220 11:21 13.12.2019
2767 Clouds 27 1013 54 5000 4.1 200 10:43 13.12.2019
2768 Haze 27 1014 54 4000 3.6 190 10:23 13.12.2019
2769 Haze 27 1014 54 4000 3.6 190 09:59 13.12.2019
2770 Haze 26 1014 57 4000 3.6 200 09:39 13.12.2019
2771 Haze 26 1014 57 3500 3.6 200 09:18 13.12.2019
2772 Haze 26 1014 57 3500 3.6 200 09:18 13.12.2019
2773 Haze 25 1015 61 3500 3.6 150 08:41 13.12.2019
2774 Haze 25 1015 61 3500 3.6 150 08:23 13.12.2019
2775 Haze 25 1016 61 3500 4.6 180 07:46 13.12.2019
2776 Haze 25 1016 61 3000 3.6 180 07:21 13.12.2019
2777 Haze 24 1017 60 3000 3.6 180 06:54 13.12.2019
2778 Haze 24 1017 60 3000 3.6 180 06:28 13.12.2019
2779 Haze 24 1017 64 3000 3.6 180 05:46 13.12.2019
2780 Haze 23 1017 69 3000 1.5 120 05:26 13.12.2019
2781 Mist 20 1016 82 2000 1.5 110 04:35 13.12.2019
2782 Mist 19 1015 88 2000 1.5 90 03:39 13.12.2019
2783 Mist 19 1014 88 2500 1.52 130 02:33 13.12.2019
2784 Haze 19 1014 88 3000 0.86 343 01:43 13.12.2019
2785 Rain 19 1013 88 3000 0.55 38 00:55 13.12.2019
2786 Rain 20 1013 82 3000 1 270 00:36 13.12.2019
2787 Haze 19 1013 88 3000 1 300 23:57 12.12.2019
2788 Rain 19 1013 88 3000 1.5 320 23:37 12.12.2019
2789 Rain 19 1013 88 3000 1.5 320 23:19 12.12.2019
2790 Haze 20 1012 77 3000 2.59 221 22:54 12.12.2019
2791 Haze 19 1012 82 3000 2.59 221 22:36 12.12.2019
2792 Haze 19 1012 82 3000 2.59 221 22:18 12.12.2019
2793 Haze 19 1012 82 3000 2.59 221 22:18 12.12.2019
2794 Haze 19 1012 82 3000 1 100 21:54 12.12.2019
2795 Haze 19 1012 82 3000 1 90 21:36 12.12.2019
2796 Haze 19 1012 82 3000 1 90 21:18 12.12.2019
2797 Haze 20 1013 77 3000 1 130 20:55 12.12.2019
2798 Haze 20 1013 77 3000 1.5 140 20:37 12.12.2019
2799 Haze 20 1013 77 3000 1.5 140 20:19 12.12.2019
2800 Haze 20 1013 77 3000 2.1 140 19:42 12.12.2019
2801 Haze 20 1013 77 3000 2.1 140 19:22 12.12.2019
2802 Haze 20 1013 77 3000 2.1 140 18:58 12.12.2019
2803 Haze 20 1013 77 3000 2.1 140 18:39 12.12.2019
2804 Haze 20 1013 77 3000 2.1 140 18:20 12.12.2019
2805 Haze 21 1014 73 3000 2.1 140 17:57 12.12.2019
2806 Haze 21 1014 73 3000 2.1 140 17:39 12.12.2019
2807 Haze 21 1014 73 3000 2.1 140 17:20 12.12.2019
2808 Haze 21 1014 73 3000 2.1 140 17:20 12.12.2019
2809 Haze 21 1013 73 3000 2.1 150 16:57 12.12.2019
2810 Haze 21 1013 73 3000 2.1 150 16:38 12.12.2019
2811 Haze 21 1013 73 3000 2.1 150 16:20 12.12.2019
2812 Haze 22 1013 64 3000 2.1 140 15:54 12.12.2019
2813 Haze 23 1013 60 2500 2.1 140 15:36 12.12.2019
2814 Haze 23 1013 60 2500 2.1 140 15:18 12.12.2019
2815 Haze 23 1012 64 2000 1 100 14:38 12.12.2019
2816 Haze 23 1012 64 2000 1 100 14:38 12.12.2019
2817 Haze 23 1012 64 2000 1 100 14:20 12.12.2019
2818 Haze 24 1012 60 2000 1.5 140 13:57 12.12.2019
2819 Haze 25 1011 57 2000 1.5 140 13:39 12.12.2019
2820 Haze 25 1011 57 2000 1.5 140 13:21 12.12.2019
2821 Haze 26 1011 50 2500 1.5 160 12:57 12.12.2019
2822 Haze 27 1012 47 2500 2.6 180 12:39 12.12.2019
2823 Haze 27 1012 47 2500 2.6 180 12:20 12.12.2019
2824 Haze 27 1011 47 2500 2.6 160 11:56 12.12.2019
2825 Haze 27 1011 47 2500 2.6 180 11:37 12.12.2019
2826 Haze 27 1011 47 2500 2.6 180 11:19 12.12.2019
2827 Haze 28 1012 45 2500 3.1 180 10:55 12.12.2019
2828 Haze 27 1012 47 2500 3.1 180 10:37 12.12.2019
2829 Haze 27 1012 47 2500 3.1 180 10:18 12.12.2019
2830 Haze 27 1012 47 2500 3.1 180 10:18 12.12.2019
2831 Haze 27 1013 47 2500 3.6 140 09:41 12.12.2019
2832 Haze 27 1013 47 2500 3.6 140 09:23 12.12.2019
2833 Haze 27 1013 47 2500 3.6 200 08:56 12.12.2019
2834 Haze 26 1014 54 2500 4.6 200 08:38 12.12.2019
2835 Haze 26 1014 54 2500 4.6 200 08:20 12.12.2019
2836 Haze 26 1014 54 2500 3.1 170 07:43 12.12.2019
2837 Haze 26 1015 54 2500 3.6 190 07:24 12.12.2019
2838 Haze 25 1016 57 2500 2.6 180 06:50 12.12.2019
2839 Mist 24 1016 60 2000 3.6 200 06:32 12.12.2019
2840 Mist 22 1016 68 2000 1.5 140 05:39 12.12.2019
2841 Mist 21 1016 73 1500 2.11 130 04:51 12.12.2019
2842 Mist 21 1016 73 1500 2.11 130 04:51 12.12.2019
2843 Mist 16 1015 93 1500 2.11 130 03:24 12.12.2019
2844 Mist 15 1014 93 1500 1 100 02:38 12.12.2019
2845 Mist 15 1014 93 1500 1 100 02:19 12.12.2019
2846 Mist 15 1013 93 2000 1.61 121 01:37 12.12.2019
2847 Mist 15 1013 93 2000 2.15 117 01:18 12.12.2019
2848 Mist 17 1013 88 2000 2.15 117 00:40 12.12.2019
2849 Mist 17 1013 88 2000 2.15 117 00:19 12.12.2019
2850 Mist 17 1013 88 2000 2.15 117 23:44 11.12.2019
2851 Mist 17 1013 88 2000 1.04 95 23:20 11.12.2019
2852 Mist 18 1013 82 2000 1.04 95 22:57 11.12.2019
2853 Mist 18 1013 82 2000 1.04 95 22:38 11.12.2019
2854 Mist 18 1013 82 2000 1.04 95 22:19 11.12.2019
2855 Mist 18 1013 82 2000 1 300 21:57 11.12.2019
2856 Mist 18 1013 82 2000 1.04 95 21:37 11.12.2019
2857 Mist 18 1013 82 2000 1.04 95 21:37 11.12.2019
2858 Mist 18 1013 82 2000 1.04 95 21:19 11.12.2019
2859 Haze 18 1013 82 2500 1.04 95 20:56 11.12.2019
2860 Haze 18 1013 82 2500 1.04 95 20:37 11.12.2019
2861 Haze 18 1013 82 2500 1.69 201 20:19 11.12.2019
2862 Haze 18 1014 82 2500 1.69 201 19:57 11.12.2019
2863 Haze 19 1014 77 2500 1.69 201 19:38 11.12.2019
2864 Haze 19 1014 77 2500 1.69 201 19:18 11.12.2019
2865 Haze 20 1014 72 2500 1.69 201 18:40 11.12.2019
2866 Haze 20 1014 72 2500 1.69 201 18:21 11.12.2019
2867 Haze 21 1014 68 2500 1 150 17:57 11.12.2019
2868 Haze 21 1014 73 2500 1.5 140 17:38 11.12.2019
2869 Haze 21 1014 73 2500 1.5 140 17:18 11.12.2019
2870 Haze 21 1014 68 2500 1.5 120 16:56 11.12.2019
2871 Haze 22 1014 64 2500 1.5 130 16:38 11.12.2019
2872 Haze 22 1014 64 2500 1.5 130 16:19 11.12.2019
2873 Haze 22 1013 64 2500 1.5 110 15:57 11.12.2019
2874 Haze 22 1013 64 2500 1.5 100 15:38 11.12.2019
2875 Haze 22 1013 64 2500 1.5 100 15:20 11.12.2019
2876 Haze 22 1013 64 2500 1.5 110 14:55 11.12.2019
2877 Haze 23 1013 64 2000 2.4 147 14:37 11.12.2019
2878 Haze 23 1013 64 2000 0.92 197 14:19 11.12.2019
2879 Haze 25 1012 53 2000 1.5 160 13:44 11.12.2019
2880 Haze 25 1012 53 2000 1.5 160 13:24 11.12.2019
2881 Haze 26 1012 50 2000 1.5 160 12:59 11.12.2019
2882 Haze 26 1012 50 2000 1.5 160 12:59 11.12.2019
2883 Haze 27 1011 47 2500 1.5 160 12:40 11.12.2019
2884 Haze 27 1011 47 2500 1.5 160 12:22 11.12.2019
2885 Haze 27 1011 47 2500 1.5 160 11:58 11.12.2019
2886 Haze 27 1011 44 2500 2.1 190 11:39 11.12.2019
2887 Haze 27 1011 44 2500 2.1 190 11:39 11.12.2019
2888 Haze 27 1011 44 2500 2.1 190 11:19 11.12.2019
2889 Haze 28 1011 45 2500 2.6 210 10:59 11.12.2019
2890 Haze 28 1012 45 2500 1 140 10:40 11.12.2019
2891 Haze 28 1012 45 2500 1 140 10:21 11.12.2019
2892 Haze 27 1012 44 2500 3.1 210 09:57 11.12.2019
2893 Haze 27 1013 44 2500 2.1 200 09:38 11.12.2019
2894 Haze 27 1013 44 2500 2.1 200 09:19 11.12.2019
2895 Haze 27 1013 44 2500 1.72 221 08:55 11.12.2019
2896 Haze 26 1014 50 2500 1.5 180 08:36 11.12.2019
2897 Haze 26 1014 50 2500 1.5 180 08:18 11.12.2019
2898 Haze 25 1016 53 2000 1.5 140 07:43 11.12.2019
2899 Haze 25 1016 53 2000 1.5 140 07:24 11.12.2019
2900 Haze 25 1016 53 2000 1.5 140 07:24 11.12.2019
2901 Mist 24 1016 57 2000 2.1 175 06:46 11.12.2019
2902 Mist 23 1017 60 2000 2.1 175 06:25 11.12.2019
2903 Mist 23 1017 60 1500 2.1 175 05:55 11.12.2019
2904 Mist 21 1017 68 1500 2.1 175 05:35 11.12.2019
2905 Mist 20 1017 72 1500 1 70 04:51 11.12.2019
2906 Mist 15 1016 87 1200 1.57 105 03:26 11.12.2019
2907 Mist 16 1015 87 1200 1 360 02:35 11.12.2019
2908 Mist 15 1014 93 1500 1.34 54 01:22 11.12.2019
2909 Mist 15 1013 87 1800 1.24 51 00:38 11.12.2019
2910 Mist 15 1013 87 1800 1.24 51 00:19 11.12.2019
2911 Mist 15 1013 87 1800 1.24 51 23:44 10.12.2019
2912 Mist 15 1013 87 1800 1.24 51 23:23 10.12.2019
2913 Mist 15 1014 87 1800 1.71 356 22:56 10.12.2019
2914 Mist 17 1014 82 2000 1.71 356 22:38 10.12.2019
2915 Mist 17 1014 82 2000 1.71 356 22:20 10.12.2019
2916 Mist 17 1014 82 2000 1.71 356 21:54 10.12.2019
2917 Mist 17 1014 88 2000 1.71 356 21:36 10.12.2019
2918 Mist 17 1014 88 2000 1.71 356 21:18 10.12.2019
2919 Mist 17 1014 88 2000 1.5 20 20:55 10.12.2019
2920 Mist 17 1014 88 2000 1.5 20 20:55 10.12.2019
2921 Haze 17 1014 82 2500 1.71 356 20:36 10.12.2019
2922 Haze 17 1014 82 2500 1.08 236 20:18 10.12.2019
2923 Haze 17 1014 82 2500 0.71 236 20:18 10.12.2019
2924 Haze 17 1014 82 2500 1.08 236 20:18 10.12.2019
2925 Haze 19 1014 72 2500 1 290 19:42 10.12.2019
2926 Haze 19 1014 72 2500 1 290 19:24 10.12.2019
2927 Haze 18 1014 77 2500 1 240 18:57 10.12.2019
2928 Haze 19 1014 72 2500 1 240 18:38 10.12.2019
2929 Haze 19 1014 72 2500 1 240 18:19 10.12.2019
2930 Haze 19 1014 72 2500 0.71 236 17:54 10.12.2019
2931 Haze 19 1014 72 2500 1 210 17:36 10.12.2019
2932 Haze 19 1014 72 2500 1 210 17:18 10.12.2019
2933 Haze 20 1014 68 2500 1.5 110 16:41 10.12.2019
2934 Haze 20 1014 68 2500 1.5 110 16:20 10.12.2019
2935 Haze 21 1014 64 2500 1 120 15:40 10.12.2019
2936 Haze 21 1014 64 2500 1 120 15:19 10.12.2019
2937 Haze 21 1014 60 2500 1.5 140 14:59 10.12.2019
2938 Haze 22 1014 56 2000 1 110 14:41 10.12.2019
2939 Haze 22 1014 56 2000 1 110 14:23 10.12.2019
2940 Haze 22 1013 60 2000 1 130 13:59 10.12.2019
2941 Haze 23 1013 60 2000 1 130 13:40 10.12.2019
2942 Haze 23 1013 60 2000 1 130 13:20 10.12.2019
2943 Haze 25 1013 50 2000 0.76 138 12:55 10.12.2019
2944 Haze 26 1012 54 2000 0.76 138 12:36 10.12.2019
2945 Haze 26 1012 54 2000 0.76 138 12:18 10.12.2019
2946 Haze 27 1013 42 2500 0.76 138 11:40 10.12.2019
2947 Haze 27 1013 42 2500 0.2 167 11:22 10.12.2019
2948 Haze 27 1013 39 2500 0.2 167 10:44 10.12.2019
2949 Haze 27 1014 42 2500 1 100 10:25 10.12.2019
2950 Haze 27 1014 39 2500 1 140 09:58 10.12.2019
2951 Haze 26 1014 44 2500 1.5 100 09:40 10.12.2019
2952 Haze 26 1014 44 2500 1.5 100 09:22 10.12.2019
2953 Haze 26 1014 44 2500 1.5 100 09:22 10.12.2019
2954 Haze 26 1015 44 2500 1 90 08:59 10.12.2019
2955 Haze 26 1016 44 2500 1 70 08:40 10.12.2019
2956 Haze 26 1016 44 2500 1 70 08:22 10.12.2019
2957 Haze 25 1017 50 2500 1 140 07:54 10.12.2019
2958 Haze 25 1017 50 2500 1 90 07:36 10.12.2019
2959 Haze 25 1017 50 2500 1 90 07:18 10.12.2019
2960 Mist 23 1018 56 2000 1.5 70 06:42 10.12.2019
2961 Mist 23 1018 56 2000 1.5 70 06:19 10.12.2019
2962 Mist 22 1018 60 2000 1 40 05:51 10.12.2019
2963 Mist 19 1018 72 2000 2.11 49 04:35 10.12.2019
2964 Mist 15 1017 87 2000 2.11 49 03:27 10.12.2019
2965 Mist 14 1016 93 2000 1 20 02:36 10.12.2019
2966 Mist 15 1016 87 2000 2.07 32 01:40 10.12.2019
2967 Mist 15 1016 87 2000 1.82 29 01:19 10.12.2019
2968 Mist 16 1015 82 2000 1 10 00:31 10.12.2019
2969 Mist 16 1015 82 2000 1.82 29 23:59 09.12.2019
2970 Mist 16 1015 82 2000 1.82 29 23:59 09.12.2019
2971 Mist 16 1015 82 2000 1.5 340 23:39 09.12.2019
2972 Mist 16 1015 82 2000 1.5 340 23:21 09.12.2019
2973 Mist 17 1015 77 2000 1.5 10 22:57 09.12.2019
2974 Mist 17 1015 77 2000 1.5 10 22:38 09.12.2019
2975 Mist 17 1015 77 2000 1.5 10 22:18 09.12.2019
2976 Mist 17 1015 77 2000 1.5 10 22:18 09.12.2019
2977 Mist 17 1016 77 2000 1.5 10 21:55 09.12.2019
2978 Mist 16 1016 82 2000 2.69 3 21:37 09.12.2019
2979 Mist 16 1016 82 2000 2.69 3 21:18 09.12.2019
2980 Mist 16 1016 82 2000 2.69 3 20:55 09.12.2019
2981 Mist 17 1016 77 2000 2.69 3 20:37 09.12.2019
2982 Mist 17 1016 77 2000 0.4 244 20:18 09.12.2019
2983 Mist 17 1016 77 2000 0.4 244 19:55 09.12.2019
2984 Mist 18 1017 72 2000 0.4 244 19:37 09.12.2019
2985 Mist 18 1017 72 2000 0.4 244 19:18 09.12.2019
2986 Haze 18 1017 72 2500 0.4 244 18:54 09.12.2019
2987 Haze 18 1017 72 2500 0.4 244 18:54 09.12.2019
2988 Haze 18 1017 72 2500 0.4 244 18:36 09.12.2019
2989 Haze 18 1017 72 2500 0.4 244 18:18 09.12.2019
2990 Haze 19 1018 68 2500 1 310 17:54 09.12.2019
2991 Haze 19 1018 68 2500 1 270 17:36 09.12.2019
2992 Haze 19 1018 68 2500 1 270 17:18 09.12.2019
2993 Haze 18 1017 72 2500 0.99 148 16:54 09.12.2019
2994 Haze 20 1017 64 2500 1 110 16:36 09.12.2019
2995 Haze 20 1017 64 2500 1 110 16:18 09.12.2019
2996 Haze 21 1017 60 2500 1 80 15:54 09.12.2019
2997 Haze 21 1017 60 2500 1 90 15:36 09.12.2019
2998 Haze 21 1017 60 2500 1 90 15:18 09.12.2019
2999 Haze 22 1016 53 2500 1 100 14:41 09.12.2019
3000 Haze 22 1016 53 2500 1 100 14:18 09.12.2019
3001 Haze 23 1016 49 2500 1.32 78 13:56 09.12.2019
3002 Haze 23 1015 53 2500 1 100 13:37 09.12.2019
3003 Haze 23 1015 53 2500 1 100 13:19 09.12.2019
3004 Haze 25 1015 47 3000 1 100 12:55 09.12.2019
3005 Haze 26 1015 39 3000 1 110 12:37 09.12.2019
3006 Haze 26 1015 39 3000 1 110 12:18 09.12.2019
3007 Haze 27 1015 36 3000 1 90 11:41 09.12.2019
3008 Haze 27 1015 36 3000 1 90 11:22 09.12.2019
3009 Haze 27 1015 36 3000 1 90 11:22 09.12.2019
3010 Haze 27 1015 36 3000 1 100 10:59 09.12.2019
3011 Haze 27 1015 42 3000 1 150 10:39 09.12.2019
3012 Haze 27 1015 42 3000 1 150 10:20 09.12.2019
3013 Haze 27 1016 39 3000 1 100 09:55 09.12.2019
3014 Haze 27 1016 39 3000 2.1 100 09:36 09.12.2019
3015 Haze 27 1016 39 3000 2.1 100 09:18 09.12.2019
3016 Haze 26 1017 47 2500 2.6 70 08:40 09.12.2019
3017 Haze 26 1017 47 2500 2.6 70 08:22 09.12.2019
3018 Haze 25 1018 47 2500 2.1 50 07:52 09.12.2019
3019 Haze 25 1019 50 2500 2.1 70 07:34 09.12.2019
3020 Haze 24 1019 53 2000 2.1 70 06:59 09.12.2019
3021 Haze 23 1019 53 2000 2.1 70 06:32 09.12.2019
3022 Haze 23 1019 53 2000 1.5 40 05:48 09.12.2019
3023 Haze 21 1020 64 2000 1 40 05:24 09.12.2019
3024 Mist 18 1019 77 1500 1.5 360 04:28 09.12.2019
3025 Mist 15 1018 82 2000 1 360 02:35 09.12.2019
3026 Mist 13 1018 87 2000 1 20 01:47 09.12.2019
3027 Mist 14 1017 87 2000 2.3 31 00:59 09.12.2019
3028 Mist 14 1017 87 2000 1 10 00:33 09.12.2019
3029 Mist 15 1017 82 2000 1.5 360 23:57 08.12.2019
3030 Mist 17 1017 77 2000 1.5 360 23:37 08.12.2019
3031 Mist 17 1017 77 2000 1.5 360 23:19 08.12.2019
3032 Mist 15 1017 87 2000 1 10 22:56 08.12.2019
3033 Mist 15 1017 82 2000 2.11 30 22:38 08.12.2019
3034 Mist 15 1017 82 2000 2.11 30 22:18 08.12.2019
3035 Mist 16 1017 82 2000 2.11 30 21:56 08.12.2019
3036 Mist 16 1017 82 2000 2.11 30 21:37 08.12.2019
3037 Mist 16 1017 82 2000 2.11 30 21:19 08.12.2019
3038 Mist 16 1017 82 2000 2.11 30 21:19 08.12.2019
3039 Mist 16 1017 77 2000 2.11 30 20:55 08.12.2019
3040 Mist 16 1017 82 2000 2.11 30 20:37 08.12.2019
3041 Mist 16 1017 82 2000 1.84 55 20:19 08.12.2019
3042 Mist 17 1017 77 2000 1.84 55 19:55 08.12.2019
3043 Mist 17 1018 77 2500 1.84 55 19:36 08.12.2019
3044 Mist 17 1018 77 2500 1.84 55 19:18 08.12.2019
3045 Mist 17 1018 77 2500 1.84 55 19:18 08.12.2019
3046 Mist 17 1018 77 2500 1.84 55 18:54 08.12.2019
3047 Mist 17 1018 72 2500 1.84 55 18:36 08.12.2019
3048 Mist 17 1018 72 2500 1.84 55 18:18 08.12.2019
3049 Mist 18 1018 72 2500 1.84 55 17:54 08.12.2019
3050 Mist 19 1018 68 2500 1.84 55 17:36 08.12.2019
3051 Mist 19 1018 68 2500 0.66 70 17:18 08.12.2019
3052 Mist 19 1018 63 2500 0.66 70 16:55 08.12.2019
3053 Haze 18 1018 68 2500 0.66 70 16:37 08.12.2019
3054 Haze 18 1018 68 2500 0.66 70 16:18 08.12.2019
3055 Haze 19 1017 68 2500 0.66 70 15:37 08.12.2019
3056 Haze 19 1017 68 2500 0.66 70 15:18 08.12.2019
3057 Haze 20 1017 64 2500 0.66 70 14:57 08.12.2019
3058 Haze 21 1017 56 2500 0.66 70 14:37 08.12.2019
3059 Haze 21 1017 56 2500 1.35 53 14:19 08.12.2019
3060 Haze 24 1016 47 2500 1 60 13:41 08.12.2019
3061 Haze 24 1016 47 2500 1 60 13:41 08.12.2019
3062 Haze 24 1016 47 2500 1 60 13:22 08.12.2019
3063 Haze 25 1016 44 2500 1.42 44 12:59 08.12.2019
3064 Haze 26 1015 44 2500 1 90 12:40 08.12.2019
3065 Haze 26 1015 44 2500 1 90 12:19 08.12.2019
3066 Haze 26 1015 39 2500 1 70 11:58 08.12.2019
3067 Haze 26 1015 41 2500 1.42 44 11:37 08.12.2019
3068 Haze 26 1015 41 2500 2.02 53 11:19 08.12.2019
3069 Haze 26 1015 39 2500 1 90 10:55 08.12.2019
3070 Haze 26 1015 41 2500 1.5 70 10:37 08.12.2019
3071 Haze 26 1015 41 2500 1.5 70 10:19 08.12.2019
3072 Haze 26 1016 41 2500 1.5 70 09:55 08.12.2019
3073 Haze 26 1016 41 2500 1.5 70 09:36 08.12.2019
3074 Haze 26 1016 41 2500 1.5 70 09:18 08.12.2019
3075 Haze 26 1017 41 2500 1 70 08:41 08.12.2019
3076 Haze 26 1017 41 2500 1 70 08:23 08.12.2019
3077 Haze 25 1018 44 2500 2.1 50 07:49 08.12.2019
3078 Haze 25 1019 44 2500 3.1 70 07:21 08.12.2019
3079 Haze 24 1019 47 2500 1 340 06:59 08.12.2019
3080 Haze 23 1020 49 2500 1.5 60 06:39 08.12.2019
3081 Haze 23 1020 49 2500 1.5 60 06:19 08.12.2019
3082 Haze 21 1020 56 2500 1.5 45 05:23 08.12.2019
3083 Mist 18 1020 68 2000 2.52 49 04:23 08.12.2019
3084 Mist 15 1019 82 2000 2.1 30 03:38 08.12.2019
3085 Mist 14 1018 82 2500 2.52 49 02:41 08.12.2019
3086 Mist 14 1018 82 2500 2.36 28 02:19 08.12.2019
3087 Mist 15 1017 77 2500 2.43 27 01:35 08.12.2019
3088 Mist 14 1017 82 2500 2.43 27 00:52 08.12.2019
3089 Mist 14 1017 82 2500 2.43 27 00:23 08.12.2019
3090 Mist 15 1017 77 2500 2.43 27 23:57 07.12.2019
3091 Mist 15 1016 82 2500 2.43 27 23:36 07.12.2019
3092 Mist 15 1016 82 2500 2.28 12 23:18 07.12.2019
3093 Mist 15 1016 82 2500 2.28 12 22:54 07.12.2019
3094 Mist 15 1017 82 2500 2.28 12 22:36 07.12.2019
3095 Mist 15 1017 82 2500 2.28 12 22:18 07.12.2019
3096 Mist 16 1017 72 2500 2.28 12 21:55 07.12.2019
3097 Mist 16 1017 77 2500 1 360 21:36 07.12.2019
3098 Mist 16 1017 77 2500 1 360 21:18 07.12.2019
3099 Mist 17 1017 72 2500 1 310 20:38 07.12.2019
3100 Mist 17 1017 72 2500 1 310 20:20 07.12.2019
3101 Mist 17 1017 67 2500 1 320 19:57 07.12.2019
3102 Haze 16 1018 72 3000 1.34 54 19:39 07.12.2019
3103 Haze 16 1018 72 3000 1.34 54 19:21 07.12.2019
3104 Haze 16 1018 72 3000 1.34 54 18:58 07.12.2019
3105 Haze 16 1018 72 3000 1.34 54 18:39 07.12.2019
3106 Haze 16 1018 72 3000 1.34 54 18:18 07.12.2019
3107 Haze 17 1018 72 3000 1.34 54 17:55 07.12.2019
3108 Haze 18 1018 63 3000 1.34 54 17:37 07.12.2019
3109 Haze 18 1018 63 3000 1.08 140 17:18 07.12.2019
3110 Haze 18 1018 59 3000 1.08 140 16:55 07.12.2019
3111 Haze 18 1018 59 3000 1.08 140 16:36 07.12.2019
3112 Haze 18 1018 59 3000 1.08 140 16:18 07.12.2019
3113 Haze 18 1017 59 3000 1 90 15:40 07.12.2019
3114 Haze 18 1017 59 3000 1 90 15:40 07.12.2019
3115 Haze 18 1017 59 3000 1 90 15:22 07.12.2019
3116 Haze 20 1017 52 3000 1.08 140 14:43 07.12.2019
3117 Haze 20 1017 52 3000 1.55 72 14:20 07.12.2019
3118 Haze 21 1016 49 3000 1 90 13:59 07.12.2019
3119 Haze 22 1016 46 3000 1 90 13:39 07.12.2019
3120 Haze 22 1016 46 3000 1 90 13:19 07.12.2019
3121 Haze 24 1016 41 3000 1.5 80 12:55 07.12.2019
3122 Haze 25 1016 36 3000 1 60 12:36 07.12.2019
3123 Haze 25 1016 36 3000 1 60 12:18 07.12.2019
3124 Haze 26 1015 34 3000 2.1 90 11:41 07.12.2019
3125 Haze 26 1015 34 3000 2.1 90 11:41 07.12.2019
3126 Haze 26 1015 34 3000 2.1 90 11:23 07.12.2019
3127 Haze 26 1015 34 3000 2.1 70 10:55 07.12.2019
3128 Haze 26 1015 36 3000 2.1 20 10:36 07.12.2019
3129 Haze 26 1015 36 3000 2.1 20 10:18 07.12.2019
3130 Haze 25 1016 38 3000 3.1 80 09:39 07.12.2019
3131 Haze 25 1016 38 3000 3.1 80 09:21 07.12.2019
3132 Haze 25 1017 38 3000 2.6 60 08:45 07.12.2019
3133 Haze 24 1017 44 3000 2.1 70 08:24 07.12.2019
3134 Haze 24 1018 41 3000 2.1 100 07:52 07.12.2019
3135 Haze 24 1019 44 3000 2.1 70 07:29 07.12.2019
3136 Haze 23 1019 43 3000 1.5 100 06:53 07.12.2019
3137 Haze 22 1020 49 3000 1.5 70 06:26 07.12.2019
3138 Haze 21 1020 52 3000 1.5 40 05:47 07.12.2019
3139 Mist 19 1020 59 2500 1.5 20 04:44 07.12.2019
3140 Mist 17 1019 72 2000 1 20 03:50 07.12.2019
3141 Mist 12 1018 87 2000 1 30 02:23 07.12.2019
3142 Haze 16 1017 72 2500 1 360 01:42 07.12.2019
3143 Haze 16 1017 72 2500 1 360 01:24 07.12.2019
3144 Haze 15 1017 77 2500 1 360 00:22 07.12.2019
3145 Haze 15 1017 77 2500 1 360 23:59 06.12.2019
3146 Haze 16 1017 72 2500 1 360 23:40 06.12.2019
3147 Haze 16 1017 72 2500 1 360 23:20 06.12.2019
3148 Haze 15 1017 77 2500 1 360 22:39 06.12.2019
3149 Haze 15 1017 77 2500 1 360 22:21 06.12.2019
3150 Haze 15 1017 77 2500 2.25 30 21:59 06.12.2019
3151 Haze 15 1017 82 2500 2.25 30 21:41 06.12.2019
3152 Haze 15 1017 82 2500 2.25 30 21:20 06.12.2019
3153 Haze 15 1018 77 2500 1 360 20:56 06.12.2019
3154 Haze 16 1018 72 2500 2.25 30 20:38 06.12.2019
3155 Haze 16 1018 72 2500 1.97 45 20:19 06.12.2019
3156 Haze 16 1018 77 3000 1.97 45 19:41 06.12.2019
3157 Haze 16 1018 77 3000 1.97 45 19:22 06.12.2019
3158 Haze 17 1018 67 3000 1.97 45 18:59 06.12.2019
3159 Haze 16 1018 72 3000 1.97 45 18:40 06.12.2019
3160 Haze 16 1018 72 3000 1.97 45 18:21 06.12.2019
3161 Haze 17 1018 67 3000 1 70 17:58 06.12.2019
3162 Haze 17 1019 67 3000 1 90 17:40 06.12.2019
3163 Haze 17 1019 67 3000 1 90 17:21 06.12.2019
3164 Haze 17 1019 67 3000 1.24 71 16:56 06.12.2019
3165 Haze 18 1018 63 3000 1.24 71 16:37 06.12.2019
3166 Haze 18 1018 63 3000 1.24 71 16:18 06.12.2019
3167 Haze 20 1018 52 3000 1 90 15:41 06.12.2019
3168 Haze 20 1018 52 3000 1 90 15:41 06.12.2019
3169 Haze 20 1018 52 3000 1 90 15:22 06.12.2019
3170 Haze 19 1018 59 3000 1.24 71 14:57 06.12.2019
3171 Haze 21 1017 49 3000 1 50 14:39 06.12.2019
3172 Haze 21 1017 49 3000 1 50 14:19 06.12.2019
3173 Haze 22 1017 46 3000 1 60 13:45 06.12.2019
3174 Haze 22 1017 46 3000 1 60 13:45 06.12.2019
3175 Haze 23 1017 43 3000 1.5 60 13:26 06.12.2019
3176 Haze 24 1017 41 3500 1.5 70 12:56 06.12.2019
3177 Haze 25 1016 38 3500 1.5 60 12:38 06.12.2019
3178 Haze 25 1016 38 3500 1.5 60 12:20 06.12.2019
3179 Haze 26 1016 36 3500 2.1 80 11:42 06.12.2019
3180 Haze 26 1016 36 3500 2.1 80 11:23 06.12.2019
3181 Haze 26 1017 34 3500 1 10 10:55 06.12.2019
3182 Haze 26 1017 34 3500 1 10 10:37 06.12.2019
3183 Haze 26 1017 34 3500 1 10 10:18 06.12.2019
3184 Haze 26 1017 34 3500 1 80 09:55 06.12.2019
3185 Haze 26 1018 39 3500 1 50 09:36 06.12.2019
3186 Haze 26 1018 39 3500 1 50 09:18 06.12.2019
3187 Haze 24 1019 44 3500 2.6 90 08:40 06.12.2019
3188 Haze 24 1019 44 3500 2.6 90 08:21 06.12.2019
3189 Haze 24 1020 41 3500 1.5 80 07:38 06.12.2019
3190 Haze 24 1020 41 3500 1.5 80 07:20 06.12.2019
3191 Haze 23 1020 43 3500 2.6 90 06:48 06.12.2019
3192 Haze 22 1021 46 3500 2.6 80 06:24 06.12.2019
3193 Haze 21 1021 46 3500 2.1 80 05:46 06.12.2019
3194 Haze 14 1020 67 3000 1.5 10 02:20 06.12.2019
3195 Haze 13 1019 71 3000 1 340 01:43 06.12.2019
3196 Haze 13 1018 71 3000 1 20 00:49 06.12.2019
3197 Haze 13 1018 76 3000 3.26 13 00:22 06.12.2019
3198 Haze 14 1018 67 3000 1 30 23:51 05.12.2019
3199 Haze 14 1018 67 3000 1 30 23:51 05.12.2019
3200 Haze 12 1018 76 3000 1 10 23:20 05.12.2019
3201 Haze 14 1018 67 3000 1 10 22:58 05.12.2019
3202 Haze 15 1018 58 3000 2.96 24 22:38 05.12.2019
3203 Haze 15 1018 58 3000 2.96 24 22:19 05.12.2019
3204 Haze 15 1018 58 3000 1 330 21:55 05.12.2019
3205 Haze 15 1019 58 3000 1 330 21:37 05.12.2019
3206 Haze 15 1019 58 3000 1 330 21:19 05.12.2019
3207 Haze 15 1019 62 3000 2.96 24 20:55 05.12.2019
3208 Haze 15 1019 62 3000 2.96 24 20:36 05.12.2019
3209 Haze 15 1019 67 3000 3.4 15 20:18 05.12.2019
3210 Haze 15 1019 67 3000 3.4 15 20:18 05.12.2019
3211 Haze 15 1019 67 3000 3.4 15 19:40 05.12.2019
3212 Haze 17 1019 55 3000 1.5 10 19:21 05.12.2019
3213 Haze 18 1019 52 3000 1.5 20 18:58 05.12.2019
3214 Haze 19 1019 48 3000 2.6 30 18:38 05.12.2019
3215 Haze 19 1019 48 3000 2.6 30 18:38 05.12.2019
3216 Haze 19 1019 48 3000 2.6 30 18:38 05.12.2019
3217 Haze 19 1019 48 3000 2.6 30 18:20 05.12.2019
3218 Haze 20 1019 45 3000 2.6 20 17:40 05.12.2019
3219 Haze 19 1019 45 3000 1 40 17:20 05.12.2019
3220 Haze 20 1019 42 3000 1 60 16:58 05.12.2019
3221 Haze 21 1019 40 3000 1 30 16:40 05.12.2019
3222 Haze 21 1019 40 3000 1 30 16:21 05.12.2019
3223 Haze 21 1019 40 3000 1.5 50 15:58 05.12.2019
3224 Haze 21 1019 40 3000 1.5 50 15:58 05.12.2019
3225 Haze 21 1018 40 3000 1.5 70 15:39 05.12.2019
3226 Haze 21 1018 40 3000 1.5 70 15:20 05.12.2019
3227 Haze 21 1018 40 3000 1 60 14:56 05.12.2019
3228 Haze 21 1018 40 3000 1 60 14:56 05.12.2019
3229 Haze 21 1018 37 3000 1 60 14:38 05.12.2019
3230 Haze 21 1018 37 3000 1 60 14:19 05.12.2019
3231 Haze 22 1017 33 3500 1 80 13:57 05.12.2019
3232 Haze 24 1017 29 3500 1.5 60 13:39 05.12.2019
3233 Haze 24 1017 29 3500 1.5 60 13:20 05.12.2019
3234 Haze 25 1017 27 3500 1 20 12:57 05.12.2019
3235 Haze 26 1017 27 3500 1 40 12:38 05.12.2019
3236 Haze 26 1017 27 3500 1 40 12:20 05.12.2019
3237 Haze 26 1017 29 3500 1.5 30 11:40 05.12.2019
3238 Haze 26 1017 29 3500 1.5 30 11:22 05.12.2019
3239 Haze 26 1017 26 3500 1.5 10 10:58 05.12.2019
3240 Haze 26 1017 26 3500 1.5 10 10:40 05.12.2019
3241 Haze 26 1016 31 3500 2.6 10 10:19 05.12.2019
3242 Haze 26 1016 31 3500 2.6 350 09:55 05.12.2019
3243 Haze 26 1017 29 3500 2.6 60 09:37 05.12.2019
3244 Haze 26 1017 29 3500 2.6 60 09:18 05.12.2019
3245 Haze 26 1017 29 3500 1.5 30 08:39 05.12.2019
3246 Haze 25 1018 31 3500 2.1 60 08:20 05.12.2019
3247 Haze 25 1019 31 3500 1 30 07:59 05.12.2019
3248 Haze 25 1019 31 3500 1 30 07:39 05.12.2019
3249 Haze 24 1020 36 3500 1.5 60 07:20 05.12.2019
3250 Haze 24 1021 36 3000 2.6 50 06:46 05.12.2019
3251 Haze 24 1021 38 3000 2.1 100 06:23 05.12.2019
3252 Haze 23 1022 38 3000 1.5 50 05:49 05.12.2019
3253 Haze 22 1022 43 3000 2.1 50 05:24 05.12.2019
3254 Haze 19 1021 59 3000 1 60 04:27 05.12.2019
3255 Haze 17 1021 63 3000 1 30 03:31 05.12.2019
3256 Haze 17 1021 63 3000 1 30 03:31 05.12.2019
3257 Haze 17 1020 63 3000 1 30 02:40 05.12.2019
3258 Haze 17 1020 63 3000 2.1 10 02:21 05.12.2019
3259 Haze 17 1019 63 3000 1.5 10 01:49 05.12.2019
3260 Haze 17 1019 67 3000 1.5 360 01:21 05.12.2019
3261 Haze 18 1019 59 3000 1.5 360 00:38 05.12.2019
3262 Haze 18 1019 59 3000 1.5 360 00:19 05.12.2019
3263 Haze 17 1019 63 3000 1.5 20 23:45 04.12.2019
3264 Haze 18 1019 63 3000 1 10 23:22 04.12.2019
3265 Haze 18 1019 63 3000 1 10 23:22 04.12.2019
3266 Haze 18 1019 59 3000 1.5 10 22:57 04.12.2019
3267 Haze 18 1019 63 3000 2.84 18 22:37 04.12.2019
3268 Haze 18 1019 63 3000 2.84 18 22:19 04.12.2019
3269 Haze 19 1019 52 3000 1 40 21:55 04.12.2019
3270 Haze 19 1019 52 3000 1 50 21:37 04.12.2019
3271 Haze 19 1019 52 3000 1 50 21:18 04.12.2019
3272 Haze 19 1019 52 3000 1 50 21:18 04.12.2019
3273 Haze 19 1019 52 3000 1.5 50 20:56 04.12.2019
3274 Haze 20 1019 52 3000 1.5 40 20:38 04.12.2019
3275 Haze 20 1019 52 3000 1.5 40 20:19 04.12.2019
3276 Haze 20 1019 52 3000 1.5 30 19:40 04.12.2019
3277 Haze 20 1020 56 3000 1.5 20 19:22 04.12.2019
3278 Mist 21 1020 56 2500 1.5 20 18:59 04.12.2019
3279 Mist 21 1019 60 2500 1 30 18:40 04.12.2019
3280 Mist 21 1019 60 2500 1 30 18:22 04.12.2019
3281 Mist 21 1019 60 2500 1 20 17:58 04.12.2019
3282 Mist 21 1019 60 2500 2.99 28 17:38 04.12.2019
3283 Mist 21 1019 60 2500 2.35 50 17:18 04.12.2019
3284 Mist 21 1019 60 2500 2.35 50 16:41 04.12.2019
3285 Haze 20 1019 68 2500 2.35 50 16:21 04.12.2019
3286 Haze 21 1018 64 2500 2.35 50 15:59 04.12.2019
3287 Haze 21 1018 64 2500 2.35 50 15:41 04.12.2019
3288 Haze 22 1018 56 2500 2.35 50 15:21 04.12.2019
3289 Haze 23 1018 53 2500 2.35 50 14:59 04.12.2019
3290 Haze 23 1018 53 2500 2.35 50 14:41 04.12.2019
3291 Haze 23 1017 53 2500 1 80 14:21 04.12.2019
3292 Haze 24 1016 57 2500 1 60 13:56 04.12.2019
3293 Haze 24 1015 57 2500 1 70 13:36 04.12.2019
3294 Haze 24 1015 57 2500 1 70 13:18 04.12.2019
3295 Haze 27 1015 44 3000 1.5 70 12:41 04.12.2019
3296 Haze 27 1015 44 3000 1.5 70 12:41 04.12.2019
3297 Haze 27 1015 44 3000 2.1 50 12:23 04.12.2019
3298 Haze 28 1014 42 3000 2.1 60 11:44 04.12.2019
3299 Haze 29 1014 39 3000 2.1 60 11:26 04.12.2019
3300 Haze 29 1014 42 3000 2.6 60 10:58 04.12.2019
3301 Haze 29 1014 42 3000 2.6 60 10:40 04.12.2019
3302 Haze 29 1015 42 3000 2.6 10 10:21 04.12.2019
3303 Haze 29 1015 42 3000 3.63 49 09:44 04.12.2019
3304 -273 0 0 0 0 0 09:24 04.12.2019
3305 Haze 27 1017 44 3000 3.1 40 08:44 04.12.2019
3306 Haze 27 1017 44 3000 2.6 70 08:26 04.12.2019
3307 Haze 26 1018 44 3000 2.1 120 07:59 04.12.2019
3308 Haze 26 1018 44 3000 2.1 120 07:40 04.12.2019
3309 Haze 26 1019 47 2500 2.1 30 07:22 04.12.2019
3310 Haze 24 1020 53 2500 3.1 60 06:32 04.12.2019
3311 Haze 23 1020 56 2000 2.6 80 05:46 04.12.2019
3312 Mist 20 1020 72 1500 1 60 04:39 04.12.2019
3313 Mist 20 1019 72 1500 1 60 03:51 04.12.2019
3314 Mist 19 1018 72 2000 1 40 01:49 04.12.2019
3315 Mist 19 1017 77 2000 1.5 20 00:48 04.12.2019
3316 Mist 20 1017 72 2000 1 20 00:22 04.12.2019
3317 Mist 20 1017 72 2000 1 20 00:22 04.12.2019
3318 Mist 20 1017 72 2000 1 20 23:45 03.12.2019
3319 Mist 21 1017 68 2000 1.5 20 23:20 03.12.2019
3320 Mist 21 1017 68 2000 2.1 40 22:59 03.12.2019
3321 Mist 21 1017 73 2000 2.6 40 22:39 03.12.2019
3322 Mist 21 1017 73 2000 2.6 40 22:18 03.12.2019
3323 Mist 21 1017 73 2000 1.5 30 21:57 03.12.2019
3324 Mist 21 1017 77 2000 1.5 60 21:37 03.12.2019
3325 Mist 21 1017 77 2000 1.5 60 21:18 03.12.2019
3326 Mist 21 1017 77 2000 2.1 50 20:42 03.12.2019
3327 Mist 20 1017 82 2000 1.5 20 20:20 03.12.2019
3328 Mist 20 1017 82 2000 1.5 20 20:20 03.12.2019
3329 Mist 21 1017 77 2000 2.56 34 19:57 03.12.2019
3330 Mist 20 1017 82 2000 2.56 34 19:39 03.12.2019
3331 Mist 20 1017 82 2000 2.56 34 19:21 03.12.2019
3332 Mist 20 1018 77 2000 1 200 18:59 03.12.2019
3333 Mist 20 1018 77 2000 1 200 18:59 03.12.2019
3334 Mist 20 1018 77 2000 1 200 18:41 03.12.2019
3335 Mist 22 1018 73 2000 2.56 34 18:21 03.12.2019
3336 Mist 22 1018 73 2000 2.56 34 17:58 03.12.2019
3337 Mist 22 1018 73 2000 2.56 34 17:39 03.12.2019
3338 Mist 22 1018 73 2000 1.81 104 17:18 03.12.2019
3339 Mist 22 1018 73 2000 1.81 104 17:18 03.12.2019
3340 Mist 22 1018 73 2000 1.81 104 17:18 03.12.2019
3341 Mist 22 1017 73 2000 1.81 104 16:58 03.12.2019
3342 Mist 22 1017 73 2000 1.81 104 16:58 03.12.2019
3343 Haze 22 1017 73 2000 1.81 104 16:39 03.12.2019
3344 Haze 22 1017 73 2000 1.81 104 16:39 03.12.2019
3345 Haze 22 1017 73 2000 1.81 104 16:20 03.12.2019
3346 Haze 22 1017 68 2000 1.81 104 15:56 03.12.2019
3347 Haze 23 1017 64 2000 1 120 15:38 03.12.2019
3348 Haze 23 1017 64 2000 1 120 15:19 03.12.2019
3349 Haze 23 1016 64 2000 1 150 14:42 03.12.2019
3350 Haze 24 1016 60 1800 1 130 14:20 03.12.2019
3351 Haze 24 1015 60 1800 1 100 13:56 03.12.2019
3352 Haze 25 1015 61 1800 1 90 13:37 03.12.2019
3353 Haze 25 1015 61 1800 1 90 13:19 03.12.2019
3354 Haze 26 1014 57 2500 1 120 12:41 03.12.2019
3355 Haze 26 1014 57 2500 1 120 12:19 03.12.2019
3356 Haze 28 1014 51 2500 1.5 70 11:58 03.12.2019
3357 Haze 28 1014 48 2500 1.5 140 11:39 03.12.2019
3358 Haze 28 1014 48 2500 1.5 140 11:21 03.12.2019
3359 Haze 28 1014 48 2500 2.06 68 10:59 03.12.2019
3360 Haze 28 1014 48 2500 2.06 68 10:41 03.12.2019
3361 Haze 29 1014 45 2500 2.06 68 10:19 03.12.2019
3362 Haze 28 1015 42 2500 2.6 140 09:46 03.12.2019
3363 Haze 28 1015 48 2500 1.5 120 09:25 03.12.2019
3364 Haze 27 1016 54 2500 1.5 110 08:59 03.12.2019
3365 Haze 27 1016 54 2500 1.5 110 08:59 03.12.2019
3366 Haze 27 1016 54 2500 1.5 110 08:40 03.12.2019
3367 Haze 27 1017 54 2500 1.5 100 08:22 03.12.2019
3368 Haze 27 1017 54 2500 1.5 120 07:54 03.12.2019
3369 Haze 26 1018 57 2000 1.5 90 07:30 03.12.2019
3370 Mist 26 1018 54 2000 1 100 06:59 03.12.2019
3371 Mist 25 1019 57 2000 1 80 06:21 03.12.2019
3372 Mist 24 1019 60 2000 1.5 60 05:56 03.12.2019
3373 Mist 22 1019 73 1500 1 60 04:48 03.12.2019
3374 Mist 18 1018 88 1200 1 320 03:24 03.12.2019
3375 Mist 18 1017 88 1200 1 320 02:58 03.12.2019
3376 Mist 18 1017 88 1200 1 320 02:40 03.12.2019
3377 Mist 17 1017 93 1500 1 280 02:21 03.12.2019
3378 Mist 17 1016 93 1500 1 60 01:41 03.12.2019
3379 Mist 17 1016 88 1500 1 60 01:21 03.12.2019
3380 Mist 19 1015 88 1500 1 30 00:44 03.12.2019
3381 Mist 19 1015 82 1500 2.68 31 00:25 03.12.2019
3382 Mist 19 1015 88 1500 2.68 31 23:44 02.12.2019
3383 Mist 18 1015 88 1500 2.68 31 23:23 02.12.2019
3384 Mist 19 1015 82 1500 1.4 51 22:59 02.12.2019
3385 Mist 19 1015 82 1500 1.4 51 22:39 02.12.2019
3386 Mist 18 1015 88 1500 1.4 51 22:21 02.12.2019
3387 Mist 19 1016 82 1500 1.4 51 21:57 02.12.2019
3388 Mist 19 1016 82 1500 1.4 51 21:36 02.12.2019
3389 Mist 19 1016 82 1500 1.4 51 21:18 02.12.2019
3390 Mist 20 1016 77 1500 1.4 51 20:55 02.12.2019
3391 Haze 19 1016 88 1800 1.4 51 20:37 02.12.2019
3392 Haze 19 1016 88 1800 1.4 51 20:37 02.12.2019
3393 Haze 19 1016 88 1800 2.25 142 20:18 02.12.2019
3394 Haze 20 1016 82 1800 2.25 142 19:41 02.12.2019
3395 Haze 19 1016 88 1800 2.25 142 19:21 02.12.2019
3396 Haze 19 1017 82 1800 2.25 142 18:56 02.12.2019
3397 Haze 21 1017 77 1800 2.25 142 18:37 02.12.2019
3398 Haze 21 1017 77 1800 2.25 142 18:18 02.12.2019
3399 Haze 22 1017 73 2000 2.25 142 17:41 02.12.2019
3400 Haze 22 1017 73 2000 1.97 17 17:21 02.12.2019
3401 Haze 22 1017 73 2000 1.97 17 17:21 02.12.2019
3402 Haze 21 1016 68 2500 1.97 17 16:59 02.12.2019
3403 Haze 22 1016 68 2500 1.97 17 16:39 02.12.2019
3404 Haze 22 1016 68 2500 1.97 17 16:39 02.12.2019
3405 Haze 22 1016 68 2500 1.97 17 16:18 02.12.2019
3406 Haze 23 1016 64 2500 1.97 17 15:57 02.12.2019
3407 Haze 23 1016 64 2500 1.97 17 15:38 02.12.2019
3408 Haze 23 1016 64 2500 1.97 17 15:20 02.12.2019
3409 Haze 23 1016 64 2500 1 100 14:55 02.12.2019
3410 Haze 25 1015 53 2500 1 100 14:37 02.12.2019
3411 Haze 25 1015 53 2500 1 100 14:19 02.12.2019
3412 Haze 25 1015 53 2500 2.69 34 13:55 02.12.2019
3413 Haze 25 1015 53 2500 2.69 34 13:55 02.12.2019
3414 Haze 25 1015 57 2500 2.69 34 13:36 02.12.2019
3415 Haze 25 1015 57 2500 2.25 42 13:18 02.12.2019
3416 Haze 26 1014 57 2500 2.25 42 12:42 02.12.2019
3417 Haze 27 1014 54 2500 1 90 12:21 02.12.2019
3418 Haze 28 1014 48 2500 1 80 11:57 02.12.2019
3419 Haze 29 1014 48 2500 1 90 11:37 02.12.2019
3420 Haze 29 1014 48 2500 1 90 11:19 02.12.2019
3421 Haze 29 1014 48 2500 1 110 10:57 02.12.2019
3422 Haze 29 1014 48 2500 1.5 100 10:38 02.12.2019
3423 Haze 29 1014 48 2500 1.5 100 10:20 02.12.2019
3424 Haze 28 1015 48 2500 1.5 90 09:42 02.12.2019
3425 Haze 28 1015 48 2000 1.5 90 09:19 02.12.2019
3426 Haze 28 1015 48 2000 1.5 90 09:19 02.12.2019
3427 Haze 28 1016 51 2000 1.5 90 08:59 02.12.2019
3428 Haze 28 1016 51 2000 1.5 90 08:40 02.12.2019
3429 Haze 27 1016 54 2000 1 90 08:22 02.12.2019
3430 Haze 27 1017 57 2000 2.1 80 07:45 02.12.2019
3431 Haze 27 1017 57 2000 2.1 80 07:45 02.12.2019
3432 Haze 26 1018 61 2000 2.1 100 07:25 02.12.2019
3433 Mist 26 1018 61 2000 2.6 90 06:59 02.12.2019
3434 Mist 25 1018 61 2000 1.5 70 06:39 02.12.2019
3435 Mist 23 1019 69 1500 1 100 05:36 02.12.2019
3436 Mist 22 1019 73 1500 1 60 04:55 02.12.2019
3437 Haze 18 1017 88 1500 2.77 58 02:58 02.12.2019
3438 Haze 18 1017 88 1500 2.77 58 02:38 02.12.2019
3439 Haze 18 1016 88 2000 2.16 66 01:30 02.12.2019
3440 Haze 18 1016 88 2000 2.16 66 00:59 02.12.2019
3441 Haze 18 1016 88 2000 2.16 66 00:30 02.12.2019
3442 Haze 18 1016 88 2000 2.16 66 23:57 01.12.2019
3443 Haze 18 1016 82 2000 2.16 66 23:38 01.12.2019
3444 Haze 18 1016 82 2000 2.52 31 23:19 01.12.2019
3445 Haze 17 1015 88 2000 2.52 31 22:56 01.12.2019
3446 Haze 19 1015 82 2000 1 20 22:37 01.12.2019
3447 Haze 19 1015 82 2000 1 20 22:18 01.12.2019
3448 Haze 20 1016 82 2000 2.52 31 21:56 01.12.2019
3449 Haze 20 1016 82 2000 2.52 31 21:56 01.12.2019
3450 Haze 19 1016 82 2000 1 20 21:38 01.12.2019
3451 Haze 19 1016 82 2000 1 20 21:38 01.12.2019
3452 Haze 19 1016 82 2000 1 20 21:18 01.12.2019
3453 Haze 19 1016 82 2500 2.52 31 20:56 01.12.2019
3454 Haze 19 1016 88 2500 2.52 31 20:37 01.12.2019
3455 Haze 19 1016 88 2500 2.5 22 20:19 01.12.2019
3456 Haze 19 1016 82 2500 2.5 22 19:55 01.12.2019
3457 Haze 19 1016 82 2500 2.5 22 19:36 01.12.2019
3458 Haze 19 1016 82 2500 2.5 22 19:18 01.12.2019
3459 Haze 19 1016 82 2500 2.5 22 19:18 01.12.2019
3460 Haze 20 1016 77 2500 2.5 22 18:55 01.12.2019
3461 Haze 20 1016 77 2500 2.5 22 18:55 01.12.2019
3462 Haze 21 1016 73 2500 1 50 18:36 01.12.2019
3463 Haze 21 1016 73 2500 1 50 18:18 01.12.2019
3464 Haze 22 1016 68 2500 2.5 22 17:55 01.12.2019
3465 Haze 21 1016 73 2500 2.5 22 17:37 01.12.2019
3466 Haze 21 1016 73 2500 2.5 22 17:37 01.12.2019
3467 Haze 21 1016 73 2500 0.99 67 17:19 01.12.2019
3468 Haze 23 1016 64 2500 1.5 60 16:42 01.12.2019
3469 Haze 23 1016 64 2500 1.5 60 16:23 01.12.2019
3470 Haze 24 1016 60 2500 1.5 60 15:51 01.12.2019
3471 Haze 24 1016 60 2500 1.5 20 15:33 01.12.2019
3472 Haze 24 1016 60 2500 1.5 20 15:33 01.12.2019
3473 Haze 24 1016 60 2500 1.5 20 15:33 01.12.2019
3474 Haze 24 1015 60 2500 0.99 67 14:58 01.12.2019
3475 Haze 24 1015 60 2500 0.99 67 14:58 01.12.2019
3476 Haze 24 1015 60 2500 0.99 67 14:58 01.12.2019
3477 Haze 25 1015 57 2500 1 20 14:37 01.12.2019
3478 Haze 25 1015 57 2500 1 20 14:18 01.12.2019
3479 Haze 26 1015 50 2000 1 20 13:40 01.12.2019
3480 Haze 26 1014 54 1800 1 50 13:20 01.12.2019
3481 Haze 27 1014 47 1800 1 50 12:46 01.12.2019
3482 Haze 27 1014 54 1800 1.5 50 12:18 01.12.2019
3483 Haze 27 1014 54 1800 1.5 50 12:18 01.12.2019
3484 Haze 27 1014 54 1800 1.5 50 12:18 01.12.2019
3485 Haze 27 1014 54 1800 1.5 50 12:18 01.12.2019
3486 Haze 27 1014 54 1800 1.5 50 12:18 01.12.2019
3487 Haze 29 1014 45 1800 1 50 11:43 01.12.2019
3488 Haze 28 1014 45 1800 1.5 50 11:43 01.12.2019
3489 Haze 28 1014 45 1800 1.5 50 11:43 01.12.2019
3490 Haze 29 1014 45 1800 1 50 11:43 01.12.2019
3491 Haze 29 1014 45 1800 1 50 11:24 01.12.2019
3492 Haze 28 1014 45 1800 1 50 10:44 01.12.2019
3493 Clouds 30 1012 33 0 2.97 30 10:22 01.12.2019
3494 Haze 29 1015 45 1800 1 80 09:59 01.12.2019
3495 Haze 29 1015 45 1800 1 80 09:40 01.12.2019
3496 Haze 29 1015 48 2000 1 80 09:20 01.12.2019
3497 Haze 28 1015 54 2000 1.5 60 08:48 01.12.2019
3498 Haze 27 1016 61 2000 1.5 90 08:20 01.12.2019
3499 Haze 27 1017 57 2000 1 130 07:52 01.12.2019
3500 Haze 25 1017 61 1500 1.5 100 07:31 01.12.2019
3501 Mist 25 1018 61 1500 1 90 06:57 01.12.2019
3502 Mist 24 1018 64 1500 1.5 50 06:35 01.12.2019
3503 Mist 23 1018 69 1500 1 40 05:49 01.12.2019
3504 Mist 22 1018 78 1500 1 50 04:52 01.12.2019
3505 Mist 17 1017 88 1500 1.5 100 03:31 01.12.2019
3506 Mist 17 1016 93 2000 1 60 02:37 01.12.2019
3507 Mist 17 1016 93 2000 1 60 02:18 01.12.2019
3508 Mist 18 1016 88 2000 2.44 41 01:52 01.12.2019
3509 Mist 17 1016 93 2000 2.18 48 01:25 01.12.2019
3510 Mist 18 1016 93 2000 2.18 48 00:42 01.12.2019
3511 Mist 19 1015 88 2000 1 20 00:24 01.12.2019
3512 Mist 18 1015 93 2000 1 10 23:43 30.11.2019
3513 Mist 18 1015 88 2000 2.02 27 23:24 30.11.2019
3514 Mist 19 1015 82 2000 2.02 27 22:56 30.11.2019
3515 Mist 19 1015 88 2000 2.02 27 22:38 30.11.2019
3516 Mist 19 1015 88 2000 2.02 27 22:19 30.11.2019
3517 Mist 19 1015 88 2000 2.02 27 22:19 30.11.2019
3518 Mist 19 1015 88 2000 2.02 27 21:43 30.11.2019
3519 Mist 19 1015 82 2000 2.02 27 21:24 30.11.2019
3520 Mist 19 1016 82 2000 2.02 27 20:56 30.11.2019
3521 Mist 19 1016 88 2000 1 10 20:38 30.11.2019
3522 Mist 19 1016 88 2000 1 10 20:38 30.11.2019
3523 Mist 20 1016 82 2000 1 10 20:19 30.11.2019
3524 Mist 20 1016 82 2000 1 10 19:55 30.11.2019
3525 Mist 20 1016 82 2000 2.37 9 19:37 30.11.2019
3526 Mist 20 1016 82 2000 2.37 9 19:18 30.11.2019
3527 Mist 20 1016 82 2500 2.37 9 18:56 30.11.2019
3528 Mist 20 1016 82 2500 2.37 9 18:37 30.11.2019
3529 Mist 20 1016 82 2500 2.37 9 18:37 30.11.2019
3530 Mist 20 1016 82 2500 2.37 9 18:18 30.11.2019
3531 Mist 21 1016 77 2500 2.37 9 17:56 30.11.2019
3532 Mist 21 1016 77 2500 2.37 9 17:56 30.11.2019
3533 Mist 21 1016 73 2500 2.37 9 17:37 30.11.2019
3534 Mist 21 1016 73 2500 0.72 117 17:19 30.11.2019
3535 Mist 20 1016 77 2500 0.72 117 16:55 30.11.2019
3536 Mist 21 1015 73 2500 0.72 117 16:37 30.11.2019
3537 Mist 21 1015 73 2500 0.72 117 16:18 30.11.2019
3538 Haze 21 1015 73 2500 0.72 117 15:41 30.11.2019
3539 Haze 22 1015 68 2500 0.72 117 15:19 30.11.2019
3540 Haze 22 1015 68 2500 0.72 117 14:56 30.11.2019
3541 Haze 23 1014 60 2500 1 70 14:38 30.11.2019
3542 Haze 23 1014 60 2500 1 70 14:19 30.11.2019
3543 Haze 24 1014 60 2000 1 40 13:57 30.11.2019
3544 Haze 25 1014 53 2000 1 60 13:36 30.11.2019
3545 Haze 25 1014 53 2000 1 60 13:36 30.11.2019
3546 Haze 25 1014 53 2000 1 60 13:18 30.11.2019
3547 Haze 26 1014 54 2000 1.5 40 12:45 30.11.2019
3548 Haze 26 1014 54 2000 2.1 30 12:27 30.11.2019
3549 Haze 27 1013 54 2500 2.1 20 11:45 30.11.2019
3550 Haze 27 1013 54 2500 1 60 11:20 30.11.2019
3551 Haze 28 1013 48 2500 2.1 50 10:58 30.11.2019
3552 Haze 28 1014 48 2500 2.1 70 10:39 30.11.2019
3553 Haze 28 1014 48 2500 2.1 70 10:20 30.11.2019
3554 Haze 28 1014 51 2500 2.1 20 09:47 30.11.2019
3555 Haze 28 1014 51 2500 2.6 60 09:29 30.11.2019
3556 Haze 27 1015 57 2500 2.1 70 08:45 30.11.2019
3557 Haze 27 1016 54 2500 1.5 70 08:24 30.11.2019
3558 Haze 27 1017 54 2500 1.5 70 07:59 30.11.2019
3559 Haze 27 1017 54 2500 1.5 70 07:41 30.11.2019
3560 Haze 26 1017 61 2000 2.1 90 07:22 30.11.2019
3561 Haze 25 1018 65 1800 1.5 70 06:30 30.11.2019
3562 Haze 25 1018 65 1800 1.5 70 06:30 30.11.2019
3563 Haze 24 1018 64 1800 2.6 70 05:58 30.11.2019
3564 Mist 20 1018 82 1500 2.74 50 03:54 30.11.2019
3565 Mist 20 1018 82 1500 2.74 50 03:54 30.11.2019
3566 Mist 18 1017 93 1500 2.74 50 03:18 30.11.2019
3567 Mist 18 1016 88 2000 1 10 02:25 30.11.2019
3568 Mist 18 1016 88 2000 1 20 01:47 30.11.2019
3569 Mist 18 1016 88 2000 1 10 01:24 30.11.2019
3570 Mist 18 1015 88 2500 1 10 00:38 30.11.2019
3571 Mist 18 1015 88 2500 1 10 00:20 30.11.2019
3572 Mist 18 1015 88 2500 1.59 18 23:44 29.11.2019
3573 Mist 18 1015 88 2500 1.59 18 23:44 29.11.2019
3574 Mist 18 1015 88 2500 1.59 18 23:23 29.11.2019
3575 -273 0 0 0 0 0 23:23 29.11.2019
3576 Mist 18 1015 88 2500 1.86 11 22:48 29.11.2019
3577 Mist 18 1015 88 2500 1.86 11 22:26 29.11.2019
3578 Mist 18 1015 88 2500 1.86 11 21:55 29.11.2019
3579 Mist 19 1015 82 2500 1.86 11 21:36 29.11.2019
3580 Mist 19 1015 82 2500 1.86 11 21:18 29.11.2019
3581 Mist 20 1015 82 2500 1 350 20:40 29.11.2019
3582 Mist 20 1015 77 2500 0.47 314 20:22 29.11.2019
3583 Mist 20 1016 77 2500 0.36 227 19:59 29.11.2019
3584 Mist 20 1016 77 2500 0.36 227 19:41 29.11.2019
3585 Mist 20 1016 77 2500 0.36 227 19:41 29.11.2019
3586 Mist 21 1016 73 2500 0.36 227 19:21 29.11.2019
3587 Mist 21 1016 77 2500 0.36 227 18:59 29.11.2019
3588 Mist 21 1016 77 2500 0.36 227 18:40 29.11.2019
3589 Mist 20 1016 82 2500 0.36 227 18:22 29.11.2019
3590 Mist 20 1016 82 2500 0.36 227 17:47 29.11.2019
3591 Mist 21 1016 73 2500 0.36 227 17:28 29.11.2019
3592 Mist 21 1016 73 2500 1 80 16:59 29.11.2019
3593 Mist 21 1016 73 2500 1 80 16:59 29.11.2019
3594 Mist 21 1016 73 2500 1 80 16:41 29.11.2019
3595 Mist 20 1015 77 2500 1 140 16:20 29.11.2019
3596 Haze 22 1015 73 2500 1 70 15:43 29.11.2019
3597 Haze 22 1015 68 2500 1 70 15:24 29.11.2019
3598 Haze 24 1015 60 2500 1 70 14:58 29.11.2019
3599 Haze 25 1014 57 2500 1 60 14:40 29.11.2019
3600 Haze 25 1014 57 2500 1 60 14:21 29.11.2019
3601 Haze 25 1014 57 2500 1 50 13:55 29.11.2019
3602 Mist 26 1014 54 2500 1 30 13:37 29.11.2019
3603 Mist 26 1014 54 2500 1 30 13:19 29.11.2019
3604 Haze 27 1014 51 3000 1 20 12:41 29.11.2019
3605 Haze 27 1014 51 3000 1 20 12:41 29.11.2019
3606 Haze 28 1014 48 3000 1 10 12:23 29.11.2019
3607 Haze 28 1013 51 3000 1 20 11:55 29.11.2019
3608 Haze 28 1013 51 3000 1 20 11:55 29.11.2019
3609 Haze 29 1013 42 3000 1.5 20 11:37 29.11.2019
3610 Haze 29 1013 42 3000 1.5 20 11:18 29.11.2019
3611 Haze 29 1014 42 3000 1 340 10:57 29.11.2019
3612 Haze 29 1014 42 3000 1.5 30 10:38 29.11.2019
3613 Haze 29 1014 42 3000 1.5 30 10:19 29.11.2019
3614 Haze 28 1014 51 3000 1 20 09:56 29.11.2019
3615 Haze 28 1015 51 3000 1.89 33 09:38 29.11.2019
3616 Haze 28 1015 51 3000 1.89 33 09:19 29.11.2019
3617 Haze 28 1015 48 2500 1 330 08:41 29.11.2019
3618 Haze 28 1016 51 2500 1 340 08:23 29.11.2019
3619 Haze 27 1017 54 2500 1 80 07:59 29.11.2019
3620 Haze 27 1017 54 2500 1 80 07:40 29.11.2019
3621 Haze 27 1017 54 2500 2.6 86 07:22 29.11.2019
3622 Mist 26 1018 57 2000 2.6 86 06:43 29.11.2019
3623 Mist 24 1018 64 2000 1 80 05:48 29.11.2019
3624 Mist 24 1018 64 2000 1 60 05:25 29.11.2019
3625 Mist 22 1018 73 2500 2.48 55 04:35 29.11.2019
3626 Mist 19 1017 82 2500 2.48 55 03:22 29.11.2019
3627 Haze 19 1016 82 2500 1 10 02:32 29.11.2019
3628 Haze 19 1016 82 2500 1 10 01:57 29.11.2019
3629 Haze 19 1016 82 2500 1 10 01:57 29.11.2019
3630 Haze 19 1015 82 3000 2.1 20 01:26 29.11.2019
3631 Haze 19 1015 82 3000 1 330 00:45 29.11.2019
3632 Haze 19 1015 82 3000 1.5 10 00:21 29.11.2019
3633 Haze 19 1015 88 3000 1 10 23:57 28.11.2019
3634 Haze 19 1015 88 3000 1.5 10 23:38 28.11.2019
3635 Haze 19 1015 88 3000 1.5 10 23:20 28.11.2019
3636 Haze 20 1015 82 3000 2.1 10 22:40 28.11.2019
3637 Haze 20 1015 82 3000 1.5 20 22:21 28.11.2019
3638 Haze 19 1015 88 3000 2.34 28 21:59 28.11.2019
3639 Haze 19 1015 88 3000 2.34 28 21:41 28.11.2019
3640 Haze 19 1015 88 3000 2.34 28 21:20 28.11.2019
3641 Haze 20 1015 82 3000 2.34 28 20:57 28.11.2019
3642 Haze 20 1015 82 3000 2.34 28 20:39 28.11.2019
3643 Haze 20 1015 82 3000 1.41 33 20:20 28.11.2019
3644 Haze 19 1015 82 3000 1.41 33 19:56 28.11.2019
3645 Haze 29 1015 45 3000 1.41 33 19:37 28.11.2019
3646 Haze 29 1015 45 3000 1.41 33 19:18 28.11.2019
3647 Haze 20 1016 77 3000 1.41 33 18:56 28.11.2019
3648 Haze 21 1016 77 3000 1 70 18:38 28.11.2019
3649 Haze 21 1016 77 3000 1 70 18:18 28.11.2019
3650 Haze 22 1016 73 3000 1.5 50 17:43 28.11.2019
3651 Haze 23 1016 64 3000 1 40 17:25 28.11.2019
3652 Haze 23 1016 64 3000 1 40 17:25 28.11.2019
3653 -273 0 0 0 0 0 17:25 28.11.2019
3654 Haze 23 1016 69 3000 1.5 50 16:59 28.11.2019
3655 Haze 23 1016 69 3000 1.5 50 16:40 28.11.2019
3656 Haze 22 1016 68 3000 0.37 207 16:39 28.11.2019
3657 Haze 22 1016 68 3000 0.37 207 16:19 28.11.2019
3658 Haze 22 1016 68 3000 0.37 207 16:19 28.11.2019
3659 Haze 22 1015 68 3000 0.37 207 15:56 28.11.2019
3660 Haze 23 1015 64 3000 0.37 207 15:37 28.11.2019
3661 Haze 23 1015 64 3000 0.37 207 15:19 28.11.2019
3662 Haze 24 1015 60 3000 0.37 207 14:57 28.11.2019
3663 Haze 25 1014 57 3000 1 50 14:38 28.11.2019
3664 Haze 25 1014 57 3000 1 50 14:19 28.11.2019
3665 Haze 25 1014 57 3000 1 100 13:41 28.11.2019
3666 Haze 26 1014 54 3000 1.5 100 13:22 28.11.2019
3667 Haze 27 1014 54 3000 1.44 100 12:49 28.11.2019
3668 Haze 28 1014 48 3000 1.44 100 12:30 28.11.2019
3669 -273 0 0 0 0 0 11:59 28.11.2019
3670 Haze 29 1013 48 3000 1.44 100 11:59 28.11.2019
3671 Haze 29 1013 48 3000 1.44 100 11:59 28.11.2019
3672 Haze 29 1013 48 3000 1.44 100 11:41 28.11.2019
3673 Haze 29 1013 48 3000 1.44 100 11:41 28.11.2019
3674 Haze 30 1014 40 3000 1 340 11:21 28.11.2019
3675 Haze 29 1014 39 3000 1 280 10:59 28.11.2019
3676 Haze 29 1014 39 3000 1 280 10:40 28.11.2019
3677 Haze 29 1014 42 3000 1.5 330 10:20 28.11.2019
3678 Haze 29 1014 45 3000 2.15 93 09:42 28.11.2019
3679 Haze 29 1015 45 3000 2.15 93 09:23 28.11.2019
3680 Haze 28 1015 48 3000 1.5 90 08:59 28.11.2019
3681 Haze 28 1015 48 3000 1.5 90 08:59 28.11.2019
3682 Haze 28 1015 48 3000 1.5 90 08:40 28.11.2019
3683 Haze 28 1016 51 3000 1 50 08:21 28.11.2019
3684 Haze 27 1016 51 3000 1 110 07:42 28.11.2019
3685 Haze 26 1017 57 3000 1.5 70 07:24 28.11.2019
3686 Haze 26 1017 57 3000 1.5 70 07:24 28.11.2019
3687 Haze 26 1017 57 3000 1 100 06:52 28.11.2019
3688 Haze 26 1017 57 3000 1 100 06:52 28.11.2019
3689 Haze 26 1017 57 3000 1 100 06:52 28.11.2019
3690 Haze 25 1018 61 3000 1.5 90 06:34 28.11.2019
3691 Haze 24 1018 64 2500 1.5 90 05:51 28.11.2019
3692 Haze 23 1018 69 2500 2.1 90 05:18 28.11.2019
3693 Haze 23 1018 69 2500 2.1 90 05:18 28.11.2019
3694 Haze 23 1018 69 2500 2.1 90 05:18 28.11.2019
3695 Haze 23 1018 69 2500 2.1 90 05:18 28.11.2019
3696 Mist 17 1016 88 2000 1 20 02:51 28.11.2019
3697 Mist 18 1016 82 2000 1 50 01:57 28.11.2019
3698 Mist 19 1015 82 2500 1.5 10 00:49 28.11.2019
3699 Mist 19 1015 82 2500 2.1 20 00:25 28.11.2019
3700 Mist 19 1015 82 2500 1 30 23:56 27.11.2019
3701 Mist 19 1015 82 2500 1 30 23:38 27.11.2019
3702 Mist 19 1015 82 2500 1 30 23:19 27.11.2019
3703 Mist 19 1015 88 2500 1 20 22:39 27.11.2019
3704 Mist 19 1015 88 2500 1 20 22:20 27.11.2019
3705 Mist 20 1015 77 2500 1.5 20 21:56 27.11.2019
3706 Mist 19 1015 82 2500 1 30 21:38 27.11.2019
3707 Mist 19 1015 82 2500 1 30 21:19 27.11.2019
3708 Mist 20 1015 82 2500 1.5 10 20:59 27.11.2019
3709 Mist 20 1015 82 2500 1.5 10 20:59 27.11.2019
3710 Mist 20 1015 82 2500 1.5 10 20:40 27.11.2019
3711 Mist 19 1016 82 2500 1.89 55 20:21 27.11.2019
3712 Mist 20 1016 77 2500 1.89 55 19:58 27.11.2019
3713 Mist 20 1016 77 2500 1.89 55 19:40 27.11.2019
3714 Mist 19 1016 82 2500 1.89 55 19:22 27.11.2019
3715 Mist 19 1016 82 2500 1.89 55 18:59 27.11.2019
3716 Mist 19 1016 82 2500 1.89 55 18:37 27.11.2019
3717 Mist 19 1016 82 2500 1.89 55 18:19 27.11.2019
3718 Haze 21 1016 73 3000 1.89 55 17:57 27.11.2019
3719 Haze 22 1016 68 3000 1 30 17:39 27.11.2019
3720 Haze 22 1016 68 3000 1 30 17:20 27.11.2019
3721 Haze 21 1016 73 3000 1 40 16:56 27.11.2019
3722 Haze 21 1016 77 3000 1 60 16:38 27.11.2019
3723 Haze 21 1016 77 3000 1 60 16:19 27.11.2019
3724 Haze 22 1015 64 3000 0.73 17 15:57 27.11.2019
3725 Haze 23 1015 64 3000 1 80 15:38 27.11.2019
3726 Haze 23 1015 64 3000 1 80 15:20 27.11.2019
3727 Haze 23 1014 60 3000 1 90 14:57 27.11.2019
3728 Haze 24 1014 57 3000 1 60 14:38 27.11.2019
3729 Haze 24 1014 57 3000 1 60 14:38 27.11.2019
3730 Haze 24 1014 57 3000 1 60 14:20 27.11.2019
3731 Haze 25 1014 53 3000 1 90 13:56 27.11.2019
3732 Haze 25 1014 57 3000 1.5 110 13:38 27.11.2019
3733 Haze 25 1014 57 3000 1.5 110 13:19 27.11.2019
3734 Haze 26 1014 57 3000 1 90 12:54 27.11.2019
3735 Haze 27 1013 51 3000 1 90 12:36 27.11.2019
3736 Haze 28 1013 48 3000 1 70 12:18 27.11.2019
3737 Haze 29 1013 45 3000 1 70 11:37 27.11.2019
3738 Haze 29 1014 45 3000 1 90 11:19 27.11.2019
3739 Haze 29 1014 45 3000 1 90 10:55 27.11.2019
3740 Haze 29 1014 45 3000 1 90 10:37 27.11.2019
3741 Haze 29 1014 45 3000 1 90 10:19 27.11.2019
3742 Haze 28 1014 48 3000 1 80 09:42 27.11.2019
3743 Haze 28 1014 48 3000 1 80 09:23 27.11.2019
3744 Haze 27 1016 54 2500 1.5 90 08:43 27.11.2019
3745 Haze 27 1016 54 2500 1.5 90 08:23 27.11.2019
3746 Haze 27 1016 54 2500 1.5 90 08:23 27.11.2019
3747 Haze 27 1016 54 2500 1.5 90 07:58 27.11.2019
3748 Haze 26 1017 57 2500 1 90 07:39 27.11.2019
3749 Haze 26 1017 57 2500 1 70 07:20 27.11.2019
3750 Haze 26 1017 57 2500 1 70 07:20 27.11.2019
3751 Haze 25 1017 61 2000 2.1 50 06:40 27.11.2019
3752 Mist 24 1018 64 2000 1.5 50 06:20 27.11.2019
3753 Mist 23 1018 69 2000 1 60 05:26 27.11.2019
3754 Mist 22 1018 68 2000 1 60 04:55 27.11.2019
3755 Mist 21 1017 73 2000 1 40 04:36 27.11.2019
3756 Mist 19 1017 82 2000 1.5 30 03:48 27.11.2019
3757 Mist 18 1017 88 2000 1.5 10 03:21 27.11.2019
3758 Mist 18 1016 82 2000 1.5 330 02:42 27.11.2019
3759 Mist 18 1015 82 2000 2.02 29 01:22 27.11.2019
3760 Mist 16 1014 87 2000 2.02 29 00:40 27.11.2019
3761 Mist 16 1014 87 2000 2.02 29 00:22 27.11.2019
3762 Mist 17 1014 88 2000 2.02 29 23:42 26.11.2019
3763 Mist 17 1014 88 2000 2.02 29 23:24 26.11.2019
3764 Haze 18 1014 82 2500 1 350 22:55 26.11.2019
3765 Haze 19 1014 82 2500 1.5 10 22:36 26.11.2019
3766 Haze 19 1014 82 2500 1.5 10 22:18 26.11.2019
3767 Haze 19 1015 82 2500 1 10 21:39 26.11.2019
3768 Haze 19 1015 82 2500 1 10 21:21 26.11.2019
3769 Haze 19 1015 82 2500 2.39 17 20:57 26.11.2019
3770 Haze 19 1015 82 2500 2.39 17 20:39 26.11.2019
3771 Haze 19 1015 82 2500 1.06 67 20:19 26.11.2019
3772 Haze 19 1014 82 2500 1.06 67 19:56 26.11.2019
3773 Haze 19 1015 82 2500 1.06 67 19:38 26.11.2019
3774 Haze 19 1015 82 2500 1.06 67 19:19 26.11.2019
3775 Haze 17 1014 88 2500 1 140 18:58 26.11.2019
3776 Haze 20 1015 77 2500 1.06 67 18:39 26.11.2019
3777 Haze 21 1015 73 2500 1.06 67 18:21 26.11.2019
3778 Haze 21 1015 73 2500 1.06 67 17:58 26.11.2019
3779 Haze 21 1015 77 2500 1 20 17:40 26.11.2019
3780 Haze 21 1015 77 2500 1 20 17:21 26.11.2019
3781 Haze 21 1015 73 2500 0.48 68 16:57 26.11.2019
3782 Haze 21 1015 77 2500 1 40 16:37 26.11.2019
3783 Haze 21 1015 77 2500 1 40 16:19 26.11.2019
3784 -273 0 0 0 0 0 16:19 26.11.2019
3785 Haze 23 1015 64 2500 1 20 15:59 26.11.2019
3786 Haze 24 1014 60 2500 1 40 15:38 26.11.2019
3787 Haze 24 1014 60 2500 1 40 15:19 26.11.2019
3788 Haze 22 1014 64 2500 1 100 14:50 26.11.2019
3789 Haze 24 1014 57 2500 1 40 14:26 26.11.2019
3790 Haze 24 1013 60 2500 1 40 13:57 26.11.2019
3791 Haze 26 1013 50 2500 1 40 13:38 26.11.2019
3792 Haze 26 1013 50 2500 1 40 13:19 26.11.2019
3793 Haze 27 1013 51 2500 1.5 40 12:39 26.11.2019
3794 Haze 28 1013 51 2500 1 40 12:20 26.11.2019
3795 Haze 28 1013 51 2500 1 40 11:58 26.11.2019
3796 Haze 28 1013 48 2500 1.5 90 11:39 26.11.2019
3797 Haze 29 1013 45 2500 1.5 50 11:20 26.11.2019
3798 Haze 29 1013 45 2500 1.5 50 10:58 26.11.2019
3799 Haze 29 1013 42 2000 2.1 50 10:40 26.11.2019
3800 Haze 29 1013 42 2000 2.1 50 10:20 26.11.2019
3801 Haze 29 1013 42 2000 2.1 50 10:20 26.11.2019
3802 Haze 29 1014 42 2000 2.1 120 09:56 26.11.2019
3803 Haze 28 1014 45 2500 1.5 120 09:37 26.11.2019
3804 Haze 28 1014 45 2500 1.5 120 09:18 26.11.2019
3805 Haze 28 1015 51 3000 1.5 80 08:43 26.11.2019
3806 Haze 28 1015 48 3000 2.6 90 08:22 26.11.2019
3807 Haze 27 1016 51 3000 2.6 70 07:44 26.11.2019
3808 Haze 26 1017 57 3000 2.1 90 07:25 26.11.2019
3809 Mist 26 1017 54 2000 2.1 90 06:55 26.11.2019
3810 Mist 25 1018 57 2000 1.5 110 06:30 26.11.2019
3811 Mist 23 1018 64 2000 2.1 90 05:41 26.11.2019
3812 Mist 19 1017 82 2000 3.41 63 03:59 26.11.2019
3813 Mist 17 1016 88 2000 3.41 63 02:26 26.11.2019
3814 Haze 17 1015 88 2500 2.33 38 01:32 26.11.2019
3815 Haze 16 1015 87 2500 2.33 38 00:50 26.11.2019
3816 Haze 17 1015 82 2500 2.33 38 00:25 26.11.2019
3817 Haze 18 1015 82 2500 2.33 38 23:40 25.11.2019
3818 Haze 18 1015 82 2500 1.65 43 23:20 25.11.2019
3819 Haze 18 1015 77 2500 1 10 22:58 25.11.2019
3820 Haze 18 1015 82 2500 1 10 22:38 25.11.2019
3821 Haze 18 1015 82 2500 1 10 22:18 25.11.2019
3822 Haze 19 1015 77 2500 1 20 21:58 25.11.2019
3823 Haze 18 1015 82 2500 1.65 43 21:39 25.11.2019
3824 Haze 18 1015 82 2500 1.65 43 21:19 25.11.2019
3825 Haze 19 1015 82 2500 1.65 43 20:56 25.11.2019
3826 Haze 19 1015 82 2500 1.65 43 20:37 25.11.2019
3827 Haze 19 1015 82 2500 1.48 63 20:19 25.11.2019
3828 Haze 19 1016 77 2500 1 50 19:55 25.11.2019
3829 Haze 19 1016 82 2500 1 40 19:37 25.11.2019
3830 Haze 19 1016 82 2500 1 40 19:18 25.11.2019
3831 Haze 19 1016 82 2500 1 40 19:18 25.11.2019
3832 Haze 21 1016 73 2500 1.6 63 18:56 25.11.2019
3833 Haze 20 1016 77 2500 1.6 63 18:38 25.11.2019
3834 Haze 21 1016 68 3000 1.6 63 18:19 25.11.2019
3835 Haze 21 1016 68 3000 1.6 63 17:56 25.11.2019
3836 Haze 21 1016 68 3000 1.6 63 17:37 25.11.2019
3837 Haze 21 1016 73 3000 1 60 17:18 25.11.2019
3838 Haze 21 1016 73 3000 1 60 16:43 25.11.2019
3839 Haze 23 1016 64 3000 1 60 16:25 25.11.2019
3840 Haze 23 1016 64 3000 0.29 200 15:58 25.11.2019
3841 Haze 24 1015 53 3000 1 60 15:39 25.11.2019
3842 Haze 24 1015 53 3000 1 60 15:20 25.11.2019
3843 Haze 24 1015 53 3000 1 70 14:56 25.11.2019
3844 Haze 24 1014 53 3000 1 100 14:38 25.11.2019
3845 Haze 24 1014 53 3000 1 100 14:20 25.11.2019
3846 Haze 26 1014 44 3000 1 100 13:40 25.11.2019
3847 Haze 26 1014 44 3000 1 100 13:21 25.11.2019
3848 Haze 28 1014 45 3000 1 100 12:59 25.11.2019
3849 Haze 28 1014 45 3000 1 100 12:59 25.11.2019
3850 Haze 28 1014 45 3000 1 100 12:40 25.11.2019
3851 Haze 28 1014 45 3000 1 100 12:21 25.11.2019
3852 Haze 28 1013 42 3000 1.5 130 11:57 25.11.2019
3853 Haze 29 1013 35 3000 1.5 130 11:38 25.11.2019
3854 Haze 29 1014 37 3000 2.1 120 11:19 25.11.2019
3855 Haze 29 1014 37 3000 1.5 90 10:44 25.11.2019
3856 Haze 29 1014 37 3000 1.5 90 10:26 25.11.2019
3857 Haze 29 1014 39 3000 1.5 70 09:56 25.11.2019
3858 Haze 29 1015 42 3000 1 70 09:38 25.11.2019
3859 Haze 29 1015 42 3000 1 70 09:20 25.11.2019
3860 Haze 28 1016 45 3000 1.5 90 08:40 25.11.2019
3861 Haze 28 1016 45 3000 1.5 90 08:21 25.11.2019
3862 Haze 27 1017 51 3000 1.5 90 07:42 25.11.2019
3863 Haze 27 1017 51 3000 1.5 90 07:24 25.11.2019
3864 Mist 25 1018 57 2500 1 80 06:48 25.11.2019
3865 Mist 25 1018 53 2500 1 80 06:21 25.11.2019
3866 Mist 24 1018 57 2500 1 80 05:39 25.11.2019
3867 Mist 23 1018 64 2500 1 80 04:52 25.11.2019
3868 Mist 18 1016 88 2500 2.26 71 02:52 25.11.2019
3869 Mist 18 1016 88 2500 1.67 31 02:20 25.11.2019
3870 Mist 18 1015 88 2500 1.67 31 01:40 25.11.2019
3871 Mist 18 1015 88 2500 1.49 31 01:21 25.11.2019
3872 Mist 18 1015 82 2500 1.49 31 00:23 25.11.2019
3873 Mist 19 1015 82 2500 1.49 31 23:58 24.11.2019
3874 Mist 20 1015 77 2500 1.49 31 23:38 24.11.2019
3875 Mist 19 1015 82 2500 2.5 10 23:19 24.11.2019
3876 Mist 19 1015 82 2500 2.5 10 22:54 24.11.2019
3877 Mist 19 1015 82 2500 2.5 10 22:36 24.11.2019
3878 Mist 19 1015 82 2500 2.5 10 22:18 24.11.2019
3879 Mist 19 1015 82 2500 2.5 10 22:18 24.11.2019
3880 Mist 19 1015 82 2500 2.5 10 21:42 24.11.2019
3881 Mist 19 1015 82 2500 2.5 10 21:21 24.11.2019
3882 Mist 19 1016 82 2500 2.5 10 20:59 24.11.2019
3883 Mist 19 1016 82 2500 2.5 10 20:59 24.11.2019
3884 Mist 20 1016 77 2500 2.5 10 20:40 24.11.2019
3885 Mist 20 1016 77 2500 1.35 53 20:20 24.11.2019
3886 Mist 20 1016 77 2500 1.06 47 20:20 24.11.2019
3887 Mist 21 1016 73 2500 1 340 19:57 24.11.2019
3888 Mist 20 1016 77 2500 1.35 53 19:39 24.11.2019
3889 Mist 20 1016 77 2500 1.35 53 19:21 24.11.2019
3890 Mist 21 1016 73 2500 1.35 53 18:59 24.11.2019
3891 Mist 21 1016 73 2500 1.35 53 18:59 24.11.2019
3892 Mist 21 1016 73 2500 1.35 53 18:38 24.11.2019
3893 Haze 21 1017 73 3000 1.35 53 18:20 24.11.2019
3894 Haze 21 1017 73 3000 1.35 53 17:58 24.11.2019
3895 Haze 21 1016 68 3000 1.35 53 17:40 24.11.2019
3896 Haze 20 1016 77 3000 0.57 128 17:21 24.11.2019
3897 Haze 20 1016 77 3000 0.57 128 16:57 24.11.2019
3898 Haze 21 1016 73 3000 0.57 128 16:39 24.11.2019
3899 Haze 21 1016 73 3000 0.57 128 16:20 24.11.2019
3900 Haze 22 1016 68 3000 0.57 128 15:45 24.11.2019
3901 Haze 22 1016 68 3000 0.57 128 15:27 24.11.2019
3902 Haze 23 1015 60 3000 0.57 128 14:59 24.11.2019
3903 Haze 24 1015 57 3000 0.57 128 14:39 24.11.2019
3904 Haze 24 1015 57 3000 1.28 79 14:19 24.11.2019
3905 Haze 24 1014 57 3000 1.28 79 13:56 24.11.2019
3906 Haze 26 1014 47 3000 1 10 13:37 24.11.2019
3907 Haze 26 1014 47 3000 1 10 13:19 24.11.2019
3908 Haze 27 1014 39 3000 1 30 12:42 24.11.2019
3909 Haze 28 1014 42 3000 1 40 12:20 24.11.2019
3910 Haze 28 1014 42 3000 1 40 11:59 24.11.2019
3911 Haze 29 1013 39 3000 1 30 11:37 24.11.2019
3912 Haze 29 1014 37 3000 1 50 11:19 24.11.2019
3913 Haze 29 1014 37 3000 1 50 10:47 24.11.2019
3914 Haze 29 1014 37 3000 1 50 10:29 24.11.2019
3915 Haze 29 1014 37 3000 1 30 09:59 24.11.2019
3916 Haze 29 1015 37 3000 1.5 20 09:38 24.11.2019
3917 Haze 29 1015 37 3000 1.5 20 09:19 24.11.2019
3918 Haze 28 1015 39 3000 1 90 08:56 24.11.2019
3919 Haze 28 1016 39 2500 1 60 08:36 24.11.2019
3920 Haze 28 1016 39 2500 1 60 08:18 24.11.2019
3921 Haze 28 1017 42 2500 1.5 50 07:45 24.11.2019
3922 Haze 27 1017 42 2500 1.5 60 07:20 24.11.2019
3923 Haze 25 1018 47 2500 1.5 60 06:21 24.11.2019
3924 Haze 22 1018 64 2500 1 30 04:49 24.11.2019
3925 Mist 19 1018 82 2000 2.75 30 03:41 24.11.2019
3926 Mist 17 1016 88 1500 2.75 30 02:31 24.11.2019
3927 Mist 17 1015 88 2000 1 320 01:41 24.11.2019
3928 Mist 17 1015 88 2000 1 320 01:22 24.11.2019
3929 Mist 18 1015 88 2000 1.5 40 00:48 24.11.2019
3930 Mist 18 1015 82 2000 2.63 17 00:24 24.11.2019
3931 Mist 18 1014 82 2000 2.63 17 23:54 23.11.2019
3932 Mist 18 1014 82 2000 2.63 17 23:36 23.11.2019
3933 Mist 18 1014 82 2000 2.02 16 23:18 23.11.2019
3934 Mist 18 1014 82 2000 2.02 16 22:54 23.11.2019
3935 Mist 18 1015 88 2000 2.02 16 22:36 23.11.2019
3936 Mist 18 1015 88 2000 2.02 16 22:18 23.11.2019
3937 Mist 17 1015 88 2000 2.02 16 21:42 23.11.2019
3938 Mist 18 1015 82 2000 2.02 16 21:22 23.11.2019
3939 Haze 18 1016 82 2500 2.02 16 20:58 23.11.2019
3940 Haze 19 1016 82 2500 2.02 16 20:37 23.11.2019
3941 Haze 19 1016 82 2500 2.17 351 20:18 23.11.2019
3942 Haze 18 1016 88 2500 2.17 351 19:55 23.11.2019
3943 Haze 17 1016 88 2500 2.17 351 19:37 23.11.2019
3944 Haze 17 1016 88 2500 2.17 351 19:18 23.11.2019
3945 Haze 19 1017 82 2500 1 40 18:40 23.11.2019
3946 Haze 20 1017 77 2500 2.17 351 18:21 23.11.2019
3947 Haze 20 1017 77 2500 2.17 351 17:55 23.11.2019
3948 Clear 20 1015 57 0 2.17 351 17:37 23.11.2019
3949 Haze 21 1017 73 2500 0.43 188 17:19 23.11.2019
3950 Haze 21 1017 73 2500 0.43 188 17:19 23.11.2019
3951 Haze 21 1017 73 2500 0.43 188 17:19 23.11.2019
3952 Haze 21 1017 73 2500 0.43 188 16:56 23.11.2019
3953 Haze 21 1017 73 2500 0.43 188 16:56 23.11.2019
3954 Haze 21 1017 73 2500 0.43 188 16:37 23.11.2019
3955 Haze 21 1017 73 2500 0.43 188 16:37 23.11.2019
3956 Haze 21 1017 73 2500 0.43 188 16:19 23.11.2019
3957 Haze 20 1017 77 2500 2.1 160 15:56 23.11.2019
3958 Haze 21 1016 73 2500 0.43 188 15:38 23.11.2019
3959 Haze 21 1016 73 2500 0.43 188 15:18 23.11.2019
3960 Haze 23 1016 64 2500 0.43 188 14:43 23.11.2019
3961 Haze 25 1015 57 2500 0.76 317 14:22 23.11.2019
3962 Haze 24 1015 57 2500 0.76 317 13:59 23.11.2019
3963 Haze 25 1014 53 2500 0.76 317 13:40 23.11.2019
3964 Haze 25 1014 53 2500 0.84 320 13:19 23.11.2019
3965 Haze 29 1014 42 3000 0.84 320 12:44 23.11.2019
3966 Haze 29 1014 42 3000 0.84 320 12:24 23.11.2019
3967 Haze 29 1014 45 3000 0.84 320 11:58 23.11.2019
3968 Haze 29 1014 39 3000 0.84 320 11:40 23.11.2019
3969 Haze 29 1014 45 3000 1 50 11:18 23.11.2019
3970 Haze 29 1014 45 3000 1 50 11:18 23.11.2019
3971 Haze 29 1014 42 3000 1 90 10:43 23.11.2019
3972 Haze 29 1014 42 3000 1 90 10:20 23.11.2019
3973 Haze 29 1015 42 3000 1 30 09:41 23.11.2019
3974 Haze 29 1015 42 3000 1 30 09:19 23.11.2019
3975 Haze 28 1016 48 2500 1 40 08:41 23.11.2019
3976 Haze 28 1016 48 2500 1 40 08:19 23.11.2019
3977 Haze 27 1018 54 2500 1 90 07:44 23.11.2019
3978 Haze 27 1018 54 2500 1 90 07:26 23.11.2019
3979 Haze 26 1019 54 2500 1 40 06:42 23.11.2019
3980 Haze 25 1019 61 2500 1 50 06:19 23.11.2019
3981 Mist 24 1019 64 2500 2.11 64 05:45 23.11.2019
3982 Mist 24 1019 64 2500 2.11 64 05:27 23.11.2019
3983 Mist 22 1019 68 2000 2.27 37 04:44 23.11.2019
3984 Mist 21 1019 73 2000 2.27 37 04:26 23.11.2019
3985 Mist 17 1017 88 2000 2.27 37 02:39 23.11.2019
3986 Haze 17 1016 88 2500 1.96 7 01:42 23.11.2019
3987 Haze 18 1016 82 2500 2.08 4 00:54 23.11.2019
3988 Haze 18 1016 82 2500 2.08 4 00:54 23.11.2019
3989 Haze 19 1016 77 2500 2.08 4 00:36 23.11.2019
3990 Haze 19 1016 82 2500 2.08 4 00:18 23.11.2019
3991 Haze 19 1016 82 2500 2.08 4 00:18 23.11.2019
3992 Haze 19 1016 82 2500 2.08 4 00:18 23.11.2019
3993 Haze 19 1016 77 2500 1 320 23:38 22.11.2019
3994 Haze 19 1016 77 2500 1 320 23:20 22.11.2019
3995 Haze 19 1016 82 2500 1 320 22:57 22.11.2019
3996 Haze 20 1016 77 2500 1 320 22:37 22.11.2019
3997 Haze 20 1016 77 2500 1 320 22:19 22.11.2019
3998 Haze 19 1017 77 2500 1 320 21:55 22.11.2019
3999 Haze 18 1017 82 2500 1.65 358 21:36 22.11.2019
4000 Haze 18 1017 82 2500 1.65 358 21:18 22.11.2019
4001 Haze 20 1017 77 2500 1 10 20:40 22.11.2019
4002 Haze 20 1017 77 2500 1.5 340 20:22 22.11.2019
4003 Haze 19 1017 82 2500 1.38 333 19:54 22.11.2019
4004 Haze 20 1018 77 2500 1.38 333 19:36 22.11.2019
4005 Haze 20 1018 77 2500 1.38 333 19:18 22.11.2019
4006 Haze 21 1018 73 2500 1.38 333 18:39 22.11.2019
4007 Haze 21 1018 73 2500 1.38 333 18:21 22.11.2019
4008 Haze 21 1018 73 2500 1.38 333 17:43 22.11.2019
4009 Haze 21 1018 73 3000 1.38 333 17:24 22.11.2019
4010 Haze 21 1018 68 3000 0.23 245 16:58 22.11.2019
4011 Haze 21 1017 73 3000 2.1 150 16:40 22.11.2019
4012 Haze 21 1017 73 3000 2.1 150 16:21 22.11.2019
4013 Haze 21 1017 73 3000 1.5 120 15:40 22.11.2019
4014 Haze 22 1017 73 3000 0.23 245 15:22 22.11.2019
4015 Haze 24 1017 64 2500 1 40 14:55 22.11.2019
4016 Haze 24 1017 64 2500 1 40 14:55 22.11.2019
4017 Haze 25 1016 57 2500 1 20 14:37 22.11.2019
4018 Haze 25 1016 57 2500 1 20 14:19 22.11.2019
4019 Haze 26 1015 50 3000 1 10 13:39 22.11.2019
4020 Haze 26 1015 50 3000 1 10 13:20 22.11.2019
4021 Haze 28 1015 45 3000 1 130 12:59 22.11.2019
4022 Haze 28 1015 45 3000 1 130 12:40 22.11.2019
4023 Haze 29 1015 39 3000 1 110 12:20 22.11.2019
4024 Haze 29 1015 42 3000 1 120 11:59 22.11.2019
4025 Haze 29 1015 39 3000 1.5 160 11:38 22.11.2019
4026 Haze 29 1015 39 3000 1.5 160 11:19 22.11.2019
4027 Haze 28 1015 42 3000 1 140 10:55 22.11.2019
4028 Haze 28 1015 45 3000 1 60 10:37 22.11.2019
4029 Haze 28 1015 45 3000 1 60 10:19 22.11.2019
4030 Haze 29 1015 42 3000 1 50 09:41 22.11.2019
4031 Haze 28 1016 45 3000 1.5 90 09:22 22.11.2019
4032 Haze 28 1016 48 3000 1.5 140 08:59 22.11.2019
4033 Haze 28 1016 48 3000 1.5 140 08:40 22.11.2019
4034 Haze 28 1016 48 3000 1.5 140 08:40 22.11.2019
4035 Haze 27 1017 47 3000 2.1 130 08:22 22.11.2019
4036 Haze 27 1018 51 3000 1.5 60 07:44 22.11.2019
4037 Haze 27 1018 51 3000 1.5 40 07:21 22.11.2019
4038 Haze 26 1019 57 2500 1 40 06:49 22.11.2019
4039 Haze 26 1019 57 2500 1 40 06:28 22.11.2019
4040 Haze 25 1019 61 2500 1.5 50 05:44 22.11.2019
4041 Mist 21 1019 77 2000 1 50 04:18 22.11.2019
4042 Mist 17 1018 88 2000 1 20 02:47 22.11.2019
4043 Mist 17 1018 88 2000 2.32 42 02:28 22.11.2019
4044 Mist 17 1018 88 2000 2.32 42 02:28 22.11.2019
4045 Haze 17 1017 88 2500 2.03 26 01:44 22.11.2019
4046 Haze 17 1017 88 2500 2.08 29 01:19 22.11.2019
4047 Haze 18 1016 88 2500 1 10 00:49 22.11.2019
4048 Haze 19 1016 82 2500 1.5 10 00:23 22.11.2019
4049 Haze 19 1016 82 2500 1.5 20 23:44 21.11.2019
4050 Haze 18 1016 88 2500 2.08 29 23:25 21.11.2019
4051 Haze 18 1016 88 2500 1.97 25 22:58 21.11.2019
4052 Haze 18 1016 88 2500 1.97 25 22:38 21.11.2019
4053 Haze 18 1016 88 2500 1.97 25 22:20 21.11.2019
4054 Haze 18 1016 88 2500 1.97 25 21:56 21.11.2019
4055 Haze 19 1017 82 2500 1.97 25 21:37 21.11.2019
4056 Haze 19 1017 82 2500 1.97 25 21:18 21.11.2019
4057 Haze 18 1017 82 2500 1.97 25 20:57 21.11.2019
4058 Haze 19 1017 82 2500 1.97 25 20:37 21.11.2019
4059 Haze 19 1017 82 2500 1.49 65 20:19 21.11.2019
4060 Haze 19 1017 82 2500 1.49 65 19:58 21.11.2019
4061 Haze 20 1017 77 2500 1.49 65 19:38 21.11.2019
4062 Haze 20 1017 77 2500 1.49 65 19:20 21.11.2019
4063 Haze 20 1018 77 2500 1.49 65 18:55 21.11.2019
4064 Haze 20 1018 77 2500 1 80 18:37 21.11.2019
4065 Haze 20 1018 77 2500 1 80 18:18 21.11.2019
4066 Haze 19 1018 88 2500 1.49 65 17:40 21.11.2019
4067 Haze 19 1018 88 2500 1.23 15 17:22 21.11.2019
4068 Haze 21 1017 77 2500 1.23 15 16:59 21.11.2019
4069 Haze 21 1017 77 2500 1.23 15 16:40 21.11.2019
4070 Haze 21 1017 73 2500 1.23 15 16:21 21.11.2019
4071 Haze 22 1017 73 2500 1.23 15 15:56 21.11.2019
4072 Haze 23 1017 64 2500 1.23 15 15:37 21.11.2019
4073 Haze 23 1017 64 2500 1.23 15 15:19 21.11.2019
4074 Haze 25 1016 57 2500 1 40 14:39 21.11.2019
4075 Haze 25 1016 57 2500 1 40 14:20 21.11.2019
4076 Haze 25 1015 57 2500 1.5 20 13:59 21.11.2019
4077 Haze 26 1015 54 2500 2.1 20 13:38 21.11.2019
4078 Haze 26 1015 54 2500 2.1 20 13:19 21.11.2019
4079 Haze 26 1015 50 2500 1.5 40 12:43 21.11.2019
4080 Haze 27 1014 47 3000 2.1 25 12:24 21.11.2019
4081 Haze 28 1014 48 3000 1 25 11:56 21.11.2019
4082 Haze 29 1014 42 3000 2.18 16 11:38 21.11.2019
4083 Haze 29 1014 42 3000 2.18 16 11:38 21.11.2019
4084 Haze 29 1014 42 3000 1.59 70 11:20 21.11.2019
4085 Haze 29 1014 42 3000 1.59 70 11:20 21.11.2019
4086 Haze 29 1014 45 3000 1.59 70 10:44 21.11.2019
4087 Haze 28 1015 48 3000 1.59 70 10:25 21.11.2019
4088 Haze 29 1015 42 3000 1.59 70 09:59 21.11.2019
4089 Haze 29 1015 42 3000 1.59 70 09:41 21.11.2019
4090 Haze 28 1015 42 3000 1.59 70 09:23 21.11.2019
4091 Haze 28 1016 48 3000 1 70 08:55 21.11.2019
4092 Haze 28 1017 51 3000 1 60 08:37 21.11.2019
4093 Haze 28 1017 51 3000 1 60 08:18 21.11.2019
4094 Haze 26 1018 57 3000 1.5 100 07:39 21.11.2019
4095 Haze 26 1018 57 3000 1.5 100 07:18 21.11.2019
4096 Haze 26 1018 54 3000 1 80 06:45 21.11.2019
4097 Haze 25 1018 57 3000 1.5 80 06:24 21.11.2019
4098 Haze 23 1018 64 2500 1.5 80 05:27 21.11.2019
4099 Mist 19 1017 82 2000 1 10 03:25 21.11.2019
4100 Mist 18 1016 82 2000 1.5 10 02:35 21.11.2019
4101 Haze 18 1016 82 3000 1.5 20 01:52 21.11.2019
4102 Haze 18 1016 82 3000 1 20 01:21 21.11.2019
4103 Haze 17 1015 88 3000 2 39 00:41 21.11.2019
4104 Haze 18 1015 82 3000 2 39 00:20 21.11.2019
4105 Haze 17 1015 88 3000 2 39 23:51 20.11.2019
4106 Haze 18 1015 82 3000 1.5 10 23:23 20.11.2019
4107 Haze 19 1015 82 3000 1.5 10 22:58 20.11.2019
4108 Haze 19 1015 82 3000 1.5 10 22:40 20.11.2019
4109 Mist 18 1015 82 3000 1 40 22:20 20.11.2019
4110 Haze 20 1015 72 3000 1.5 20 21:59 20.11.2019
4111 Haze 19 1016 77 3000 1.92 19 21:39 20.11.2019
4112 Haze 19 1016 77 3000 1.92 19 21:21 20.11.2019
4113 Haze 19 1016 77 3000 1.92 19 20:57 20.11.2019
4114 Haze 21 1016 68 3000 1.92 19 20:39 20.11.2019
4115 Haze 21 1016 68 3000 0.45 8 20:21 20.11.2019
4116 Haze 20 1016 68 3000 0.45 8 19:57 20.11.2019
4117 Haze 21 1016 64 3000 1.5 90 19:37 20.11.2019
4118 Haze 21 1016 64 3000 1.5 90 19:19 20.11.2019
4119 Haze 20 1016 72 3000 0.45 8 18:59 20.11.2019
4120 Haze 20 1016 72 3000 0.45 8 18:39 20.11.2019
4121 Haze 20 1016 72 3000 0.45 8 18:21 20.11.2019
4122 Haze 20 1016 72 3000 0.45 8 17:56 20.11.2019
4123 Haze 21 1016 68 3000 0.45 8 17:38 20.11.2019
4124 Haze 21 1016 68 3000 0.45 8 17:38 20.11.2019
4125 Haze 21 1016 68 3000 0.45 8 17:38 20.11.2019
4126 Haze 21 1016 68 3000 0.86 140 17:20 20.11.2019
4127 Haze 20 1016 72 3000 0.86 140 16:56 20.11.2019
4128 Haze 21 1016 68 3000 0.86 140 16:37 20.11.2019
4129 Haze 21 1016 68 3000 0.86 140 16:18 20.11.2019
4130 Haze 23 1015 60 3000 1.5 60 15:42 20.11.2019
4131 Haze 24 1015 53 3000 1.5 60 15:22 20.11.2019
4132 Haze 24 1015 50 3000 1 60 14:59 20.11.2019
4133 Haze 24 1015 50 3000 1 60 14:40 20.11.2019
4134 Haze 25 1014 47 3000 1 40 14:21 20.11.2019
4135 Haze 26 1014 44 3000 1.5 20 13:58 20.11.2019
4136 Haze 26 1014 41 3000 1.5 20 13:39 20.11.2019
4137 Haze 26 1014 41 3000 1.5 20 13:20 20.11.2019
4138 Haze 27 1013 42 3000 2.1 20 12:55 20.11.2019
4139 Haze 28 1013 39 3000 1.5 20 12:36 20.11.2019
4140 Haze 28 1013 39 3000 1.5 20 12:18 20.11.2019
4141 -273 0 0 0 0 0 11:40 20.11.2019
4142 Haze 29 1013 35 3000 1 10 11:21 20.11.2019
4143 Haze 29 1013 35 3000 1 50 10:55 20.11.2019
4144 Haze 29 1013 30 3000 1 10 10:37 20.11.2019
4145 Haze 29 1013 30 3000 1 10 10:19 20.11.2019
4146 Haze 29 1013 32 3000 1 130 09:43 20.11.2019
4147 Haze 29 1014 35 3000 1 280 09:21 20.11.2019
4148 Haze 29 1014 35 3000 1 280 09:21 20.11.2019
4149 Haze 28 1014 42 3000 1 60 08:56 20.11.2019
4150 Haze 28 1015 45 3000 1 70 08:37 20.11.2019
4151 Haze 28 1015 45 3000 1 70 08:19 20.11.2019
4152 Haze 28 1015 45 3000 1 80 07:45 20.11.2019
4153 Haze 27 1016 51 3000 1.5 100 07:25 20.11.2019
4154 Haze 26 1016 50 2500 1.5 90 06:48 20.11.2019
4155 Haze 26 1017 50 2500 1.5 70 06:21 20.11.2019
4156 Haze 23 1017 64 2500 1 40 04:52 20.11.2019
4157 Haze 18 1016 88 2000 1 20 03:30 20.11.2019
4158 Haze 17 1015 88 2000 2.45 9 02:21 20.11.2019
4159 Haze 16 1014 87 2500 2.49 4 01:32 20.11.2019
4160 Haze 17 1014 88 3000 1 20 00:40 20.11.2019
4161 Haze 19 1014 77 3000 1 30 23:52 19.11.2019
4162 Haze 19 1014 77 3000 1 20 23:25 19.11.2019
4163 Haze 18 1014 88 3000 1 10 22:57 19.11.2019
4164 Haze 18 1014 88 3000 1 10 22:57 19.11.2019
4165 Haze 18 1014 82 3000 1.68 12 22:39 19.11.2019
4166 Haze 18 1014 82 3000 1.68 12 22:19 19.11.2019
4167 Haze 18 1014 82 3000 1.68 12 22:19 19.11.2019
4168 Haze 19 1014 82 3000 1.68 12 21:55 19.11.2019
4169 Haze 20 1014 77 3000 1 350 21:37 19.11.2019
4170 Haze 20 1014 77 3000 1 350 21:37 19.11.2019
4171 Haze 20 1014 77 3000 1 350 21:19 19.11.2019
4172 Haze 20 1014 77 3000 1 350 21:19 19.11.2019
4173 Haze 20 1014 77 3000 1 350 21:19 19.11.2019
4174 Haze 19 1014 82 3000 1.5 20 20:55 19.11.2019
4175 Haze 19 1014 82 3000 1.68 12 20:36 19.11.2019
4176 Haze 19 1014 82 3000 1.68 12 20:36 19.11.2019
4177 Haze 19 1014 82 3000 2.64 349 20:18 19.11.2019
4178 Haze 20 1014 77 3000 2.64 349 19:55 19.11.2019
4179 Haze 19 1015 77 3000 2.64 349 19:37 19.11.2019
4180 Haze 19 1015 77 3000 2.64 349 19:18 19.11.2019
4181 Haze 20 1015 77 3000 2.64 349 18:41 19.11.2019
4182 Haze 20 1015 72 3000 2.64 349 18:21 19.11.2019
4183 Haze 22 1015 64 3000 2.64 349 17:59 19.11.2019
4184 Haze 22 1015 64 3000 2.64 349 17:41 19.11.2019
4185 Haze 22 1015 64 3000 2.64 349 17:41 19.11.2019
4186 Haze 22 1015 64 3000 1.34 140 17:21 19.11.2019
4187 Haze 21 1015 68 3000 1.34 140 16:59 19.11.2019
4188 Haze 21 1015 64 3000 1.34 140 16:40 19.11.2019
4189 Haze 21 1015 64 3000 1.34 140 16:20 19.11.2019
4190 Haze 22 1015 60 3000 1.34 140 15:47 19.11.2019
4191 Haze 21 1015 68 3000 1.34 140 15:27 19.11.2019
4192 Haze 21 1015 68 3000 1.34 140 15:27 19.11.2019
4193 Haze 23 1014 60 3000 1.34 140 14:58 19.11.2019
4194 Haze 23 1014 56 3000 1.34 140 14:39 19.11.2019
4195 Haze 23 1014 56 3000 0.72 48 14:21 19.11.2019
4196 Haze 25 1014 50 3000 0.72 48 13:42 19.11.2019
4197 Haze 25 1014 50 3000 0.72 48 13:42 19.11.2019
4198 Haze 25 1014 50 3000 0.72 48 13:42 19.11.2019
4199 Haze 25 1014 50 3000 0.72 48 13:42 19.11.2019
4200 Haze 25 1014 50 3000 0.72 48 13:42 19.11.2019
4201 Haze 26 1013 47 3000 0.58 30 13:22 19.11.2019
4202 Haze 27 1013 47 3000 0.58 30 12:58 19.11.2019
4203 Haze 28 1013 45 3000 0.58 30 12:39 19.11.2019
4204 Haze 28 1013 45 3000 0.58 30 12:21 19.11.2019
4205 Haze 29 1013 37 3000 0.58 30 11:56 19.11.2019
4206 Haze 29 1013 37 3000 0.58 30 11:56 19.11.2019
4207 Haze 29 1013 37 3000 1 10 11:37 19.11.2019
4208 Haze 29 1013 37 3000 1 10 11:18 19.11.2019
4209 Haze 29 1013 35 3000 1 20 10:44 19.11.2019
4210 Haze 29 1013 37 3000 1 10 10:21 19.11.2019
4211 Haze 29 1014 32 3000 1.79 34 09:45 19.11.2019
4212 Haze 29 1014 37 3000 1.79 34 09:22 19.11.2019
4213 Haze 28 1014 39 4000 1.79 34 08:59 19.11.2019
4214 Haze 29 1015 37 4000 1 90 08:40 19.11.2019
4215 Haze 29 1015 37 4000 1 90 08:22 19.11.2019
4216 Haze 27 1016 42 4000 1 70 07:56 19.11.2019
4217 Haze 27 1017 39 4000 1.5 90 07:37 19.11.2019
4218 Haze 27 1017 39 4000 1.5 90 07:18 19.11.2019
4219 Haze 27 1017 42 4000 1.5 90 06:42 19.11.2019
4220 Haze 26 1018 47 3500 1 40 06:19 19.11.2019
4221 Haze 24 1018 50 3500 1.5 50 05:19 19.11.2019
4222 Haze 20 1017 72 3000 1 20 03:41 19.11.2019
4223 Haze 18 1017 82 3000 1 10 03:19 19.11.2019
4224 Haze 16 1016 87 3000 2.77 29 02:49 19.11.2019
4225 Haze 16 1015 87 3000 1 10 01:49 19.11.2019
4226 Haze 18 1014 82 3000 1 360 00:49 19.11.2019
4227 Haze 18 1014 77 3000 1 340 00:20 19.11.2019
4228 Haze 18 1014 77 3000 1 340 00:20 19.11.2019
4229 Haze 18 1014 82 3000 1 360 23:40 18.11.2019
4230 Haze 18 1014 82 3000 1 360 23:20 18.11.2019
4231 Haze 19 1014 77 3000 1 360 22:47 18.11.2019
4232 Haze 19 1014 72 3000 2.58 6 22:24 18.11.2019
4233 Haze 18 1014 77 3000 2.58 6 21:59 18.11.2019
4234 Haze 18 1014 77 3000 2.58 6 21:40 18.11.2019
4235 Haze 18 1014 77 3000 2.58 6 21:40 18.11.2019
4236 Haze 18 1014 77 3000 2.58 6 21:21 18.11.2019
4237 Haze 18 1015 82 3000 2.58 6 20:59 18.11.2019
4238 Haze 18 1015 82 3000 2.58 6 20:41 18.11.2019
4239 Haze 18 1015 82 3000 2.62 19 20:19 18.11.2019
4240 Haze 19 1015 72 3000 2.62 19 19:58 18.11.2019
4241 Haze 20 1015 68 3000 2.62 19 19:38 18.11.2019
4242 Haze 20 1015 68 3000 2.62 19 19:20 18.11.2019
4243 Haze 19 1015 77 3000 2.62 19 18:56 18.11.2019
4244 Haze 20 1016 72 3000 2.62 19 18:38 18.11.2019
4245 -273 0 0 0 0 0 18:38 18.11.2019
4246 Haze 20 1016 72 3000 2.62 19 18:19 18.11.2019
4247 -273 0 0 0 0 0 17:56 18.11.2019
4248 Haze 20 1016 72 3000 2.62 19 17:56 18.11.2019
4249 Haze 20 1016 68 3000 2.62 19 17:37 18.11.2019
4250 Haze 20 1016 68 3000 1.53 356 17:18 18.11.2019
4251 Haze 20 1016 68 3000 1.53 356 16:42 18.11.2019
4252 Haze 20 1016 68 3000 1.53 356 16:24 18.11.2019
4253 Haze 21 1016 64 3000 1.53 356 15:57 18.11.2019
4254 Haze 22 1016 60 3000 1.53 356 15:39 18.11.2019
4255 Haze 22 1016 60 3000 1.53 356 15:20 18.11.2019
4256 Haze 24 1015 50 3000 1.53 356 14:44 18.11.2019
4257 Haze 24 1015 50 3000 2.14 77 14:24 18.11.2019
4258 Haze 25 1014 44 3500 2.14 77 13:59 18.11.2019
4259 Haze 26 1014 41 3500 1 60 13:41 18.11.2019
4260 Haze 26 1014 41 3500 1 60 13:23 18.11.2019
4261 Haze 28 1014 37 4000 1.5 50 12:40 18.11.2019
4262 Haze 28 1014 37 4000 1.5 50 12:20 18.11.2019
4263 Haze 28 1014 39 4000 1.5 60 11:55 18.11.2019
4264 Haze 28 1014 39 4000 2.1 60 11:37 18.11.2019
4265 Haze 28 1014 39 4000 2.1 60 11:19 18.11.2019
4266 Haze 28 1014 39 4000 2.1 60 10:42 18.11.2019
4267 Haze 29 1014 39 4000 2.1 60 10:23 18.11.2019
4268 Haze 29 1014 39 4000 2.1 60 09:57 18.11.2019
4269 Haze 28 1015 39 4000 2.6 80 09:38 18.11.2019
4270 Haze 28 1015 39 4000 2.6 80 09:19 18.11.2019
4271 Haze 28 1015 39 4000 2.6 80 09:19 18.11.2019
4272 Haze 28 1015 39 4000 2.6 50 08:46 18.11.2019
4273 Haze 28 1016 39 4000 3.1 60 08:22 18.11.2019
4274 Haze 27 1017 44 4000 3.1 90 07:49 18.11.2019
4275 Haze 27 1018 47 4000 4.1 60 07:31 18.11.2019
4276 Haze 26 1018 47 4000 2.6 60 06:59 18.11.2019
4277 Haze 25 1018 50 4000 3.6 60 06:41 18.11.2019
4278 Haze 25 1018 50 4000 3.6 60 06:41 18.11.2019
4279 Haze 25 1018 50 4000 3.6 60 06:21 18.11.2019
4280 Haze 24 1019 53 4000 2.1 30 05:25 18.11.2019
4281 Haze 19 1017 72 2500 1 350 03:30 18.11.2019
4282 Haze 18 1016 72 2000 1.5 10 01:37 18.11.2019
4283 Mist 19 1015 68 2000 1.5 10 00:46 18.11.2019
4284 Mist 19 1015 72 2000 1.5 10 23:57 17.11.2019
4285 Mist 19 1015 72 2000 1.5 360 23:39 17.11.2019
4286 Mist 19 1015 72 2000 1.5 360 23:19 17.11.2019
4287 Haze 19 1015 77 2000 1.5 360 22:54 17.11.2019
4288 Haze 20 1015 72 2000 1 360 22:36 17.11.2019
4289 Haze 20 1015 72 2000 1 360 22:18 17.11.2019
4290 Haze 20 1015 72 2000 1.5 350 21:42 17.11.2019
4291 Haze 20 1016 77 2000 1.5 350 21:20 17.11.2019
4292 Haze 21 1016 77 2000 2.1 350 20:58 17.11.2019
4293 Haze 20 1016 82 2000 2.61 353 20:39 17.11.2019
4294 Haze 20 1016 82 2000 2.35 348 20:20 17.11.2019
4295 Haze 20 1016 82 2000 2.35 348 19:57 17.11.2019
4296 Haze 21 1016 77 2000 2.35 348 19:38 17.11.2019
4297 Haze 21 1016 77 2000 2.35 348 19:38 17.11.2019
4298 Haze 21 1016 77 2000 2.35 348 19:38 17.11.2019
4299 Haze 21 1016 77 2000 2.35 348 19:20 17.11.2019
4300 Haze 21 1016 77 2000 2.35 348 18:56 17.11.2019
4301 Haze 21 1016 77 2000 2.35 348 18:56 17.11.2019
4302 Haze 21 1016 77 2000 1 350 18:38 17.11.2019
4303 Haze 21 1016 77 2000 1 350 18:19 17.11.2019
4304 Haze 21 1016 77 2000 2.35 348 17:57 17.11.2019
4305 Haze 21 1016 73 2000 2.35 348 17:39 17.11.2019
4306 Haze 21 1016 73 2000 2.45 27 17:20 17.11.2019
4307 Haze 22 1016 73 2500 2.45 27 16:58 17.11.2019
4308 Haze 21 1016 77 2500 2.45 27 16:40 17.11.2019
4309 Haze 21 1016 77 2500 2.45 27 16:21 17.11.2019
4310 Haze 23 1016 69 2500 2.45 27 15:55 17.11.2019
4311 Haze 23 1016 64 2500 2.45 27 15:37 17.11.2019
4312 Haze 23 1016 64 2500 2.45 27 15:18 17.11.2019
4313 Haze 23 1015 64 2500 2.45 27 14:55 17.11.2019
4314 Haze 23 1015 64 2500 1 90 14:37 17.11.2019
4315 Haze 23 1015 64 2500 1 90 14:19 17.11.2019
4316 Haze 24 1015 64 2500 1 110 13:55 17.11.2019
4317 Haze 24 1015 64 2500 1 110 13:55 17.11.2019
4318 Haze 26 1014 50 2500 2.45 352 13:37 17.11.2019
4319 Haze 26 1014 50 2500 2.45 352 13:18 17.11.2019
4320 Haze 26 1014 61 2500 2.39 353 12:41 17.11.2019
4321 Haze 28 1014 51 2500 2.39 353 12:22 17.11.2019
4322 Haze 29 1014 48 2500 2.39 353 11:56 17.11.2019
4323 Haze 29 1014 42 2500 1 10 11:38 17.11.2019
4324 Haze 29 1014 42 2500 1 10 11:20 17.11.2019
4325 Haze 29 1014 42 2500 1.5 40 10:44 17.11.2019
4326 Haze 29 1014 42 2500 1.5 40 10:23 17.11.2019
4327 Haze 29 1015 42 2500 1.5 50 09:57 17.11.2019
4328 Haze 29 1015 42 2500 1.5 50 09:57 17.11.2019
4329 Haze 29 1015 42 2500 2.1 40 09:39 17.11.2019
4330 Haze 29 1015 42 2500 2.1 40 09:20 17.11.2019
4331 Haze 28 1016 39 3000 2.6 30 08:39 17.11.2019
4332 Haze 28 1016 39 3000 2.6 30 08:20 17.11.2019
4333 Haze 28 1017 45 3000 2.1 30 07:47 17.11.2019
4334 Haze 27 1017 47 3000 2.6 60 07:24 17.11.2019
4335 Haze 26 1018 47 3000 3.1 50 06:57 17.11.2019
4336 Haze 26 1018 47 3000 2.1 30 06:32 17.11.2019
4337 Haze 24 1018 53 3000 1.5 30 05:40 17.11.2019
4338 Haze 24 1018 53 3000 1.5 30 05:40 17.11.2019
4339 Mist 22 1018 68 2500 1 40 04:23 17.11.2019
4340 Mist 20 1017 72 2500 1.5 360 03:45 17.11.2019
4341 Mist 19 1017 82 2000 1 320 03:25 17.11.2019
4342 Mist 19 1016 77 2000 1 350 02:27 17.11.2019
4343 Mist 18 1015 88 2500 1.5 40 01:25 17.11.2019
4344 Mist 19 1015 77 2500 2.32 3 00:53 17.11.2019
4345 Mist 19 1014 77 2500 1 330 00:22 17.11.2019
4346 Mist 20 1015 77 2500 1 330 23:44 16.11.2019
4347 Mist 20 1015 77 2500 1.5 20 23:20 16.11.2019
4348 Mist 20 1015 77 2500 1.5 20 22:59 16.11.2019
4349 Mist 20 1015 77 2500 1 10 22:40 16.11.2019
4350 Mist 20 1015 77 2500 1 10 22:40 16.11.2019
4351 Mist 20 1015 77 2500 1 10 22:18 16.11.2019
4352 Mist 19 1015 82 2500 1.99 356 21:42 16.11.2019
4353 Mist 19 1015 82 2500 1.99 356 21:23 16.11.2019
4354 Mist 20 1016 82 2500 1 10 20:59 16.11.2019
4355 Mist 20 1016 82 2500 1 10 20:41 16.11.2019
4356 Mist 20 1016 82 2500 2.54 350 20:20 16.11.2019
4357 Mist 20 1016 82 2500 2.54 350 19:57 16.11.2019
4358 Mist 21 1016 77 2500 2.54 350 19:38 16.11.2019
4359 Mist 21 1016 77 2500 2.54 350 19:20 16.11.2019
4360 Mist 20 1016 82 2500 1 20 18:45 16.11.2019
4361 Mist 21 1016 77 2500 1 260 18:27 16.11.2019
4362 Mist 21 1016 77 2500 1 250 17:56 16.11.2019
4363 Mist 21 1016 77 2500 1 250 17:56 16.11.2019
4364 Haze 21 1016 77 3000 1 240 17:37 16.11.2019
4365 Haze 21 1016 77 3000 1 240 17:18 16.11.2019
4366 Haze 22 1016 68 3000 0.8 140 16:47 16.11.2019
4367 Haze 21 1016 73 3000 0.8 140 16:28 16.11.2019
4368 Haze 22 1016 68 3000 0.8 140 15:56 16.11.2019
4369 Haze 23 1015 60 3000 0.8 140 15:38 16.11.2019
4370 Haze 23 1015 60 3000 0.8 140 15:20 16.11.2019
4371 Haze 24 1015 57 3000 0.8 140 14:41 16.11.2019
4372 Haze 24 1015 57 3000 1.11 0 14:22 16.11.2019
4373 Mist 25 1015 53 2500 1 60 13:57 16.11.2019
4374 Haze 26 1014 47 3000 1 60 13:39 16.11.2019
4375 Haze 26 1014 47 3000 1 60 13:19 16.11.2019
4376 Haze 27 1014 47 3000 1.5 40 12:59 16.11.2019
4377 Haze 27 1014 47 3000 1.5 40 12:41 16.11.2019
4378 Haze 28 1014 45 3000 1.5 30 12:20 16.11.2019
4379 Haze 29 1014 39 3000 1 340 11:46 16.11.2019
4380 Haze 29 1014 37 3000 0.97 343 11:28 16.11.2019
4381 Haze 29 1014 37 3000 1.5 100 10:58 16.11.2019
4382 Haze 29 1014 35 3000 2.1 150 10:40 16.11.2019
4383 Haze 29 1014 35 3000 2.1 150 10:21 16.11.2019
4384 Haze 29 1014 39 3000 1 150 09:56 16.11.2019
4385 Haze 29 1014 39 2500 1 50 09:36 16.11.2019
4386 Haze 29 1014 39 2500 1 50 09:18 16.11.2019
4387 Haze 29 1015 39 2500 1.58 4 08:40 16.11.2019
4388 Haze 28 1015 45 2500 1 70 08:20 16.11.2019
4389 Haze 27 1016 44 2500 1.5 100 07:43 16.11.2019
4390 Haze 27 1016 47 2500 1 60 07:22 16.11.2019
4391 Haze 26 1017 54 2000 1 70 06:56 16.11.2019
4392 Haze 26 1017 54 2000 1 80 06:34 16.11.2019
4393 Haze 25 1017 57 2000 1 70 05:42 16.11.2019
4394 Haze 21 1017 73 2000 1.5 40 04:20 16.11.2019
4395 Mist 19 1016 82 1500 1 10 03:26 16.11.2019
4396 Mist 17 1015 88 1500 1.68 5 02:21 16.11.2019
4397 Mist 18 1014 88 2000 1.5 10 01:27 16.11.2019
4398 Haze 17 1014 88 2500 1.66 5 00:46 16.11.2019
4399 Haze 18 1014 82 2500 1.5 360 00:27 16.11.2019
4400 Haze 17 1014 88 2500 1.66 5 23:40 15.11.2019
4401 Haze 17 1014 88 2500 2.14 13 23:21 15.11.2019
4402 Haze 19 1014 82 2500 1.5 10 22:58 15.11.2019
4403 Haze 19 1015 82 2500 1.5 10 22:38 15.11.2019
4404 Haze 19 1015 82 2500 1.5 10 22:18 15.11.2019
4405 Haze 19 1015 82 2500 1.5 20 21:54 15.11.2019
4406 Haze 18 1015 88 2500 2.14 13 21:36 15.11.2019
4407 Haze 18 1015 88 2500 2.14 13 21:18 15.11.2019
4408 Haze 18 1015 82 2500 2.14 13 20:54 15.11.2019
4409 Haze 19 1015 82 2500 2.14 13 20:36 15.11.2019
4410 Haze 19 1015 82 2500 1.26 48 20:18 15.11.2019
4411 Haze 19 1015 82 2500 1.26 48 20:18 15.11.2019
4412 Haze 19 1015 82 2500 1.26 48 19:56 15.11.2019
4413 Haze 19 1015 82 2500 1.26 48 19:36 15.11.2019
4414 Haze 19 1015 82 2500 1.26 48 19:18 15.11.2019
4415 Haze 19 1015 77 2500 1.26 48 18:41 15.11.2019
4416 Haze 19 1016 77 2500 1.26 48 18:23 15.11.2019
4417 Haze 19 1016 77 2500 1.26 48 17:55 15.11.2019
4418 Haze 20 1016 77 2500 1.26 48 17:37 15.11.2019
4419 Haze 20 1016 77 2500 0.53 60 17:18 15.11.2019
4420 Haze 21 1016 68 2500 0.53 60 16:40 15.11.2019
4421 Haze 21 1016 68 2500 0.53 60 16:22 15.11.2019
4422 Haze 22 1015 68 2500 0.53 60 15:57 15.11.2019
4423 Haze 22 1015 64 2500 0.53 60 15:36 15.11.2019
4424 Haze 22 1015 64 2500 0.53 60 15:18 15.11.2019
4425 Haze 23 1015 60 2500 0.53 60 14:55 15.11.2019
4426 Haze 23 1015 60 2500 0.53 60 14:55 15.11.2019
4427 Haze 24 1014 50 2500 0.53 60 14:36 15.11.2019
4428 Haze 24 1014 50 2500 1.29 60 14:18 15.11.2019
4429 Haze 25 1014 47 2500 1.29 60 13:54 15.11.2019
4430 Haze 25 1014 47 2500 1.29 60 13:54 15.11.2019
4431 Haze 25 1014 47 3000 1.17 51 13:36 15.11.2019
4432 Haze 25 1014 47 3000 1.17 51 13:18 15.11.2019
4433 Haze 26 1014 41 3000 1 50 12:55 15.11.2019
4434 Haze 27 1014 42 3000 1 40 12:36 15.11.2019
4435 Haze 27 1014 42 3000 1 40 12:18 15.11.2019
4436 -273 0 0 0 0 0 11:39 15.11.2019
4437 Haze 28 1014 42 3000 1 70 11:21 15.11.2019
4438 Haze 28 1014 42 3000 1 70 10:57 15.11.2019
4439 Haze 27 1014 42 3000 2.1 100 10:39 15.11.2019
4440 Haze 27 1014 42 3000 2.1 100 10:20 15.11.2019
4441 Haze 27 1015 44 3000 1 60 09:41 15.11.2019
4442 Haze 27 1016 44 3000 1.5 90 09:20 15.11.2019
4443 Haze 27 1016 44 3000 1.5 70 08:45 15.11.2019
4444 Haze 27 1016 47 3000 1 50 08:25 15.11.2019
4445 Haze 27 1017 51 3000 2.1 90 07:54 15.11.2019
4446 Haze 26 1017 54 3000 2.1 60 07:36 15.11.2019
4447 Haze 26 1017 54 3000 2.1 60 07:18 15.11.2019
4448 Haze 25 1018 57 3000 1.5 100 06:34 15.11.2019
4449 Haze 24 1018 60 3000 2.1 90 05:52 15.11.2019
4450 Haze 23 1018 64 3000 2.1 60 05:28 15.11.2019
4451 Mist 22 1018 64 2500 1.5 40 04:42 15.11.2019
4452 Mist 19 1017 77 2500 3.03 29 03:37 15.11.2019
4453 Mist 17 1016 88 2500 3.03 29 02:27 15.11.2019
4454 Mist 17 1015 88 2500 1.5 10 01:46 15.11.2019
4455 Mist 17 1015 88 2500 1.5 10 01:24 15.11.2019
4456 Mist 18 1015 82 2500 1 10 00:35 15.11.2019
4457 Mist 18 1015 82 2500 2.1 350 23:58 14.11.2019
4458 Mist 18 1015 82 2500 2.1 350 23:38 14.11.2019
4459 Mist 19 1015 77 2500 2.1 10 23:19 14.11.2019
4460 Mist 18 1015 82 2500 1.5 20 22:41 14.11.2019
4461 Mist 18 1015 82 2500 1.5 20 22:22 14.11.2019
4462 Mist 18 1015 82 2500 1.8 63 21:57 14.11.2019
4463 Mist 18 1015 82 2500 1 20 21:39 14.11.2019
4464 Mist 18 1015 82 2500 1 20 21:21 14.11.2019
4465 Mist 18 1016 82 2500 1.8 63 20:43 14.11.2019
4466 Mist 18 1016 82 2500 2.06 50 20:24 14.11.2019
4467 Mist 19 1016 77 2500 1.83 16 20:00 14.11.2019
4468 Mist 19 1016 77 2500 1.83 16 19:41 14.11.2019
4469 Mist 19 1016 77 2500 1.83 16 19:19 14.11.2019
4470 Mist 18 1016 82 2500 1.83 16 18:59 14.11.2019
4471 Mist 18 1017 82 2500 1.83 16 18:41 14.11.2019
4472 Mist 18 1017 82 2500 1.83 16 18:21 14.11.2019
4473 Mist 19 1017 77 2500 1.83 16 17:56 14.11.2019
4474 Mist 19 1017 77 2500 1.83 16 17:37 14.11.2019
4475 Mist 21 1017 68 2500 1.85 70 17:19 14.11.2019
4476 Mist 21 1017 68 2500 1.85 70 16:57 14.11.2019
4477 Mist 21 1017 68 2500 1.85 70 16:37 14.11.2019
4478 Mist 21 1017 68 2500 1.85 70 16:37 14.11.2019
4479 Mist 21 1017 68 2500 1.85 70 16:18 14.11.2019
4480 Haze 22 1016 64 2500 1.85 70 15:56 14.11.2019
4481 Haze 22 1016 64 2500 1.85 70 15:56 14.11.2019
4482 Haze 22 1016 60 2500 1.85 70 15:38 14.11.2019
4483 Haze 22 1016 60 2500 1.85 70 15:38 14.11.2019
4484 Haze 22 1016 60 2500 1.85 70 15:19 14.11.2019
4485 Haze 22 1016 60 2500 1.85 70 14:44 14.11.2019
4486 Haze 24 1015 50 2500 1 50 14:22 14.11.2019
4487 Haze 25 1015 47 2500 1.5 50 13:57 14.11.2019
4488 Haze 25 1014 47 3000 1.5 40 13:38 14.11.2019
4489 Haze 25 1014 47 3000 1.5 40 13:19 14.11.2019
4490 Haze 26 1014 47 3000 1 60 12:55 14.11.2019
4491 Haze 26 1014 44 3000 2.1 70 12:36 14.11.2019
4492 Haze 26 1014 44 3000 2.1 70 12:18 14.11.2019
4493 Haze 27 1014 42 3000 2.1 20 11:39 14.11.2019
4494 Haze 27 1014 42 3000 2.1 20 11:20 14.11.2019
4495 Haze 27 1014 42 3000 2.1 20 11:20 14.11.2019
4496 Haze 27 1014 42 3000 2.1 20 11:20 14.11.2019
4497 Haze 28 1015 42 3000 3.1 60 10:58 14.11.2019
4498 Haze 28 1015 37 3000 1.5 90 10:39 14.11.2019
4499 Haze 28 1015 37 3000 1.5 90 10:20 14.11.2019
4500 Haze 27 1015 42 3000 1.5 80 09:56 14.11.2019
4501 Haze 28 1016 42 3000 2.6 50 09:38 14.11.2019
4502 Haze 27 1017 44 3000 3.1 60 09:19 14.11.2019
4503 Haze 27 1017 44 3000 3.1 60 08:47 14.11.2019
4504 Haze 27 1017 44 3000 3.1 60 08:47 14.11.2019
4505 Haze 27 1017 44 3000 3.1 60 08:25 14.11.2019
4506 Haze 27 1018 44 3000 3.1 90 07:45 14.11.2019
4507 Haze 26 1018 50 3000 2.1 70 07:26 14.11.2019
4508 Haze 26 1019 54 3000 2.6 80 06:56 14.11.2019
4509 Haze 24 1019 57 3000 1.5 40 06:37 14.11.2019
4510 Haze 24 1019 57 3000 1.5 40 06:18 14.11.2019
4511 Clear 21 1018 61 0 2.95 42 04:40 14.11.2019
4512 Mist 19 1018 77 2000 2.95 42 03:59 14.11.2019
4513 Mist 17 1018 88 1800 2.95 42 02:43 14.11.2019
4514 Mist 17 1017 88 2000 2.43 50 01:41 14.11.2019
4515 Haze 18 1016 82 2500 1 10 01:20 14.11.2019
4516 Haze 18 1016 82 2500 1 360 00:48 14.11.2019
4517 Haze 18 1016 82 2500 1 10 00:25 14.11.2019
4518 Haze 18 1016 82 2500 1 10 23:41 13.11.2019
4519 Haze 18 1016 82 2500 1 10 23:21 13.11.2019
4520 Haze 18 1016 88 2500 1.5 10 22:56 13.11.2019
4521 Haze 18 1015 88 2500 2.1 10 22:38 13.11.2019
4522 Haze 18 1015 88 2500 2.1 10 22:38 13.11.2019
4523 Haze 18 1015 88 2500 2.1 10 22:38 13.11.2019
4524 Haze 18 1015 88 2500 2.1 10 22:19 13.11.2019
4525 Haze 18 1016 82 2500 1.9 53 21:55 13.11.2019
4526 Haze 18 1016 82 2500 1.9 53 21:37 13.11.2019
4527 Haze 18 1016 82 2500 1.9 53 21:37 13.11.2019
4528 Haze 18 1016 82 2500 1.9 53 21:18 13.11.2019
4529 Haze 18 1016 82 2500 1.9 53 20:55 13.11.2019
4530 Haze 18 1016 82 2500 1.9 53 20:37 13.11.2019
4531 Haze 18 1016 82 2500 1.82 14 20:18 13.11.2019
4532 Haze 18 1016 82 2500 1.82 14 19:43 13.11.2019
4533 Haze 19 1016 77 2500 1.82 14 19:20 13.11.2019
4534 Haze 18 1017 82 2500 1.82 14 18:56 13.11.2019
4535 Haze 18 1017 82 2500 1.82 14 18:38 13.11.2019
4536 Haze 18 1017 82 2500 1.82 14 18:38 13.11.2019
4537 Haze 18 1017 82 2500 1.82 14 18:19 13.11.2019
4538 Haze 19 1017 77 3000 1 120 17:58 13.11.2019
4539 Haze 19 1017 77 3000 1.82 14 17:39 13.11.2019
4540 Haze 19 1017 77 3000 1.58 93 17:21 13.11.2019
4541 Haze 20 1017 72 3000 1.66 88 16:58 13.11.2019
4542 Haze 21 1017 68 3000 1 70 16:39 13.11.2019
4543 Haze 21 1017 68 3000 1 70 16:39 13.11.2019
4544 Haze 21 1017 68 3000 1 70 16:39 13.11.2019
4545 Haze 22 1017 64 3000 1.66 88 16:21 13.11.2019
4546 Haze 22 1017 64 3000 1.58 93 15:58 13.11.2019
4547 Haze 22 1017 64 3000 1.58 93 15:58 13.11.2019
4548 Haze 23 1016 60 3000 1.66 88 15:39 13.11.2019
4549 Haze 23 1016 60 3000 1.58 93 15:20 13.11.2019
4550 Haze 25 1015 50 3000 1 30 14:42 13.11.2019
4551 Haze 25 1015 50 3000 1 30 14:22 13.11.2019
4552 Haze 25 1015 50 3000 1 30 13:58 13.11.2019
4553 Haze 25 1015 50 3000 1.5 40 13:36 13.11.2019
4554 Haze 26 1015 47 3000 1.5 40 13:18 13.11.2019
4555 Haze 26 1015 47 3000 1.5 40 12:54 13.11.2019
4556 Haze 27 1014 44 3000 2.6 50 12:36 13.11.2019
4557 Haze 27 1014 44 3000 2.6 50 12:18 13.11.2019
4558 Haze 28 1014 45 3000 2.1 80 11:40 13.11.2019
4559 Haze 28 1014 42 3000 2.6 100 11:19 13.11.2019
4560 Haze 28 1014 42 3000 2.6 100 10:58 13.11.2019
4561 Haze 28 1015 45 3000 1 70 10:39 13.11.2019
4562 Haze 28 1015 45 3000 1 70 10:19 13.11.2019
4563 Haze 28 1016 45 3000 1 30 09:45 13.11.2019
4564 Haze 28 1016 45 3000 1 30 09:24 13.11.2019
4565 Haze 28 1016 45 3000 4.1 60 08:59 13.11.2019
4566 Haze 27 1017 47 3000 2.1 100 08:37 13.11.2019
4567 Haze 27 1017 47 3000 2.1 100 08:19 13.11.2019
4568 Haze 27 1017 51 2500 1.5 120 07:42 13.11.2019
4569 Haze 27 1018 51 2500 2.1 90 07:20 13.11.2019
4570 Mist 26 1018 54 2500 2.6 130 06:44 13.11.2019
4571 Mist 26 1019 54 2500 1 90 06:19 13.11.2019
4572 Mist 26 1019 54 2500 1 90 06:19 13.11.2019
4573 Mist 24 1019 60 2500 1 90 05:52 13.11.2019
4574 Mist 23 1019 69 2500 1.5 80 05:31 13.11.2019
4575 Mist 22 1018 78 2000 1 40 04:21 13.11.2019
4576 Mist 17 1017 93 2000 2.68 18 02:18 13.11.2019
4577 Mist 18 1016 88 2000 2.62 21 01:41 13.11.2019
4578 Mist 19 1015 82 2000 2.62 21 00:44 13.11.2019
4579 Mist 19 1015 82 2000 2.62 21 00:44 13.11.2019
4580 Mist 18 1015 93 2000 2.62 21 00:19 13.11.2019
4581 Mist 18 1015 88 2000 2.62 21 23:41 12.11.2019
4582 Mist 18 1015 88 2000 2.07 33 23:21 12.11.2019
4583 Mist 18 1015 88 2000 2.07 33 23:21 12.11.2019
4584 Mist 18 1015 88 2000 2.07 33 22:44 12.11.2019
4585 Mist 19 1015 82 2000 2.07 33 22:21 12.11.2019
4586 Mist 18 1015 88 2000 2.07 33 21:59 12.11.2019
4587 Mist 18 1015 88 2000 2.07 33 21:40 12.11.2019
4588 Mist 19 1016 88 2000 2.07 33 21:22 12.11.2019
4589 Mist 19 1016 88 2000 2.07 33 20:56 12.11.2019
4590 Mist 20 1016 82 2000 2.07 33 20:37 12.11.2019
4591 Mist 20 1016 82 2000 1.55 43 20:18 12.11.2019
4592 Mist 20 1016 82 2000 1.55 43 20:18 12.11.2019
4593 Mist 21 1016 77 2000 1.55 43 19:57 12.11.2019
4594 Mist 21 1016 73 2500 1.55 43 19:38 12.11.2019
4595 Mist 21 1016 73 2500 1.55 43 19:19 12.11.2019
4596 Haze 21 1016 73 2500 1.55 43 18:58 12.11.2019
4597 Haze 21 1016 73 2500 1.55 43 18:39 12.11.2019
4598 Haze 21 1016 73 2500 1.55 43 18:21 12.11.2019
4599 Haze 21 1016 73 2500 1.55 43 18:21 12.11.2019
4600 Haze 21 1016 73 3000 1.55 43 17:56 12.11.2019
4601 Haze 21 1016 68 3000 1.55 43 17:37 12.11.2019
4602 Haze 21 1016 68 3000 0.48 358 17:19 12.11.2019
4603 Haze 21 1016 68 3000 0.48 358 16:44 12.11.2019
4604 Haze 21 1016 77 3000 0.48 358 16:25 12.11.2019
4605 Haze 22 1016 73 3000 0.48 358 15:58 12.11.2019
4606 Haze 23 1015 64 3000 0.48 358 15:39 12.11.2019
4607 Haze 23 1015 64 3000 0.48 358 15:20 12.11.2019
4608 Haze 23 1015 60 3000 0.48 358 14:55 12.11.2019
4609 Haze 24 1014 57 3000 0.48 358 14:36 12.11.2019
4610 Haze 24 1014 57 3000 2.06 12 14:18 12.11.2019
4611 Haze 25 1014 50 4000 2.06 12 13:54 12.11.2019
4612 Haze 27 1014 44 4000 2.06 12 13:36 12.11.2019
4613 Haze 27 1014 44 4000 1.65 2 13:18 12.11.2019
4614 Haze 28 1014 39 4000 1.5 10 12:40 12.11.2019
4615 Haze 28 1014 39 4000 1.5 10 12:19 12.11.2019
4616 -273 0 0 0 0 0 11:55 12.11.2019
4617 Haze 29 1013 42 4000 2.01 353 11:36 12.11.2019
4618 Haze 29 1013 42 4000 2.45 40 11:18 12.11.2019
4619 Haze 29 1013 42 4000 1 50 10:55 12.11.2019
4620 Haze 29 1014 42 4000 2.1 130 10:36 12.11.2019
4621 Haze 29 1014 42 4000 2.1 130 10:18 12.11.2019
4622 Haze 29 1014 39 4000 1.5 50 09:39 12.11.2019
4623 Haze 29 1014 39 4000 1.5 50 09:20 12.11.2019
4624 Haze 29 1015 45 4000 3.1 50 08:49 12.11.2019
4625 Haze 28 1016 51 4000 3.1 90 08:29 12.11.2019
4626 Haze 27 1017 51 4000 2.6 90 07:43 12.11.2019
4627 Haze 27 1017 51 4000 2.6 90 07:25 12.11.2019
4628 Haze 27 1017 51 4000 2.1 80 06:54 12.11.2019
4629 Haze 26 1017 54 3000 4.1 90 06:28 12.11.2019
4630 Haze 25 1018 53 3000 2.6 110 05:56 12.11.2019
4631 Haze 24 1017 60 3000 2.1 80 04:59 12.11.2019
4632 Haze 23 1017 69 2500 1 60 04:37 12.11.2019
4633 Haze 18 1015 93 2500 1 10 02:41 12.11.2019
4634 Haze 18 1014 88 2500 2.1 38 01:27 12.11.2019
4635 Haze 18 1014 88 2500 2.1 38 00:57 12.11.2019
4636 Haze 18 1014 88 2500 2.1 38 00:57 12.11.2019
4637 Haze 19 1014 88 2500 2.1 38 00:39 12.11.2019
4638 Haze 19 1014 88 2500 2.1 38 00:18 12.11.2019
4639 Haze 19 1014 88 2500 2.1 38 23:41 11.11.2019
4640 Haze 18 1014 93 2500 1.85 28 23:20 11.11.2019
4641 Haze 18 1014 93 2500 1.85 28 22:39 11.11.2019
4642 Haze 18 1014 93 2500 1.85 28 22:20 11.11.2019
4643 Haze 19 1014 88 2500 1.85 28 21:59 11.11.2019
4644 Haze 19 1014 82 2500 1.85 28 21:39 11.11.2019
4645 Haze 19 1014 82 2500 1.85 28 21:21 11.11.2019
4646 Haze 20 1014 82 2500 1.85 28 20:59 11.11.2019
4647 Haze 20 1014 82 2500 1.85 28 20:40 11.11.2019
4648 Haze 20 1014 82 2500 2.36 1 20:19 11.11.2019
4649 Haze 20 1014 82 2500 2.36 1 20:19 11.11.2019
4650 Haze 21 1014 77 2500 2.83 354 19:55 11.11.2019
4651 Haze 21 1015 77 2500 1 10 19:37 11.11.2019
4652 Haze 21 1015 77 2500 1 10 19:18 11.11.2019
4653 Haze 23 1015 69 2500 2.83 354 18:41 11.11.2019
4654 Haze 23 1015 69 2500 1 30 18:21 11.11.2019
4655 Haze 22 1015 73 2500 1 30 17:46 11.11.2019
4656 Haze 22 1015 73 2500 1 30 17:46 11.11.2019
4657 Haze 22 1014 73 2500 1.12 12 17:28 11.11.2019
4658 Haze 21 1014 73 2500 1.12 12 16:58 11.11.2019
4659 Haze 21 1014 73 2500 1.12 12 16:38 11.11.2019
4660 Haze 22 1014 68 2500 1.12 12 16:20 11.11.2019
4661 Haze 23 1014 64 2500 1.12 12 15:42 11.11.2019
4662 Haze 23 1013 60 2500 1.12 12 15:20 11.11.2019
4663 Haze 23 1013 64 2500 1.12 12 14:57 11.11.2019
4664 Haze 23 1013 64 2500 1.12 12 14:39 11.11.2019
4665 Haze 24 1013 57 2500 2.52 3 14:21 11.11.2019
4666 Haze 26 1012 50 3000 1 60 13:56 11.11.2019
4667 Haze 26 1012 50 3000 1 60 13:37 11.11.2019
4668 Haze 26 1012 50 3000 1.5 60 13:18 11.11.2019
4669 Haze 27 1012 47 3000 1 60 12:55 11.11.2019
4670 Haze 28 1012 48 3000 1.5 70 12:37 11.11.2019
4671 Haze 28 1012 48 3000 1.5 70 12:19 11.11.2019
4672 Haze 28 1012 48 3000 2.1 50 11:41 11.11.2019
4673 Haze 29 1012 48 3000 1 40 11:21 11.11.2019
4674 Haze 29 1012 48 3000 2.1 60 10:44 11.11.2019
4675 Haze 29 1012 48 3000 1 100 10:20 11.11.2019
4676 Haze 29 1013 48 3000 1.5 40 09:59 11.11.2019
4677 Haze 29 1013 48 3000 1.5 40 09:59 11.11.2019
4678 Haze 29 1013 48 3000 1.5 40 09:41 11.11.2019
4679 Haze 28 1013 54 3000 1.5 110 09:20 11.11.2019
4680 Haze 29 1014 51 3000 2.6 50 08:42 11.11.2019
4681 Haze 29 1014 48 3000 2.6 90 08:23 11.11.2019
4682 Haze 28 1014 54 3000 2.1 90 07:57 11.11.2019
4683 Haze 28 1014 54 3000 2.1 90 07:38 11.11.2019
4684 Haze 28 1015 58 3000 2.6 90 07:19 11.11.2019
4685 Haze 27 1015 57 3000 2.1 110 06:55 11.11.2019
4686 Haze 27 1016 61 3000 2.1 90 06:37 11.11.2019
4687 Haze 27 1016 61 3000 2.1 90 06:18 11.11.2019
4688 Haze 25 1016 65 2500 1.5 60 05:42 11.11.2019
4689 Mist 21 1015 73 2000 1 20 03:25 11.11.2019
4690 Mist 20 1014 77 2000 1 10 02:30 11.11.2019
4691 Mist 21 1014 73 2000 1 340 01:57 11.11.2019
4692 Mist 20 1013 82 2000 2.1 10 01:36 11.11.2019
4693 Mist 20 1013 82 2000 1 330 00:51 11.11.2019
4694 Mist 20 1013 82 2000 1 330 00:29 11.11.2019
4695 Mist 20 1013 82 2000 1 330 23:56 10.11.2019
4696 Mist 20 1013 82 2000 2.88 14 23:36 10.11.2019
4697 Mist 20 1013 82 2000 2.59 2 23:18 10.11.2019
4698 Mist 21 1013 83 2000 1.5 10 22:55 10.11.2019
4699 Mist 21 1013 83 2000 1.5 10 22:36 10.11.2019
4700 Mist 22 1013 78 2000 1 350 22:18 10.11.2019
4701 Mist 22 1013 83 2000 1.5 340 21:40 10.11.2019
4702 Mist 22 1013 83 2000 2.1 350 21:22 10.11.2019
4703 Mist 23 1013 78 2000 1.5 20 20:59 10.11.2019
4704 Mist 23 1013 78 2000 1.5 20 20:39 10.11.2019
4705 Mist 23 1013 78 2000 1.5 340 20:21 10.11.2019
4706 Mist 23 1014 78 2000 1 340 19:55 10.11.2019
4707 Mist 23 1014 78 2000 1 340 19:37 10.11.2019
4708 Mist 23 1014 78 2000 2.1 20 19:18 10.11.2019
4709 Mist 23 1014 78 2000 2.1 20 19:18 10.11.2019
4710 Mist 23 1014 78 2000 1.5 340 18:55 10.11.2019
4711 Mist 23 1014 78 2000 2.42 4 18:37 10.11.2019
4712 Mist 23 1014 78 2000 2.42 4 18:19 10.11.2019
4713 Mist 23 1014 78 2000 2.42 4 18:19 10.11.2019
4714 Haze 23 1014 78 2000 2.42 4 17:55 10.11.2019
4715 Haze 23 1014 78 2500 2.42 4 17:37 10.11.2019
4716 Haze 23 1014 78 2500 1.59 352 17:19 10.11.2019
4717 Haze 23 1014 78 2500 1.59 352 16:44 10.11.2019
4718 Haze 23 1014 78 2500 1.59 352 16:26 10.11.2019
4719 Haze 23 1014 69 2500 1.59 352 15:57 10.11.2019
4720 Haze 23 1014 69 2500 1.59 352 15:38 10.11.2019
4721 Haze 23 1013 78 2500 1.59 352 15:19 10.11.2019
4722 Mist 25 1013 69 2500 1.59 352 14:59 10.11.2019
4723 Mist 25 1013 69 2500 1.59 352 14:39 10.11.2019
4724 Haze 26 1013 61 2500 0.96 22 14:21 10.11.2019
4725 Haze 26 1012 65 3000 0.96 22 13:56 10.11.2019
4726 Haze 26 1012 65 3000 0.96 22 13:38 10.11.2019
4727 Haze 27 1012 61 3000 1.5 320 13:19 10.11.2019
4728 Haze 29 1012 51 3000 1.5 320 12:41 10.11.2019
4729 Haze 29 1012 48 3000 1.5 320 12:20 10.11.2019
4730 Haze 29 1012 45 3000 2.1 290 11:56 10.11.2019
4731 Haze 29 1012 48 3000 1.5 100 11:38 10.11.2019
4732 Haze 29 1012 48 3000 1.5 100 11:19 10.11.2019
4733 Haze 29 1012 51 3000 2.2 60 10:42 10.11.2019
4734 Haze 29 1012 54 3000 1.5 60 10:22 10.11.2019
4735 Haze 29 1012 51 3000 2.1 40 09:59 10.11.2019
4736 Haze 29 1012 51 3000 2.1 40 09:40 10.11.2019
4737 Haze 29 1013 54 3000 2.2 60 09:21 10.11.2019
4738 Haze 29 1013 51 3000 1.5 100 08:40 10.11.2019
4739 Haze 29 1014 54 3000 2.1 20 08:21 10.11.2019
4740 Haze 28 1014 54 3000 1.5 110 07:53 10.11.2019
4741 Haze 27 1015 57 3000 1.5 120 07:34 10.11.2019
4742 Haze 27 1015 57 3000 1.5 100 06:59 10.11.2019
4743 Haze 27 1016 57 3000 2.1 70 06:22 10.11.2019
4744 Haze 22 1015 68 2000 1 20 03:55 10.11.2019
4745 Mist 20 1014 77 1800 1.5 350 02:33 10.11.2019
4746 Haze 20 1013 77 2000 2.1 330 01:37 10.11.2019
4747 Haze 20 1013 77 2000 2.1 330 01:18 10.11.2019
4748 Haze 20 1013 77 2000 2.1 330 00:37 10.11.2019
4749 Haze 19 1013 82 2000 1.5 330 23:42 09.11.2019
4750 Haze 19 1012 82 2000 1.5 330 23:19 09.11.2019
4751 Haze 19 1012 82 2000 1.5 330 22:43 09.11.2019
4752 Haze 20 1012 77 2000 2.99 6 22:23 09.11.2019
4753 Haze 20 1012 77 2000 2.99 6 22:23 09.11.2019
4754 Haze 21 1013 73 2000 2.99 6 21:58 09.11.2019
4755 Haze 21 1013 73 2000 2.99 6 21:40 09.11.2019
4756 Haze 21 1013 73 2000 1 330 21:21 09.11.2019
4757 Haze 21 1013 77 2000 2.99 6 20:56 09.11.2019
4758 Haze 21 1013 77 2000 2.99 6 20:38 09.11.2019
4759 Haze 22 1013 73 2000 1 20 20:20 09.11.2019
4760 Haze 21 1013 83 2000 3.13 351 19:54 09.11.2019
4761 Haze 21 1013 77 2000 3.13 351 19:36 09.11.2019
4762 Haze 21 1013 77 2000 3.13 351 19:18 09.11.2019
4763 Haze 23 1014 69 2000 1 20 18:39 09.11.2019
4764 Haze 23 1013 73 2000 3.13 351 18:39 09.11.2019
4765 Haze 23 1014 69 2000 1 20 18:19 09.11.2019
4766 Haze 24 1014 69 2000 1 20 17:44 09.11.2019
4767 Haze 24 1014 69 2000 1 340 17:23 09.11.2019
4768 Haze 23 1014 73 2000 3.35 357 16:59 09.11.2019
4769 Haze 23 1014 73 2000 3.35 357 16:41 09.11.2019
4770 Haze 23 1013 69 2000 3.35 357 16:20 09.11.2019
4771 Haze 23 1013 69 2000 3.35 357 16:20 09.11.2019
4772 Haze 24 1013 64 2000 3.35 357 15:43 09.11.2019
4773 Haze 24 1013 69 2500 3.35 357 15:24 09.11.2019
4774 Haze 24 1012 73 2500 3.35 357 14:59 09.11.2019
4775 Haze 24 1012 73 2500 3.35 357 14:59 09.11.2019
4776 Haze 25 1012 65 2500 3.35 357 14:40 09.11.2019
4777 Haze 25 1012 65 2500 3.04 1 14:18 09.11.2019
4778 Haze 25 1011 61 2000 3.04 1 13:56 09.11.2019
4779 Haze 25 1011 61 2000 3.04 1 13:36 09.11.2019
4780 Haze 27 1011 57 2000 1 320 13:18 09.11.2019
4781 Haze 27 1011 57 2000 1 320 13:18 09.11.2019
4782 Haze 29 1011 48 2500 1.5 310 12:44 09.11.2019
4783 Haze 29 1010 54 2500 1.5 300 12:25 09.11.2019
4784 Haze 29 1011 45 2500 2.1 340 11:56 09.11.2019
4785 Haze 29 1011 48 2500 2.1 340 11:38 09.11.2019
4786 Haze 29 1011 48 2500 2.1 340 11:18 09.11.2019
4787 Haze 29 1011 45 2500 3.6 20 10:41 09.11.2019
4788 Haze 29 1011 42 2500 2.6 40 10:19 09.11.2019
4789 Haze 29 1011 37 2500 2.6 80 09:56 09.11.2019
4790 Haze 29 1011 37 2500 2.6 80 09:56 09.11.2019
4791 Haze 29 1012 39 2500 1.5 30 09:38 09.11.2019
4792 Haze 29 1012 39 2500 1.5 30 09:18 09.11.2019
4793 Haze 28 1013 45 2500 3.1 30 08:43 09.11.2019
4794 Haze 28 1013 45 2500 3.1 30 08:24 09.11.2019
4795 Haze 28 1013 45 2500 2.6 350 07:46 09.11.2019
4796 Haze 27 1014 47 2500 2.6 20 07:24 09.11.2019
4797 Haze 27 1014 47 2500 2.6 20 06:50 09.11.2019
4798 Haze 26 1014 50 2500 1.5 40 06:32 09.11.2019
4799 Haze 25 1015 53 2500 2.1 10 05:47 09.11.2019
4800 Haze 25 1015 57 2500 1.5 10 05:23 09.11.2019
4801 Mist 23 1014 60 2000 2.1 20 03:57 09.11.2019
4802 Mist 23 1014 60 2000 2.1 20 03:57 09.11.2019
4803 Mist 21 1014 68 1800 1.5 20 02:44 09.11.2019
4804 Mist 21 1013 68 1800 1 40 01:55 09.11.2019
4805 Mist 22 1012 64 1800 1.5 40 00:54 09.11.2019
4806 Mist 22 1012 64 1800 1 30 00:36 09.11.2019
4807 Mist 22 1012 64 1800 1 30 23:58 08.11.2019
4808 Mist 22 1012 68 1800 1 20 23:39 08.11.2019
4809 Mist 22 1012 68 1800 1 20 23:20 08.11.2019
4810 Mist 22 1012 68 1800 1 30 22:48 08.11.2019
4811 Mist 22 1012 68 1800 1 30 22:48 08.11.2019
4812 Mist 23 1012 73 1800 2.1 20 22:22 08.11.2019
4813 Mist 23 1012 78 1800 2.6 20 21:57 08.11.2019
4814 Mist 23 1012 78 1800 2.1 20 21:39 08.11.2019
4815 Mist 23 1012 78 1800 2.1 20 21:19 08.11.2019
4816 Mist 23 1012 83 1800 2.1 50 20:43 08.11.2019
4817 Mist 23 1012 88 1800 1 50 20:22 08.11.2019
4818 Mist 23 1012 88 1800 1 50 20:22 08.11.2019
4819 Mist 23 1012 88 1800 2.94 13 19:59 08.11.2019
4820 Mist 24 1013 83 2000 2.94 13 19:39 08.11.2019
4821 Mist 24 1013 83 2000 2.94 13 19:19 08.11.2019
4822 Mist 24 1013 83 2000 2.94 13 18:56 08.11.2019
4823 Mist 24 1013 83 2000 2.94 13 18:38 08.11.2019
4824 Mist 24 1013 83 2000 2.94 13 18:20 08.11.2019
4825 Mist 25 1013 78 2000 1 320 17:56 08.11.2019
4826 Mist 25 1013 78 2000 1 320 17:56 08.11.2019
4827 Mist 25 1013 78 2000 2.1 320 17:37 08.11.2019
4828 Mist 25 1013 78 2000 2.1 320 17:19 08.11.2019
4829 Mist 24 1013 83 2000 2.47 336 16:58 08.11.2019
4830 Mist 25 1013 73 2000 1 20 16:39 08.11.2019
4831 Mist 25 1013 73 2000 1 20 16:20 08.11.2019
4832 Mist 25 1012 73 2000 2.47 336 15:58 08.11.2019
4833 Mist 25 1012 73 2000 2.47 336 15:40 08.11.2019
4834 Mist 25 1012 73 2000 2.47 336 15:21 08.11.2019
4835 Mist 26 1012 69 2000 2.47 336 14:56 08.11.2019
4836 Mist 26 1011 69 2000 1 70 14:37 08.11.2019
4837 Mist 26 1011 69 2000 1 70 14:18 08.11.2019
4838 Mist 26 1011 69 2000 1 70 14:18 08.11.2019
4839 Mist 26 1011 69 1800 2.25 326 13:57 08.11.2019
4840 Mist 26 1011 69 1800 2.25 326 13:57 08.11.2019
4841 Haze 26 1011 74 1800 2.25 326 13:38 08.11.2019
4842 Haze 26 1011 74 1800 1.6 321 13:19 08.11.2019
4843 Haze 28 1010 69 1500 1.6 321 12:42 08.11.2019
4844 Haze 29 1010 62 1800 1.6 321 12:24 08.11.2019
4845 Haze 29 1010 62 1800 1 120 11:57 08.11.2019
4846 Haze 29 1010 58 1800 1 130 11:38 08.11.2019
4847 Haze 29 1010 58 1800 1 130 11:19 08.11.2019
4848 Haze 30 1010 58 2000 1.68 59 10:54 08.11.2019
4849 Haze 30 1011 55 1800 1 80 10:36 08.11.2019
4850 Haze 30 1011 55 1800 1 80 10:18 08.11.2019
4851 Haze 30 1011 55 1800 1 80 09:41 08.11.2019
4852 Mist 29 1011 58 1800 1 90 09:20 08.11.2019
4853 Mist 29 1012 58 1800 1 70 08:54 08.11.2019
4854 Haze 29 1012 58 2500 1.5 40 08:36 08.11.2019
4855 Haze 29 1012 58 2500 1.5 40 08:18 08.11.2019
4856 Haze 29 1013 58 3000 1.74 75 07:39 08.11.2019
4857 Haze 29 1013 58 3000 1.74 75 07:20 08.11.2019
4858 Haze 27 1014 57 3000 1.74 75 06:40 08.11.2019
4859 Haze 27 1014 57 3000 1.74 75 06:20 08.11.2019
4860 Mist 26 1014 69 2000 1.74 75 05:40 08.11.2019
4861 Mist 26 1014 69 2000 1.83 79 05:19 08.11.2019
4862 Mist 23 1013 94 2000 1.83 79 03:44 08.11.2019
4863 Mist 22 1013 94 2000 1.83 79 03:21 08.11.2019
4864 Mist 22 1013 88 2000 1.83 79 02:41 08.11.2019
4865 Mist 21 1012 94 2000 1.56 91 01:46 08.11.2019
4866 Haze 22 1012 88 2000 1.75 88 01:18 08.11.2019
4867 Haze 22 1011 88 2500 1.75 88 00:24 08.11.2019
4868 Haze 22 1011 88 2500 1.75 88 23:57 07.11.2019
4869 Haze 22 1011 88 2500 1.75 88 23:39 07.11.2019
4870 Haze 22 1011 88 2500 1.53 75 23:20 07.11.2019
4871 Haze 23 1011 83 2500 1.53 75 22:42 07.11.2019
4872 Haze 22 1011 88 2500 1 110 22:21 07.11.2019
4873 Haze 22 1011 88 2500 1 90 21:56 07.11.2019
4874 Haze 22 1011 88 2500 1.53 75 21:37 07.11.2019
4875 Haze 22 1011 88 2500 1.53 75 21:18 07.11.2019
4876 Haze 23 1011 83 2500 1.53 75 20:55 07.11.2019
4877 Haze 22 1011 88 2500 1.53 75 20:37 07.11.2019
4878 Haze 22 1011 88 2500 1.53 75 20:37 07.11.2019
4879 Haze 22 1011 88 2500 0.22 220 20:18 07.11.2019
4880 Haze 23 1011 83 2500 0.22 220 19:41 07.11.2019
4881 Haze 23 1011 88 2500 0.22 220 19:23 07.11.2019
4882 Haze 24 1011 78 2500 1 110 18:58 07.11.2019
4883 Haze 24 1012 83 2500 1.5 120 18:39 07.11.2019
4884 Haze 24 1012 83 2500 1.5 120 18:19 07.11.2019
4885 Haze 24 1012 83 2500 0.22 220 17:59 07.11.2019
4886 Haze 24 1012 83 2500 0.22 220 17:39 07.11.2019
4887 Haze 25 1012 78 2500 1.8 101 17:20 07.11.2019
4888 Haze 25 1012 78 2500 1.8 101 16:56 07.11.2019
4889 Haze 25 1012 78 2500 1 110 16:38 07.11.2019
4890 Haze 25 1012 78 2500 1 110 16:19 07.11.2019
4891 Haze 25 1011 78 2500 1 110 15:54 07.11.2019
4892 Haze 25 1011 78 2500 1 110 15:36 07.11.2019
4893 Haze 25 1011 78 2500 1 110 15:18 07.11.2019
4894 Haze 26 1010 78 2500 1 90 14:41 07.11.2019
4895 Haze 26 1010 78 2500 1 90 14:23 07.11.2019
4896 Haze 27 1010 65 2500 1 90 13:56 07.11.2019
4897 Haze 27 1009 69 2500 1.5 90 13:37 07.11.2019
4898 Haze 27 1009 69 2500 1.5 90 13:19 07.11.2019
4899 Haze 28 1009 65 2500 0.5 169 12:57 07.11.2019
4900 Haze 29 1009 62 2500 1.5 50 12:39 07.11.2019
4901 Haze 29 1009 62 2500 1.5 50 12:20 07.11.2019
4902 Haze 30 1008 55 3000 0.5 169 11:43 07.11.2019
4903 Haze 30 1009 51 3000 1.33 171 11:23 07.11.2019
4904 Haze 30 1008 55 3000 0.5 169 11:23 07.11.2019
4905 Haze 30 1009 51 3000 1.33 171 10:57 07.11.2019
4906 Haze 30 1009 51 3000 1.33 171 10:55 07.11.2019
4907 Haze 30 1009 51 3000 1.33 171 10:37 07.11.2019
4908 Haze 30 1009 51 3000 1.33 171 10:18 07.11.2019
4909 Haze 30 1010 51 3000 1 40 09:42 07.11.2019
4910 Haze 30 1010 51 3000 1 40 09:21 07.11.2019
4911 Haze 30 1010 51 3000 1 40 09:21 07.11.2019
4912 Haze 29 1011 58 3000 1 150 08:48 07.11.2019
4913 Haze 30 1011 55 3000 1 80 08:47 07.11.2019
4914 Haze 29 1011 58 3000 1 150 08:25 07.11.2019
4915 Haze 29 1011 58 3000 1 150 08:24 07.11.2019
4916 -273 0 0 0 0 0 08:24 07.11.2019
4917 Haze 29 1011 58 3000 1 150 08:23 07.11.2019
4918 Haze 29 1012 58 3000 1.5 240 07:57 07.11.2019
4919 Haze 29 1012 58 3000 1.5 170 07:39 07.11.2019
4920 Haze 29 1012 58 3000 1.5 170 07:38 07.11.2019
4921 Haze 29 1012 58 3000 1.5 170 07:38 07.11.2019
4922 -273 0 0 0 0 0 07:20 07.11.2019
4923 Haze 27 1013 69 3000 1 200 06:44 07.11.2019
4924 Haze 27 1013 69 3000 1 200 06:23 07.11.2019
4925 Haze 27 1013 69 3000 1 200 06:23 07.11.2019
4926 Haze 26 1014 74 2500 1 140 05:48 07.11.2019
4927 Haze 26 1014 74 2500 1 140 05:30 07.11.2019
4928 Mist 25 1013 78 2000 1 120 04:50 07.11.2019
4929 Mist 25 1013 78 2000 1 120 04:28 07.11.2019
4930 Haze 22 1011 94 3000 1.93 70 01:27 07.11.2019
4931 Haze 22 1010 94 3000 1.58 69 00:27 07.11.2019
4932 Haze 23 1010 88 3000 1.58 69 23:54 06.11.2019
4933 Haze 23 1010 88 3000 1.58 69 23:36 06.11.2019
4934 Haze 23 1010 88 3000 1.07 111 23:18 06.11.2019
4935 Haze 23 1010 88 3000 1.07 111 22:39 06.11.2019
4936 Haze 23 1010 88 3000 1.07 111 22:20 06.11.2019
4937 Haze 23 1010 88 3000 1.07 111 21:57 06.11.2019
4938 Haze 23 1010 83 3000 1.07 111 21:39 06.11.2019
4939 Haze 23 1010 83 3000 1.07 111 21:39 06.11.2019
4940 Haze 23 1010 83 3000 1.07 111 21:19 06.11.2019
4941 Haze 23 1011 88 3000 1.07 111 20:56 06.11.2019
4942 Haze 23 1011 88 3000 0.37 67 20:38 06.11.2019
4943 Haze 24 1011 83 3000 0.69 305 20:19 06.11.2019
4944 Haze 24 1011 83 3000 0.69 305 19:55 06.11.2019
4945 Haze 24 1012 83 3000 0.69 305 19:36 06.11.2019
4946 Haze 24 1012 83 3000 0.69 305 19:18 06.11.2019
4947 Haze 24 1012 78 3000 0.69 305 18:40 06.11.2019
4948 Haze 24 1012 78 3000 0.69 305 18:20 06.11.2019
4949 Haze 25 1011 73 3000 0.69 305 17:59 06.11.2019
4950 Haze 25 1011 73 3000 0.69 305 17:41 06.11.2019
4951 Haze 25 1011 73 3000 0.69 305 17:41 06.11.2019
4952 Haze 25 1011 73 3000 1.4 125 17:23 06.11.2019
4953 Haze 25 1011 78 3000 1.4 125 16:57 06.11.2019
4954 Haze 25 1011 78 3000 1.4 125 16:38 06.11.2019
4955 Haze 25 1011 78 3000 1.4 125 16:19 06.11.2019
4956 Haze 25 1011 78 3000 1 120 15:56 06.11.2019
4957 Haze 25 1011 78 3000 1 110 15:37 06.11.2019
4958 Haze 25 1011 78 3000 1 110 15:19 06.11.2019
4959 Haze 26 1010 74 3000 1 130 14:56 06.11.2019
4960 Haze 26 1010 74 3000 1 130 14:38 06.11.2019
4961 Haze 26 1010 74 3000 1 130 14:20 06.11.2019
4962 Haze 26 1010 74 3000 1.5 120 13:54 06.11.2019
4963 Haze 28 1009 69 3000 2.64 90 13:36 06.11.2019
4964 Haze 28 1009 69 3000 2.64 90 13:18 06.11.2019
4965 Haze 29 1009 66 3000 2.64 90 12:43 06.11.2019
4966 Haze 30 1009 55 3000 2.64 90 12:23 06.11.2019
4967 Haze 31 1009 45 3000 2.1 360 11:58 06.11.2019
4968 Haze 31 1009 45 3000 1.5 320 11:38 06.11.2019
4969 Haze 31 1009 45 3000 1.5 320 11:19 06.11.2019
4970 Haze 31 1009 43 3000 1 10 10:57 06.11.2019
4971 Haze 31 1009 43 3000 1 10 10:57 06.11.2019
4972 Haze 31 1009 48 3000 1.5 30 10:39 06.11.2019
4973 Haze 31 1009 48 3000 1.5 30 10:39 06.11.2019
4974 Haze 31 1009 48 3000 1.5 30 10:20 06.11.2019
4975 Haze 31 1009 48 3000 1.5 30 10:20 06.11.2019
4976 Haze 30 1009 48 3000 1 340 09:56 06.11.2019
4977 Haze 31 1010 48 3000 1.5 300 09:36 06.11.2019
4978 Haze 31 1010 48 3000 1.5 300 09:18 06.11.2019
4979 Haze 31 1010 52 3000 2.87 71 08:54 06.11.2019
4980 Haze 30 1011 55 3000 1.5 240 08:36 06.11.2019
4981 Haze 30 1011 55 3000 1.5 240 08:36 06.11.2019
4982 Haze 30 1011 55 3000 1.5 240 08:18 06.11.2019
4983 Haze 30 1011 55 3000 1.5 240 08:18 06.11.2019
4984 Haze 30 1012 55 3000 2.1 230 07:40 06.11.2019
4985 Haze 30 1012 62 3000 1.5 150 07:21 06.11.2019
4986 Haze 30 1012 62 3000 1.5 150 07:21 06.11.2019
4987 Haze 29 1013 62 2500 1 160 06:45 06.11.2019
4988 Haze 29 1013 62 2500 2.14 105 06:25 06.11.2019
4989 Haze 26 1014 78 2500 1 90 04:52 06.11.2019
4990 Mist 22 1012 94 2000 1.94 30 02:28 06.11.2019
4991 Mist 22 1011 94 2000 1.37 40 01:38 06.11.2019
4992 Mist 22 1011 88 2000 1.44 24 00:39 06.11.2019
4993 Mist 22 1011 88 2000 1.44 24 23:58 05.11.2019
4994 Mist 22 1011 88 2000 1.44 24 23:38 05.11.2019
4995 Mist 22 1011 88 2000 1.92 360 23:20 05.11.2019
4996 Mist 23 1011 88 2000 1.92 360 22:45 05.11.2019
4997 Mist 22 1012 94 2000 1.92 360 22:20 05.11.2019
4998 Mist 23 1012 88 2000 1.92 360 21:59 05.11.2019
4999 Mist 23 1012 88 2000 1.92 360 21:59 05.11.2019
5000 Mist 23 1012 88 2000 1.92 360 21:41 05.11.2019
5001 Mist 23 1012 88 2000 1.92 360 21:41 05.11.2019
5002 Mist 23 1012 88 2000 1.92 360 21:21 05.11.2019
5003 Haze 23 1013 88 2500 1 250 20:57 05.11.2019
5004 Haze 23 1013 88 2500 1 250 20:38 05.11.2019
5005 Haze 23 1013 88 2500 1 250 20:38 05.11.2019
5006 Haze 23 1013 88 2500 1 250 20:20 05.11.2019
5007 Haze 23 1013 88 2500 2.28 358 19:56 05.11.2019
5008 Haze 24 1013 83 2500 2.28 358 19:38 05.11.2019
5009 Haze 24 1013 83 2500 2.28 358 19:38 05.11.2019
5010 Haze 24 1013 83 2500 2.28 358 19:20 05.11.2019
5011 Haze 24 1013 83 2500 2.28 358 18:57 05.11.2019
5012 Haze 24 1013 83 2500 2.28 358 18:38 05.11.2019
5013 Haze 24 1013 83 2500 2.28 358 18:19 05.11.2019
5014 Haze 25 1013 78 2500 2.28 358 17:56 05.11.2019
5015 Haze 25 1013 78 2500 2.28 358 17:37 05.11.2019
5016 Haze 25 1013 78 2500 1.92 82 17:18 05.11.2019
5017 Haze 25 1012 78 2500 1.92 82 16:42 05.11.2019
5018 Haze 25 1012 78 2500 1.92 82 16:21 05.11.2019
5019 Haze 25 1012 78 2500 1.92 82 15:59 05.11.2019
5020 Haze 25 1012 73 2500 1.92 82 15:37 05.11.2019
5021 Haze 25 1012 73 2500 1.92 82 15:18 05.11.2019
5022 Haze 25 1012 69 2500 1.92 82 14:55 05.11.2019
5023 Haze 25 1012 69 2500 1.92 82 14:55 05.11.2019
5024 Haze 25 1011 73 2500 1 110 14:36 05.11.2019
5025 Haze 25 1011 73 2500 1 110 14:18 05.11.2019
5026 Haze 26 1011 74 2500 1.39 33 13:43 05.11.2019
5027 Haze 29 1011 62 2500 1 150 13:24 05.11.2019
5028 Haze 30 1011 51 2500 1 250 12:42 05.11.2019
5029 Haze 30 1011 45 2500 1.5 290 12:23 05.11.2019
5030 Haze 31 1011 48 2500 1.5 290 11:59 05.11.2019
5031 Haze 31 1011 48 2500 1.5 310 11:39 05.11.2019
5032 Haze 31 1011 48 2500 1.5 310 11:21 05.11.2019
5033 Haze 31 1011 45 2500 1.5 290 10:56 05.11.2019
5034 Haze 31 1011 45 2500 1.5 290 10:56 05.11.2019
5035 Haze 31 1011 43 3000 1 250 10:38 05.11.2019
5036 Haze 31 1011 43 3000 1 250 10:19 05.11.2019
5037 Haze 31 1011 48 3000 1 290 09:55 05.11.2019
5038 Haze 31 1012 45 3000 2.19 5 09:36 05.11.2019
5039 Haze 31 1012 45 3000 2.19 5 09:18 05.11.2019
5040 Haze 30 1013 55 3000 1 50 08:38 05.11.2019
5041 Haze 30 1013 55 3000 1 50 08:19 05.11.2019
5042 Haze 30 1014 51 3000 1.5 70 07:55 05.11.2019
5043 Haze 29 1014 54 3000 1 10 07:37 05.11.2019
5044 Haze 29 1014 54 3000 1 10 07:19 05.11.2019
5045 Haze 28 1015 58 3000 1.5 30 06:43 05.11.2019
5046 Haze 29 1015 54 3000 1.5 30 06:43 05.11.2019
5047 Haze 27 1016 65 3000 1.5 10 05:51 05.11.2019
5048 Haze 26 1016 69 2500 1.5 10 05:22 05.11.2019
5049 Haze 25 1015 73 2500 1.5 340 04:24 05.11.2019
5050 Haze 24 1015 78 2500 1.5 330 03:49 05.11.2019
5051 Haze 23 1014 83 2000 1.5 10 02:43 05.11.2019
5052 Haze 23 1014 83 2500 1 20 01:57 05.11.2019
5053 Haze 23 1014 83 2500 1.5 10 00:49 05.11.2019
5054 Haze 23 1013 83 2500 1 20 00:27 05.11.2019
5055 Haze 23 1013 83 2500 1 10 23:43 04.11.2019
5056 Haze 23 1013 83 2500 1 10 23:20 04.11.2019
5057 Haze 23 1014 88 2500 1 20 22:59 04.11.2019
5058 Haze 23 1014 88 2500 1 20 22:40 04.11.2019
5059 Haze 23 1014 88 2500 1 20 22:40 04.11.2019
5060 Haze 24 1014 83 2500 1 10 22:21 04.11.2019
5061 Haze 24 1014 83 2500 2.09 358 21:55 04.11.2019
5062 Haze 24 1014 83 2500 2.09 358 21:37 04.11.2019
5063 Haze 24 1014 83 2500 2.09 358 21:18 04.11.2019
5064 Haze 24 1014 83 2500 2.09 358 21:18 04.11.2019
5065 Haze 24 1014 83 2500 2.09 358 20:56 04.11.2019
5066 Haze 25 1014 78 2500 1 10 20:37 04.11.2019
5067 Haze 25 1014 78 2500 1 10 20:19 04.11.2019
5068 Haze 25 1015 78 2500 2.61 359 19:57 04.11.2019
5069 Haze 25 1015 78 2500 2.1 10 19:38 04.11.2019
5070 Haze 25 1015 78 2500 2.1 10 19:20 04.11.2019
5071 Haze 25 1015 78 2500 1.5 310 18:54 04.11.2019
5072 Haze 25 1015 78 2500 2.61 359 18:36 04.11.2019
5073 Haze 25 1015 78 2500 2.61 359 18:18 04.11.2019
5074 Haze 25 1015 78 2500 2.61 359 18:18 04.11.2019
5075 Haze 25 1015 83 2500 2.61 359 17:38 04.11.2019
5076 Haze 25 1015 83 2500 2.71 353 17:19 04.11.2019
5077 Haze 26 1015 78 2500 2.71 353 16:55 04.11.2019
5078 Haze 26 1015 78 2500 2.71 353 16:55 04.11.2019
5079 Haze 26 1015 78 2500 2.71 353 16:55 04.11.2019
5080 Haze 26 1015 78 2500 1 240 16:36 04.11.2019
5081 Haze 26 1015 78 2500 1 240 16:36 04.11.2019
5082 Haze 26 1015 78 2500 1 240 16:18 04.11.2019
5083 Haze 26 1015 78 2500 1 240 16:18 04.11.2019
5084 Haze 27 1014 69 2500 2.71 353 15:41 04.11.2019
5085 Haze 26 1014 74 2500 2.71 353 15:21 04.11.2019
5086 Haze 26 1014 74 2500 2.71 353 14:58 04.11.2019
5087 Haze 26 1014 74 2500 2.71 353 14:40 04.11.2019
5088 Haze 26 1014 74 2500 1.53 300 14:21 04.11.2019
5089 Haze 26 1014 74 2500 1.53 300 14:21 04.11.2019
5090 Haze 27 1013 74 2500 1 20 13:58 04.11.2019
5091 Haze 27 1013 74 2500 1 20 13:58 04.11.2019
5092 Haze 29 1013 54 3000 1 20 13:40 04.11.2019
5093 Haze 29 1013 54 3000 1 20 13:21 04.11.2019
5094 Haze 30 1013 51 3000 1 20 12:57 04.11.2019
5095 Haze 30 1013 55 3000 1 330 12:38 04.11.2019
5096 Haze 30 1013 55 3000 1 330 12:18 04.11.2019
5097 Haze 30 1013 48 3000 1.5 20 11:43 04.11.2019
5098 Haze 31 1013 43 3000 2.6 10 11:23 04.11.2019
5099 Haze 31 1013 43 3000 2.6 360 10:59 04.11.2019
5100 Haze 31 1013 43 3000 2.6 360 10:41 04.11.2019
5101 Haze 31 1013 48 3000 2.1 280 10:23 04.11.2019
5102 Haze 31 1014 52 3000 1 190 09:45 04.11.2019
5103 Haze 31 1014 52 3000 1 190 09:27 04.11.2019
5104 Haze 30 1015 58 2500 1 20 08:57 04.11.2019
5105 Haze 30 1015 58 2500 1.5 40 08:37 04.11.2019
5106 Haze 30 1015 58 2500 1.5 40 08:18 04.11.2019
5107 Haze 30 1016 55 2000 1 60 07:43 04.11.2019
5108 Haze 30 1016 55 2000 1 60 07:21 04.11.2019
5109 Haze 29 1017 58 2000 1.12 347 06:56 04.11.2019
5110 Haze 29 1017 58 2000 1.12 347 06:18 04.11.2019
5111 Haze 28 1018 61 2000 1.12 347 05:46 04.11.2019
5112 Haze 26 1018 74 2000 1.08 24 04:43 04.11.2019
5113 Mist 25 1018 73 1500 1.08 24 04:21 04.11.2019
5114 Mist 23 1016 83 1500 1.5 340 02:25 04.11.2019
5115 Mist 23 1015 83 2000 1.28 350 01:21 04.11.2019
5116 Haze 23 1015 83 2000 1.28 350 00:40 04.11.2019
5117 Haze 23 1015 83 2000 1.28 350 00:20 04.11.2019
5118 Clear 22 1015 77 0 1.28 350 23:41 03.11.2019
5119 Haze 24 1015 78 2000 1.79 9 23:21 03.11.2019
5120 Haze 24 1015 78 2000 1.79 9 23:21 03.11.2019
5121 Haze 24 1015 78 2000 1.79 9 23:21 03.11.2019
5122 Haze 24 1015 78 2000 1.79 9 22:58 03.11.2019
5123 Haze 24 1015 78 2000 1.79 9 22:40 03.11.2019
5124 Haze 24 1015 78 2000 1.79 9 22:20 03.11.2019
5125 Haze 24 1015 78 2000 1.79 9 22:20 03.11.2019
5126 Haze 23 1015 83 2000 1 320 21:56 03.11.2019
5127 Haze 23 1015 83 2000 1 320 21:38 03.11.2019
5128 Haze 23 1015 83 2000 1 320 21:19 03.11.2019
5129 Haze 24 1015 78 2000 1.79 9 20:54 03.11.2019
5130 Haze 24 1016 83 2000 1 340 20:36 03.11.2019
5131 Haze 24 1016 83 2000 1 340 20:18 03.11.2019
5132 Haze 24 1016 83 2000 1 340 19:54 03.11.2019
5133 Haze 24 1016 83 2000 0.13 214 19:36 03.11.2019
5134 Haze 24 1016 83 2000 0.13 214 19:18 03.11.2019
5135 Haze 25 1016 78 2000 1 300 18:38 03.11.2019
5136 Haze 25 1016 78 2000 1 300 18:18 03.11.2019
5137 Haze 25 1016 78 2000 1 300 18:18 03.11.2019
5138 Haze 25 1016 73 2500 1 280 17:57 03.11.2019
5139 Haze 25 1016 73 2500 1 280 17:39 03.11.2019
5140 Haze 25 1016 73 2500 1 280 17:18 03.11.2019
5141 Haze 25 1016 73 2500 1 280 16:54 03.11.2019
5142 Haze 25 1016 65 2500 0.79 203 16:36 03.11.2019
5143 Haze 25 1016 65 2500 0.79 203 16:18 03.11.2019
5144 Haze 25 1016 69 2500 0.79 203 15:45 03.11.2019
5145 Haze 25 1015 69 2500 0.79 203 15:25 03.11.2019
5146 Haze 27 1015 57 2500 0.79 203 14:57 03.11.2019
5147 Haze 27 1014 61 2500 1 30 14:38 03.11.2019
5148 Haze 27 1014 61 2500 1 30 14:18 03.11.2019
5149 Haze 28 1014 58 2500 1 20 13:43 03.11.2019
5150 Haze 29 1014 54 2500 1.5 10 13:20 03.11.2019
5151 Haze 30 1013 55 2500 1.5 10 12:58 03.11.2019
5152 Haze 31 1013 52 2500 1.05 167 12:37 03.11.2019
5153 Haze 31 1013 52 2500 1.05 167 12:18 03.11.2019
5154 Haze 31 1013 48 2500 1.05 167 11:43 03.11.2019
5155 Haze 31 1013 55 2500 0.99 122 11:22 03.11.2019
5156 Haze 31 1013 52 2500 1 120 10:58 03.11.2019
5157 Haze 31 1013 48 2500 0.99 122 10:39 03.11.2019
5158 Haze 31 1013 48 2500 0.99 122 10:21 03.11.2019
5159 Haze 31 1013 48 2500 0.99 122 10:21 03.11.2019
5160 Haze 30 1014 51 2500 1 160 09:55 03.11.2019
5161 Haze 30 1014 55 2500 0.99 122 09:37 03.11.2019
5162 Haze 30 1014 55 2500 0.99 122 09:37 03.11.2019
5163 Haze 30 1014 55 2500 0.99 122 09:19 03.11.2019
5164 Haze 30 1015 55 2500 0.99 122 08:38 03.11.2019
5165 Haze 30 1015 55 2500 1.77 105 08:20 03.11.2019
5166 Haze 30 1015 51 2500 1 50 07:45 03.11.2019
5167 Haze 29 1016 58 2500 1 90 07:22 03.11.2019
5168 Haze 29 1016 62 3000 1 90 06:46 03.11.2019
5169 Haze 29 1017 54 3000 1 70 06:28 03.11.2019
5170 Haze 27 1018 61 2500 1 90 05:38 03.11.2019
5171 Haze 26 1018 69 2500 1 80 04:56 03.11.2019
5172 Haze 25 1017 69 2500 1 30 04:28 03.11.2019
5173 Haze 23 1017 78 2000 1 20 03:28 03.11.2019
5174 Haze 22 1016 83 2000 1.86 37 02:30 03.11.2019
5175 Haze 21 1015 88 2000 1.85 23 01:57 03.11.2019
5176 Haze 22 1015 83 2000 1.85 23 01:37 03.11.2019
5177 Haze 22 1015 83 2000 2.05 13 01:19 03.11.2019
5178 Haze 23 1015 78 2000 2.05 13 00:41 03.11.2019
5179 Haze 23 1014 78 2000 1.5 20 00:22 03.11.2019
5180 Haze 23 1014 78 2000 1 330 23:57 02.11.2019
5181 Haze 23 1014 83 2000 1 330 23:37 02.11.2019
5182 Haze 23 1014 83 2000 1 330 23:18 02.11.2019
5183 Haze 23 1014 83 2000 1.56 358 22:54 02.11.2019
5184 Haze 23 1014 88 2000 1.56 358 22:36 02.11.2019
5185 Haze 23 1014 88 2000 1.56 358 22:18 02.11.2019
5186 Haze 23 1014 88 2000 1.56 358 22:18 02.11.2019
5187 Haze 23 1014 88 2000 1 330 21:55 02.11.2019
5188 Haze 23 1014 88 2000 1.56 358 21:36 02.11.2019
5189 Haze 23 1014 88 2000 1.56 358 21:18 02.11.2019
5190 Haze 23 1014 88 2000 1.56 358 21:18 02.11.2019
5191 Haze 23 1014 88 2000 1.56 358 21:18 02.11.2019
5192 Haze 24 1014 83 2000 1 10 20:55 02.11.2019
5193 Haze 24 1015 88 2000 1 20 20:37 02.11.2019
5194 Haze 24 1015 88 2000 1 20 20:18 02.11.2019
5195 Haze 24 1015 88 2000 1.72 25 19:38 02.11.2019
5196 Haze 24 1015 88 2000 1.72 25 19:20 02.11.2019
5197 Haze 24 1015 83 2000 1.72 25 18:55 02.11.2019
5198 Haze 25 1015 78 2000 1.72 25 18:36 02.11.2019
5199 Haze 25 1015 78 2000 1.72 25 18:18 02.11.2019
5200 Haze 25 1015 78 2000 1.72 25 17:55 02.11.2019
5201 Haze 25 1016 83 2000 1.72 25 17:36 02.11.2019
5202 Haze 25 1016 83 2000 2.39 5 17:18 02.11.2019
5203 Haze 25 1015 78 2000 2.39 5 16:40 02.11.2019
5204 Haze 25 1015 78 2000 2.39 5 16:20 02.11.2019
5205 Haze 26 1015 74 2000 2.39 5 15:44 02.11.2019
5206 Haze 26 1015 74 2000 2.39 5 15:22 02.11.2019
5207 Haze 26 1014 74 2000 1 20 14:59 02.11.2019
5208 Haze 26 1014 74 2000 1 10 14:41 02.11.2019
5209 Haze 26 1014 74 2000 1 10 14:22 02.11.2019
5210 Haze 27 1014 65 2000 1 20 13:54 02.11.2019
5211 Haze 27 1014 65 2000 1 20 13:54 02.11.2019
5212 Haze 27 1013 69 2000 1 20 13:36 02.11.2019
5213 Haze 27 1013 69 2000 1 20 13:18 02.11.2019
5214 Haze 28 1013 65 2000 2.1 30 12:40 02.11.2019
5215 Haze 28 1013 65 2000 2.1 30 12:22 02.11.2019
5216 Haze 29 1013 66 2000 2.1 30 11:55 02.11.2019
5217 Haze 29 1013 66 2000 2.1 10 11:37 02.11.2019
5218 Haze 29 1013 66 2000 2.1 10 11:37 02.11.2019
5219 Haze 29 1013 66 2000 2.1 10 11:19 02.11.2019
5220 Haze 29 1013 66 2000 1 340 10:43 02.11.2019
5221 Haze 29 1013 66 2000 1 340 10:24 02.11.2019
5222 Haze 29 1014 66 2000 1 30 09:43 02.11.2019
5223 Haze 29 1014 62 2000 1 40 09:22 02.11.2019
5224 Haze 29 1014 66 2000 1 50 08:57 02.11.2019
5225 Haze 29 1015 66 2000 1 50 08:39 02.11.2019
5226 Haze 29 1015 66 2000 1 50 08:19 02.11.2019
5227 Haze 29 1015 62 2000 1 60 07:45 02.11.2019
5228 Haze 29 1016 62 2000 1 50 07:26 02.11.2019
5229 Haze 29 1016 62 2000 1 50 07:26 02.11.2019
5230 Haze 28 1016 69 2000 1 160 06:52 02.11.2019
5231 Haze 28 1016 69 2000 1 60 06:25 02.11.2019
5232 Haze 27 1016 78 2000 1 90 05:54 02.11.2019
5233 Haze 26 1016 83 1500 1 60 04:46 02.11.2019
5234 Rain 26 1016 83 1500 1 60 04:18 02.11.2019
5235 Haze 25 1015 88 2000 1 20 03:33 02.11.2019
5236 Haze 25 1015 88 2000 1 20 03:32 02.11.2019
5237 Haze 24 1014 88 2000 1 30 02:32 02.11.2019
5238 Haze 24 1014 88 2500 1.75 106 01:36 02.11.2019
5239 Haze 24 1014 88 2500 1.62 126 01:18 02.11.2019
5240 Haze 24 1013 88 2500 1.62 126 00:42 02.11.2019
5241 Haze 24 1013 88 2500 1.62 126 00:22 02.11.2019
5242 Haze 24 1013 88 2500 1.62 126 23:42 01.11.2019
5243 Haze 24 1013 88 2500 0.68 158 23:20 01.11.2019
5244 Haze 24 1013 83 2500 1 20 22:43 01.11.2019
5245 Haze 24 1013 83 2500 1 340 22:21 01.11.2019
5246 Haze 24 1013 83 2500 1 340 22:21 01.11.2019
5247 Haze 24 1013 83 2500 1.5 330 21:56 01.11.2019
5248 Haze 24 1013 88 2500 0.68 158 21:37 01.11.2019
5249 Haze 24 1013 88 2500 0.68 158 21:18 01.11.2019
5250 Haze 24 1013 88 2500 0.68 158 20:42 01.11.2019
5251 Haze 24 1013 88 2500 0.68 158 20:24 01.11.2019
5252 Haze 24 1013 88 2500 0.73 160 19:59 01.11.2019
5253 Haze 24 1013 88 2500 0.73 160 19:41 01.11.2019
5254 Haze 24 1014 88 2500 0.73 160 19:22 01.11.2019
5255 Haze 24 1014 88 2500 0.73 160 18:42 01.11.2019
5256 Haze 25 1014 83 2500 0.73 160 18:21 01.11.2019
5257 Haze 25 1014 83 2500 0.73 160 17:59 01.11.2019
5258 Haze 25 1014 83 2500 0.73 160 17:41 01.11.2019
5259 Haze 25 1014 83 3000 1 300 17:23 01.11.2019
5260 Haze 25 1014 88 3000 0.56 160 16:41 01.11.2019
5261 Haze 25 1014 83 3000 0.56 160 16:41 01.11.2019
5262 Haze 25 1014 83 3000 0.56 160 16:21 01.11.2019
5263 Haze 25 1013 88 3000 0.56 160 15:59 01.11.2019
5264 Haze 25 1013 83 3000 0.56 160 15:40 01.11.2019
5265 Haze 25 1013 83 3000 0.56 160 15:22 01.11.2019
5266 Haze 25 1013 83 3000 0.56 160 15:22 01.11.2019
5267 Haze 25 1013 78 3000 0.56 160 14:44 01.11.2019
5268 Thunderstorm 26 1013 78 3000 2.1 300 14:26 01.11.2019
5269 Thunderstorm 26 1012 78 3000 1.5 120 14:00 01.11.2019
5270 Thunderstorm 26 1012 78 3000 1.5 120 13:41 01.11.2019
5271 Haze 27 1012 69 3000 1.5 100 13:22 01.11.2019
5272 Haze 27 1012 69 3000 2.1 100 12:56 01.11.2019
5273 Haze 28 1011 65 3000 2.1 100 12:37 01.11.2019
5274 Haze 28 1011 65 3000 2.1 100 12:37 01.11.2019
5275 Haze 28 1011 65 3000 2.1 100 12:19 01.11.2019
5276 Haze 29 1011 62 3000 1.5 140 11:42 01.11.2019
5277 Haze 29 1011 62 3000 1.5 140 11:23 01.11.2019
5278 Haze 29 1011 62 3000 1.5 140 10:44 01.11.2019
5279 Haze 29 1011 62 3000 1.5 140 10:44 01.11.2019
5280 Haze 29 1012 62 3000 1.5 160 10:25 01.11.2019
5281 Haze 29 1012 62 3000 1.5 90 09:59 01.11.2019
5282 Haze 29 1012 62 3000 1.5 90 09:59 01.11.2019
5283 Haze 29 1012 62 3000 1.5 90 09:41 01.11.2019
5284 Haze 28 1013 69 3000 1 60 09:22 01.11.2019
5285 Haze 28 1013 69 3000 1 60 08:54 01.11.2019
5286 Haze 28 1013 69 3000 1 60 08:54 01.11.2019
5287 Haze 29 1013 66 3000 1.5 90 08:36 01.11.2019
5288 Haze 29 1013 66 3000 1.5 90 08:18 01.11.2019
5289 Haze 28 1014 65 3000 1 100 07:44 01.11.2019
5290 Haze 28 1015 69 3000 1 70 07:22 01.11.2019
5291 Haze 28 1015 69 3000 1.5 50 06:53 01.11.2019
5292 Haze 28 1015 69 3000 1.5 50 06:22 01.11.2019
5293 Haze 27 1016 74 3000 1.5 70 05:44 01.11.2019
5294 Haze 27 1016 74 3000 1.5 90 04:55 01.11.2019
5295 Haze 24 1014 88 2000 1 90 03:32 01.11.2019
5296 Haze 23 1013 94 2500 1 50 01:46 01.11.2019
5297 Haze 23 1013 94 2500 1 210 00:58 01.11.2019
5298 Haze 23 1013 94 2500 1 70 00:20 01.11.2019
5299 Haze 24 1013 88 2500 1 10 23:44 31.10.2019
5300 Haze 24 1013 88 2500 1 340 23:23 31.10.2019
5301 Haze 23 1013 94 2500 1 90 22:58 31.10.2019
5302 Haze 24 1013 88 2500 1 300 22:40 31.10.2019
5303 Haze 24 1013 88 2500 1 300 22:21 31.10.2019
5304 Haze 24 1013 88 2500 1.65 41 21:45 31.10.2019
5305 Rain 24 1013 94 2500 1.65 41 21:22 31.10.2019
5306 Rain 23 1014 94 3000 1.65 41 20:58 31.10.2019
5307 Haze 24 1014 88 3000 1.65 41 20:39 31.10.2019
5308 Haze 24 1014 88 3000 1.33 66 20:21 31.10.2019
5309 Haze 24 1014 88 3000 1.68 42 19:43 31.10.2019
5310 Haze 24 1014 88 3000 1.68 42 19:23 31.10.2019
5311 Haze 23 1014 94 3000 1.68 42 18:58 31.10.2019
5312 Haze 24 1014 83 3000 1.68 42 18:39 31.10.2019
5313 Haze 24 1014 83 3000 1.68 42 18:20 31.10.2019
5314 Haze 24 1014 88 3000 1.68 42 17:43 31.10.2019
5315 Haze 24 1014 88 3000 1.68 42 17:43 31.10.2019
5316 Haze 24 1014 88 3000 1.68 42 17:43 31.10.2019
5317 Haze 24 1014 83 3000 1 270 17:22 31.10.2019
5318 Haze 25 1014 83 3000 1 230 16:59 31.10.2019
5319 Haze 24 1014 88 3000 1 210 16:40 31.10.2019
5320 Haze 24 1014 88 3000 1 210 16:20 31.10.2019
5321 Haze 25 1014 83 3000 1 200 15:56 31.10.2019
5322 Haze 25 1014 83 3000 1 170 15:38 31.10.2019
5323 Haze 25 1014 83 3000 1 170 15:19 31.10.2019
5324 Haze 25 1013 78 3000 1.5 100 14:56 31.10.2019
5325 Haze 26 1013 78 3000 1 130 14:38 31.10.2019
5326 Haze 26 1013 78 3000 1 130 14:38 31.10.2019
5327 Haze 26 1013 78 3000 1 130 14:20 31.10.2019
5328 Haze 26 1012 78 3000 1 130 13:56 31.10.2019
5329 Haze 27 1012 78 3000 1 170 13:37 31.10.2019
5330 Haze 27 1012 78 3000 1 170 13:19 31.10.2019
5331 Haze 28 1012 61 3000 1 120 12:43 31.10.2019
5332 Haze 29 1011 58 3000 1 100 12:24 31.10.2019
5333 Haze 30 1011 55 3000 2.67 93 11:58 31.10.2019
5334 Haze 30 1011 55 3000 1.5 180 11:40 31.10.2019
5335 Haze 30 1011 55 3000 1.5 180 11:19 31.10.2019
5336 Haze 30 1011 58 3000 1 210 10:57 31.10.2019
5337 Haze 30 1011 58 3000 1 210 10:57 31.10.2019
5338 Haze 30 1012 51 3000 1.5 180 10:38 31.10.2019
5339 Haze 30 1012 51 3000 1.5 180 10:19 31.10.2019
5340 Haze 31 1013 48 3000 1.5 170 09:42 31.10.2019
5341 Haze 31 1013 48 3000 1.5 170 09:18 31.10.2019
5342 Haze 31 1013 48 3000 1.5 170 09:18 31.10.2019
5343 Haze 30 1013 55 3000 1 120 08:49 31.10.2019
5344 Haze 30 1013 51 3000 1.5 110 08:31 31.10.2019
5345 Haze 30 1014 55 3000 1.5 140 07:56 31.10.2019
5346 Haze 30 1014 55 3000 1.5 140 07:56 31.10.2019
5347 Haze 29 1014 51 3000 1.62 85 07:38 31.10.2019
5348 Haze 29 1014 51 3000 1.62 85 07:19 31.10.2019
5349 Haze 28 1015 58 3500 1 90 06:38 31.10.2019
5350 Haze 28 1015 58 3500 1 90 06:19 31.10.2019
5351 Haze 26 1015 69 3000 1 20 04:35 31.10.2019
5352 Mist 22 1014 94 2000 2.15 30 02:44 31.10.2019
5353 Mist 23 1013 88 2000 1.31 20 01:53 31.10.2019
5354 Haze 22 1013 94 3000 2.06 6 00:39 31.10.2019
5355 Haze 22 1013 94 3000 2.06 6 00:20 31.10.2019
5356 Haze 23 1013 94 3000 2.06 6 23:30 30.10.2019
5357 Haze 23 1013 94 3000 0.35 84 22:44 30.10.2019
5358 Haze 23 1013 94 3000 0.35 84 22:23 30.10.2019
5359 Haze 23 1014 88 3000 0.35 84 21:56 30.10.2019
5360 Haze 23 1014 88 3000 0.35 84 21:38 30.10.2019
5361 Haze 23 1014 88 3000 0.35 84 21:19 30.10.2019
5362 Haze 23 1014 94 3000 0.35 84 20:59 30.10.2019
5363 Haze 23 1014 94 3000 0.35 84 20:41 30.10.2019
5364 Haze 24 1014 88 3000 0.94 63 20:22 30.10.2019
5365 Haze 24 1014 88 3000 0.94 63 19:58 30.10.2019
5366 Haze 24 1014 83 3000 0.94 63 19:39 30.10.2019
5367 Haze 24 1014 83 3000 0.94 63 19:20 30.10.2019
5368 Haze 24 1014 83 3000 0.94 63 18:58 30.10.2019
5369 Haze 24 1014 88 3000 0.94 63 18:37 30.10.2019
5370 Haze 24 1014 88 3000 0.94 63 18:37 30.10.2019
5371 Haze 24 1014 88 3000 0.94 63 18:18 30.10.2019
5372 Haze 25 1014 83 3000 0.94 63 17:41 30.10.2019
5373 Haze 25 1014 83 3000 2.68 58 17:19 30.10.2019
5374 Haze 25 1014 83 3000 2.68 58 17:19 30.10.2019
5375 Haze 25 1014 83 3000 1 120 16:56 30.10.2019
5376 Haze 25 1014 83 3000 2.68 58 16:38 30.10.2019
5377 Haze 25 1014 83 3000 2.68 58 16:20 30.10.2019
5378 Haze 26 1014 78 3000 2.68 58 15:57 30.10.2019
5379 Haze 26 1013 78 3000 2.68 58 15:38 30.10.2019
5380 Haze 26 1013 78 3000 2.68 58 15:19 30.10.2019
5381 Haze 26 1012 74 3000 1 100 14:55 30.10.2019
5382 Haze 26 1012 74 3000 1 100 14:36 30.10.2019
5383 Haze 26 1012 74 3000 1 100 14:18 30.10.2019
5384 Haze 27 1012 74 3000 1 80 13:42 30.10.2019
5385 Haze 27 1012 74 3000 1 80 13:20 30.10.2019
5386 Haze 29 1012 66 3000 1.5 80 12:58 30.10.2019
5387 Haze 29 1011 70 4000 1.5 50 12:40 30.10.2019
5388 Haze 29 1011 70 4000 1.5 50 12:22 30.10.2019
5389 Haze 29 1011 66 4000 2.1 60 11:43 30.10.2019
5390 Haze 30 1011 62 5000 1.5 70 11:24 30.10.2019
5391 Haze 30 1011 58 5000 1.5 30 10:46 30.10.2019
5392 Haze 31 1012 55 5000 1.5 30 10:28 30.10.2019
5393 Haze 31 1012 55 4000 2.6 50 09:59 30.10.2019
5394 Haze 31 1012 55 4000 2.6 50 09:59 30.10.2019
5395 Haze 31 1012 55 4000 2.6 50 09:40 30.10.2019
5396 Haze 30 1013 58 4000 2.6 60 09:22 30.10.2019
5397 Haze 30 1013 62 4000 2.6 70 08:54 30.10.2019
5398 Haze 30 1014 58 4000 0.58 13 08:36 30.10.2019
5399 Haze 30 1014 58 4000 1.1 85 08:18 30.10.2019
5400 Haze 30 1014 62 4000 1.5 10 07:42 30.10.2019
5401 Haze 30 1015 66 4000 1 20 06:56 30.10.2019
5402 Haze 29 1015 66 4000 1.1 85 06:37 30.10.2019
5403 Haze 28 1016 65 4000 1.1 85 05:56 30.10.2019
5404 Haze 27 1016 74 4000 1.1 85 05:37 30.10.2019
5405 Haze 25 1015 78 3000 2.6 350 03:51 30.10.2019
5406 Haze 24 1015 83 3000 1 350 03:21 30.10.2019
5407 Haze 23 1015 88 3000 1.88 99 02:49 30.10.2019
5408 Mist 22 1014 94 2000 1.59 21 01:49 30.10.2019
5409 Mist 22 1014 94 2000 1.61 12 00:37 30.10.2019
5410 Mist 22 1014 94 2000 1.61 12 00:19 30.10.2019
5411 Mist 22 1014 94 2000 1.61 12 23:39 29.10.2019
5412 Mist 22 1014 94 2000 2.32 5 23:19 29.10.2019
5413 Mist 23 1014 88 2000 2.32 5 22:41 29.10.2019
5414 Mist 23 1014 88 2000 1 340 22:19 29.10.2019
5415 Mist 23 1014 88 2000 1 340 21:55 29.10.2019
5416 Mist 23 1014 88 2000 2.32 5 21:36 29.10.2019
5417 Mist 23 1014 88 2000 2.32 5 21:18 29.10.2019
5418 Mist 23 1014 88 2000 2.32 5 20:42 29.10.2019
5419 Mist 23 1014 88 2000 1 340 20:23 29.10.2019
5420 Mist 24 1015 83 2000 1 340 19:59 29.10.2019
5421 Mist 24 1015 83 2000 2.6 340 19:39 29.10.2019
5422 Mist 24 1015 83 2000 2.6 340 19:20 29.10.2019
5423 Mist 25 1015 78 2000 2.6 340 18:58 29.10.2019
5424 Mist 25 1015 78 2000 2.6 340 18:39 29.10.2019
5425 Mist 25 1015 78 2000 2.6 340 18:20 29.10.2019
5426 Mist 25 1015 78 2000 2.6 340 17:56 29.10.2019
5427 Smoke 25 1015 83 2000 2.1 340 17:38 29.10.2019
5428 Smoke 25 1015 83 2000 2.1 340 17:19 29.10.2019
5429 Smoke 26 1015 78 2000 2.1 340 16:41 29.10.2019
5430 Smoke 26 1014 83 2000 1.5 340 16:22 29.10.2019
5431 Smoke 26 1014 83 2500 1.5 10 15:59 29.10.2019
5432 Smoke 26 1014 83 2500 1.5 10 15:41 29.10.2019
5433 Haze 27 1014 78 3000 0.84 62 15:20 29.10.2019
5434 Haze 27 1014 78 3000 0.84 62 14:56 29.10.2019
5435 Haze 27 1014 78 3000 0.84 62 14:38 29.10.2019
5436 Haze 27 1014 78 3000 1.95 133 14:20 29.10.2019
5437 Haze 27 1013 78 3000 1.95 133 13:40 29.10.2019
5438 Haze 27 1013 78 3000 1.95 133 13:40 29.10.2019
5439 Haze 28 1013 74 3000 1 100 13:22 29.10.2019
5440 Haze 29 1013 66 3000 1 120 12:56 29.10.2019
5441 Haze 30 1013 66 3000 1.57 121 12:37 29.10.2019
5442 Haze 30 1013 66 3000 1.57 121 12:19 29.10.2019
5443 Haze 30 1012 62 3000 1 130 11:43 29.10.2019
5444 Haze 30 1012 66 3000 1 100 11:23 29.10.2019
5445 Haze 30 1013 62 3000 1.5 130 10:59 29.10.2019
5446 Haze 30 1013 62 3000 1 90 10:40 29.10.2019
5447 Haze 30 1013 62 3000 1 90 10:20 29.10.2019
5448 Haze 30 1013 66 3000 1.5 70 09:59 29.10.2019
5449 Haze 30 1013 66 3000 1.5 70 09:41 29.10.2019
5450 Haze 31 1014 62 3000 1 100 09:22 29.10.2019
5451 Haze 30 1014 62 3000 1.5 40 08:45 29.10.2019
5452 Haze 30 1015 66 3000 1.5 40 08:26 29.10.2019
5453 Haze 29 1015 70 3000 1.5 130 07:55 29.10.2019
5454 Haze 29 1016 70 3000 1 90 07:37 29.10.2019
5455 Haze 29 1016 70 3000 1 90 07:18 29.10.2019
5456 Haze 28 1017 74 3000 2.1 40 06:45 29.10.2019
5457 Haze 28 1017 74 3000 2.1 40 06:25 29.10.2019
5458 Haze 28 1017 74 2000 2.1 40 05:50 29.10.2019
5459 Haze 28 1017 69 2000 1.5 80 05:26 29.10.2019
5460 Haze 26 1016 83 2500 1.5 50 04:31 29.10.2019
5461 Smoke 22 1015 94 1800 3.03 24 02:33 29.10.2019
5462 Smoke 22 1014 94 1500 2.4 9 01:47 29.10.2019
5463 Smoke 23 1014 94 1500 2.67 21 01:18 29.10.2019
5464 Smoke 23 1014 94 1500 2.67 21 00:43 29.10.2019
5465 Smoke 23 1013 94 1500 2.67 21 23:43 28.10.2019
5466 Smoke 24 1013 94 1500 2.22 37 23:21 28.10.2019
5467 Smoke 24 1013 94 1500 1.5 10 22:58 28.10.2019
5468 Smoke 24 1014 94 1500 2.22 37 22:37 28.10.2019
5469 Smoke 24 1014 94 1500 2.22 37 22:18 28.10.2019
5470 Smoke 24 1014 94 1500 1.5 20 21:56 28.10.2019
5471 Smoke 24 1014 94 1500 2.22 37 21:38 28.10.2019
5472 Smoke 24 1014 94 1500 2.22 37 21:19 28.10.2019
5473 Smoke 24 1014 94 1500 2.22 37 20:44 28.10.2019
5474 Smoke 25 1015 88 1500 1.99 20 20:24 28.10.2019
5475 Smoke 24 1015 94 1500 1.7 2 19:59 28.10.2019
5476 Smoke 25 1014 88 1500 1.7 2 19:39 28.10.2019
5477 Smoke 25 1014 88 1500 1.7 2 19:21 28.10.2019
5478 Smoke 25 1014 88 1500 1.7 2 18:58 28.10.2019
5479 Smoke 25 1014 88 1500 1.7 2 18:39 28.10.2019
5480 Smoke 25 1014 88 1500 1.7 2 18:21 28.10.2019
5481 Smoke 25 1015 88 1500 1.7 2 17:56 28.10.2019
5482 Smoke 25 1014 88 1500 1.7 2 17:38 28.10.2019
5483 Smoke 25 1014 88 1500 1.88 343 17:19 28.10.2019
5484 Smoke 25 1014 88 1500 1.88 343 16:56 28.10.2019
5485 Haze 25 1014 88 3000 1.88 343 16:38 28.10.2019
5486 Haze 25 1014 88 3000 1.88 343 16:19 28.10.2019
5487 Haze 25 1014 83 3000 1.88 343 15:56 28.10.2019
5488 Haze 25 1013 83 3000 1.88 343 15:38 28.10.2019
5489 Haze 25 1013 83 3000 1.88 343 15:18 28.10.2019
5490 Haze 26 1013 83 3000 1.88 343 14:55 28.10.2019
5491 Haze 26 1013 83 3000 1.5 40 14:37 28.10.2019
5492 Haze 26 1013 83 3000 1.5 40 14:18 28.10.2019
5493 Haze 27 1013 78 3000 1 20 13:54 28.10.2019
5494 Haze 27 1013 78 3000 1 20 13:54 28.10.2019
5495 Haze 27 1013 78 4000 1.5 360 13:36 28.10.2019
5496 Haze 27 1013 78 4000 1.5 360 13:18 28.10.2019
5497 Haze 28 1012 74 4000 2.81 357 12:40 28.10.2019
5498 Haze 28 1012 74 4000 2.81 357 12:19 28.10.2019
5499 Haze 29 1012 66 4000 1 40 11:39 28.10.2019
5500 Haze 29 1012 66 4000 1 40 11:20 28.10.2019
5501 Haze 29 1013 70 4000 2.1 60 10:56 28.10.2019
5502 Haze 28 1013 74 4000 2.28 25 10:38 28.10.2019
5503 Haze 28 1013 74 4000 2.28 25 10:19 28.10.2019
5504 Haze 28 1013 74 4000 2.28 25 09:54 28.10.2019
5505 Haze 28 1013 74 4000 2.28 25 09:54 28.10.2019
5506 Haze 28 1014 74 4000 2.28 25 09:36 28.10.2019
5507 Haze 28 1014 74 4000 2.28 25 09:18 28.10.2019
5508 Haze 27 1014 78 4000 1 100 08:55 28.10.2019
5509 Haze 27 1014 78 4000 1 100 08:37 28.10.2019
5510 Haze 27 1014 78 4000 1 100 08:18 28.10.2019
5511 Haze 27 1015 78 4000 1.5 340 07:42 28.10.2019
5512 Haze 27 1015 78 4000 1.5 360 07:21 28.10.2019
5513 Haze 26 1016 78 4000 2.1 40 06:55 28.10.2019
5514 Haze 26 1016 78 4000 3.44 85 06:34 28.10.2019
5515 Haze 22 1016 94 4000 1 40 04:39 28.10.2019
5516 Haze 22 1016 94 4000 1 40 03:43 28.10.2019
5517 Haze 22 1015 94 4000 1.5 360 02:45 28.10.2019
5518 Thunderstorm 22 1014 94 1500 4.01 57 01:27 28.10.2019
5519 Thunderstorm 22 1014 94 1500 2.6 240 00:46 28.10.2019
5520 Thunderstorm 22 1014 94 1500 2.6 240 00:22 28.10.2019
5521 Thunderstorm 22 1014 94 1500 6.2 270 23:43 27.10.2019
5522 Clouds 23 1014 94 2000 4.6 270 23:21 27.10.2019
5523 Smoke 23 1014 100 2000 1.5 310 22:55 27.10.2019
5524 Smoke 23 1014 100 2000 2.1 280 22:36 27.10.2019
5525 Smoke 23 1014 100 2000 2.1 280 22:36 27.10.2019
5526 Smoke 23 1014 100 2000 2.1 280 22:18 27.10.2019
5527 Smoke 24 1014 88 2000 1.99 11 21:40 27.10.2019
5528 Smoke 24 1014 88 2000 1.99 11 21:22 27.10.2019
5529 Smoke 24 1014 94 2000 1.99 11 20:59 27.10.2019
5530 Smoke 24 1014 94 2000 3.14 14 20:40 27.10.2019
5531 Smoke 24 1014 94 2000 1.5 10 20:22 27.10.2019
5532 Smoke 25 1015 88 1500 2.6 10 19:57 27.10.2019
5533 Rain 25 1015 88 1500 2.6 330 19:37 27.10.2019
5534 Rain 25 1015 88 1500 2.6 330 19:19 27.10.2019
5535 Rain 25 1015 88 1500 2.1 10 18:56 27.10.2019
5536 Smoke 25 1015 83 1500 1 10 18:37 27.10.2019
5537 Smoke 25 1015 83 1500 1 10 18:19 27.10.2019
5538 Haze 25 1015 83 2000 1 20 17:41 27.10.2019
5539 Haze 25 1015 83 2000 1 20 17:22 27.10.2019
5540 Haze 24 1014 83 2000 1.5 350 16:59 27.10.2019
5541 Haze 24 1014 83 2000 1.5 350 16:40 27.10.2019
5542 Thunderstorm 24 1014 83 2000 2.1 50 16:22 27.10.2019
5543 Thunderstorm 25 1014 88 2000 2.6 70 15:58 27.10.2019
5544 Thunderstorm 25 1014 88 2000 2.1 290 15:39 27.10.2019
5545 Thunderstorm 25 1014 88 2000 2.1 290 15:39 27.10.2019
5546 Thunderstorm 25 1014 88 2000 2.1 290 15:20 27.10.2019
5547 Thunderstorm 26 1013 83 2500 4.1 280 14:44 27.10.2019
5548 Haze 27 1013 78 3000 2.35 84 14:24 27.10.2019
5549 Haze 27 1012 78 3000 2.35 84 13:59 27.10.2019
5550 Haze 27 1012 78 4000 2.35 84 13:40 27.10.2019
5551 Haze 27 1012 78 4000 2.48 69 13:21 27.10.2019
5552 Haze 28 1011 74 4000 2.48 69 12:59 27.10.2019
5553 Haze 28 1011 74 4000 2.48 69 12:40 27.10.2019
5554 Haze 28 1011 74 4000 2.48 69 12:40 27.10.2019
5555 Haze 29 1011 70 4000 1 110 12:22 27.10.2019
5556 Haze 29 1011 70 4000 1 100 11:41 27.10.2019
5557 Haze 29 1011 70 4000 1 100 11:23 27.10.2019
5558 Haze 27 1011 78 4000 1 120 10:55 27.10.2019
5559 Rain 27 1012 83 3000 1 160 10:37 27.10.2019
5560 Rain 27 1012 83 3000 1 160 10:18 27.10.2019
5561 Haze 29 1012 70 4000 1 160 09:42 27.10.2019
5562 Haze 28 1012 74 4000 1 130 09:19 27.10.2019
5563 Haze 28 1012 74 4000 1 130 09:19 27.10.2019
5564 Haze 28 1013 74 4000 1 90 08:57 27.10.2019
5565 Haze 28 1013 74 4000 1 70 08:37 27.10.2019
5566 Haze 28 1013 74 4000 1 70 08:37 27.10.2019
5567 Haze 28 1013 74 4000 1 70 08:37 27.10.2019
5568 Haze 28 1013 74 4000 1 70 08:18 27.10.2019
5569 Haze 28 1014 74 4000 1.5 110 07:45 27.10.2019
5570 Haze 28 1014 74 3000 1 110 07:25 27.10.2019
5571 Haze 28 1014 74 3000 1 110 07:25 27.10.2019
5572 Haze 27 1015 78 3000 1.5 110 06:52 27.10.2019
5573 Haze 27 1015 78 3000 1 100 06:29 27.10.2019
5574 Haze 26 1015 83 3000 1 80 05:45 27.10.2019
5575 Haze 26 1015 83 3000 1 80 05:45 27.10.2019
5576 Mist 25 1016 88 1500 1 100 04:55 27.10.2019
5577 Mist 23 1015 100 1500 1.5 60 03:34 27.10.2019
5578 Mist 23 1014 94 1500 3.38 31 02:21 27.10.2019
5579 Mist 23 1013 94 2000 3.36 29 01:54 27.10.2019
5580 Haze 23 1012 94 2500 3.36 29 01:23 27.10.2019
5581 Haze 23 1012 94 2500 3.36 29 00:51 27.10.2019
5582 Haze 23 1013 94 2500 3.36 29 00:29 27.10.2019
5583 Haze 23 1013 94 2500 3.03 37 23:57 26.10.2019
5584 Haze 23 1013 94 2500 3.03 37 23:39 26.10.2019
5585 Haze 23 1013 94 2500 3.03 37 23:21 26.10.2019
5586 Haze 23 1013 94 2500 3.03 37 22:56 26.10.2019
5587 Haze 23 1013 100 2500 3.03 37 22:37 26.10.2019
5588 Haze 23 1013 100 2500 3.03 37 22:18 26.10.2019
5589 Haze 23 1013 94 2500 3.39 46 21:43 26.10.2019
5590 Haze 23 1014 94 2500 3.72 49 21:21 26.10.2019
5591 Haze 23 1014 94 2500 3.72 49 20:57 26.10.2019
5592 Haze 23 1014 94 2500 3.72 49 20:36 26.10.2019
5593 Haze 23 1014 94 2500 3.72 49 20:18 26.10.2019
5594 Haze 23 1014 94 2500 3.72 49 20:18 26.10.2019
5595 Haze 23 1014 100 2500 3.72 49 19:42 26.10.2019
5596 Haze 23 1014 94 2500 1 90 19:20 26.10.2019
5597 Haze 23 1014 94 2500 1 90 18:57 26.10.2019
5598 Rain 23 1014 94 2000 1 90 18:38 26.10.2019
5599 Rain 23 1014 94 2000 1 90 18:19 26.10.2019
5600 Rain 24 1014 94 2000 1 90 17:56 26.10.2019
5601 Rain 24 1014 94 2000 1 70 17:37 26.10.2019
5602 Rain 24 1014 94 2000 1 70 17:37 26.10.2019
5603 Rain 24 1014 94 2000 1 70 17:19 26.10.2019
5604 Rain 24 1014 94 2000 1 60 16:43 26.10.2019
5605 Rain 24 1013 94 2000 1.5 40 16:24 26.10.2019
5606 Rain 24 1013 94 2000 1 80 15:44 26.10.2019
5607 Mist 24 1012 94 2000 1 60 15:22 26.10.2019
5608 Mist 24 1012 94 2000 1 60 14:59 26.10.2019
5609 Mist 24 1012 94 2000 1 40 14:37 26.10.2019
5610 Mist 24 1012 94 2000 1 40 14:19 26.10.2019
5611 Rain 23 1010 90 0 3.06 42 13:42 26.10.2019
5612 Haze 25 1011 88 2500 1 50 13:23 26.10.2019
5613 Haze 24 1011 94 3000 1 30 12:50 26.10.2019
5614 Thunderstorm 23 1012 100 2500 1 150 12:27 26.10.2019
5615 Thunderstorm 23 1012 100 2500 1 150 11:57 26.10.2019
5616 Thunderstorm 23 1012 100 2500 1 150 11:38 26.10.2019
5617 Thunderstorm 23 1012 100 2500 1 150 11:38 26.10.2019
5618 Thunderstorm 23 1012 100 2500 1 150 11:20 26.10.2019
5619 Thunderstorm 23 1012 100 500 1 320 10:45 26.10.2019
5620 Haze 28 1012 69 3000 3.6 77 10:24 26.10.2019
5621 Haze 28 1012 69 3000 3.6 77 09:48 26.10.2019
5622 Haze 28 1012 69 3000 3.97 54 09:28 26.10.2019
5623 Haze 28 1013 69 3000 1 150 08:47 26.10.2019
5624 Haze 28 1013 69 3000 1.5 130 08:26 26.10.2019
5625 Haze 27 1014 74 3000 1.5 120 07:57 26.10.2019
5626 Haze 27 1014 74 3000 2.1 80 07:33 26.10.2019
5627 Mist 27 1014 74 2500 1.5 100 06:48 26.10.2019
5628 Mist 27 1014 74 2500 3.1 70 06:29 26.10.2019
5629 Mist 27 1014 74 2500 3.1 70 06:29 26.10.2019
5630 Mist 25 1014 83 2000 3.1 80 05:21 26.10.2019
5631 Mist 25 1013 83 2000 1.5 60 04:58 26.10.2019
5632 Mist 23 1012 88 2000 2.1 60 03:24 26.10.2019
5633 Mist 23 1012 88 2000 1 60 02:18 26.10.2019
5634 Mist 23 1011 88 2000 1 90 01:42 26.10.2019
5635 Mist 23 1011 83 2000 1 70 00:31 26.10.2019
5636 Mist 23 1011 83 2000 2.1 50 23:47 25.10.2019
5637 Mist 23 1011 83 2000 1.5 60 23:21 25.10.2019
5638 Mist 24 1011 78 2000 2.6 60 22:43 25.10.2019
5639 Mist 24 1011 83 2000 1 60 22:25 25.10.2019
5640 Mist 24 1011 83 2000 3.04 50 21:58 25.10.2019
5641 Mist 24 1012 83 2000 3.04 50 21:40 25.10.2019
5642 Mist 24 1012 83 2000 2.96 37 21:22 25.10.2019
5643 Mist 24 1012 83 2000 2.96 37 20:57 25.10.2019
5644 Mist 24 1012 83 2000 2.96 37 20:39 25.10.2019
5645 Mist 24 1012 83 2000 2.96 37 20:19 25.10.2019
5646 Mist 24 1012 83 2000 2.96 37 19:45 25.10.2019
5647 Mist 24 1012 83 2000 1.5 50 19:26 25.10.2019
5648 Mist 24 1012 83 2000 1.5 50 19:26 25.10.2019
5649 Mist 24 1012 83 2000 2.96 37 18:46 25.10.2019
5650 Mist 24 1012 83 2000 2.96 37 18:24 25.10.2019
5651 Mist 24 1012 83 2000 1 60 17:42 25.10.2019
5652 Mist 24 1011 83 2000 2.37 54 17:22 25.10.2019
5653 Mist 24 1011 83 2000 2.37 54 17:22 25.10.2019
5654 Haze 25 1011 73 2000 2.37 54 16:59 25.10.2019
5655 Haze 25 1011 73 2000 2.37 54 16:59 25.10.2019
5656 Haze 25 1011 73 2000 2.37 54 16:41 25.10.2019
5657 Haze 25 1011 73 2000 2.37 54 16:19 25.10.2019
5658 Haze 25 1010 73 2000 2.37 54 15:41 25.10.2019
5659 Haze 25 1010 73 2000 2.14 58 15:23 25.10.2019
5660 Haze 25 1010 73 2000 1.5 60 14:59 25.10.2019
5661 Haze 25 1010 73 2000 1.5 60 14:40 25.10.2019
5662 Haze 26 1009 65 2000 1 50 14:22 25.10.2019
5663 Haze 26 1009 65 2000 2.1 30 13:44 25.10.2019
5664 Haze 26 1009 65 2000 2.1 30 13:44 25.10.2019
5665 Haze 27 1009 61 1500 2.1 30 13:25 25.10.2019
5666 Haze 27 1009 61 1500 1.5 50 12:58 25.10.2019
5667 Haze 27 1009 69 1500 2.1 57 12:39 25.10.2019
5668 Haze 27 1009 69 1500 4.59 54 12:20 25.10.2019
5669 Haze 27 1009 69 1500 1.5 350 11:41 25.10.2019
5670 Haze 27 1009 65 1500 1.5 350 11:23 25.10.2019
5671 Haze 26 1010 69 1500 4.59 54 10:59 25.10.2019
5672 Haze 26 1010 74 1500 4.59 54 10:39 25.10.2019
5673 Haze 26 1010 74 1500 4.59 54 10:20 25.10.2019
5674 Haze 26 1010 74 1500 4.59 54 09:55 25.10.2019
5675 Haze 26 1011 69 1500 4.59 54 09:36 25.10.2019
5676 Haze 26 1011 69 1500 2.05 9 09:18 25.10.2019
5677 Haze 25 1011 73 1500 2.05 9 08:43 25.10.2019
5678 Haze 25 1012 78 1500 2.05 9 08:23 25.10.2019
5679 Mist 25 1012 73 1500 1.5 330 07:51 25.10.2019
5680 Mist 24 1012 83 1500 2.05 9 07:32 25.10.2019
5681 Mist 23 1013 83 1500 1.5 350 06:39 25.10.2019
5682 Mist 23 1012 78 1500 2.1 340 05:50 25.10.2019
5683 Mist 23 1012 78 1500 2.6 310 05:32 25.10.2019
5684 Mist 22 1011 83 2500 1.5 350 04:38 25.10.2019
5685 Rain 23 1011 78 2500 1 20 02:44 25.10.2019
5686 Haze 23 1010 83 2500 1.5 360 01:53 25.10.2019
5687 Haze 24 1010 88 2500 2.12 58 00:39 25.10.2019
5688 Haze 24 1010 88 2500 1.5 350 23:56 24.10.2019
5689 Haze 23 1010 88 2500 2.05 53 23:37 24.10.2019
5690 Haze 23 1010 88 2500 2.05 53 23:19 24.10.2019
5691 Haze 23 1010 88 2500 2.05 53 23:19 24.10.2019
5692 Haze 23 1010 88 2500 2.05 53 22:39 24.10.2019
5693 Haze 23 1010 88 2500 2.05 53 22:39 24.10.2019
5694 Haze 23 1010 88 2500 2.05 53 22:19 24.10.2019
5695 Haze 23 1011 94 2500 2.05 53 21:58 24.10.2019
5696 Haze 23 1011 94 2500 2.05 53 21:40 24.10.2019
5697 Haze 24 1011 83 2500 2.67 68 21:20 24.10.2019
5698 Haze 24 1011 83 2500 2.67 68 20:59 24.10.2019
5699 Haze 24 1011 83 2500 2.67 68 20:39 24.10.2019
5700 Haze 24 1011 83 2500 2.67 68 20:21 24.10.2019
5701 Haze 24 1012 83 2500 2.67 68 19:57 24.10.2019
5702 Haze 24 1012 83 2500 2.67 68 19:57 24.10.2019
5703 Haze 24 1012 83 2500 2.67 68 19:38 24.10.2019
5704 Haze 24 1012 83 2500 2.67 68 19:20 24.10.2019
5705 Haze 24 1012 83 2500 1 100 18:56 24.10.2019
5706 Haze 25 1012 78 2500 1 90 18:38 24.10.2019
5707 Haze 25 1012 78 2500 1 90 18:18 24.10.2019
5708 Haze 25 1011 78 2500 2.54 61 17:42 24.10.2019
5709 Haze 25 1011 78 2500 2.1 90 17:20 24.10.2019
5710 Haze 25 1011 78 2500 1 90 16:58 24.10.2019
5711 Haze 25 1010 78 2500 1 80 16:39 24.10.2019
5712 Haze 25 1010 78 2500 1 80 16:21 24.10.2019
5713 Haze 25 1010 83 2500 1 80 15:58 24.10.2019
5714 Haze 25 1010 83 2500 1 80 15:40 24.10.2019
5715 Haze 26 1009 74 3000 1.5 60 15:21 24.10.2019
5716 Haze 26 1009 74 3000 1.5 50 14:57 24.10.2019
5717 Haze 26 1009 74 3000 2.1 50 14:38 24.10.2019
5718 Haze 26 1009 74 3000 2.1 50 14:20 24.10.2019
5719 Haze 26 1008 74 3000 4.1 50 13:41 24.10.2019
5720 Haze 27 1008 69 3000 2.1 60 13:20 24.10.2019
5721 Haze 27 1008 69 3000 3.12 71 12:57 24.10.2019
5722 Haze 27 1008 69 3000 3.12 71 12:57 24.10.2019
5723 Haze 27 1008 69 3000 3.12 71 12:39 24.10.2019
5724 Haze 27 1008 69 3000 3.88 27 12:19 24.10.2019
5725 Haze 27 1008 69 3000 3.88 27 11:56 24.10.2019
5726 Haze 26 1008 74 3000 1.5 40 11:38 24.10.2019
5727 Haze 26 1008 74 3000 1.5 40 11:19 24.10.2019
5728 Haze 26 1008 74 3000 1.5 40 11:19 24.10.2019
5729 Haze 26 1009 74 3000 2.1 50 10:55 24.10.2019
5730 Haze 26 1009 74 3000 1.5 80 10:36 24.10.2019
5731 Haze 26 1009 74 3000 1.5 80 10:18 24.10.2019
5732 Haze 27 1010 69 3000 2.1 50 09:38 24.10.2019
5733 Haze 27 1010 69 3000 2.1 50 09:18 24.10.2019
5734 Haze 26 1011 74 3000 2.1 60 08:44 24.10.2019
5735 Haze 26 1011 69 3000 1 50 08:21 24.10.2019
5736 Haze 26 1012 69 3000 1 50 07:59 24.10.2019
5737 Haze 26 1012 69 3000 2.6 50 07:41 24.10.2019
5738 Haze 26 1012 69 3000 2.6 50 07:21 24.10.2019
5739 Haze 25 1012 69 2500 2.1 40 06:39 24.10.2019
5740 Haze 24 1012 69 2500 2.6 30 05:57 24.10.2019
5741 Haze 23 1012 73 2500 2.6 40 05:39 24.10.2019
5742 Mist 23 1012 69 2500 2.6 30 04:49 24.10.2019
5743 Mist 22 1010 73 2500 1 30 03:36 24.10.2019
5744 Mist 22 1009 73 2500 1.5 20 02:51 24.10.2019
5745 Haze 22 1009 73 2500 2.1 30 02:22 24.10.2019
5746 Haze 23 1009 69 2500 1 30 01:33 24.10.2019
5747 Haze 23 1008 69 2500 1.5 30 00:57 24.10.2019
5748 Haze 23 1008 69 2500 1 30 00:37 24.10.2019
5749 Haze 23 1008 69 2500 1 30 00:18 24.10.2019
5750 Haze 23 1009 69 2500 1 30 23:42 23.10.2019
5751 Haze 23 1009 69 2500 1.5 20 23:21 23.10.2019
5752 Haze 23 1009 69 2500 2.6 30 22:57 23.10.2019
5753 Haze 24 1009 64 2500 1 30 22:38 23.10.2019
5754 Haze 24 1009 64 2500 1 30 22:18 23.10.2019
5755 Haze 24 1010 64 2500 2.6 30 21:57 23.10.2019
5756 Haze 24 1010 64 2500 2.6 30 21:38 23.10.2019
5757 Haze 24 1010 64 2500 2.6 30 21:19 23.10.2019
5758 Haze 24 1010 69 2500 1.5 30 20:56 23.10.2019
5759 Haze 25 1010 61 2500 2.1 30 20:37 23.10.2019
5760 Haze 25 1010 61 2500 2.1 30 20:19 23.10.2019
5761 Haze 25 1010 61 2500 2.1 40 19:44 23.10.2019
5762 Haze 25 1011 65 2500 1.5 30 19:20 23.10.2019
5763 Haze 25 1010 61 2500 1.5 30 18:59 23.10.2019
5764 Haze 26 1010 61 2500 3.1 30 18:39 23.10.2019
5765 Haze 26 1010 61 2500 3.1 30 18:19 23.10.2019
5766 Haze 27 1010 61 2500 1 30 17:57 23.10.2019
5767 Haze 27 1010 61 2500 2.6 50 17:39 23.10.2019
5768 Haze 27 1010 61 2500 2.6 50 17:18 23.10.2019
5769 Haze 27 1009 61 2500 3.1 50 16:41 23.10.2019
5770 Haze 27 1009 61 2500 1.5 40 16:21 23.10.2019
5771 Haze 27 1009 65 2500 1 50 15:57 23.10.2019
5772 Haze 27 1009 65 2500 1 50 15:57 23.10.2019
5773 Haze 27 1008 65 2500 3.2 70 15:39 23.10.2019
5774 Haze 27 1008 65 2500 3.5 60 15:21 23.10.2019
5775 Haze 28 1008 61 2500 1.5 50 14:56 23.10.2019
5776 Haze 28 1008 65 2500 1 40 14:37 23.10.2019
5777 Haze 28 1008 65 2500 1 40 14:19 23.10.2019
5778 Haze 29 1007 62 3000 1.5 50 13:43 23.10.2019
5779 Haze 29 1007 62 3000 1.5 50 13:43 23.10.2019
5780 Haze 29 1007 58 3000 3.1 50 13:25 23.10.2019
5781 Haze 29 1007 62 3000 2.6 40 12:57 23.10.2019
5782 Haze 30 1007 58 3000 2.6 20 12:39 23.10.2019
5783 Haze 30 1007 58 3000 2.6 20 12:19 23.10.2019
5784 Haze 30 1007 58 3000 2.1 60 11:58 23.10.2019
5785 Haze 30 1008 58 3000 2.6 40 11:39 23.10.2019
5786 Haze 30 1008 58 3000 2.6 40 11:21 23.10.2019
5787 Haze 30 1008 58 3000 2.6 50 10:55 23.10.2019
5788 Haze 30 1008 58 3000 2.6 50 10:37 23.10.2019
5789 Haze 30 1008 58 3000 2.6 50 10:18 23.10.2019
5790 Haze 30 1009 58 3000 2.1 60 09:40 23.10.2019
5791 Haze 29 1011 62 3000 2.6 80 09:22 23.10.2019
5792 Haze 29 1011 62 3000 2.6 80 08:43 23.10.2019
5793 Haze 29 1011 62 3000 2.6 80 08:25 23.10.2019
5794 Haze 28 1012 65 3000 2.6 60 07:58 23.10.2019
5795 Haze 27 1012 69 3000 1.5 50 07:39 23.10.2019
5796 Haze 27 1012 69 3000 1.5 50 07:18 23.10.2019
5797 Mist 27 1012 69 2500 1.5 60 06:41 23.10.2019
5798 Mist 27 1012 69 2500 1.5 60 06:18 23.10.2019
5799 Mist 26 1012 65 2500 1.5 20 05:18 23.10.2019
5800 Mist 22 1011 83 2000 3.99 44 03:46 23.10.2019
5801 Mist 21 1010 88 2000 3.27 27 02:42 23.10.2019
5802 Haze 23 1009 69 2500 3.27 27 01:35 23.10.2019
5803 Haze 23 1009 69 2500 3.27 27 00:59 23.10.2019
5804 Haze 23 1009 69 2500 3.27 27 00:33 23.10.2019
5805 Haze 23 1009 69 2500 2.88 8 23:55 22.10.2019
5806 Haze 23 1010 69 2500 1.5 340 23:37 22.10.2019
5807 Haze 23 1010 69 2500 1.5 340 23:18 22.10.2019
5808 Haze 23 1010 69 2500 2.88 8 22:40 22.10.2019
5809 Haze 23 1010 73 2500 2.88 8 22:22 22.10.2019
5810 Haze 23 1010 78 2500 2.88 8 21:57 22.10.2019
5811 Haze 24 1011 73 2500 2.83 14 21:38 22.10.2019
5812 Haze 24 1011 73 2500 2.95 28 21:19 22.10.2019
5813 Haze 24 1011 78 2500 1 10 20:58 22.10.2019
5814 Haze 24 1011 78 2500 1 10 20:58 22.10.2019
5815 Haze 25 1011 78 2500 2.1 10 20:40 22.10.2019
5816 Haze 25 1011 78 2500 2.1 10 20:21 22.10.2019
5817 Haze 25 1011 78 2500 1 20 19:55 22.10.2019
5818 Haze 25 1011 78 2500 2.95 28 19:37 22.10.2019
5819 Haze 25 1011 78 2500 2.95 28 19:19 22.10.2019
5820 Haze 25 1012 78 2500 2.95 28 18:54 22.10.2019
5821 Haze 25 1012 78 2500 2.95 28 18:36 22.10.2019
5822 Haze 25 1012 78 2500 2.05 51 18:18 22.10.2019
5823 Haze 25 1011 78 2500 2.1 50 17:39 22.10.2019
5824 Haze 25 1011 78 2500 2.1 50 17:39 22.10.2019
5825 Haze 25 1011 78 2500 2.1 50 17:20 22.10.2019
5826 Haze 25 1011 78 2500 2.1 50 17:20 22.10.2019
5827 Haze 25 1011 78 2500 1.5 50 16:58 22.10.2019
5828 Haze 26 1011 78 2500 2.05 51 16:39 22.10.2019
5829 Haze 26 1011 78 2500 2.05 51 16:20 22.10.2019
5830 Haze 26 1010 78 2500 1 30 15:58 22.10.2019
5831 Haze 26 1010 78 2500 1 30 15:39 22.10.2019
5832 Haze 26 1010 78 2500 1 30 15:18 22.10.2019
5833 Haze 26 1010 78 2500 1 30 14:43 22.10.2019
5834 Haze 27 1009 74 2500 1 30 14:20 22.10.2019
5835 Haze 28 1009 69 2500 1.5 40 13:43 22.10.2019
5836 Haze 28 1009 69 2500 2.1 40 13:23 22.10.2019
5837 Haze 28 1009 69 2500 2.1 20 12:59 22.10.2019
5838 Haze 28 1009 69 2500 2.1 80 12:40 22.10.2019
5839 Haze 28 1009 69 2500 2.1 80 12:21 22.10.2019
5840 Haze 29 1009 66 2500 2.1 60 11:57 22.10.2019
5841 Haze 28 1010 69 2500 1.5 50 11:38 22.10.2019
5842 Haze 28 1010 69 2500 1.5 50 11:20 22.10.2019
5843 Haze 27 1010 74 2500 1.5 90 10:56 22.10.2019
5844 Haze 29 1011 66 2500 1.5 50 10:37 22.10.2019
5845 Haze 29 1011 66 2500 1.5 50 10:18 22.10.2019
5846 Haze 28 1011 65 2500 2.1 50 09:54 22.10.2019
5847 Haze 28 1012 69 2500 2.1 20 09:36 22.10.2019
5848 Haze 28 1012 69 2500 2.1 20 09:18 22.10.2019
5849 Haze 27 1012 74 2500 1 70 08:42 22.10.2019
5850 Haze 27 1013 74 2000 1 50 08:21 22.10.2019
5851 Mist 27 1013 78 2000 1 40 07:45 22.10.2019
5852 Mist 26 1014 74 1500 1 30 07:26 22.10.2019
5853 Mist 25 1014 83 1500 1 30 06:48 22.10.2019
5854 Mist 25 1014 83 2000 3.11 47 06:30 22.10.2019
5855 Mist 25 1014 83 2000 1.87 24 05:50 22.10.2019
5856 Mist 25 1014 83 2000 1.87 24 05:50 22.10.2019
5857 Mist 25 1014 83 2000 1.87 24 05:19 22.10.2019
5858 Haze 24 1011 88 2500 1.57 25 02:33 22.10.2019
5859 Haze 23 1011 94 2500 1.57 25 01:51 22.10.2019
5860 Haze 24 1011 88 3000 1.57 25 01:26 22.10.2019
5861 Haze 23 1011 94 3000 1.57 25 00:57 22.10.2019
5862 Haze 24 1011 88 3000 1.57 25 00:39 22.10.2019
5863 Haze 24 1011 88 3000 1.16 34 00:20 22.10.2019
5864 Haze 23 1011 94 3000 1.16 34 23:39 21.10.2019
5865 Haze 23 1011 94 3000 1.16 34 23:20 21.10.2019
5866 Haze 24 1011 88 3000 1.16 34 22:59 21.10.2019
5867 Haze 24 1011 88 3000 1.16 34 22:40 21.10.2019
5868 Haze 24 1011 88 3000 1.16 34 22:21 21.10.2019
5869 Haze 24 1011 88 3000 1 10 21:59 21.10.2019
5870 Rain 24 1012 88 3000 1 360 21:39 21.10.2019
5871 Rain 24 1012 88 3000 1 360 21:39 21.10.2019
5872 Rain 24 1012 88 3000 1 360 21:21 21.10.2019
5873 Haze 24 1012 88 3000 0.95 62 20:58 21.10.2019
5874 Haze 24 1012 83 3000 0.95 62 20:40 21.10.2019
5875 Haze 24 1012 83 3000 0.95 62 20:40 21.10.2019
5876 Haze 24 1012 83 3000 0.95 62 20:21 21.10.2019
5877 Haze 24 1013 83 3000 0.95 62 19:58 21.10.2019
5878 Haze 23 1013 88 3000 0.95 62 19:40 21.10.2019
5879 Haze 23 1013 88 3000 0.95 62 19:21 21.10.2019
5880 Haze 24 1013 83 3000 0.95 62 18:55 21.10.2019
5881 Haze 24 1013 83 3000 0.95 62 18:37 21.10.2019
5882 Haze 24 1013 83 3000 0.48 83 18:18 21.10.2019
5883 Haze 24 1013 83 3000 0.48 83 17:55 21.10.2019
5884 Haze 24 1013 83 3000 1 80 17:37 21.10.2019
5885 Haze 24 1013 83 3000 1 80 17:18 21.10.2019
5886 Haze 24 1013 83 3000 1 120 16:55 21.10.2019
5887 Haze 25 1012 78 3000 1 110 16:37 21.10.2019
5888 Haze 25 1012 78 3000 1 110 16:18 21.10.2019
5889 Haze 25 1012 83 3000 0.48 83 15:42 21.10.2019
5890 Haze 25 1012 83 3000 1.54 36 15:23 21.10.2019
5891 Haze 25 1012 83 4000 1 100 14:56 21.10.2019
5892 Haze 26 1011 74 4000 1 120 14:37 21.10.2019
5893 Haze 26 1011 74 4000 1 120 14:18 21.10.2019
5894 Haze 27 1011 69 4000 1.5 50 13:55 21.10.2019
5895 Haze 27 1011 69 4000 1.5 50 13:37 21.10.2019
5896 Haze 27 1011 69 4000 1.5 50 13:18 21.10.2019
5897 Haze 27 1011 69 4000 2.08 32 12:41 21.10.2019
5898 Haze 27 1011 69 4000 3.12 15.885 12:21 21.10.2019
5899 Haze 27 1012 69 4000 1 10 11:55 21.10.2019
5900 Haze 27 1012 69 4000 1 10 11:55 21.10.2019
5901 Haze 27 1012 69 4000 1.5 10 11:37 21.10.2019
5902 Haze 27 1012 69 4000 1.5 10 11:18 21.10.2019
5903 -273 0 0 0 0 0 10:55 21.10.2019
5904 Haze 27 1013 69 4000 1 20 10:36 21.10.2019
5905 Haze 27 1013 69 4000 1 20 10:18 21.10.2019
5906 Haze 27 1014 69 4000 1.5 350 09:42 21.10.2019
5907 Haze 27 1014 69 4000 1 20 09:22 21.10.2019
5908 Haze 27 1014 69 4000 1 30 08:43 21.10.2019
5909 Haze 26 1015 69 4000 1 20 08:23 21.10.2019
5910 Haze 26 1015 69 3000 1.5 50 07:58 21.10.2019
5911 Haze 25 1016 78 3000 1 40 07:37 21.10.2019
5912 Haze 25 1016 78 3000 1 40 07:18 21.10.2019
5913 Clouds 25 1015 68 0 2.14 38.103 06:50 21.10.2019
5914 Clouds 25 1015 68 0 2.14 38.103 06:31 21.10.2019
5915 Rain 22 1015 83 0 3.45 36.225 05:43 21.10.2019
5916 Rain 22 1015 83 0 3.45 36.225 03:42 21.10.2019
5917 Haze 23 1014 88 3000 1 30 02:41 21.10.2019
5918 Haze 23 1014 88 3000 1 30 02:21 21.10.2019
5919 Haze 23 1014 88 3000 2.9 37.601 01:49 21.10.2019
5920 Haze 23 1014 88 3000 2.8 28.736 01:20 21.10.2019
5921 Haze 23 1014 88 3000 1 50 00:41 21.10.2019
5922 Haze 23 1014 88 3000 1 50 00:22 21.10.2019
5923 Haze 23 1014 88 3000 1 40 23:40 20.10.2019
5924 Haze 23 1014 88 3000 1.5 40 23:21 20.10.2019
5925 Haze 23 1014 88 3000 2.64 26.866 22:55 20.10.2019
5926 Haze 23 1014 88 3000 1.5 10 22:36 20.10.2019
5927 Haze 23 1014 88 3000 1.5 10 22:18 20.10.2019
5928 Haze 23 1014 88 3000 1 30 21:40 20.10.2019
5929 Haze 23 1014 88 3000 1 30 21:22 20.10.2019
5930 Haze 23 1014 88 3000 1 50 20:57 20.10.2019
5931 Haze 23 1014 88 3000 1 60 20:39 20.10.2019
5932 Haze 23 1014 88 3000 1 60 20:18 20.10.2019
5933 Haze 24 1015 83 3000 1 80 19:56 20.10.2019
5934 Rain 24 1015 83 3000 1 90 19:37 20.10.2019
5935 Rain 24 1015 83 3000 1 90 19:19 20.10.2019
5936 Haze 24 1015 83 4000 1 90 18:41 20.10.2019
5937 Haze 24 1015 83 4000 1 70 18:22 20.10.2019
5938 Haze 24 1015 83 4000 1 60 17:58 20.10.2019
5939 Haze 25 1015 78 4000 1 30 17:39 20.10.2019
5940 Haze 25 1015 78 4000 1 30 17:39 20.10.2019
5941 Haze 25 1015 78 4000 1 30 17:21 20.10.2019
5942 Haze 25 1015 78 4000 2.1 20 16:55 20.10.2019
5943 Haze 25 1014 78 4000 1.5 30 16:37 20.10.2019
5944 Haze 25 1014 78 4000 1.5 30 16:18 20.10.2019
5945 Haze 25 1014 78 4000 3.1 40 15:42 20.10.2019
5946 Haze 25 1013 83 4000 2.1 20 15:23 20.10.2019
5947 Haze 25 1013 78 4000 4.1 350 14:59 20.10.2019
5948 Haze 26 1013 74 4000 4.1 350 14:38 20.10.2019
5949 Haze 26 1013 74 4000 4.1 350 14:38 20.10.2019
5950 Haze 26 1013 74 4000 4.1 350 14:20 20.10.2019
5951 Haze 26 1013 78 5000 4.1 350 13:56 20.10.2019
5952 Haze 28 1012 65 5000 4.1 350 13:37 20.10.2019
5953 Haze 28 1012 65 5000 4.1 350 13:19 20.10.2019
5954 Haze 27 1012 69 5000 2.1 30 12:57 20.10.2019
5955 Haze 27 1012 69 5000 2.6 20 12:39 20.10.2019
5956 Haze 27 1012 69 5000 2.6 20 12:21 20.10.2019
5957 Haze 28 1013 65 5000 3.6 20 11:59 20.10.2019
5958 Haze 27 1013 69 5000 2.6 310 11:40 20.10.2019
5959 Haze 27 1013 69 5000 2.6 310 11:22 20.10.2019
5960 Haze 27 1013 69 5000 3.1 330 10:57 20.10.2019
5961 Haze 27 1014 74 4000 4.1 350 10:37 20.10.2019
5962 Haze 27 1014 74 4000 4.1 350 10:18 20.10.2019
5963 Haze 27 1014 69 4000 4.1 350 09:43 20.10.2019
5964 Haze 26 1015 78 4000 3.1 10 09:22 20.10.2019
5965 Haze 25 1016 83 3000 3.6 350 08:56 20.10.2019
5966 Haze 25 1016 83 2500 3.6 350 08:37 20.10.2019
5967 Haze 25 1016 83 2500 3.6 350 08:18 20.10.2019
5968 Haze 25 1017 83 2500 2.6 10 07:43 20.10.2019
5969 Haze 25 1017 83 2500 2.6 10 07:24 20.10.2019
5970 Haze 24 1017 94 2500 1.5 320 06:26 20.10.2019
5971 Rain 23 1016 94 1000 2.1 100 04:28 20.10.2019
5972 Rain 23 1016 94 1200 1 100 03:48 20.10.2019
5973 Haze 23 1016 94 1800 2.1 70 03:21 20.10.2019
5974 Haze 24 1015 88 2500 1 70 02:44 20.10.2019
5975 Haze 24 1014 83 2500 1 60 01:59 20.10.2019
5976 Haze 24 1014 83 2500 1 20 01:24 20.10.2019
5977 Haze 24 1014 83 2500 1 20 00:58 20.10.2019
5978 Haze 24 1014 83 2500 1 20 00:39 20.10.2019
5979 Haze 24 1014 83 2500 1 20 00:20 20.10.2019
5980 Haze 24 1014 83 2500 2.1 20 23:42 19.10.2019
5981 Haze 24 1014 88 2500 2.1 20 23:23 19.10.2019
5982 Haze 24 1014 88 2500 1 20 22:57 19.10.2019
5983 Haze 24 1015 88 2500 1 20 22:38 19.10.2019
5984 Haze 24 1015 88 2500 1 20 22:20 19.10.2019
5985 Haze 24 1015 88 2500 1 20 21:46 19.10.2019
5986 Haze 24 1015 83 2500 2.1 20 21:24 19.10.2019
5987 Haze 24 1015 88 2500 2.1 20 20:54 19.10.2019
5988 Haze 24 1015 88 2500 2.1 20 20:36 19.10.2019
5989 Haze 24 1015 88 2500 2.1 20 20:36 19.10.2019
5990 Haze 24 1015 88 2500 2.1 20 20:18 19.10.2019
5991 Haze 24 1015 83 2500 1 10 19:41 19.10.2019
5992 Haze 24 1015 83 2500 1 10 19:23 19.10.2019
5993 Haze 23 1015 88 2500 2.6 40 18:43 19.10.2019
5994 Rain 24 1016 83 2500 2.6 40 18:25 19.10.2019
5995 Haze 25 1016 73 2500 2.6 60 17:59 19.10.2019
5996 Haze 25 1015 78 2500 2.6 20 17:37 19.10.2019
5997 Haze 25 1015 78 2500 2.6 20 17:19 19.10.2019
5998 Haze 26 1014 74 2500 3.6 40 16:39 19.10.2019
5999 Haze 26 1014 74 2500 3.6 40 16:39 19.10.2019
6000 Haze 26 1014 74 2500 3.6 40 16:20 19.10.2019
6001 Haze 27 1013 78 2500 2.84 4.32 15:57 19.10.2019
6002 Haze 27 1013 74 2500 2.84 4.32 15:39 19.10.2019
6003 Haze 27 1013 74 2500 2.39 3.003 15:20 19.10.2019
6004 Haze 28 1013 69 3000 2.39 3.003 14:38 19.10.2019
6005 Haze 28 1013 69 3000 2.39 3.003 14:20 19.10.2019
6006 Haze 28 1013 65 3000 1 20 13:56 19.10.2019
6007 Haze 29 1013 62 3000 2.1 350 13:37 19.10.2019
6008 Haze 29 1013 62 3000 2.1 350 13:37 19.10.2019
6009 Haze 29 1013 62 3000 2.1 350 13:18 19.10.2019
6010 Haze 29 1013 62 3000 2.1 350 13:18 19.10.2019
6011 Haze 29 1013 66 3000 1 350 12:40 19.10.2019
6012 Haze 29 1013 66 3000 1 350 12:22 19.10.2019
6013 Haze 28 1013 69 2500 2.06 6.509 11:59 19.10.2019
6014 Mist 28 1013 69 2500 2.06 6.509 11:40 19.10.2019
6015 Mist 28 1013 69 2500 2.06 6.509 11:22 19.10.2019
6016 Mist 27 1014 74 2500 2.06 6.509 10:41 19.10.2019
6017 Mist 27 1014 74 2500 2.06 6.509 10:23 19.10.2019
6018 Mist 27 1015 74 2500 1 50 09:59 19.10.2019
6019 Mist 27 1016 74 2000 2.06 6.509 09:41 19.10.2019
6020 Mist 27 1016 74 2000 2.7 2.656 09:22 19.10.2019
6021 Mist 27 1016 74 2000 1 80 08:56 19.10.2019
6022 Mist 27 1016 74 2000 1 80 08:56 19.10.2019
6023 Mist 27 1017 74 2000 1 60 08:37 19.10.2019
6024 Mist 27 1017 74 2000 1 60 08:19 19.10.2019
6025 Mist 26 1018 78 1500 1 30 07:41 19.10.2019
6026 Mist 26 1018 78 1500 1 30 07:23 19.10.2019
6027 Rain 25 1018 83 1500 1 30 06:36 19.10.2019
6028 Mist 25 1017 83 1500 1 30 05:51 19.10.2019
6029 Mist 24 1017 88 1500 1 30 04:26 19.10.2019
6030 Mist 23 1016 94 2000 1.49 74.356 03:18 19.10.2019
6031 Mist 23 1014 94 2000 1.49 74.356 02:21 19.10.2019
6032 Mist 23 1014 94 2000 1.49 74.356 01:49 19.10.2019
6033 Mist 23 1014 94 2000 1.99 92.735 00:52 19.10.2019
6034 Mist 23 1014 94 2000 1.99 92.735 00:29 19.10.2019
6035 Mist 23 1014 94 2000 2.08 69.141 23:59 18.10.2019
6036 Mist 23 1014 94 2000 2.08 69.141 23:38 18.10.2019
6037 Mist 23 1014 94 2000 2.08 69.141 23:20 18.10.2019
6038 Mist 24 1014 88 2500 2.08 69.141 22:55 18.10.2019
6039 Mist 24 1014 88 2500 2.08 69.141 22:36 18.10.2019
6040 Mist 24 1014 88 2500 2.08 69.141 22:18 18.10.2019
6041 Mist 24 1015 88 2500 2.08 69.141 21:55 18.10.2019
6042 Mist 24 1015 88 2500 2.08 69.141 21:55 18.10.2019
6043 Mist 24 1015 94 2500 1.55 83.054 21:36 18.10.2019
6044 Mist 24 1015 94 2500 1.55 83.054 21:36 18.10.2019
6045 Mist 24 1015 94 2500 1.31 30.313 21:18 18.10.2019
6046 Mist 24 1015 94 2500 1.31 30.313 20:43 18.10.2019
6047 Mist 24 1015 94 2500 1.31 30.313 20:43 18.10.2019
6048 Mist 24 1014 88 2500 1 90 20:22 18.10.2019
6049 Mist 24 1014 88 2500 1 90 20:22 18.10.2019
6050 Mist 24 1014 94 2500 1 90 19:58 18.10.2019
6051 Mist 24 1015 94 2500 1 70 19:40 18.10.2019
6052 Mist 24 1015 94 2500 1 70 19:22 18.10.2019
6053 Mist 24 1015 94 2500 1 80 18:58 18.10.2019
6054 Mist 24 1015 94 2500 1 80 18:40 18.10.2019
6055 Mist 24 1015 94 2500 1 80 18:22 18.10.2019
6056 Mist 25 1015 88 2500 1.5 80 17:55 18.10.2019
6057 Mist 24 1014 94 2500 1.83 50.468 17:36 18.10.2019
6058 Mist 24 1014 94 2500 1.83 50.468 17:18 18.10.2019
6059 Mist 25 1014 88 2000 1 350 16:38 18.10.2019
6060 Mist 25 1014 88 2000 1 350 16:20 18.10.2019
6061 Rain 24 1014 94 2000 1 30 15:55 18.10.2019
6062 Thunderstorm 23 1013 94 2000 1 60 15:37 18.10.2019
6063 Thunderstorm 23 1013 94 2000 1 60 15:18 18.10.2019
6064 Thunderstorm 24 1013 88 1800 2.1 30 14:56 18.10.2019
6065 Thunderstorm 24 1013 88 1800 2.1 20 14:38 18.10.2019
6066 Thunderstorm 24 1013 88 1800 2.1 20 14:18 18.10.2019
6067 Rain 25 1013 83 2000 3.1 110 13:44 18.10.2019
6068 Haze 28 1013 69 2500 2.1 60 13:26 18.10.2019
6069 Haze 28 1012 69 2500 1 80 12:58 18.10.2019
6070 Haze 29 1012 58 3000 1.82 49.747 12:39 18.10.2019
6071 Haze 29 1012 58 3000 1.75 345.607 12:21 18.10.2019
6072 Haze 29 1013 58 3000 1.75 345.607 11:57 18.10.2019
6073 Haze 30 1013 58 3000 1.5 140 11:39 18.10.2019
6074 Haze 30 1013 58 3000 1.5 140 11:20 18.10.2019
6075 Haze 29 1013 58 3000 1.75 345.607 10:56 18.10.2019
6076 Haze 29 1014 62 2500 1 140 10:38 18.10.2019
6077 Haze 29 1014 62 2500 1 140 10:18 18.10.2019
6078 Haze 28 1015 65 2500 1 160 09:55 18.10.2019
6079 Haze 28 1015 69 2500 1 170 09:37 18.10.2019
6080 Haze 28 1015 69 2500 1 170 09:18 18.10.2019
6081 Haze 27 1016 69 2000 3.22 79.488 08:42 18.10.2019
6082 Haze 27 1016 69 2000 3.22 79.488 08:42 18.10.2019
6083 Mist 27 1016 69 1800 3.22 79.488 08:23 18.10.2019
6084 Mist 27 1016 69 1800 3.22 79.488 07:44 18.10.2019
6085 Mist 27 1017 74 1800 3.22 79.488 07:26 18.10.2019
6086 Mist 26 1017 78 1800 1 70 06:41 18.10.2019
6087 Mist 26 1017 78 1800 1 70 06:22 18.10.2019
6088 Mist 25 1017 83 1800 3.51 45.763 05:58 18.10.2019
6089 Mist 25 1016 83 1800 3.51 45.763 05:24 18.10.2019
6090 Mist 25 1016 83 1800 3.51 45.763 05:24 18.10.2019
6091 Mist 24 1016 88 1500 3.51 45.763 04:49 18.10.2019
6092 Mist 22 1015 94 1500 3.51 45.763 03:33 18.10.2019
6093 Mist 21 1014 94 1800 2.02 43.796 02:36 18.10.2019
6094 Mist 22 1013 88 1800 2.02 43.796 01:55 18.10.2019
6095 Mist 22 1013 88 1800 2.35 28.266 01:30 18.10.2019
6096 Mist 22 1013 88 1800 2.35 28.266 00:46 18.10.2019
6097 Mist 23 1013 88 2000 2.16 22.759 00:21 18.10.2019
6098 Mist 23 1013 88 2000 2.16 22.759 00:21 18.10.2019
6099 Haze 23 1013 88 2500 2.16 22.759 23:57 17.10.2019
6100 Haze 23 1013 83 2500 2.16 22.759 23:38 17.10.2019
6101 Haze 23 1013 83 2500 2.16 22.759 23:38 17.10.2019
6102 Haze 23 1013 83 2500 2.16 22.759 23:19 17.10.2019
6103 Haze 23 1014 83 2500 2.16 22.759 22:55 17.10.2019
6104 Haze 22 1014 88 2500 2.16 22.759 22:37 17.10.2019
6105 Haze 22 1014 88 2500 2.16 22.759 22:18 17.10.2019
6106 Haze 22 1014 83 2500 2.16 22.759 21:56 17.10.2019
6107 Haze 23 1014 83 2500 2.16 22.759 21:37 17.10.2019
6108 Haze 23 1014 83 2500 2.02 45 21:19 17.10.2019
6109 Haze 23 1014 83 2500 1.76 50.55 20:56 17.10.2019
6110 -273 0 0 0 0 0 20:56 17.10.2019
6111 Haze 23 1015 83 2500 1.76 50.55 20:37 17.10.2019
6112 Haze 23 1015 83 2500 1.76 50.55 20:18 17.10.2019
6113 Haze 23 1015 83 2500 1.76 50.55 19:42 17.10.2019
6114 Haze 23 1015 83 2500 1.76 50.55 19:42 17.10.2019
6115 Haze 23 1015 83 2500 1.76 50.55 19:20 17.10.2019
6116 Haze 24 1015 78 2500 1.76 50.55 18:59 17.10.2019
6117 Haze 23 1015 83 2500 1.76 50.55 18:39 17.10.2019
6118 Haze 23 1015 83 2500 1.43 56.565 18:20 17.10.2019
6119 Haze 24 1015 78 2500 1.432 56 17:44 17.10.2019
6120 Haze 24 1014 73 2500 1.432 56 17:25 17.10.2019
6121 Haze 25 1014 69 2500 1.432 56 16:59 17.10.2019
6122 Haze 25 1014 69 2500 1.432 56 16:41 17.10.2019
6123 Haze 25 1014 69 2500 1.432 56 16:19 17.10.2019
6124 -273 0 0 0 0 0 15:57 17.10.2019
6125 Haze 27 1013 57 2500 1 60 15:38 17.10.2019
6126 Haze 27 1013 57 2500 1 60 15:38 17.10.2019
6127 Haze 27 1013 57 2500 1 60 15:20 17.10.2019
6128 Haze 27 1013 54 2500 1 70 14:57 17.10.2019
6129 Haze 29 1012 48 2500 1 60 14:38 17.10.2019
6130 Haze 29 1012 48 2500 1 60 14:20 17.10.2019
6131 Haze 29 1012 48 3000 1 60 13:40 17.10.2019
6132 Haze 29 1012 48 3000 1 60 13:20 17.10.2019
6133 Haze 29 1012 54 3000 1.5 80 12:58 17.10.2019
6134 Haze 30 1012 51 3000 1 50 12:37 17.10.2019
6135 Haze 30 1012 51 3000 1 50 12:19 17.10.2019
6136 Haze 31 1013 45 3000 2.875 51 11:42 17.10.2019
6137 Haze 31 1013 45 3000 2.875 51 11:42 17.10.2019
6138 Haze 31 1013 45 3000 2.875 51 11:22 17.10.2019
6139 Haze 30 1013 48 2500 1 10 10:59 17.10.2019
6140 Haze 30 1013 48 2500 1 10 10:41 17.10.2019
6141 Haze 30 1013 48 2500 1 10 10:41 17.10.2019
6142 Haze 30 1013 51 2500 1.5 60 10:19 17.10.2019
6143 Haze 29 1014 54 2500 1 60 09:56 17.10.2019
6144 Haze 30 1014 55 2500 1.5 50 09:37 17.10.2019
6145 Haze 30 1014 55 2500 1.5 50 09:19 17.10.2019
6146 Haze 30 1014 55 2500 1.5 80 08:48 17.10.2019
6147 Haze 29 1015 62 2000 1.5 100 08:27 17.10.2019
6148 Haze 29 1016 58 2000 2.1 120 07:59 17.10.2019
6149 Haze 29 1016 58 2000 2.1 100 07:41 17.10.2019
6150 Haze 29 1016 58 2000 2.1 100 07:21 17.10.2019
6151 Haze 28 1017 61 2000 1.5 60 06:43 17.10.2019
6152 Haze 27 1017 65 2000 1 130 06:24 17.10.2019
6153 Haze 27 1017 69 2000 1.5 40 05:59 17.10.2019
6154 Haze 26 1017 69 2000 1.5 30 05:35 17.10.2019
6155 Haze 25 1016 78 2000 1 40 04:58 17.10.2019
6156 Haze 24 1016 83 2000 1 20 04:31 17.10.2019
6157 Mist 22 1016 88 1700 3.138 46 03:45 17.10.2019
6158 Mist 21 1014 88 1800 1.978 31 01:55 17.10.2019
6159 Haze 22 1014 83 2000 1.978 31 00:41 17.10.2019
6160 Haze 23 1014 83 2000 2.039 18 00:20 17.10.2019
6161 Haze 23 1014 83 2000 2.039 18 23:42 16.10.2019
6162 Haze 22 1014 88 2000 2.039 18 23:22 16.10.2019
6163 Haze 22 1014 88 2000 2.039 18 22:58 16.10.2019
6164 Haze 22 1014 88 2000 2.039 18 22:38 16.10.2019
6165 Haze 22 1014 88 2000 2.039 18 22:20 16.10.2019
6166 Haze 23 1014 83 2000 2.039 18 21:58 16.10.2019
6167 Haze 23 1014 83 2000 2.039 18 21:38 16.10.2019
6168 Haze 23 1014 83 2000 1.682 38 21:20 16.10.2019
6169 Haze 23 1014 83 2500 1.682 38 20:58 16.10.2019
6170 Haze 23 1014 83 2500 1.682 38 20:58 16.10.2019
6171 Haze 23 1014 83 2500 1.682 38 20:40 16.10.2019
6172 Haze 23 1014 83 2500 1.682 38 20:21 16.10.2019
6173 Haze 24 1015 78 2500 1.682 38 19:59 16.10.2019
6174 Haze 24 1015 78 2500 1.682 38 19:40 16.10.2019
6175 Haze 24 1015 78 2500 1.682 38 19:21 16.10.2019
6176 Haze 24 1015 78 2500 1.682 38 18:56 16.10.2019
6177 Haze 24 1015 78 2500 1.682 38 18:56 16.10.2019
6178 Haze 25 1014 69 2500 1.682 38 18:37 16.10.2019
6179 Haze 25 1014 69 2500 1.147 81 18:18 16.10.2019
6180 Haze 25 1014 69 2500 1.147 81 18:18 16.10.2019
6181 Haze 25 1014 69 2500 1.147 81 17:54 16.10.2019
6182 Haze 25 1014 69 2500 1.147 81 17:54 16.10.2019
6183 Haze 25 1014 69 2500 1.147 81 17:36 16.10.2019
6184 Haze 25 1014 69 2500 1.147 81 17:18 16.10.2019
6185 Haze 26 1014 65 2500 1.147 81 16:43 16.10.2019
6186 Haze 26 1014 65 2500 1.147 81 16:22 16.10.2019
6187 Haze 26 1013 65 2500 1.147 81 15:59 16.10.2019
6188 Haze 27 1013 61 2500 1 90 15:39 16.10.2019
6189 -273 0 0 0 0 0 15:39 16.10.2019
6190 Haze 27 1013 61 2500 1 90 15:19 16.10.2019
6191 Haze 27 1013 61 2500 1 90 15:19 16.10.2019
6192 Haze 27 1013 61 2500 1 90 14:58 16.10.2019
6193 Haze 27 1013 61 2500 1 90 14:58 16.10.2019
6194 Haze 27 1013 61 2500 1 90 14:39 16.10.2019
6195 Haze 28 1013 61 2500 2.469 72 14:19 16.10.2019
6196 Haze 29 1013 58 2500 1 80 13:57 16.10.2019
6197 Haze 29 1013 58 2500 1 80 13:38 16.10.2019
6198 Haze 29 1013 58 2500 1 80 13:38 16.10.2019
6199 Haze 29 1012 54 3000 1 80 13:20 16.10.2019
6200 Haze 30 1012 51 3000 1.5 120 12:42 16.10.2019
6201 Haze 30 1013 48 3000 1.5 100 12:19 16.10.2019
6202 Haze 30 1013 48 3000 2.1 90 11:45 16.10.2019
6203 Haze 30 1013 48 3000 1 100 11:19 16.10.2019
6204 Haze 31 1013 45 3000 1 80 10:55 16.10.2019
6205 Haze 31 1013 45 3000 1 80 10:36 16.10.2019
6206 Haze 31 1014 48 3000 1.5 90 10:18 16.10.2019
6207 Haze 30 1014 48 3500 2.1 90 09:40 16.10.2019
6208 Haze 30 1014 48 3500 1.5 90 09:21 16.10.2019
6209 Haze 30 1015 48 3000 1.5 60 08:46 16.10.2019
6210 -273 0 0 0 0 0 08:26 16.10.2019
6211 Haze 29 1016 51 3000 2.1 60 07:58 16.10.2019
6212 Haze 29 1016 51 3000 2.1 60 07:40 16.10.2019
6213 Haze 29 1016 54 3000 1.5 90 07:21 16.10.2019
6214 Haze 28 1017 58 2500 2.1 70 06:40 16.10.2019
6215 Haze 27 1017 61 2500 1.5 30 06:19 16.10.2019
6216 -273 0 0 0 0 0 04:24 16.10.2019
6217 Haze 20 1015 94 2500 2.065 20 02:50 16.10.2019
6218 Haze 22 1014 83 3000 1.5 10 01:20 16.10.2019
6219 Haze 22 1014 83 3000 2.414 14 00:58 16.10.2019
6220 Haze 22 1014 83 3000 2.414 14 00:39 16.10.2019
6221 Haze 23 1014 78 3000 2.444 20 23:42 15.10.2019
6222 Haze 22 1014 88 3000 2.444 20 23:23 15.10.2019
6223 Haze 22 1014 88 3000 2.444 20 22:59 15.10.2019
6224 Haze 22 1014 88 3000 2.444 20 22:40 15.10.2019
6225 Haze 22 1014 83 3000 2.444 20 22:21 15.10.2019
6226 Haze 23 1014 78 3000 2.444 20 21:57 15.10.2019
6227 Haze 23 1014 78 3000 2.249 22 21:39 15.10.2019
6228 Haze 23 1014 78 3000 1.472 64 21:20 15.10.2019
6229 Haze 23 1015 78 3000 1.472 64 20:58 15.10.2019
6230 Haze 23 1015 78 3000 1.472 64 20:40 15.10.2019
6231 Haze 23 1015 78 3000 1.472 64 20:22 15.10.2019
6232 Haze 24 1015 78 3000 1.472 64 19:59 15.10.2019
6233 Haze 24 1015 78 3000 1.472 64 19:41 15.10.2019
6234 Haze 24 1015 73 3000 1.472 64 19:20 15.10.2019
6235 Haze 24 1015 73 3000 1.472 64 19:20 15.10.2019
6236 Haze 24 1015 73 3000 1.472 64 18:55 15.10.2019
6237 Haze 24 1015 73 3000 1.472 64 18:37 15.10.2019
6238 Haze 24 1015 73 3000 1.798 67 18:19 15.10.2019
6239 Haze 25 1015 69 3000 1.798 67 17:42 15.10.2019
6240 Haze 25 1015 69 3000 1.798 67 17:42 15.10.2019
6241 Haze 25 1015 69 3000 1.798 67 17:42 15.10.2019
6242 Haze 25 1014 65 3000 1.798 67 17:21 15.10.2019
6243 Haze 26 1014 61 3000 1.798 67 16:59 15.10.2019
6244 Haze 26 1014 61 3000 1.798 67 16:41 15.10.2019
6245 Haze 26 1014 61 3000 1.798 67 16:21 15.10.2019
6246 Haze 26 1014 57 3000 1 30 15:55 15.10.2019
6247 Haze 26 1014 57 3000 1 30 15:55 15.10.2019
6248 Haze 26 1014 57 3000 1 30 15:37 15.10.2019
6249 Haze 27 1013 57 3000 1 20 15:19 15.10.2019
6250 Haze 27 1013 51 3500 1 30 14:38 15.10.2019
6251 Haze 28 1013 51 3500 1 50 14:20 15.10.2019
6252 Haze 29 1013 45 3500 1.5 60 13:59 15.10.2019
6253 Haze 29 1013 45 3500 1.5 60 13:40 15.10.2019
6254 Haze 30 1013 48 3500 1.5 70 13:20 15.10.2019
6255 Haze 30 1013 51 3500 1 50 12:44 15.10.2019
6256 Haze 31 1013 45 3500 1 80 12:22 15.10.2019
6257 Haze 31 1013 48 3500 2.1 90 11:58 15.10.2019
6258 Haze 31 1013 45 3500 2.1 80 11:40 15.10.2019
6259 Haze 31 1013 45 3500 2.1 80 11:19 15.10.2019
6260 Haze 31 1013 43 3500 1.5 80 10:46 15.10.2019
6261 Haze 31 1014 45 3500 1.5 40 10:23 15.10.2019
6262 Haze 31 1014 45 3000 2.6 100 09:59 15.10.2019
6263 Haze 31 1014 45 3000 2.6 100 09:40 15.10.2019
6264 Haze 31 1014 45 3000 2.1 100 09:20 15.10.2019
6265 Haze 30 1015 55 3000 2.1 100 08:57 15.10.2019
6266 Haze 30 1015 55 3000 2.1 80 08:37 15.10.2019
6267 Haze 30 1015 55 3000 2.1 80 08:18 15.10.2019
6268 Haze 30 1016 62 3000 1.5 120 07:43 15.10.2019
6269 Haze 29 1016 62 3000 1 120 07:22 15.10.2019
6270 Haze 28 1016 61 3000 1 80 06:55 15.10.2019
6271 Haze 28 1016 61 3000 1 80 06:37 15.10.2019
6272 Haze 26 1016 65 3000 1 30 05:56 15.10.2019
6273 Haze 26 1016 65 3000 1 30 05:36 15.10.2019
6274 Haze 24 1016 69 3000 2.14 57.796 04:40 15.10.2019
6275 Haze 22 1015 78 3000 2.14 57.796 03:59 15.10.2019
6276 Haze 21 1015 77 3000 2.14 57.796 03:30 15.10.2019
6277 Haze 20 1014 82 3000 2.41 36.851 01:51 15.10.2019
6278 Haze 20 1014 82 3000 2.81 30.684 01:24 15.10.2019
6279 Haze 19 1014 88 3000 2.81 30.684 00:52 15.10.2019
6280 Haze 21 1013 77 3000 2.81 30.684 00:24 15.10.2019
6281 Haze 21 1013 77 3000 2.77 15.442 23:46 14.10.2019
6282 Haze 22 1014 73 3000 2.77 15.442 23:21 14.10.2019
6283 Haze 22 1014 73 3000 2.77 15.442 22:59 14.10.2019
6284 Haze 22 1014 73 3000 2.77 15.442 22:39 14.10.2019
6285 Haze 21 1014 77 3000 2.77 15.442 22:19 14.10.2019
6286 Haze 21 1014 77 3000 2.77 15.442 21:56 14.10.2019
6287 Haze 21 1014 77 3000 2.77 15.442 21:38 14.10.2019
6288 Haze 22 1014 73 3000 2.87 14.965 21:20 14.10.2019
6289 Haze 22 1014 73 3000 2.87 14.965 21:20 14.10.2019
6290 Haze 22 1014 73 3000 3 9.603 20:55 14.10.2019
6291 Haze 22 1014 73 3000 3 9.603 20:37 14.10.2019
6292 Haze 23 1014 69 3000 3 9.603 20:18 14.10.2019
6293 Haze 23 1014 69 3000 3.003 9 19:42 14.10.2019
6294 Haze 23 1014 73 3000 3.003 9 19:23 14.10.2019
6295 Haze 24 1014 64 3000 3 9.603 18:59 14.10.2019
6296 Haze 25 1014 61 3000 3 9.603 18:39 14.10.2019
6297 Haze 25 1014 61 3000 2.54 36.938 18:19 14.10.2019
6298 Haze 25 1014 61 3000 2.54 36.938 18:19 14.10.2019
6299 Haze 25 1014 61 3000 2.54 36.938 18:19 14.10.2019
6300 Haze 25 1014 61 3000 2.54 36.938 17:57 14.10.2019
6301 Haze 25 1014 61 3000 5.7 60 17:39 14.10.2019
6302 Haze 25 1014 61 3000 5.7 60 17:20 14.10.2019
6303 Haze 25 1014 65 3000 5.7 60 16:44 14.10.2019
6304 Haze 25 1014 65 3000 5.7 60 16:44 14.10.2019
6305 Haze 25 1014 57 3000 2.54 36.938 16:21 14.10.2019
6306 Haze 25 1014 57 4000 2.54 36.938 15:54 14.10.2019
6307 Haze 26 1013 50 4000 2.54 36.938 15:36 14.10.2019
6308 Haze 26 1013 50 4000 2.58 22.663 15:18 14.10.2019
6309 Haze 29 1013 39 5000 2.58 22.663 14:43 14.10.2019
6310 Haze 29 1013 39 5000 2.58 22.663 14:23 14.10.2019
6311 Haze 30 1013 37 5000 1.5 40 13:44 14.10.2019
6312 Haze 30 1013 37 5000 1.5 40 13:22 14.10.2019
6313 Haze 31 1013 33 5000 1.5 20 12:56 14.10.2019
6314 Haze 31 1013 33 5000 1.5 20 12:56 14.10.2019
6315 Haze 31 1013 31 5000 2.1 20 12:37 14.10.2019
6316 Haze 31 1013 31 5000 2.1 20 12:18 14.10.2019
6317 Haze 31 1013 33 5000 2.6 60 11:45 14.10.2019
6318 Haze 32 1013 25 5000 2.6 50 11:26 14.10.2019
6319 Haze 32 1013 25 5000 1.5 50 10:57 14.10.2019
6320 Haze 31 1014 33 5000 2.1 70 10:38 14.10.2019
6321 Haze 31 1014 33 5000 2.1 70 10:19 14.10.2019
6322 Haze 31 1014 33 5000 2.1 70 09:42 14.10.2019
6323 Haze 31 1014 33 5000 2.1 70 09:42 14.10.2019
6324 Haze 32 1015 33 5000 1.5 70 09:21 14.10.2019
6325 Haze 31 1015 38 5000 1.5 40 08:51 14.10.2019
6326 Haze 31 1016 38 5000 1.5 70 08:23 14.10.2019
6327 Haze 30 1017 45 5000 2.1 50 07:47 14.10.2019
6328 Haze 30 1017 45 5000 2.1 50 07:47 14.10.2019
6329 Haze 30 1017 45 4000 1.5 50 07:26 14.10.2019
6330 Haze 29 1017 48 4000 1.5 80 06:59 14.10.2019
6331 Haze 28 1017 58 3000 2.73 57.038 06:29 14.10.2019
6332 Haze 26 1017 61 3000 1.5 20 05:57 14.10.2019
6333 Haze 25 1017 61 3000 1.5 10 05:29 14.10.2019
6334 Haze 23 1016 73 3000 2.9 24.253 04:34 14.10.2019
6335 Haze 20 1015 82 2500 1.63 43.56 03:26 14.10.2019
6336 Haze 21 1014 77 2500 1.63 43.56 02:34 14.10.2019
6337 Haze 22 1014 68 2500 1 360 01:22 14.10.2019
6338 Haze 22 1014 68 2500 1 350 00:45 14.10.2019
6339 Haze 23 1014 60 2500 2.1 350 00:19 14.10.2019
6340 Haze 23 1014 69 2500 1 340 23:44 13.10.2019
6341 Haze 24 1014 69 2500 2.1 330 23:20 13.10.2019
6342 Haze 24 1014 69 2500 2.1 330 23:20 13.10.2019
6343 Haze 25 1014 78 2500 2.1 310 22:58 13.10.2019
6344 Haze 25 1014 78 2500 2.1 310 22:40 13.10.2019
6345 Haze 25 1014 78 2500 2.1 310 22:21 13.10.2019
6346 Haze 26 1014 78 2500 1.5 340 21:57 13.10.2019
6347 Haze 25 1014 88 2500 1.5 10 21:37 13.10.2019
6348 Haze 25 1014 88 2500 1.5 10 21:37 13.10.2019
6349 Haze 25 1014 88 2500 1.5 10 21:18 13.10.2019
6350 -273 0 0 0 0 0 20:57 13.10.2019
6351 Haze 26 1015 78 2500 1 10 20:37 13.10.2019
6352 Haze 26 1015 78 2500 1 10 20:19 13.10.2019
6353 Haze 26 1015 78 2500 1.5 310 19:56 13.10.2019
6354 Haze 26 1015 78 2500 1.5 310 19:56 13.10.2019
6355 Haze 26 1015 78 2500 1.5 310 19:56 13.10.2019
6356 Haze 26 1015 78 2500 1.5 310 19:55 13.10.2019
6357 Haze 25 1015 83 2500 2.05 20.576 19:37 13.10.2019
6358 Haze 25 1015 83 2500 2.05 20.576 19:37 13.10.2019
6359 Haze 25 1015 83 2500 2.05 20.576 19:19 13.10.2019
6360 Haze 26 1015 78 2500 2.05 20.576 18:55 13.10.2019
6361 Haze 26 1015 78 2500 2.05 20.576 18:55 13.10.2019
6362 Haze 26 1015 78 2500 2.05 20.576 18:36 13.10.2019
6363 Haze 26 1015 78 2500 1.49 115.256 18:18 13.10.2019
6364 Haze 26 1014 74 2500 1.49 115.256 17:43 13.10.2019
6365 Haze 26 1014 78 2500 1.49 115.256 17:25 13.10.2019
6366 Haze 26 1014 78 2500 1.49 115.256 16:56 13.10.2019
6367 Haze 26 1013 78 2500 1.49 115.256 16:36 13.10.2019
6368 Haze 26 1013 78 2500 1.49 115.256 16:18 13.10.2019
6369 Haze 27 1012 69 2500 1 90 15:55 13.10.2019
6370 Haze 27 1012 69 2500 1 90 15:55 13.10.2019
6371 Haze 27 1012 69 2500 1 90 15:36 13.10.2019
6372 Haze 27 1012 69 2500 1 90 15:18 13.10.2019
6373 Haze 29 1012 62 2500 1 100 14:40 13.10.2019
6374 Haze 29 1012 62 2500 1 100 14:22 13.10.2019
6375 Haze 29 1012 66 2500 1 100 13:59 13.10.2019
6376 Haze 30 1012 62 2500 1.5 100 13:39 13.10.2019
6377 Haze 30 1012 62 2500 1.5 100 13:21 13.10.2019
6378 Haze 30 1011 58 2500 1.5 100 12:56 13.10.2019
6379 Haze 31 1011 55 3000 0.5 100 12:38 13.10.2019
6380 Haze 31 1011 55 3000 0.5 100 12:19 13.10.2019
6381 Haze 31 1012 55 3000 1 90 11:56 13.10.2019
6382 Haze 31 1012 52 3000 1 20 11:38 13.10.2019
6383 Haze 31 1012 52 3000 1 20 11:19 13.10.2019
6384 Haze 31 1013 55 3000 2.55 6.444 10:42 13.10.2019
6385 Haze 30 1013 58 3000 2.55 6.444 10:23 13.10.2019
6386 Haze 30 1013 58 2500 1.5 40 09:56 13.10.2019
6387 Haze 31 1014 55 2500 1 360 09:37 13.10.2019
6388 Haze 31 1014 55 2500 1 360 09:19 13.10.2019
6389 Haze 30 1014 62 2500 1 360 08:43 13.10.2019
6390 Haze 30 1015 62 2500 2.1 60 08:21 13.10.2019
6391 Haze 30 1015 62 2000 1 10 07:46 13.10.2019
6392 Haze 30 1015 62 2000 1.5 100 07:23 13.10.2019
6393 Mist 28 1016 69 2000 1 30 06:42 13.10.2019
6394 Mist 27 1016 74 2000 2.69 35.151 05:49 13.10.2019
6395 Mist 26 1015 74 2000 2.69 35.151 04:52 13.10.2019
6396 Mist 25 1015 83 2000 2.69 35.151 04:32 13.10.2019
6397 Mist 23 1014 88 2000 1.77 8.643 02:42 13.10.2019
6398 Mist 23 1014 88 2000 1.77 8.643 02:42 13.10.2019
6399 Mist 23 1013 88 2000 1.77 8.643 01:59 13.10.2019
6400 Mist 23 1013 88 2000 1.77 8.643 01:30 13.10.2019
6401 Mist 23 1013 94 2000 2.45 19.033 00:49 13.10.2019
6402 Mist 23 1012 88 2000 2.38 7.568 00:22 13.10.2019
6403 Mist 23 1013 88 2000 2.38 7.568 23:57 12.10.2019
6404 Mist 24 1013 83 2000 2.38 7.568 23:39 12.10.2019
6405 Mist 24 1013 83 2000 2.38 7.568 23:19 12.10.2019
6406 Mist 24 1013 88 2000 2.38 7.568 22:57 12.10.2019
6407 Mist 25 1013 83 2000 2.38 7.568 22:38 12.10.2019
6408 Mist 25 1013 83 2000 2.38 7.568 22:20 12.10.2019
6409 Mist 25 1013 78 2000 2.38 7.568 21:55 12.10.2019
6410 Mist 25 1013 78 2000 2.38 7.568 21:37 12.10.2019
6411 Mist 25 1013 78 2000 1.28 30.933 21:18 12.10.2019
6412 Haze 25 1014 78 2500 1.83 22.844 20:40 12.10.2019
6413 Haze 25 1014 78 2500 1.83 22.844 20:22 12.10.2019
6414 Haze 25 1014 78 2500 1.83 22.844 19:38 12.10.2019
6415 Haze 25 1014 78 2500 1.83 22.844 19:20 12.10.2019
6416 Haze 25 1014 78 2500 1.83 22.844 18:57 12.10.2019
6417 Haze 25 1014 73 2500 1.83 22.844 18:39 12.10.2019
6418 Haze 25 1014 73 2500 1.83 43.048 18:20 12.10.2019
6419 Haze 26 1014 74 2500 1.83 43.048 17:43 12.10.2019
6420 Haze 26 1014 74 2500 1.83 43.048 17:19 12.10.2019
6421 Haze 26 1013 69 2500 1.83 43.048 16:54 12.10.2019
6422 Haze 27 1013 65 2500 1.83 43.048 16:36 12.10.2019
6423 Haze 27 1013 65 2500 1.83 43.048 16:18 12.10.2019
6424 Haze 27 1012 69 2500 1.83 43.048 15:40 12.10.2019
6425 Haze 27 1012 69 2500 2.85 61.949 15:22 12.10.2019
6426 Haze 28 1012 61 2500 2.85 61.949 14:43 12.10.2019
6427 Haze 29 1011 54 3000 1 50 14:22 12.10.2019
6428 Haze 29 1011 54 3000 1 50 13:57 12.10.2019
6429 Haze 30 1011 48 3000 1 50 13:38 12.10.2019
6430 Haze 30 1011 48 3000 1 50 13:20 12.10.2019
6431 Haze 31 1011 52 3000 1.5 60 12:39 12.10.2019
6432 Haze 31 1011 52 3000 1.5 60 12:21 12.10.2019
6433 Haze 31 1011 52 3000 1.5 60 11:58 12.10.2019
6434 Haze 31 1011 52 3000 2.6 20 11:38 12.10.2019
6435 Haze 31 1011 52 3000 2.6 20 11:19 12.10.2019
6436 -273 0 0 0 0 0 10:41 12.10.2019
6437 Haze 31 1012 55 3000 2.1 100 10:23 12.10.2019
6438 Haze 31 1013 55 2500 1.5 70 09:58 12.10.2019
6439 Haze 31 1013 55 2500 1.5 70 09:57 12.10.2019
6440 Haze 31 1013 58 2500 1.5 50 09:39 12.10.2019
6441 Haze 31 1013 58 2500 1.5 50 09:20 12.10.2019
6442 Haze 30 1014 62 2500 2.1 70 08:56 12.10.2019
6443 -273 0 0 0 0 0 08:55 12.10.2019
6444 Haze 30 1014 58 2500 2.6 80 08:36 12.10.2019
6445 Haze 30 1014 58 2500 2.6 80 08:18 12.10.2019
6446 Haze 29 1015 66 2500 2.07 61.376 07:33 12.10.2019
6447 Haze 28 1015 69 2500 2.07 61.376 06:44 12.10.2019
6448 Haze 26 1015 74 2500 3.12 31.941 05:46 12.10.2019
6449 Mist 25 1014 73 2500 3.12 31.941 04:47 12.10.2019
6450 Mist 23 1014 83 2500 3.12 31.941 03:57 12.10.2019
6451 Mist 23 1013 83 2500 2.03 12.84 02:57 12.10.2019
6452 Mist 23 1012 88 2500 2.39 13.856 01:36 12.10.2019
6453 Mist 22 1012 94 2500 2.39 13.856 00:58 12.10.2019
6454 Mist 23 1012 88 2500 2.39 13.856 00:39 12.10.2019
6455 Mist 23 1012 88 2500 2.26 10.972 23:57 11.10.2019
6456 Mist 23 1012 88 2500 2.26 10.972 23:38 11.10.2019
6457 Mist 23 1012 88 2500 2.26 10.972 23:19 11.10.2019
6458 Mist 24 1012 88 2000 1 20 22:39 11.10.2019
6459 Mist 24 1012 88 2000 1 20 22:21 11.10.2019
6460 Mist 23 1012 94 2000 2.26 10.972 21:55 11.10.2019
6461 Mist 23 1012 94 2000 2.26 10.972 21:36 11.10.2019
6462 Mist 23 1012 94 2000 2.07 10.295 21:18 11.10.2019
6463 Haze 24 1012 88 2500 1.85 12.841 20:43 11.10.2019
6464 Haze 25 1012 83 3000 1.85 12.841 20:25 11.10.2019
6465 Haze 25 1012 83 3000 1.85 12.841 19:56 11.10.2019
6466 Haze 25 1012 83 3000 1.85 12.841 19:38 11.10.2019
6467 Haze 25 1012 83 3000 1.85 12.841 19:18 11.10.2019
6468 Haze 26 1013 78 3000 1 100 18:56 11.10.2019
6469 Haze 26 1013 78 3000 1 100 18:37 11.10.2019
6470 Haze 26 1013 78 3000 1 100 18:18 11.10.2019
6471 Haze 26 1013 78 3000 1 100 17:57 11.10.2019
6472 Haze 26 1012 78 3000 1 100 17:37 11.10.2019
6473 Haze 26 1012 78 3000 1 100 17:18 11.10.2019
6474 Haze 27 1011 69 3000 1 100 16:42 11.10.2019
6475 Haze 27 1011 69 3000 1 100 16:21 11.10.2019
6476 Haze 26 1011 74 3000 1.5 90 15:59 11.10.2019
6477 Haze 27 1010 65 4000 1.5 80 15:39 11.10.2019
6478 Haze 27 1010 65 4000 1.5 80 15:19 11.10.2019
6479 Haze 28 1010 61 4000 1.5 40 14:48 11.10.2019
6480 Haze 29 1010 54 4000 2.1 40 14:29 11.10.2019
6481 Haze 30 1010 48 4000 1 20 13:57 11.10.2019
6482 Haze 31 1010 45 4000 1.5 20 13:39 11.10.2019
6483 Haze 31 1010 45 4000 1.5 20 13:21 11.10.2019
6484 Haze 31 1010 45 4000 1.5 20 13:21 11.10.2019
6485 Haze 30 1010 58 4000 1 40 12:56 11.10.2019
6486 Haze 30 1010 58 4000 1 40 12:38 11.10.2019
6487 Haze 30 1010 58 4000 1 40 12:19 11.10.2019
6488 Haze 31 1010 55 4000 1 30 11:41 11.10.2019
6489 Haze 31 1010 55 4000 1 30 11:22 11.10.2019
6490 Haze 31 1011 52 4000 1 70 10:58 11.10.2019
6491 Haze 31 1011 52 4000 1 70 10:58 11.10.2019
6492 Haze 31 1011 48 4000 1.5 100 10:40 11.10.2019
6493 Haze 31 1011 48 4000 1.5 100 10:22 11.10.2019
6494 Haze 31 1012 52 4000 1.5 130 09:55 11.10.2019
6495 Haze 31 1012 52 4000 1.9 86.102 09:37 11.10.2019
6496 Haze 31 1012 52 4000 2.66 71.245 09:19 11.10.2019
6497 Haze 31 1013 52 4000 1.5 130 08:55 11.10.2019
6498 Haze 29 1014 62 4000 2.1 110 08:36 11.10.2019
6499 Haze 29 1014 62 4000 2.1 110 08:18 11.10.2019
6500 Haze 29 1014 62 4000 1.5 110 07:41 11.10.2019
6501 Haze 29 1014 62 4000 1.5 110 07:22 11.10.2019
6502 Haze 29 1014 62 4000 1 120 06:47 11.10.2019
6503 Haze 28 1014 65 4000 1 70 06:22 11.10.2019
6504 Haze 27 1014 69 3000 1 30 05:39 11.10.2019
6505 Haze 26 1014 69 3000 1 30 04:59 11.10.2019
6506 Haze 25 1013 73 3000 1 30 04:24 11.10.2019
6507 Haze 23 1012 83 2500 2.52 11.694 02:19 11.10.2019
6508 Haze 24 1012 78 2500 2.1 310 00:47 11.10.2019
6509 Haze 24 1012 83 3000 2.56 15.126 00:27 11.10.2019
6510 Haze 24 1012 83 3000 2.27 4.118 23:43 10.10.2019
6511 Haze 24 1012 83 3000 2.27 4.118 23:21 10.10.2019
6512 Haze 24 1012 83 3000 2.27 4.118 22:57 10.10.2019
6513 Haze 24 1012 83 3000 2.27 4.118 22:57 10.10.2019
6514 Haze 24 1012 88 3000 2.27 4.118 22:39 10.10.2019
6515 Haze 24 1012 88 3000 2.27 4.118 22:20 10.10.2019
6516 Haze 24 1012 88 3000 2.27 4.118 21:57 10.10.2019
6517 Haze 25 1013 83 3000 2.27 4.118 21:38 10.10.2019
6518 Haze 25 1013 83 3000 2.02 26.044 21:20 10.10.2019
6519 Haze 25 1013 83 3000 2.27 17.112 20:42 10.10.2019
6520 Haze 25 1013 83 3000 2.27 17.112 20:21 10.10.2019
6521 Haze 25 1013 83 3000 2.27 17.112 19:58 10.10.2019
6522 Haze 25 1013 83 3000 2.27 17.112 19:40 10.10.2019
6523 Haze 25 1013 83 3000 2.27 17.112 19:40 10.10.2019
6524 Haze 25 1013 83 3000 2.27 17.112 19:20 10.10.2019
6525 Haze 25 1013 83 3000 2.27 17.112 19:20 10.10.2019
6526 Haze 25 1013 83 3000 2.27 17.112 18:57 10.10.2019
6527 Haze 25 1012 83 3000 2.27 17.112 18:38 10.10.2019
6528 Haze 25 1012 83 3000 1.22 26.796 18:19 10.10.2019
6529 Haze 26 1012 78 3000 1.22 26.796 17:41 10.10.2019
6530 Haze 26 1012 78 3000 1.22 26.796 17:20 10.10.2019
6531 Haze 26 1012 78 3000 1.22 26.796 16:59 10.10.2019
6532 Haze 26 1011 78 3000 1.22 26.796 16:41 10.10.2019
6533 Haze 26 1011 78 3000 1.22 26.796 16:22 10.10.2019
6534 Haze 27 1011 69 3000 1.22 26.796 15:44 10.10.2019
6535 Haze 27 1011 61 3000 1.22 26.796 15:25 10.10.2019
6536 Haze 29 1010 51 3000 1.59 3.146 14:59 10.10.2019
6537 Haze 30 1010 48 4000 1 30 14:38 10.10.2019
6538 Haze 30 1010 48 4000 1 30 14:38 10.10.2019
6539 Haze 30 1010 48 4000 1 30 14:38 10.10.2019
6540 Haze 30 1010 48 4000 1 30 14:19 10.10.2019
6541 Haze 31 1010 52 4000 2.1 350 13:59 10.10.2019
6542 Haze 31 1010 52 4000 2.1 350 13:40 10.10.2019
6543 Haze 31 1010 52 4000 2.1 350 13:19 10.10.2019
6544 Haze 31 1010 48 4000 1 10 12:55 10.10.2019
6545 Haze 31 1010 48 4000 1.5 30 12:37 10.10.2019
6546 Haze 31 1010 48 4000 1.5 30 12:18 10.10.2019
6547 Haze 31 1011 55 4000 1.5 60 11:42 10.10.2019
6548 Haze 31 1011 55 4000 1.5 60 11:21 10.10.2019
6549 Haze 31 1011 48 4000 1 310 10:59 10.10.2019
6550 Haze 31 1011 48 4000 1 310 10:41 10.10.2019
6551 Haze 31 1011 48 4000 1 310 10:22 10.10.2019
6552 Haze 31 1012 55 4000 2.6 50 09:54 10.10.2019
6553 Haze 31 1012 52 4000 2.69 32.613 09:36 10.10.2019
6554 Haze 31 1012 52 4000 2.79 50.712 09:18 10.10.2019
6555 Haze 30 1013 55 4000 1.5 20 08:41 10.10.2019
6556 Haze 30 1013 55 4000 1.5 20 08:21 10.10.2019
6557 Haze 29 1014 62 4000 1 60 07:58 10.10.2019
6558 Haze 29 1014 62 4000 1.5 60 07:37 10.10.2019
6559 Haze 29 1014 62 4000 1.5 60 07:19 10.10.2019
6560 Haze 27 1014 65 4000 1 40 06:40 10.10.2019
6561 Haze 27 1014 65 4000 1.5 30 05:57 10.10.2019
6562 Haze 26 1014 69 4000 1.5 360 05:22 10.10.2019
6563 Haze 24 1014 78 4000 1.5 20 04:37 10.10.2019
6564 Haze 22 1012 88 3000 1.5 320 02:49 10.10.2019
6565 Haze 23 1011 83 3000 1 10 01:41 10.10.2019
6566 Haze 23 1011 83 3000 1 10 01:41 10.10.2019
6567 Haze 23 1011 83 3000 1 10 01:22 10.10.2019
6568 Haze 24 1011 78 3000 1 10 00:41 10.10.2019
6569 Haze 24 1011 78 3000 1 10 00:19 10.10.2019
6570 Haze 24 1012 83 3000 1 10 23:38 09.10.2019
6571 Haze 24 1012 83 3000 1 10 23:19 09.10.2019
6572 Haze 24 1012 83 3000 1 10 23:19 09.10.2019
6573 Haze 24 1012 88 3000 1 20 22:42 09.10.2019
6574 Haze 24 1012 88 3000 1 20 22:23 09.10.2019
6575 Haze 25 1012 83 3000 1.5 20 21:59 09.10.2019
6576 Haze 25 1012 88 3000 2.1 20 21:39 09.10.2019
6577 Haze 25 1012 88 3000 2.1 20 21:19 09.10.2019
6578 Haze 25 1012 88 3000 2.1 350 20:55 09.10.2019
6579 Haze 25 1012 88 3000 2.51 12.848 20:37 09.10.2019
6580 Haze 25 1012 88 3000 2.51 12.848 20:18 09.10.2019
6581 Haze 25 1012 88 3000 2.51 12.848 20:18 09.10.2019
6582 Haze 25 1012 88 3000 2.51 12.848 20:18 09.10.2019
6583 Haze 25 1012 88 3000 2.51 12.848 19:45 09.10.2019
6584 Haze 25 1012 88 3000 1 80 19:23 09.10.2019
6585 Haze 25 1012 83 3000 1 80 18:57 09.10.2019
6586 Haze 25 1012 88 3000 1 80 18:37 09.10.2019
6587 Haze 25 1012 88 3000 1 80 18:18 09.10.2019
6588 Haze 25 1012 88 3000 1 80 17:54 09.10.2019
6589 Haze 26 1012 83 3000 1 170 17:36 09.10.2019
6590 Haze 26 1012 83 3000 1 170 17:18 09.10.2019
6591 Haze 26 1011 78 3000 1.5 180 16:40 09.10.2019
6592 Haze 26 1011 78 3000 1.5 180 16:22 09.10.2019
6593 Haze 27 1011 74 3000 1.16 79.341 15:58 09.10.2019
6594 Haze 28 1010 65 3000 1.16 79.341 15:39 09.10.2019
6595 Haze 28 1010 65 3000 1.55 8.915 15:19 09.10.2019
6596 Haze 29 1010 62 3000 1 10 14:56 09.10.2019
6597 Haze 29 1010 66 3000 2.1 10 14:37 09.10.2019
6598 Haze 29 1010 66 3000 2.1 10 14:18 09.10.2019
6599 Haze 30 1009 62 3000 1.5 20 13:39 09.10.2019
6600 Haze 30 1009 62 3000 1.5 20 13:20 09.10.2019
6601 Haze 30 1009 58 3000 2.6 50 12:58 09.10.2019
6602 Haze 31 1010 55 2500 1.5 30 12:40 09.10.2019
6603 Haze 31 1010 55 2500 1.5 30 12:21 09.10.2019
6604 Haze 31 1010 58 2500 1.5 30 11:55 09.10.2019
6605 Haze 31 1010 58 2500 1.5 30 11:55 09.10.2019
6606 Haze 30 1011 58 2500 1.5 50 11:36 09.10.2019
6607 Haze 30 1011 58 2500 1.5 50 11:18 09.10.2019
6608 Haze 30 1011 66 2500 2.1 30 10:42 09.10.2019
6609 Haze 30 1011 66 2500 2.1 30 10:20 09.10.2019
6610 Haze 29 1012 70 2500 2.6 50 09:57 09.10.2019
6611 Haze 29 1012 70 2500 1.5 30 09:38 09.10.2019
6612 Haze 29 1012 70 2500 1.5 30 09:18 09.10.2019
6613 Haze 29 1013 70 3000 3.71 72.63 08:39 09.10.2019
6614 Haze 29 1014 70 3000 1.5 60 08:20 09.10.2019
6615 Haze 29 1014 70 3000 1.5 60 07:47 09.10.2019
6616 Haze 28 1014 74 3000 4.6 140 07:25 09.10.2019
6617 Haze 28 1014 74 3000 4.6 140 07:25 09.10.2019
6618 Haze 28 1014 74 3000 4.6 140 07:25 09.10.2019
6619 Haze 27 1014 74 3000 4.6 140 06:59 09.10.2019
6620 Haze 27 1014 74 3000 1 30 06:41 09.10.2019
6621 Haze 27 1014 74 3000 3.37 44.88 05:53 09.10.2019
6622 Haze 26 1014 74 4000 3.37 44.88 05:18 09.10.2019
6623 Haze 23 1013 78 2500 1 20 03:48 09.10.2019
6624 Haze 23 1012 78 3000 3.16 16.756 02:35 09.10.2019
6625 Haze 24 1012 73 3000 3.16 16.756 01:39 09.10.2019
6626 Haze 24 1012 73 3000 3.15 19.16 01:19 09.10.2019
6627 Haze 24 1012 73 3000 1 10 00:55 09.10.2019
6628 Haze 24 1012 73 3000 1 10 00:55 09.10.2019
6629 Haze 24 1012 73 3000 1 10 00:36 09.10.2019
6630 Haze 24 1012 73 3000 1 10 00:18 09.10.2019
6631 Haze 24 1012 78 3000 1.5 340 23:38 08.10.2019
6632 Haze 24 1012 78 3000 1.5 340 23:18 08.10.2019
6633 Haze 25 1012 73 3000 1 350 22:55 08.10.2019
6634 Haze 25 1012 69 3000 1.5 20 22:36 08.10.2019
6635 Haze 25 1012 69 3000 1.5 20 22:18 08.10.2019
6636 Haze 25 1012 69 3000 1.5 10 21:55 08.10.2019
6637 Haze 25 1012 69 3000 1 10 21:36 08.10.2019
6638 Haze 25 1012 69 3000 1 10 21:18 08.10.2019
6639 Haze 25 1013 73 3000 1 20 20:55 08.10.2019
6640 Haze 25 1013 73 3000 1 20 20:55 08.10.2019
6641 Haze 26 1013 69 3000 1 10 20:36 08.10.2019
6642 Haze 26 1013 69 3000 1 10 20:18 08.10.2019
6643 Haze 26 1013 65 3000 1 20 19:42 08.10.2019
6644 Haze 26 1013 65 3000 1 20 19:24 08.10.2019
6645 Haze 26 1013 69 3000 1 40 18:59 08.10.2019
6646 Haze 26 1013 69 3000 1 30 18:41 08.10.2019
6647 Haze 26 1013 69 3000 1 30 18:22 08.10.2019
6648 Haze 26 1013 69 3000 1 30 17:56 08.10.2019
6649 Haze 26 1013 69 3000 1 30 17:56 08.10.2019
6650 Haze 26 1013 69 3000 3.37 17.436 17:38 08.10.2019
6651 Haze 26 1013 69 3000 3.37 17.436 17:18 08.10.2019
6652 Haze 25 1012 78 3000 3.37 17.436 16:41 08.10.2019
6653 Haze 26 1012 74 3000 3.37 17.436 16:22 08.10.2019
6654 Haze 27 1011 69 3000 3.37 17.436 15:57 08.10.2019
6655 Haze 28 1011 61 3000 3.37 17.436 15:38 08.10.2019
6656 Haze 28 1011 61 3000 2.86 9.07 15:19 08.10.2019
6657 Haze 28 1011 61 3000 2.86 9.07 14:42 08.10.2019
6658 Haze 28 1011 61 3000 2.86 9.07 14:42 08.10.2019
6659 Haze 29 1010 62 3000 2.86 9.07 14:22 08.10.2019
6660 Haze 30 1010 55 3000 1 10 13:59 08.10.2019
6661 Haze 30 1010 58 4000 1 20 13:39 08.10.2019
6662 Haze 30 1010 58 4000 1 20 13:21 08.10.2019
6663 Haze 30 1010 58 4000 1 20 12:59 08.10.2019
6664 Haze 30 1010 58 4000 2.1 50 12:40 08.10.2019
6665 Haze 30 1010 58 4000 2.1 50 12:20 08.10.2019
6666 Haze 31 1010 55 4000 1 340 11:56 08.10.2019
6667 Haze 31 1011 55 5000 1 10 11:37 08.10.2019
6668 Haze 31 1011 55 5000 1 10 11:19 08.10.2019
6669 Haze 31 1011 55 5000 1 10 10:40 08.10.2019
6670 Haze 30 1011 58 5000 1 10 10:22 08.10.2019
6671 Haze 31 1012 55 5000 2.1 40 09:58 08.10.2019
6672 Haze 30 1012 58 5000 2.1 50 09:40 08.10.2019
6673 Haze 30 1012 58 5000 2.1 50 09:20 08.10.2019
6674 Haze 30 1013 62 5000 1.5 90 08:44 08.10.2019
6675 Haze 30 1013 62 5000 2.1 40 08:25 08.10.2019
6676 Haze 29 1014 62 5000 1.5 40 07:47 08.10.2019
6677 Haze 29 1014 62 5000 2.1 20 07:23 08.10.2019
6678 Haze 29 1014 62 4000 1 60 06:56 08.10.2019
6679 Haze 28 1014 69 4000 1 70 06:34 08.10.2019
6680 Haze 27 1014 69 4000 2.6 20 05:57 08.10.2019
6681 Haze 27 1014 69 4000 2.6 20 05:57 08.10.2019
6682 Haze 27 1014 69 4000 2.6 20 05:38 08.10.2019
6683 Haze 26 1014 74 3000 2.6 20 04:42 08.10.2019
6684 Haze 24 1012 83 3000 1 140 03:30 08.10.2019
6685 Haze 24 1012 83 3000 1 360 02:40 08.10.2019
6686 Haze 24 1012 83 3000 1 360 01:49 08.10.2019
6687 Haze 24 1011 83 3000 2.1 360 01:31 08.10.2019
6688 Haze 24 1011 83 3000 2.1 360 01:31 08.10.2019
6689 Haze 24 1011 88 3000 2.6 300 00:51 08.10.2019
6690 Haze 25 1011 83 3000 1 350 00:22 08.10.2019
6691 Haze 25 1011 83 3000 1 340 23:42 07.10.2019
6692 Haze 25 1011 78 3000 1 20 23:21 07.10.2019
6693 Haze 25 1011 78 3000 1 20 23:21 07.10.2019
6694 Haze 26 1012 74 3000 1 360 22:58 07.10.2019
6695 Haze 26 1012 74 3000 2.75 1.645 22:40 07.10.2019
6696 Haze 26 1012 74 3000 2.75 1.645 22:21 07.10.2019
6697 Haze 26 1012 78 3000 2.75 1.645 21:58 07.10.2019
6698 Haze 26 1013 78 3000 1 20 21:39 07.10.2019
6699 Haze 26 1013 78 3000 1 20 21:20 07.10.2019
6700 Haze 26 1013 78 3000 1 360 20:58 07.10.2019
6701 Haze 26 1013 78 3000 1 360 20:39 07.10.2019
6702 Haze 26 1013 78 3000 1 360 20:20 07.10.2019
6703 Haze 26 1013 78 3000 1.5 20 19:58 07.10.2019
6704 Haze 27 1013 74 3000 1.5 350 19:40 07.10.2019
6705 Haze 27 1013 74 3000 1.5 350 19:19 07.10.2019
6706 Haze 27 1013 74 3000 1.5 360 18:56 07.10.2019
6707 Haze 27 1013 74 3000 1.5 360 18:56 07.10.2019
6708 Haze 27 1013 74 3000 2.1 300 18:38 07.10.2019
6709 Haze 27 1013 74 3000 2.1 300 18:18 07.10.2019
6710 Haze 27 1013 74 3000 2.1 300 18:18 07.10.2019
6711 Haze 27 1013 78 3000 2.33 6.979 17:43 07.10.2019
6712 Haze 27 1013 74 3000 2.33 6.979 17:20 07.10.2019
6713 Haze 27 1013 78 3000 2.33 6.979 16:57 07.10.2019
6714 Haze 28 1012 69 3000 2.33 6.979 16:38 07.10.2019
6715 Haze 28 1012 69 3000 2.33 6.979 16:20 07.10.2019
6716 Haze 28 1012 74 3000 2.33 6.979 15:45 07.10.2019
6717 Haze 28 1012 69 3000 2.33 6.979 15:25 07.10.2019
6718 Haze 29 1011 62 3000 2.88 5.236 14:55 07.10.2019
6719 Haze 30 1010 58 4000 2.88 5.236 14:37 07.10.2019
6720 Haze 30 1010 58 4000 2.88 5.236 14:18 07.10.2019
6721 Haze 31 1010 55 4000 1.5 40 13:41 07.10.2019
6722 Haze 31 1010 55 4000 1.5 40 13:19 07.10.2019
6723 Haze 31 1010 52 4000 1 30 12:55 07.10.2019
6724 Haze 31 1010 55 4000 1.5 40 12:37 07.10.2019
6725 Haze 31 1010 55 4000 1.5 40 12:18 07.10.2019
6726 -273 0 0 0 0 0 11:56 07.10.2019
6727 Haze 31 1011 58 4000 1.5 70 11:37 07.10.2019
6728 Haze 31 1011 58 4000 1.5 70 11:18 07.10.2019
6729 -273 0 0 0 0 0 10:41 07.10.2019
6730 Haze 31 1012 58 4000 1.5 50 10:20 07.10.2019
6731 Haze 31 1012 58 4000 2.6 70 09:42 07.10.2019
6732 Haze 30 1013 62 4000 1.5 70 09:23 07.10.2019
6733 Haze 30 1014 66 4000 1.5 80 08:57 07.10.2019
6734 Clear 29 1012 62 0 2.88 42.594 08:38 07.10.2019
6735 Haze 29 1015 70 5000 1.5 60 08:19 07.10.2019
6736 Haze 29 1015 70 5000 1.5 60 07:41 07.10.2019
6737 Haze 29 1015 70 5000 1.5 60 07:22 07.10.2019
6738 Haze 29 1015 70 5000 2.88 42.594 06:49 07.10.2019
6739 Haze 28 1015 74 5000 1.5 280 06:27 07.10.2019
6740 Haze 28 1015 74 5000 1 20 05:47 07.10.2019
6741 Haze 27 1014 78 5000 1.5 40 05:21 07.10.2019
6742 Haze 26 1014 83 4000 3.04 21.052 04:24 07.10.2019
6743 Haze 24 1013 88 4000 1 280 03:44 07.10.2019
6744 Haze 24 1013 88 4000 1 280 03:44 07.10.2019
6745 Haze 24 1013 88 4000 1 280 03:44 07.10.2019
6746 Haze 23 1013 94 3000 2.36 12.237 03:20 07.10.2019
6747 Haze 23 1012 94 3000 2.36 12.237 02:21 07.10.2019
6748 Haze 23 1012 94 3000 2.36 12.237 01:50 07.10.2019
6749 Haze 23 1012 94 3000 2.51 7.727 01:21 07.10.2019
6750 Haze 24 1012 88 3000 2.51 7.727 00:39 07.10.2019
6751 Haze 24 1012 88 3000 1.88 11.669 00:20 07.10.2019
6752 Haze 24 1012 88 3000 1.88 11.669 23:42 06.10.2019
6753 Haze 24 1012 88 3000 1.88 11.669 23:42 06.10.2019
6754 Haze 24 1012 88 3000 1.88 11.669 23:21 06.10.2019
6755 Haze 24 1012 88 3000 1.88 11.669 22:59 06.10.2019
6756 Haze 24 1012 88 3000 1.88 11.669 22:41 06.10.2019
6757 Haze 25 1012 88 3000 1.88 11.669 22:22 06.10.2019
6758 Haze 25 1012 83 3000 1.88 11.669 21:57 06.10.2019
6759 Haze 26 1013 78 3000 1.88 11.669 21:37 06.10.2019
6760 Haze 26 1013 78 3000 1.08 12.299 21:19 06.10.2019
6761 Haze 26 1013 78 3000 1.08 12.299 20:57 06.10.2019
6762 Haze 26 1013 83 3000 1.73 16.566 20:39 06.10.2019
6763 Haze 26 1013 83 3000 1.73 16.566 20:39 06.10.2019
6764 Haze 26 1013 83 3000 1.73 16.566 20:20 06.10.2019
6765 Haze 26 1013 83 3000 1.73 16.566 19:57 06.10.2019
6766 Haze 26 1013 83 3000 1.73 16.566 19:37 06.10.2019
6767 Haze 26 1013 83 3000 1.73 16.566 19:37 06.10.2019
6768 Haze 26 1013 83 3000 1.73 16.566 19:19 06.10.2019
6769 Haze 25 1013 88 3000 1.73 16.566 18:56 06.10.2019
6770 Haze 25 1013 88 3000 1.73 16.566 18:38 06.10.2019
6771 Haze 25 1013 88 3000 1.73 16.566 18:38 06.10.2019
6772 Haze 25 1013 88 3000 1.39 29.601 18:19 06.10.2019
6773 Haze 25 1013 88 3000 1.39 29.601 17:44 06.10.2019
6774 Haze 26 1012 83 3000 1.39 29.601 17:21 06.10.2019
6775 Haze 26 1012 83 3000 1.39 29.601 16:59 06.10.2019
6776 Haze 26 1012 83 3000 1.39 29.601 16:41 06.10.2019
6777 Haze 26 1012 83 3000 1.39 29.601 16:23 06.10.2019
6778 Haze 27 1010 74 3000 1 320 15:45 06.10.2019
6779 Haze 27 1010 74 3000 1 320 15:45 06.10.2019
6780 Haze 27 1010 74 3000 1 320 15:23 06.10.2019
6781 Haze 27 1010 74 3000 1 320 14:58 06.10.2019
6782 Haze 27 1010 74 3000 1 240 14:40 06.10.2019
6783 Haze 27 1010 74 3000 1 240 14:22 06.10.2019
6784 Haze 28 1010 74 4000 2.14 325.03 13:55 06.10.2019
6785 Haze 28 1010 74 4000 2.14 325.03 13:37 06.10.2019
6786 Haze 28 1010 74 4000 2.43 315.434 13:18 06.10.2019
6787 Haze 28 1009 69 4000 1.5 250 12:55 06.10.2019
6788 Haze 28 1009 69 4000 1.5 250 12:55 06.10.2019
6789 Haze 29 1009 66 4000 2.6 270 12:37 06.10.2019
6790 Haze 29 1009 66 4000 2.6 270 12:19 06.10.2019
6791 Haze 31 1009 55 4000 1.5 270 11:42 06.10.2019
6792 Haze 31 1010 62 4000 3.13 348.877 11:24 06.10.2019
6793 Haze 32 1010 55 4000 3.13 348.877 10:56 06.10.2019
6794 Haze 32 1010 55 4000 3.13 348.877 10:56 06.10.2019
6795 Haze 31 1011 55 4000 1 60 10:38 06.10.2019
6796 Haze 31 1011 55<